<?xml version="1.0" encoding="UTF-8" standalone="no" ?>
<gpx xmlns="http://www.topografix.com/GPX/1/1" xmlns:xsi="http://www.w3.org/2001/XMLSchema-instance" xsi:schemaLocation="http://www.topografix.com/GPX/1/1 http://www.topografix.com/GPX/1/1/gpx.xsd" version="1.1" creator="VisuGPX - https://www.visugpx.com">
  <metadata>
    <name>CMC Marche Nordique</name>
    <desc><![CDATA[Sortie marche nordique du mercredi.]]></desc>
  </metadata>
  <trk>
    <name><![CDATA[Colomiers Marche à pied]]></name>
    <trkseg>
      <trkpt lat="43.62739" lon="1.30217">
        <ele>153</ele>
        <time>2018-05-02T16:24:46.000Z</time>
      </trkpt>
      <trkpt lat="43.6274" lon="1.30215">
        <ele>153</ele>
        <time>2018-05-02T16:24:48.000Z</time>
      </trkpt>
      <trkpt lat="43.62742" lon="1.30213">
        <ele>153</ele>
        <time>2018-05-02T16:24:50.000Z</time>
      </trkpt>
      <trkpt lat="43.62744" lon="1.3021">
        <ele>153</ele>
        <time>2018-05-02T16:24:52.000Z</time>
      </trkpt>
      <trkpt lat="43.62745" lon="1.30207">
        <ele>153</ele>
        <time>2018-05-02T16:24:54.000Z</time>
      </trkpt>
      <trkpt lat="43.62745" lon="1.30204">
        <ele>153</ele>
        <time>2018-05-02T16:24:56.000Z</time>
      </trkpt>
      <trkpt lat="43.62744" lon="1.30203">
        <ele>153</ele>
        <time>2018-05-02T16:24:58.000Z</time>
      </trkpt>
      <trkpt lat="43.62743" lon="1.30202">
        <ele>153</ele>
        <time>2018-05-02T16:25:00.000Z</time>
      </trkpt>
      <trkpt lat="43.6274" lon="1.30201">
        <ele>153</ele>
        <time>2018-05-02T16:25:02.000Z</time>
      </trkpt>
      <trkpt lat="43.62739" lon="1.30198">
        <ele>153</ele>
        <time>2018-05-02T16:25:04.000Z</time>
      </trkpt>
      <trkpt lat="43.62738" lon="1.30197">
        <ele>153</ele>
        <time>2018-05-02T16:25:06.000Z</time>
      </trkpt>
      <trkpt lat="43.62738" lon="1.30197">
        <ele>153</ele>
        <time>2018-05-02T16:25:08.000Z</time>
      </trkpt>
      <trkpt lat="43.62738" lon="1.30198">
        <ele>153</ele>
        <time>2018-05-02T16:25:10.000Z</time>
      </trkpt>
      <trkpt lat="43.62738" lon="1.30198">
        <ele>153</ele>
        <time>2018-05-02T16:25:12.000Z</time>
      </trkpt>
      <trkpt lat="43.62739" lon="1.30198">
        <ele>153</ele>
        <time>2018-05-02T16:25:14.000Z</time>
      </trkpt>
      <trkpt lat="43.62738" lon="1.30199">
        <ele>153</ele>
        <time>2018-05-02T16:25:16.000Z</time>
      </trkpt>
      <trkpt lat="43.62739" lon="1.302">
        <ele>153</ele>
        <time>2018-05-02T16:25:18.000Z</time>
      </trkpt>
      <trkpt lat="43.6274" lon="1.30201">
        <ele>153</ele>
        <time>2018-05-02T16:25:20.000Z</time>
      </trkpt>
      <trkpt lat="43.62742" lon="1.30201">
        <ele>153</ele>
        <time>2018-05-02T16:25:22.000Z</time>
      </trkpt>
      <trkpt lat="43.62744" lon="1.30201">
        <ele>153</ele>
        <time>2018-05-02T16:25:24.000Z</time>
      </trkpt>
      <trkpt lat="43.62746" lon="1.302">
        <ele>153</ele>
        <time>2018-05-02T16:25:26.000Z</time>
      </trkpt>
      <trkpt lat="43.62749" lon="1.30199">
        <ele>152</ele>
        <time>2018-05-02T16:25:28.000Z</time>
      </trkpt>
      <trkpt lat="43.62751" lon="1.30197">
        <ele>152</ele>
        <time>2018-05-02T16:25:30.000Z</time>
      </trkpt>
      <trkpt lat="43.62753" lon="1.30195">
        <ele>152</ele>
        <time>2018-05-02T16:25:32.000Z</time>
      </trkpt>
      <trkpt lat="43.62756" lon="1.30194">
        <ele>152</ele>
        <time>2018-05-02T16:25:34.000Z</time>
      </trkpt>
      <trkpt lat="43.6276" lon="1.30193">
        <ele>152</ele>
        <time>2018-05-02T16:25:36.000Z</time>
      </trkpt>
      <trkpt lat="43.62763" lon="1.30193">
        <ele>152</ele>
        <time>2018-05-02T16:25:38.000Z</time>
      </trkpt>
      <trkpt lat="43.62766" lon="1.30193">
        <ele>152</ele>
        <time>2018-05-02T16:25:40.000Z</time>
      </trkpt>
      <trkpt lat="43.6277" lon="1.30194">
        <ele>152</ele>
        <time>2018-05-02T16:25:42.000Z</time>
      </trkpt>
      <trkpt lat="43.62773" lon="1.30194">
        <ele>152</ele>
        <time>2018-05-02T16:25:44.000Z</time>
      </trkpt>
      <trkpt lat="43.62775" lon="1.30195">
        <ele>152</ele>
        <time>2018-05-02T16:25:46.000Z</time>
      </trkpt>
      <trkpt lat="43.62778" lon="1.30195">
        <ele>152</ele>
        <time>2018-05-02T16:25:48.000Z</time>
      </trkpt>
      <trkpt lat="43.6278" lon="1.30195">
        <ele>152</ele>
        <time>2018-05-02T16:25:50.000Z</time>
      </trkpt>
      <trkpt lat="43.62783" lon="1.30195">
        <ele>152</ele>
        <time>2018-05-02T16:25:52.000Z</time>
      </trkpt>
      <trkpt lat="43.62785" lon="1.30196">
        <ele>152</ele>
        <time>2018-05-02T16:25:54.000Z</time>
      </trkpt>
      <trkpt lat="43.62787" lon="1.30197">
        <ele>152</ele>
        <time>2018-05-02T16:25:56.000Z</time>
      </trkpt>
      <trkpt lat="43.6279" lon="1.30198">
        <ele>152</ele>
        <time>2018-05-02T16:25:58.000Z</time>
      </trkpt>
      <trkpt lat="43.62792" lon="1.302">
        <ele>151</ele>
        <time>2018-05-02T16:26:00.000Z</time>
      </trkpt>
      <trkpt lat="43.62796" lon="1.30202">
        <ele>151</ele>
        <time>2018-05-02T16:26:02.000Z</time>
      </trkpt>
      <trkpt lat="43.62799" lon="1.30202">
        <ele>151</ele>
        <time>2018-05-02T16:26:04.000Z</time>
      </trkpt>
      <trkpt lat="43.62802" lon="1.30203">
        <ele>151</ele>
        <time>2018-05-02T16:26:06.000Z</time>
      </trkpt>
      <trkpt lat="43.62805" lon="1.30205">
        <ele>151</ele>
        <time>2018-05-02T16:26:08.000Z</time>
      </trkpt>
      <trkpt lat="43.62808" lon="1.30206">
        <ele>151</ele>
        <time>2018-05-02T16:26:10.000Z</time>
      </trkpt>
      <trkpt lat="43.6281" lon="1.30206">
        <ele>151</ele>
        <time>2018-05-02T16:26:12.000Z</time>
      </trkpt>
      <trkpt lat="43.62813" lon="1.30207">
        <ele>151</ele>
        <time>2018-05-02T16:26:14.000Z</time>
      </trkpt>
      <trkpt lat="43.62816" lon="1.30208">
        <ele>151</ele>
        <time>2018-05-02T16:26:16.000Z</time>
      </trkpt>
      <trkpt lat="43.62819" lon="1.30207">
        <ele>151</ele>
        <time>2018-05-02T16:26:18.000Z</time>
      </trkpt>
      <trkpt lat="43.62823" lon="1.30207">
        <ele>151</ele>
        <time>2018-05-02T16:26:20.000Z</time>
      </trkpt>
      <trkpt lat="43.62826" lon="1.30208">
        <ele>151</ele>
        <time>2018-05-02T16:26:22.000Z</time>
      </trkpt>
      <trkpt lat="43.6283" lon="1.30209">
        <ele>151</ele>
        <time>2018-05-02T16:26:24.000Z</time>
      </trkpt>
      <trkpt lat="43.62832" lon="1.3021">
        <ele>150</ele>
        <time>2018-05-02T16:26:26.000Z</time>
      </trkpt>
      <trkpt lat="43.62835" lon="1.3021">
        <ele>150</ele>
        <time>2018-05-02T16:26:28.000Z</time>
      </trkpt>
      <trkpt lat="43.62838" lon="1.30212">
        <ele>150</ele>
        <time>2018-05-02T16:26:30.000Z</time>
      </trkpt>
      <trkpt lat="43.62841" lon="1.30215">
        <ele>150</ele>
        <time>2018-05-02T16:26:32.000Z</time>
      </trkpt>
      <trkpt lat="43.62844" lon="1.30217">
        <ele>150</ele>
        <time>2018-05-02T16:26:34.000Z</time>
      </trkpt>
      <trkpt lat="43.62846" lon="1.30219">
        <ele>150</ele>
        <time>2018-05-02T16:26:36.000Z</time>
      </trkpt>
      <trkpt lat="43.62849" lon="1.30221">
        <ele>150</ele>
        <time>2018-05-02T16:26:38.000Z</time>
      </trkpt>
      <trkpt lat="43.62851" lon="1.30221">
        <ele>150</ele>
        <time>2018-05-02T16:26:40.000Z</time>
      </trkpt>
      <trkpt lat="43.62854" lon="1.30222">
        <ele>150</ele>
        <time>2018-05-02T16:26:42.000Z</time>
      </trkpt>
      <trkpt lat="43.62857" lon="1.30223">
        <ele>150</ele>
        <time>2018-05-02T16:26:44.000Z</time>
      </trkpt>
      <trkpt lat="43.62859" lon="1.30224">
        <ele>150</ele>
        <time>2018-05-02T16:26:46.000Z</time>
      </trkpt>
      <trkpt lat="43.62862" lon="1.30227">
        <ele>150</ele>
        <time>2018-05-02T16:26:48.000Z</time>
      </trkpt>
      <trkpt lat="43.62865" lon="1.30229">
        <ele>150</ele>
        <time>2018-05-02T16:26:50.000Z</time>
      </trkpt>
      <trkpt lat="43.62868" lon="1.30231">
        <ele>150</ele>
        <time>2018-05-02T16:26:52.000Z</time>
      </trkpt>
      <trkpt lat="43.62871" lon="1.30233">
        <ele>150</ele>
        <time>2018-05-02T16:26:54.000Z</time>
      </trkpt>
      <trkpt lat="43.62874" lon="1.30234">
        <ele>150</ele>
        <time>2018-05-02T16:26:56.000Z</time>
      </trkpt>
      <trkpt lat="43.62877" lon="1.30234">
        <ele>150</ele>
        <time>2018-05-02T16:26:58.000Z</time>
      </trkpt>
      <trkpt lat="43.6288" lon="1.30236">
        <ele>149</ele>
        <time>2018-05-02T16:27:00.000Z</time>
      </trkpt>
      <trkpt lat="43.62884" lon="1.30236">
        <ele>149</ele>
        <time>2018-05-02T16:27:02.000Z</time>
      </trkpt>
      <trkpt lat="43.62887" lon="1.30237">
        <ele>149</ele>
        <time>2018-05-02T16:27:04.000Z</time>
      </trkpt>
      <trkpt lat="43.62889" lon="1.30238">
        <ele>149</ele>
        <time>2018-05-02T16:27:06.000Z</time>
      </trkpt>
      <trkpt lat="43.62892" lon="1.30239">
        <ele>149</ele>
        <time>2018-05-02T16:27:08.000Z</time>
      </trkpt>
      <trkpt lat="43.62895" lon="1.30239">
        <ele>149</ele>
        <time>2018-05-02T16:27:10.000Z</time>
      </trkpt>
      <trkpt lat="43.62898" lon="1.30241">
        <ele>149</ele>
        <time>2018-05-02T16:27:12.000Z</time>
      </trkpt>
      <trkpt lat="43.62901" lon="1.30242">
        <ele>149</ele>
        <time>2018-05-02T16:27:14.000Z</time>
      </trkpt>
      <trkpt lat="43.62904" lon="1.30243">
        <ele>149</ele>
        <time>2018-05-02T16:27:16.000Z</time>
      </trkpt>
      <trkpt lat="43.62907" lon="1.30245">
        <ele>149</ele>
        <time>2018-05-02T16:27:18.000Z</time>
      </trkpt>
      <trkpt lat="43.6291" lon="1.30247">
        <ele>149</ele>
        <time>2018-05-02T16:27:20.000Z</time>
      </trkpt>
      <trkpt lat="43.62913" lon="1.30248">
        <ele>149</ele>
        <time>2018-05-02T16:27:22.000Z</time>
      </trkpt>
      <trkpt lat="43.62916" lon="1.3025">
        <ele>149</ele>
        <time>2018-05-02T16:27:24.000Z</time>
      </trkpt>
      <trkpt lat="43.62918" lon="1.30251">
        <ele>149</ele>
        <time>2018-05-02T16:27:26.000Z</time>
      </trkpt>
      <trkpt lat="43.62921" lon="1.30253">
        <ele>149</ele>
        <time>2018-05-02T16:27:28.000Z</time>
      </trkpt>
      <trkpt lat="43.62923" lon="1.30255">
        <ele>149</ele>
        <time>2018-05-02T16:27:30.000Z</time>
      </trkpt>
      <trkpt lat="43.62927" lon="1.30256">
        <ele>149</ele>
        <time>2018-05-02T16:27:32.000Z</time>
      </trkpt>
      <trkpt lat="43.62931" lon="1.30258">
        <ele>149</ele>
        <time>2018-05-02T16:27:34.000Z</time>
      </trkpt>
      <trkpt lat="43.62933" lon="1.3026">
        <ele>149</ele>
        <time>2018-05-02T16:27:36.000Z</time>
      </trkpt>
      <trkpt lat="43.62936" lon="1.30262">
        <ele>149</ele>
        <time>2018-05-02T16:27:38.000Z</time>
      </trkpt>
      <trkpt lat="43.62938" lon="1.30264">
        <ele>149</ele>
        <time>2018-05-02T16:27:40.000Z</time>
      </trkpt>
      <trkpt lat="43.62941" lon="1.30266">
        <ele>149</ele>
        <time>2018-05-02T16:27:42.000Z</time>
      </trkpt>
      <trkpt lat="43.62944" lon="1.3027">
        <ele>149</ele>
        <time>2018-05-02T16:27:44.000Z</time>
      </trkpt>
      <trkpt lat="43.62946" lon="1.30276">
        <ele>149</ele>
        <time>2018-05-02T16:27:46.000Z</time>
      </trkpt>
      <trkpt lat="43.62948" lon="1.30281">
        <ele>149</ele>
        <time>2018-05-02T16:27:48.000Z</time>
      </trkpt>
      <trkpt lat="43.6295" lon="1.30285">
        <ele>149</ele>
        <time>2018-05-02T16:27:50.000Z</time>
      </trkpt>
      <trkpt lat="43.62952" lon="1.30289">
        <ele>149</ele>
        <time>2018-05-02T16:27:52.000Z</time>
      </trkpt>
      <trkpt lat="43.62955" lon="1.30294">
        <ele>149</ele>
        <time>2018-05-02T16:27:54.000Z</time>
      </trkpt>
      <trkpt lat="43.62956" lon="1.30299">
        <ele>149</ele>
        <time>2018-05-02T16:27:56.000Z</time>
      </trkpt>
      <trkpt lat="43.62958" lon="1.30303">
        <ele>149</ele>
        <time>2018-05-02T16:27:58.000Z</time>
      </trkpt>
      <trkpt lat="43.6296" lon="1.30306">
        <ele>149</ele>
        <time>2018-05-02T16:28:00.000Z</time>
      </trkpt>
      <trkpt lat="43.62961" lon="1.3031">
        <ele>149</ele>
        <time>2018-05-02T16:28:02.000Z</time>
      </trkpt>
      <trkpt lat="43.62963" lon="1.30315">
        <ele>149</ele>
        <time>2018-05-02T16:28:04.000Z</time>
      </trkpt>
      <trkpt lat="43.62965" lon="1.30319">
        <ele>149</ele>
        <time>2018-05-02T16:28:06.000Z</time>
      </trkpt>
      <trkpt lat="43.62966" lon="1.30322">
        <ele>149</ele>
        <time>2018-05-02T16:28:08.000Z</time>
      </trkpt>
      <trkpt lat="43.62968" lon="1.30325">
        <ele>149</ele>
        <time>2018-05-02T16:28:10.000Z</time>
      </trkpt>
      <trkpt lat="43.6297" lon="1.30327">
        <ele>150</ele>
        <time>2018-05-02T16:28:12.000Z</time>
      </trkpt>
      <trkpt lat="43.62972" lon="1.30329">
        <ele>149</ele>
        <time>2018-05-02T16:28:14.000Z</time>
      </trkpt>
      <trkpt lat="43.62974" lon="1.3033">
        <ele>149</ele>
        <time>2018-05-02T16:28:16.000Z</time>
      </trkpt>
      <trkpt lat="43.62976" lon="1.30332">
        <ele>149</ele>
        <time>2018-05-02T16:28:18.000Z</time>
      </trkpt>
      <trkpt lat="43.62978" lon="1.30334">
        <ele>149</ele>
        <time>2018-05-02T16:28:20.000Z</time>
      </trkpt>
      <trkpt lat="43.62981" lon="1.30337">
        <ele>149</ele>
        <time>2018-05-02T16:28:22.000Z</time>
      </trkpt>
      <trkpt lat="43.62983" lon="1.30342">
        <ele>150</ele>
        <time>2018-05-02T16:28:24.000Z</time>
      </trkpt>
      <trkpt lat="43.62985" lon="1.30346">
        <ele>150</ele>
        <time>2018-05-02T16:28:26.000Z</time>
      </trkpt>
      <trkpt lat="43.62987" lon="1.30349">
        <ele>150</ele>
        <time>2018-05-02T16:28:28.000Z</time>
      </trkpt>
      <trkpt lat="43.62988" lon="1.30352">
        <ele>150</ele>
        <time>2018-05-02T16:28:30.000Z</time>
      </trkpt>
      <trkpt lat="43.62989" lon="1.30355">
        <ele>150</ele>
        <time>2018-05-02T16:28:32.000Z</time>
      </trkpt>
      <trkpt lat="43.6299" lon="1.30358">
        <ele>150</ele>
        <time>2018-05-02T16:28:34.000Z</time>
      </trkpt>
      <trkpt lat="43.62992" lon="1.30361">
        <ele>150</ele>
        <time>2018-05-02T16:28:36.000Z</time>
      </trkpt>
      <trkpt lat="43.62993" lon="1.30365">
        <ele>150</ele>
        <time>2018-05-02T16:28:38.000Z</time>
      </trkpt>
      <trkpt lat="43.62994" lon="1.30368">
        <ele>150</ele>
        <time>2018-05-02T16:28:40.000Z</time>
      </trkpt>
      <trkpt lat="43.62996" lon="1.30371">
        <ele>150</ele>
        <time>2018-05-02T16:28:42.000Z</time>
      </trkpt>
      <trkpt lat="43.62998" lon="1.30375">
        <ele>150</ele>
        <time>2018-05-02T16:28:44.000Z</time>
      </trkpt>
      <trkpt lat="43.63002" lon="1.30379">
        <ele>150</ele>
        <time>2018-05-02T16:28:46.000Z</time>
      </trkpt>
      <trkpt lat="43.63004" lon="1.30383">
        <ele>150</ele>
        <time>2018-05-02T16:28:48.000Z</time>
      </trkpt>
      <trkpt lat="43.63006" lon="1.30386">
        <ele>150</ele>
        <time>2018-05-02T16:28:50.000Z</time>
      </trkpt>
      <trkpt lat="43.63009" lon="1.30389">
        <ele>150</ele>
        <time>2018-05-02T16:28:52.000Z</time>
      </trkpt>
      <trkpt lat="43.6301" lon="1.30392">
        <ele>150</ele>
        <time>2018-05-02T16:28:54.000Z</time>
      </trkpt>
      <trkpt lat="43.63012" lon="1.30395">
        <ele>150</ele>
        <time>2018-05-02T16:28:56.000Z</time>
      </trkpt>
      <trkpt lat="43.63015" lon="1.30397">
        <ele>150</ele>
        <time>2018-05-02T16:28:58.000Z</time>
      </trkpt>
      <trkpt lat="43.63018" lon="1.30399">
        <ele>150</ele>
        <time>2018-05-02T16:29:00.000Z</time>
      </trkpt>
      <trkpt lat="43.63019" lon="1.30401">
        <ele>150</ele>
        <time>2018-05-02T16:29:02.000Z</time>
      </trkpt>
      <trkpt lat="43.63022" lon="1.30404">
        <ele>150</ele>
        <time>2018-05-02T16:29:04.000Z</time>
      </trkpt>
      <trkpt lat="43.63025" lon="1.30408">
        <ele>150</ele>
        <time>2018-05-02T16:29:06.000Z</time>
      </trkpt>
      <trkpt lat="43.63028" lon="1.30413">
        <ele>150</ele>
        <time>2018-05-02T16:29:08.000Z</time>
      </trkpt>
      <trkpt lat="43.6303" lon="1.30416">
        <ele>150</ele>
        <time>2018-05-02T16:29:10.000Z</time>
      </trkpt>
      <trkpt lat="43.63033" lon="1.30421">
        <ele>150</ele>
        <time>2018-05-02T16:29:12.000Z</time>
      </trkpt>
      <trkpt lat="43.63035" lon="1.30424">
        <ele>150</ele>
        <time>2018-05-02T16:29:14.000Z</time>
      </trkpt>
      <trkpt lat="43.63037" lon="1.30427">
        <ele>150</ele>
        <time>2018-05-02T16:29:16.000Z</time>
      </trkpt>
      <trkpt lat="43.63039" lon="1.3043">
        <ele>150</ele>
        <time>2018-05-02T16:29:18.000Z</time>
      </trkpt>
      <trkpt lat="43.63042" lon="1.30434">
        <ele>150</ele>
        <time>2018-05-02T16:29:20.000Z</time>
      </trkpt>
      <trkpt lat="43.63045" lon="1.30436">
        <ele>150</ele>
        <time>2018-05-02T16:29:22.000Z</time>
      </trkpt>
      <trkpt lat="43.63047" lon="1.30439">
        <ele>150</ele>
        <time>2018-05-02T16:29:24.000Z</time>
      </trkpt>
      <trkpt lat="43.63049" lon="1.30441">
        <ele>150</ele>
        <time>2018-05-02T16:29:26.000Z</time>
      </trkpt>
      <trkpt lat="43.63052" lon="1.30443">
        <ele>150</ele>
        <time>2018-05-02T16:29:28.000Z</time>
      </trkpt>
      <trkpt lat="43.63055" lon="1.30445">
        <ele>150</ele>
        <time>2018-05-02T16:29:30.000Z</time>
      </trkpt>
      <trkpt lat="43.63056" lon="1.30447">
        <ele>150</ele>
        <time>2018-05-02T16:29:32.000Z</time>
      </trkpt>
      <trkpt lat="43.63058" lon="1.30448">
        <ele>150</ele>
        <time>2018-05-02T16:29:34.000Z</time>
      </trkpt>
      <trkpt lat="43.6306" lon="1.30449">
        <ele>150</ele>
        <time>2018-05-02T16:29:36.000Z</time>
      </trkpt>
      <trkpt lat="43.63064" lon="1.30451">
        <ele>150</ele>
        <time>2018-05-02T16:29:38.000Z</time>
      </trkpt>
      <trkpt lat="43.63066" lon="1.30453">
        <ele>150</ele>
        <time>2018-05-02T16:29:40.000Z</time>
      </trkpt>
      <trkpt lat="43.63069" lon="1.30455">
        <ele>150</ele>
        <time>2018-05-02T16:29:42.000Z</time>
      </trkpt>
      <trkpt lat="43.63071" lon="1.30456">
        <ele>149</ele>
        <time>2018-05-02T16:29:44.000Z</time>
      </trkpt>
      <trkpt lat="43.63073" lon="1.30457">
        <ele>149</ele>
        <time>2018-05-02T16:29:46.000Z</time>
      </trkpt>
      <trkpt lat="43.63076" lon="1.30458">
        <ele>149</ele>
        <time>2018-05-02T16:29:48.000Z</time>
      </trkpt>
      <trkpt lat="43.63079" lon="1.30459">
        <ele>149</ele>
        <time>2018-05-02T16:29:50.000Z</time>
      </trkpt>
      <trkpt lat="43.63082" lon="1.30459">
        <ele>149</ele>
        <time>2018-05-02T16:29:52.000Z</time>
      </trkpt>
      <trkpt lat="43.63085" lon="1.30458">
        <ele>149</ele>
        <time>2018-05-02T16:29:54.000Z</time>
      </trkpt>
      <trkpt lat="43.63088" lon="1.30458">
        <ele>149</ele>
        <time>2018-05-02T16:29:56.000Z</time>
      </trkpt>
      <trkpt lat="43.63092" lon="1.30457">
        <ele>149</ele>
        <time>2018-05-02T16:29:58.000Z</time>
      </trkpt>
      <trkpt lat="43.63095" lon="1.30456">
        <ele>149</ele>
        <time>2018-05-02T16:30:00.000Z</time>
      </trkpt>
      <trkpt lat="43.63097" lon="1.30455">
        <ele>149</ele>
        <time>2018-05-02T16:30:02.000Z</time>
      </trkpt>
      <trkpt lat="43.631" lon="1.30454">
        <ele>149</ele>
        <time>2018-05-02T16:30:04.000Z</time>
      </trkpt>
      <trkpt lat="43.63102" lon="1.30452">
        <ele>149</ele>
        <time>2018-05-02T16:30:06.000Z</time>
      </trkpt>
      <trkpt lat="43.63105" lon="1.3045">
        <ele>149</ele>
        <time>2018-05-02T16:30:08.000Z</time>
      </trkpt>
      <trkpt lat="43.63108" lon="1.30447">
        <ele>149</ele>
        <time>2018-05-02T16:30:10.000Z</time>
      </trkpt>
      <trkpt lat="43.63111" lon="1.30444">
        <ele>149</ele>
        <time>2018-05-02T16:30:12.000Z</time>
      </trkpt>
      <trkpt lat="43.63113" lon="1.30441">
        <ele>149</ele>
        <time>2018-05-02T16:30:14.000Z</time>
      </trkpt>
      <trkpt lat="43.63115" lon="1.30437">
        <ele>149</ele>
        <time>2018-05-02T16:30:16.000Z</time>
      </trkpt>
      <trkpt lat="43.63116" lon="1.30434">
        <ele>149</ele>
        <time>2018-05-02T16:30:18.000Z</time>
      </trkpt>
      <trkpt lat="43.63118" lon="1.30431">
        <ele>149</ele>
        <time>2018-05-02T16:30:20.000Z</time>
      </trkpt>
      <trkpt lat="43.63119" lon="1.30428">
        <ele>149</ele>
        <time>2018-05-02T16:30:22.000Z</time>
      </trkpt>
      <trkpt lat="43.63121" lon="1.30425">
        <ele>149</ele>
        <time>2018-05-02T16:30:24.000Z</time>
      </trkpt>
      <trkpt lat="43.63122" lon="1.30422">
        <ele>149</ele>
        <time>2018-05-02T16:30:26.000Z</time>
      </trkpt>
      <trkpt lat="43.63124" lon="1.3042">
        <ele>149</ele>
        <time>2018-05-02T16:30:28.000Z</time>
      </trkpt>
      <trkpt lat="43.63126" lon="1.30418">
        <ele>149</ele>
        <time>2018-05-02T16:30:30.000Z</time>
      </trkpt>
      <trkpt lat="43.63128" lon="1.30416">
        <ele>149</ele>
        <time>2018-05-02T16:30:32.000Z</time>
      </trkpt>
      <trkpt lat="43.6313" lon="1.30415">
        <ele>149</ele>
        <time>2018-05-02T16:30:34.000Z</time>
      </trkpt>
      <trkpt lat="43.63132" lon="1.30412">
        <ele>149</ele>
        <time>2018-05-02T16:30:36.000Z</time>
      </trkpt>
      <trkpt lat="43.63134" lon="1.3041">
        <ele>149</ele>
        <time>2018-05-02T16:30:38.000Z</time>
      </trkpt>
      <trkpt lat="43.63136" lon="1.30408">
        <ele>149</ele>
        <time>2018-05-02T16:30:40.000Z</time>
      </trkpt>
      <trkpt lat="43.63138" lon="1.30405">
        <ele>149</ele>
        <time>2018-05-02T16:30:42.000Z</time>
      </trkpt>
      <trkpt lat="43.63141" lon="1.30403">
        <ele>149</ele>
        <time>2018-05-02T16:30:44.000Z</time>
      </trkpt>
      <trkpt lat="43.63143" lon="1.30401">
        <ele>149</ele>
        <time>2018-05-02T16:30:46.000Z</time>
      </trkpt>
      <trkpt lat="43.63146" lon="1.30398">
        <ele>149</ele>
        <time>2018-05-02T16:30:48.000Z</time>
      </trkpt>
      <trkpt lat="43.63149" lon="1.30396">
        <ele>149</ele>
        <time>2018-05-02T16:30:50.000Z</time>
      </trkpt>
      <trkpt lat="43.63152" lon="1.30393">
        <ele>149</ele>
        <time>2018-05-02T16:30:52.000Z</time>
      </trkpt>
      <trkpt lat="43.63155" lon="1.3039">
        <ele>149</ele>
        <time>2018-05-02T16:30:54.000Z</time>
      </trkpt>
      <trkpt lat="43.63159" lon="1.30386">
        <ele>149</ele>
        <time>2018-05-02T16:30:56.000Z</time>
      </trkpt>
      <trkpt lat="43.63162" lon="1.30383">
        <ele>149</ele>
        <time>2018-05-02T16:30:58.000Z</time>
      </trkpt>
      <trkpt lat="43.63164" lon="1.30381">
        <ele>149</ele>
        <time>2018-05-02T16:31:00.000Z</time>
      </trkpt>
      <trkpt lat="43.63166" lon="1.30378">
        <ele>149</ele>
        <time>2018-05-02T16:31:02.000Z</time>
      </trkpt>
      <trkpt lat="43.63169" lon="1.30375">
        <ele>149</ele>
        <time>2018-05-02T16:31:04.000Z</time>
      </trkpt>
      <trkpt lat="43.63171" lon="1.30373">
        <ele>149</ele>
        <time>2018-05-02T16:31:06.000Z</time>
      </trkpt>
      <trkpt lat="43.63174" lon="1.30371">
        <ele>150</ele>
        <time>2018-05-02T16:31:08.000Z</time>
      </trkpt>
      <trkpt lat="43.63177" lon="1.30369">
        <ele>150</ele>
        <time>2018-05-02T16:31:10.000Z</time>
      </trkpt>
      <trkpt lat="43.63181" lon="1.30368">
        <ele>150</ele>
        <time>2018-05-02T16:31:12.000Z</time>
      </trkpt>
      <trkpt lat="43.63184" lon="1.30366">
        <ele>150</ele>
        <time>2018-05-02T16:31:14.000Z</time>
      </trkpt>
      <trkpt lat="43.63187" lon="1.30365">
        <ele>150</ele>
        <time>2018-05-02T16:31:16.000Z</time>
      </trkpt>
      <trkpt lat="43.6319" lon="1.30366">
        <ele>150</ele>
        <time>2018-05-02T16:31:18.000Z</time>
      </trkpt>
      <trkpt lat="43.63192" lon="1.30365">
        <ele>150</ele>
        <time>2018-05-02T16:31:20.000Z</time>
      </trkpt>
      <trkpt lat="43.63194" lon="1.30367">
        <ele>150</ele>
        <time>2018-05-02T16:31:22.000Z</time>
      </trkpt>
      <trkpt lat="43.63196" lon="1.30369">
        <ele>150</ele>
        <time>2018-05-02T16:31:24.000Z</time>
      </trkpt>
      <trkpt lat="43.63197" lon="1.30373">
        <ele>150</ele>
        <time>2018-05-02T16:31:26.000Z</time>
      </trkpt>
      <trkpt lat="43.63198" lon="1.30378">
        <ele>150</ele>
        <time>2018-05-02T16:31:28.000Z</time>
      </trkpt>
      <trkpt lat="43.63199" lon="1.30383">
        <ele>150</ele>
        <time>2018-05-02T16:31:30.000Z</time>
      </trkpt>
      <trkpt lat="43.632" lon="1.30388">
        <ele>150</ele>
        <time>2018-05-02T16:31:32.000Z</time>
      </trkpt>
      <trkpt lat="43.63201" lon="1.30392">
        <ele>150</ele>
        <time>2018-05-02T16:31:34.000Z</time>
      </trkpt>
      <trkpt lat="43.63201" lon="1.30398">
        <ele>150</ele>
        <time>2018-05-02T16:31:36.000Z</time>
      </trkpt>
      <trkpt lat="43.63202" lon="1.30403">
        <ele>150</ele>
        <time>2018-05-02T16:31:38.000Z</time>
      </trkpt>
      <trkpt lat="43.63202" lon="1.30407">
        <ele>150</ele>
        <time>2018-05-02T16:31:40.000Z</time>
      </trkpt>
      <trkpt lat="43.63203" lon="1.30412">
        <ele>150</ele>
        <time>2018-05-02T16:31:42.000Z</time>
      </trkpt>
      <trkpt lat="43.63204" lon="1.30416">
        <ele>150</ele>
        <time>2018-05-02T16:31:44.000Z</time>
      </trkpt>
      <trkpt lat="43.63204" lon="1.30421">
        <ele>150</ele>
        <time>2018-05-02T16:31:46.000Z</time>
      </trkpt>
      <trkpt lat="43.63204" lon="1.30425">
        <ele>150</ele>
        <time>2018-05-02T16:31:48.000Z</time>
      </trkpt>
      <trkpt lat="43.63203" lon="1.30429">
        <ele>150</ele>
        <time>2018-05-02T16:31:50.000Z</time>
      </trkpt>
      <trkpt lat="43.63203" lon="1.30434">
        <ele>150</ele>
        <time>2018-05-02T16:31:52.000Z</time>
      </trkpt>
      <trkpt lat="43.63203" lon="1.30438">
        <ele>150</ele>
        <time>2018-05-02T16:31:54.000Z</time>
      </trkpt>
      <trkpt lat="43.63204" lon="1.30443">
        <ele>150</ele>
        <time>2018-05-02T16:31:56.000Z</time>
      </trkpt>
      <trkpt lat="43.63204" lon="1.30447">
        <ele>150</ele>
        <time>2018-05-02T16:31:58.000Z</time>
      </trkpt>
      <trkpt lat="43.63205" lon="1.30452">
        <ele>150</ele>
        <time>2018-05-02T16:32:00.000Z</time>
      </trkpt>
      <trkpt lat="43.63205" lon="1.30457">
        <ele>150</ele>
        <time>2018-05-02T16:32:02.000Z</time>
      </trkpt>
      <trkpt lat="43.63205" lon="1.30461">
        <ele>150</ele>
        <time>2018-05-02T16:32:04.000Z</time>
      </trkpt>
      <trkpt lat="43.63205" lon="1.30466">
        <ele>150</ele>
        <time>2018-05-02T16:32:06.000Z</time>
      </trkpt>
      <trkpt lat="43.63205" lon="1.30471">
        <ele>150</ele>
        <time>2018-05-02T16:32:08.000Z</time>
      </trkpt>
      <trkpt lat="43.63205" lon="1.30475">
        <ele>150</ele>
        <time>2018-05-02T16:32:10.000Z</time>
      </trkpt>
      <trkpt lat="43.63205" lon="1.30479">
        <ele>151</ele>
        <time>2018-05-02T16:32:12.000Z</time>
      </trkpt>
      <trkpt lat="43.63205" lon="1.30482">
        <ele>151</ele>
        <time>2018-05-02T16:32:14.000Z</time>
      </trkpt>
      <trkpt lat="43.63206" lon="1.30487">
        <ele>151</ele>
        <time>2018-05-02T16:32:16.000Z</time>
      </trkpt>
      <trkpt lat="43.63206" lon="1.30491">
        <ele>151</ele>
        <time>2018-05-02T16:32:18.000Z</time>
      </trkpt>
      <trkpt lat="43.63205" lon="1.30496">
        <ele>152</ele>
        <time>2018-05-02T16:32:20.000Z</time>
      </trkpt>
      <trkpt lat="43.63205" lon="1.30501">
        <ele>152</ele>
        <time>2018-05-02T16:32:22.000Z</time>
      </trkpt>
      <trkpt lat="43.63205" lon="1.30505">
        <ele>152</ele>
        <time>2018-05-02T16:32:24.000Z</time>
      </trkpt>
      <trkpt lat="43.63205" lon="1.3051">
        <ele>152</ele>
        <time>2018-05-02T16:32:26.000Z</time>
      </trkpt>
      <trkpt lat="43.63206" lon="1.30514">
        <ele>152</ele>
        <time>2018-05-02T16:32:28.000Z</time>
      </trkpt>
      <trkpt lat="43.63206" lon="1.30519">
        <ele>152</ele>
        <time>2018-05-02T16:32:30.000Z</time>
      </trkpt>
      <trkpt lat="43.63207" lon="1.30523">
        <ele>152</ele>
        <time>2018-05-02T16:32:32.000Z</time>
      </trkpt>
      <trkpt lat="43.63207" lon="1.30528">
        <ele>152</ele>
        <time>2018-05-02T16:32:34.000Z</time>
      </trkpt>
      <trkpt lat="43.63208" lon="1.30533">
        <ele>152</ele>
        <time>2018-05-02T16:32:36.000Z</time>
      </trkpt>
      <trkpt lat="43.6321" lon="1.30537">
        <ele>152</ele>
        <time>2018-05-02T16:32:38.000Z</time>
      </trkpt>
      <trkpt lat="43.6321" lon="1.30541">
        <ele>152</ele>
        <time>2018-05-02T16:32:40.000Z</time>
      </trkpt>
      <trkpt lat="43.63209" lon="1.30545">
        <ele>152</ele>
        <time>2018-05-02T16:32:42.000Z</time>
      </trkpt>
      <trkpt lat="43.63208" lon="1.3055">
        <ele>152</ele>
        <time>2018-05-02T16:32:44.000Z</time>
      </trkpt>
      <trkpt lat="43.63208" lon="1.30554">
        <ele>152</ele>
        <time>2018-05-02T16:32:46.000Z</time>
      </trkpt>
      <trkpt lat="43.63208" lon="1.30559">
        <ele>152</ele>
        <time>2018-05-02T16:32:48.000Z</time>
      </trkpt>
      <trkpt lat="43.63209" lon="1.30563">
        <ele>152</ele>
        <time>2018-05-02T16:32:50.000Z</time>
      </trkpt>
      <trkpt lat="43.6321" lon="1.30567">
        <ele>152</ele>
        <time>2018-05-02T16:32:52.000Z</time>
      </trkpt>
      <trkpt lat="43.6321" lon="1.30571">
        <ele>152</ele>
        <time>2018-05-02T16:32:54.000Z</time>
      </trkpt>
      <trkpt lat="43.6321" lon="1.30575">
        <ele>152</ele>
        <time>2018-05-02T16:32:56.000Z</time>
      </trkpt>
      <trkpt lat="43.6321" lon="1.3058">
        <ele>152</ele>
        <time>2018-05-02T16:32:58.000Z</time>
      </trkpt>
      <trkpt lat="43.6321" lon="1.30584">
        <ele>152</ele>
        <time>2018-05-02T16:33:00.000Z</time>
      </trkpt>
      <trkpt lat="43.6321" lon="1.30589">
        <ele>152</ele>
        <time>2018-05-02T16:33:02.000Z</time>
      </trkpt>
      <trkpt lat="43.63211" lon="1.30593">
        <ele>152</ele>
        <time>2018-05-02T16:33:04.000Z</time>
      </trkpt>
      <trkpt lat="43.6321" lon="1.30598">
        <ele>152</ele>
        <time>2018-05-02T16:33:06.000Z</time>
      </trkpt>
      <trkpt lat="43.6321" lon="1.30603">
        <ele>152</ele>
        <time>2018-05-02T16:33:08.000Z</time>
      </trkpt>
      <trkpt lat="43.63211" lon="1.30606">
        <ele>152</ele>
        <time>2018-05-02T16:33:10.000Z</time>
      </trkpt>
      <trkpt lat="43.63212" lon="1.30611">
        <ele>152</ele>
        <time>2018-05-02T16:33:12.000Z</time>
      </trkpt>
      <trkpt lat="43.63212" lon="1.30615">
        <ele>152</ele>
        <time>2018-05-02T16:33:14.000Z</time>
      </trkpt>
      <trkpt lat="43.63213" lon="1.30619">
        <ele>152</ele>
        <time>2018-05-02T16:33:16.000Z</time>
      </trkpt>
      <trkpt lat="43.63213" lon="1.30624">
        <ele>152</ele>
        <time>2018-05-02T16:33:18.000Z</time>
      </trkpt>
      <trkpt lat="43.63214" lon="1.30629">
        <ele>153</ele>
        <time>2018-05-02T16:33:20.000Z</time>
      </trkpt>
      <trkpt lat="43.63214" lon="1.30632">
        <ele>153</ele>
        <time>2018-05-02T16:33:22.000Z</time>
      </trkpt>
      <trkpt lat="43.63214" lon="1.30637">
        <ele>153</ele>
        <time>2018-05-02T16:33:24.000Z</time>
      </trkpt>
      <trkpt lat="43.63214" lon="1.30641">
        <ele>153</ele>
        <time>2018-05-02T16:33:26.000Z</time>
      </trkpt>
      <trkpt lat="43.63214" lon="1.30645">
        <ele>153</ele>
        <time>2018-05-02T16:33:28.000Z</time>
      </trkpt>
      <trkpt lat="43.63213" lon="1.3065">
        <ele>153</ele>
        <time>2018-05-02T16:33:30.000Z</time>
      </trkpt>
      <trkpt lat="43.63214" lon="1.30654">
        <ele>153</ele>
        <time>2018-05-02T16:33:32.000Z</time>
      </trkpt>
      <trkpt lat="43.63215" lon="1.30659">
        <ele>153</ele>
        <time>2018-05-02T16:33:34.000Z</time>
      </trkpt>
      <trkpt lat="43.63216" lon="1.30664">
        <ele>152</ele>
        <time>2018-05-02T16:33:36.000Z</time>
      </trkpt>
      <trkpt lat="43.63217" lon="1.30669">
        <ele>152</ele>
        <time>2018-05-02T16:33:38.000Z</time>
      </trkpt>
      <trkpt lat="43.63217" lon="1.30673">
        <ele>152</ele>
        <time>2018-05-02T16:33:40.000Z</time>
      </trkpt>
      <trkpt lat="43.63217" lon="1.30677">
        <ele>152</ele>
        <time>2018-05-02T16:33:42.000Z</time>
      </trkpt>
      <trkpt lat="43.63217" lon="1.30681">
        <ele>152</ele>
        <time>2018-05-02T16:33:44.000Z</time>
      </trkpt>
      <trkpt lat="43.63213" lon="1.30684">
        <ele>152</ele>
        <time>2018-05-02T16:33:46.000Z</time>
      </trkpt>
      <trkpt lat="43.63209" lon="1.30686">
        <ele>152</ele>
        <time>2018-05-02T16:33:48.000Z</time>
      </trkpt>
      <trkpt lat="43.63206" lon="1.30688">
        <ele>152</ele>
        <time>2018-05-02T16:33:50.000Z</time>
      </trkpt>
      <trkpt lat="43.63203" lon="1.30691">
        <ele>152</ele>
        <time>2018-05-02T16:33:52.000Z</time>
      </trkpt>
      <trkpt lat="43.63202" lon="1.30695">
        <ele>152</ele>
        <time>2018-05-02T16:33:54.000Z</time>
      </trkpt>
      <trkpt lat="43.632" lon="1.30699">
        <ele>152</ele>
        <time>2018-05-02T16:33:56.000Z</time>
      </trkpt>
      <trkpt lat="43.63199" lon="1.30703">
        <ele>151</ele>
        <time>2018-05-02T16:33:58.000Z</time>
      </trkpt>
      <trkpt lat="43.63197" lon="1.30705">
        <ele>151</ele>
        <time>2018-05-02T16:34:00.000Z</time>
      </trkpt>
      <trkpt lat="43.63195" lon="1.30704">
        <ele>152</ele>
        <time>2018-05-02T16:34:02.000Z</time>
      </trkpt>
      <trkpt lat="43.63193" lon="1.30703">
        <ele>152</ele>
        <time>2018-05-02T16:34:04.000Z</time>
      </trkpt>
      <trkpt lat="43.63191" lon="1.30705">
        <ele>152</ele>
        <time>2018-05-02T16:34:06.000Z</time>
      </trkpt>
      <trkpt lat="43.63189" lon="1.30708">
        <ele>152</ele>
        <time>2018-05-02T16:34:08.000Z</time>
      </trkpt>
      <trkpt lat="43.63187" lon="1.3071">
        <ele>151</ele>
        <time>2018-05-02T16:34:10.000Z</time>
      </trkpt>
      <trkpt lat="43.63185" lon="1.30712">
        <ele>151</ele>
        <time>2018-05-02T16:34:12.000Z</time>
      </trkpt>
      <trkpt lat="43.63182" lon="1.30713">
        <ele>151</ele>
        <time>2018-05-02T16:34:14.000Z</time>
      </trkpt>
      <trkpt lat="43.6318" lon="1.30714">
        <ele>151</ele>
        <time>2018-05-02T16:34:16.000Z</time>
      </trkpt>
      <trkpt lat="43.63177" lon="1.30715">
        <ele>151</ele>
        <time>2018-05-02T16:34:18.000Z</time>
      </trkpt>
      <trkpt lat="43.63174" lon="1.30716">
        <ele>151</ele>
        <time>2018-05-02T16:34:20.000Z</time>
      </trkpt>
      <trkpt lat="43.6317" lon="1.30716">
        <ele>151</ele>
        <time>2018-05-02T16:34:22.000Z</time>
      </trkpt>
      <trkpt lat="43.63167" lon="1.30716">
        <ele>151</ele>
        <time>2018-05-02T16:34:24.000Z</time>
      </trkpt>
      <trkpt lat="43.63164" lon="1.30717">
        <ele>151</ele>
        <time>2018-05-02T16:34:26.000Z</time>
      </trkpt>
      <trkpt lat="43.63161" lon="1.30718">
        <ele>151</ele>
        <time>2018-05-02T16:34:28.000Z</time>
      </trkpt>
      <trkpt lat="43.63158" lon="1.30719">
        <ele>151</ele>
        <time>2018-05-02T16:34:30.000Z</time>
      </trkpt>
      <trkpt lat="43.63154" lon="1.30718">
        <ele>151</ele>
        <time>2018-05-02T16:34:32.000Z</time>
      </trkpt>
      <trkpt lat="43.63151" lon="1.30719">
        <ele>151</ele>
        <time>2018-05-02T16:34:34.000Z</time>
      </trkpt>
      <trkpt lat="43.63148" lon="1.30719">
        <ele>151</ele>
        <time>2018-05-02T16:34:36.000Z</time>
      </trkpt>
      <trkpt lat="43.63144" lon="1.3072">
        <ele>151</ele>
        <time>2018-05-02T16:34:38.000Z</time>
      </trkpt>
      <trkpt lat="43.63139" lon="1.3072">
        <ele>151</ele>
        <time>2018-05-02T16:34:40.000Z</time>
      </trkpt>
      <trkpt lat="43.63134" lon="1.30721">
        <ele>152</ele>
        <time>2018-05-02T16:34:42.000Z</time>
      </trkpt>
      <trkpt lat="43.6313" lon="1.30722">
        <ele>152</ele>
        <time>2018-05-02T16:34:44.000Z</time>
      </trkpt>
      <trkpt lat="43.63126" lon="1.30722">
        <ele>152</ele>
        <time>2018-05-02T16:34:46.000Z</time>
      </trkpt>
      <trkpt lat="43.63121" lon="1.30721">
        <ele>152</ele>
        <time>2018-05-02T16:34:48.000Z</time>
      </trkpt>
      <trkpt lat="43.63117" lon="1.30721">
        <ele>152</ele>
        <time>2018-05-02T16:34:50.000Z</time>
      </trkpt>
      <trkpt lat="43.63113" lon="1.30721">
        <ele>152</ele>
        <time>2018-05-02T16:34:52.000Z</time>
      </trkpt>
      <trkpt lat="43.6311" lon="1.30721">
        <ele>152</ele>
        <time>2018-05-02T16:34:54.000Z</time>
      </trkpt>
      <trkpt lat="43.63107" lon="1.30722">
        <ele>152</ele>
        <time>2018-05-02T16:34:56.000Z</time>
      </trkpt>
      <trkpt lat="43.63105" lon="1.30723">
        <ele>152</ele>
        <time>2018-05-02T16:34:58.000Z</time>
      </trkpt>
      <trkpt lat="43.63102" lon="1.30724">
        <ele>152</ele>
        <time>2018-05-02T16:35:00.000Z</time>
      </trkpt>
      <trkpt lat="43.63101" lon="1.30726">
        <ele>152</ele>
        <time>2018-05-02T16:35:02.000Z</time>
      </trkpt>
      <trkpt lat="43.63099" lon="1.30727">
        <ele>152</ele>
        <time>2018-05-02T16:35:04.000Z</time>
      </trkpt>
      <trkpt lat="43.63097" lon="1.30729">
        <ele>152</ele>
        <time>2018-05-02T16:35:06.000Z</time>
      </trkpt>
      <trkpt lat="43.63095" lon="1.30731">
        <ele>152</ele>
        <time>2018-05-02T16:35:08.000Z</time>
      </trkpt>
      <trkpt lat="43.63091" lon="1.30734">
        <ele>152</ele>
        <time>2018-05-02T16:35:10.000Z</time>
      </trkpt>
      <trkpt lat="43.63087" lon="1.30736">
        <ele>152</ele>
        <time>2018-05-02T16:35:12.000Z</time>
      </trkpt>
      <trkpt lat="43.63084" lon="1.30738">
        <ele>152</ele>
        <time>2018-05-02T16:35:14.000Z</time>
      </trkpt>
      <trkpt lat="43.63081" lon="1.3074">
        <ele>152</ele>
        <time>2018-05-02T16:35:16.000Z</time>
      </trkpt>
      <trkpt lat="43.63079" lon="1.30742">
        <ele>152</ele>
        <time>2018-05-02T16:35:18.000Z</time>
      </trkpt>
      <trkpt lat="43.63075" lon="1.30744">
        <ele>152</ele>
        <time>2018-05-02T16:35:20.000Z</time>
      </trkpt>
      <trkpt lat="43.63072" lon="1.30745">
        <ele>152</ele>
        <time>2018-05-02T16:35:22.000Z</time>
      </trkpt>
      <trkpt lat="43.6307" lon="1.30746">
        <ele>152</ele>
        <time>2018-05-02T16:35:24.000Z</time>
      </trkpt>
      <trkpt lat="43.63067" lon="1.30748">
        <ele>152</ele>
        <time>2018-05-02T16:35:26.000Z</time>
      </trkpt>
      <trkpt lat="43.63065" lon="1.30749">
        <ele>152</ele>
        <time>2018-05-02T16:35:28.000Z</time>
      </trkpt>
      <trkpt lat="43.63061" lon="1.30752">
        <ele>152</ele>
        <time>2018-05-02T16:35:30.000Z</time>
      </trkpt>
      <trkpt lat="43.63057" lon="1.30753">
        <ele>152</ele>
        <time>2018-05-02T16:35:32.000Z</time>
      </trkpt>
      <trkpt lat="43.63053" lon="1.30753">
        <ele>152</ele>
        <time>2018-05-02T16:35:34.000Z</time>
      </trkpt>
      <trkpt lat="43.63049" lon="1.30753">
        <ele>152</ele>
        <time>2018-05-02T16:35:36.000Z</time>
      </trkpt>
      <trkpt lat="43.63045" lon="1.30754">
        <ele>152</ele>
        <time>2018-05-02T16:35:38.000Z</time>
      </trkpt>
      <trkpt lat="43.63041" lon="1.30755">
        <ele>152</ele>
        <time>2018-05-02T16:35:40.000Z</time>
      </trkpt>
      <trkpt lat="43.63037" lon="1.30756">
        <ele>152</ele>
        <time>2018-05-02T16:35:42.000Z</time>
      </trkpt>
      <trkpt lat="43.63033" lon="1.30757">
        <ele>152</ele>
        <time>2018-05-02T16:35:44.000Z</time>
      </trkpt>
      <trkpt lat="43.6303" lon="1.30759">
        <ele>152</ele>
        <time>2018-05-02T16:35:46.000Z</time>
      </trkpt>
      <trkpt lat="43.63027" lon="1.30762">
        <ele>152</ele>
        <time>2018-05-02T16:35:48.000Z</time>
      </trkpt>
      <trkpt lat="43.63024" lon="1.30764">
        <ele>152</ele>
        <time>2018-05-02T16:35:50.000Z</time>
      </trkpt>
      <trkpt lat="43.63023" lon="1.30766">
        <ele>153</ele>
        <time>2018-05-02T16:35:52.000Z</time>
      </trkpt>
      <trkpt lat="43.63021" lon="1.30769">
        <ele>153</ele>
        <time>2018-05-02T16:35:54.000Z</time>
      </trkpt>
      <trkpt lat="43.63018" lon="1.30771">
        <ele>153</ele>
        <time>2018-05-02T16:35:56.000Z</time>
      </trkpt>
      <trkpt lat="43.63016" lon="1.30774">
        <ele>153</ele>
        <time>2018-05-02T16:35:58.000Z</time>
      </trkpt>
      <trkpt lat="43.63014" lon="1.30776">
        <ele>153</ele>
        <time>2018-05-02T16:36:00.000Z</time>
      </trkpt>
      <trkpt lat="43.63011" lon="1.30778">
        <ele>153</ele>
        <time>2018-05-02T16:36:02.000Z</time>
      </trkpt>
      <trkpt lat="43.63008" lon="1.30779">
        <ele>153</ele>
        <time>2018-05-02T16:36:04.000Z</time>
      </trkpt>
      <trkpt lat="43.63006" lon="1.30781">
        <ele>153</ele>
        <time>2018-05-02T16:36:06.000Z</time>
      </trkpt>
      <trkpt lat="43.63002" lon="1.30782">
        <ele>153</ele>
        <time>2018-05-02T16:36:08.000Z</time>
      </trkpt>
      <trkpt lat="43.62999" lon="1.30784">
        <ele>153</ele>
        <time>2018-05-02T16:36:10.000Z</time>
      </trkpt>
      <trkpt lat="43.62997" lon="1.30787">
        <ele>153</ele>
        <time>2018-05-02T16:36:12.000Z</time>
      </trkpt>
      <trkpt lat="43.62995" lon="1.30792">
        <ele>153</ele>
        <time>2018-05-02T16:36:14.000Z</time>
      </trkpt>
      <trkpt lat="43.62993" lon="1.30795">
        <ele>153</ele>
        <time>2018-05-02T16:36:16.000Z</time>
      </trkpt>
      <trkpt lat="43.62991" lon="1.30798">
        <ele>153</ele>
        <time>2018-05-02T16:36:18.000Z</time>
      </trkpt>
      <trkpt lat="43.62988" lon="1.30801">
        <ele>153</ele>
        <time>2018-05-02T16:36:20.000Z</time>
      </trkpt>
      <trkpt lat="43.62985" lon="1.30804">
        <ele>153</ele>
        <time>2018-05-02T16:36:22.000Z</time>
      </trkpt>
      <trkpt lat="43.62982" lon="1.30808">
        <ele>153</ele>
        <time>2018-05-02T16:36:24.000Z</time>
      </trkpt>
      <trkpt lat="43.62979" lon="1.3081">
        <ele>153</ele>
        <time>2018-05-02T16:36:26.000Z</time>
      </trkpt>
      <trkpt lat="43.62976" lon="1.30813">
        <ele>153</ele>
        <time>2018-05-02T16:36:28.000Z</time>
      </trkpt>
      <trkpt lat="43.62973" lon="1.30816">
        <ele>153</ele>
        <time>2018-05-02T16:36:30.000Z</time>
      </trkpt>
      <trkpt lat="43.62971" lon="1.30819">
        <ele>153</ele>
        <time>2018-05-02T16:36:32.000Z</time>
      </trkpt>
      <trkpt lat="43.62968" lon="1.30822">
        <ele>153</ele>
        <time>2018-05-02T16:36:34.000Z</time>
      </trkpt>
      <trkpt lat="43.62965" lon="1.30825">
        <ele>153</ele>
        <time>2018-05-02T16:36:36.000Z</time>
      </trkpt>
      <trkpt lat="43.62963" lon="1.30828">
        <ele>153</ele>
        <time>2018-05-02T16:36:38.000Z</time>
      </trkpt>
      <trkpt lat="43.62961" lon="1.30831">
        <ele>153</ele>
        <time>2018-05-02T16:36:40.000Z</time>
      </trkpt>
      <trkpt lat="43.62958" lon="1.30835">
        <ele>153</ele>
        <time>2018-05-02T16:36:42.000Z</time>
      </trkpt>
      <trkpt lat="43.62956" lon="1.30837">
        <ele>153</ele>
        <time>2018-05-02T16:36:44.000Z</time>
      </trkpt>
      <trkpt lat="43.62953" lon="1.3084">
        <ele>153</ele>
        <time>2018-05-02T16:36:46.000Z</time>
      </trkpt>
      <trkpt lat="43.6295" lon="1.30843">
        <ele>153</ele>
        <time>2018-05-02T16:36:48.000Z</time>
      </trkpt>
      <trkpt lat="43.62949" lon="1.30845">
        <ele>153</ele>
        <time>2018-05-02T16:36:50.000Z</time>
      </trkpt>
      <trkpt lat="43.62946" lon="1.30848">
        <ele>153</ele>
        <time>2018-05-02T16:36:52.000Z</time>
      </trkpt>
      <trkpt lat="43.62943" lon="1.3085">
        <ele>152</ele>
        <time>2018-05-02T16:36:54.000Z</time>
      </trkpt>
      <trkpt lat="43.62941" lon="1.30853">
        <ele>152</ele>
        <time>2018-05-02T16:36:56.000Z</time>
      </trkpt>
      <trkpt lat="43.62937" lon="1.30855">
        <ele>152</ele>
        <time>2018-05-02T16:36:58.000Z</time>
      </trkpt>
      <trkpt lat="43.62935" lon="1.30858">
        <ele>152</ele>
        <time>2018-05-02T16:37:00.000Z</time>
      </trkpt>
      <trkpt lat="43.62932" lon="1.30861">
        <ele>152</ele>
        <time>2018-05-02T16:37:02.000Z</time>
      </trkpt>
      <trkpt lat="43.62929" lon="1.30863">
        <ele>153</ele>
        <time>2018-05-02T16:37:04.000Z</time>
      </trkpt>
      <trkpt lat="43.62926" lon="1.30866">
        <ele>153</ele>
        <time>2018-05-02T16:37:06.000Z</time>
      </trkpt>
      <trkpt lat="43.62924" lon="1.30869">
        <ele>153</ele>
        <time>2018-05-02T16:37:08.000Z</time>
      </trkpt>
      <trkpt lat="43.62921" lon="1.30871">
        <ele>153</ele>
        <time>2018-05-02T16:37:10.000Z</time>
      </trkpt>
      <trkpt lat="43.62919" lon="1.30873">
        <ele>153</ele>
        <time>2018-05-02T16:37:12.000Z</time>
      </trkpt>
      <trkpt lat="43.62916" lon="1.30876">
        <ele>154</ele>
        <time>2018-05-02T16:37:14.000Z</time>
      </trkpt>
      <trkpt lat="43.62914" lon="1.30878">
        <ele>154</ele>
        <time>2018-05-02T16:37:16.000Z</time>
      </trkpt>
      <trkpt lat="43.62912" lon="1.30881">
        <ele>154</ele>
        <time>2018-05-02T16:37:18.000Z</time>
      </trkpt>
      <trkpt lat="43.6291" lon="1.30885">
        <ele>154</ele>
        <time>2018-05-02T16:37:20.000Z</time>
      </trkpt>
      <trkpt lat="43.62909" lon="1.30889">
        <ele>154</ele>
        <time>2018-05-02T16:37:22.000Z</time>
      </trkpt>
      <trkpt lat="43.62907" lon="1.30893">
        <ele>154</ele>
        <time>2018-05-02T16:37:24.000Z</time>
      </trkpt>
      <trkpt lat="43.62905" lon="1.30897">
        <ele>154</ele>
        <time>2018-05-02T16:37:26.000Z</time>
      </trkpt>
      <trkpt lat="43.62904" lon="1.30902">
        <ele>154</ele>
        <time>2018-05-02T16:37:28.000Z</time>
      </trkpt>
      <trkpt lat="43.62902" lon="1.30907">
        <ele>155</ele>
        <time>2018-05-02T16:37:30.000Z</time>
      </trkpt>
      <trkpt lat="43.62901" lon="1.30912">
        <ele>155</ele>
        <time>2018-05-02T16:37:32.000Z</time>
      </trkpt>
      <trkpt lat="43.62899" lon="1.30917">
        <ele>156</ele>
        <time>2018-05-02T16:37:34.000Z</time>
      </trkpt>
      <trkpt lat="43.62898" lon="1.30921">
        <ele>157</ele>
        <time>2018-05-02T16:37:36.000Z</time>
      </trkpt>
      <trkpt lat="43.62897" lon="1.30926">
        <ele>157</ele>
        <time>2018-05-02T16:37:38.000Z</time>
      </trkpt>
      <trkpt lat="43.62895" lon="1.30931">
        <ele>158</ele>
        <time>2018-05-02T16:37:40.000Z</time>
      </trkpt>
      <trkpt lat="43.62893" lon="1.30935">
        <ele>158</ele>
        <time>2018-05-02T16:37:42.000Z</time>
      </trkpt>
      <trkpt lat="43.62892" lon="1.30939">
        <ele>159</ele>
        <time>2018-05-02T16:37:44.000Z</time>
      </trkpt>
      <trkpt lat="43.6289" lon="1.30943">
        <ele>159</ele>
        <time>2018-05-02T16:37:46.000Z</time>
      </trkpt>
      <trkpt lat="43.62889" lon="1.30948">
        <ele>159</ele>
        <time>2018-05-02T16:37:48.000Z</time>
      </trkpt>
      <trkpt lat="43.62887" lon="1.30952">
        <ele>159</ele>
        <time>2018-05-02T16:37:50.000Z</time>
      </trkpt>
      <trkpt lat="43.62886" lon="1.30957">
        <ele>160</ele>
        <time>2018-05-02T16:37:52.000Z</time>
      </trkpt>
      <trkpt lat="43.62885" lon="1.30961">
        <ele>160</ele>
        <time>2018-05-02T16:37:54.000Z</time>
      </trkpt>
      <trkpt lat="43.62884" lon="1.30964">
        <ele>160</ele>
        <time>2018-05-02T16:37:56.000Z</time>
      </trkpt>
      <trkpt lat="43.62883" lon="1.30968">
        <ele>161</ele>
        <time>2018-05-02T16:37:58.000Z</time>
      </trkpt>
      <trkpt lat="43.62881" lon="1.30972">
        <ele>161</ele>
        <time>2018-05-02T16:38:00.000Z</time>
      </trkpt>
      <trkpt lat="43.6288" lon="1.30976">
        <ele>161</ele>
        <time>2018-05-02T16:38:02.000Z</time>
      </trkpt>
      <trkpt lat="43.62878" lon="1.30979">
        <ele>161</ele>
        <time>2018-05-02T16:38:04.000Z</time>
      </trkpt>
      <trkpt lat="43.62876" lon="1.30982">
        <ele>161</ele>
        <time>2018-05-02T16:38:06.000Z</time>
      </trkpt>
      <trkpt lat="43.62872" lon="1.30984">
        <ele>162</ele>
        <time>2018-05-02T16:38:08.000Z</time>
      </trkpt>
      <trkpt lat="43.6287" lon="1.30987">
        <ele>162</ele>
        <time>2018-05-02T16:38:10.000Z</time>
      </trkpt>
      <trkpt lat="43.62867" lon="1.3099">
        <ele>162</ele>
        <time>2018-05-02T16:38:12.000Z</time>
      </trkpt>
      <trkpt lat="43.62864" lon="1.30992">
        <ele>163</ele>
        <time>2018-05-02T16:38:14.000Z</time>
      </trkpt>
      <trkpt lat="43.62861" lon="1.30995">
        <ele>163</ele>
        <time>2018-05-02T16:38:16.000Z</time>
      </trkpt>
      <trkpt lat="43.62858" lon="1.30996">
        <ele>163</ele>
        <time>2018-05-02T16:38:18.000Z</time>
      </trkpt>
      <trkpt lat="43.62855" lon="1.30999">
        <ele>163</ele>
        <time>2018-05-02T16:38:20.000Z</time>
      </trkpt>
      <trkpt lat="43.62852" lon="1.31001">
        <ele>163</ele>
        <time>2018-05-02T16:38:22.000Z</time>
      </trkpt>
      <trkpt lat="43.62849" lon="1.31004">
        <ele>163</ele>
        <time>2018-05-02T16:38:24.000Z</time>
      </trkpt>
      <trkpt lat="43.62847" lon="1.31006">
        <ele>164</ele>
        <time>2018-05-02T16:38:26.000Z</time>
      </trkpt>
      <trkpt lat="43.62845" lon="1.31008">
        <ele>164</ele>
        <time>2018-05-02T16:38:28.000Z</time>
      </trkpt>
      <trkpt lat="43.62842" lon="1.31011">
        <ele>164</ele>
        <time>2018-05-02T16:38:30.000Z</time>
      </trkpt>
      <trkpt lat="43.6284" lon="1.31013">
        <ele>164</ele>
        <time>2018-05-02T16:38:32.000Z</time>
      </trkpt>
      <trkpt lat="43.62838" lon="1.31015">
        <ele>165</ele>
        <time>2018-05-02T16:38:34.000Z</time>
      </trkpt>
      <trkpt lat="43.62835" lon="1.31018">
        <ele>165</ele>
        <time>2018-05-02T16:38:36.000Z</time>
      </trkpt>
      <trkpt lat="43.62832" lon="1.3102">
        <ele>165</ele>
        <time>2018-05-02T16:38:38.000Z</time>
      </trkpt>
      <trkpt lat="43.62829" lon="1.31023">
        <ele>166</ele>
        <time>2018-05-02T16:38:40.000Z</time>
      </trkpt>
      <trkpt lat="43.62826" lon="1.31026">
        <ele>166</ele>
        <time>2018-05-02T16:38:42.000Z</time>
      </trkpt>
      <trkpt lat="43.62822" lon="1.31029">
        <ele>166</ele>
        <time>2018-05-02T16:38:44.000Z</time>
      </trkpt>
      <trkpt lat="43.62819" lon="1.31032">
        <ele>167</ele>
        <time>2018-05-02T16:38:46.000Z</time>
      </trkpt>
      <trkpt lat="43.62816" lon="1.31034">
        <ele>166</ele>
        <time>2018-05-02T16:38:48.000Z</time>
      </trkpt>
      <trkpt lat="43.62813" lon="1.31037">
        <ele>166</ele>
        <time>2018-05-02T16:38:50.000Z</time>
      </trkpt>
      <trkpt lat="43.6281" lon="1.31039">
        <ele>166</ele>
        <time>2018-05-02T16:38:52.000Z</time>
      </trkpt>
      <trkpt lat="43.62807" lon="1.31043">
        <ele>165</ele>
        <time>2018-05-02T16:38:54.000Z</time>
      </trkpt>
      <trkpt lat="43.62805" lon="1.31044">
        <ele>165</ele>
        <time>2018-05-02T16:38:56.000Z</time>
      </trkpt>
      <trkpt lat="43.62802" lon="1.31046">
        <ele>165</ele>
        <time>2018-05-02T16:38:58.000Z</time>
      </trkpt>
      <trkpt lat="43.62799" lon="1.31048">
        <ele>165</ele>
        <time>2018-05-02T16:39:00.000Z</time>
      </trkpt>
      <trkpt lat="43.62796" lon="1.31049">
        <ele>164</ele>
        <time>2018-05-02T16:39:02.000Z</time>
      </trkpt>
      <trkpt lat="43.62793" lon="1.31051">
        <ele>164</ele>
        <time>2018-05-02T16:39:04.000Z</time>
      </trkpt>
      <trkpt lat="43.6279" lon="1.31052">
        <ele>164</ele>
        <time>2018-05-02T16:39:06.000Z</time>
      </trkpt>
      <trkpt lat="43.62787" lon="1.31053">
        <ele>164</ele>
        <time>2018-05-02T16:39:08.000Z</time>
      </trkpt>
      <trkpt lat="43.62784" lon="1.31055">
        <ele>163</ele>
        <time>2018-05-02T16:39:10.000Z</time>
      </trkpt>
      <trkpt lat="43.6278" lon="1.31057">
        <ele>163</ele>
        <time>2018-05-02T16:39:12.000Z</time>
      </trkpt>
      <trkpt lat="43.62776" lon="1.31057">
        <ele>163</ele>
        <time>2018-05-02T16:39:14.000Z</time>
      </trkpt>
      <trkpt lat="43.62772" lon="1.31057">
        <ele>162</ele>
        <time>2018-05-02T16:39:16.000Z</time>
      </trkpt>
      <trkpt lat="43.62768" lon="1.31056">
        <ele>162</ele>
        <time>2018-05-02T16:39:18.000Z</time>
      </trkpt>
      <trkpt lat="43.62764" lon="1.31057">
        <ele>162</ele>
        <time>2018-05-02T16:39:20.000Z</time>
      </trkpt>
      <trkpt lat="43.62761" lon="1.31058">
        <ele>162</ele>
        <time>2018-05-02T16:39:22.000Z</time>
      </trkpt>
      <trkpt lat="43.62756" lon="1.31058">
        <ele>162</ele>
        <time>2018-05-02T16:39:24.000Z</time>
      </trkpt>
      <trkpt lat="43.62751" lon="1.31058">
        <ele>162</ele>
        <time>2018-05-02T16:39:26.000Z</time>
      </trkpt>
      <trkpt lat="43.62748" lon="1.31059">
        <ele>162</ele>
        <time>2018-05-02T16:39:28.000Z</time>
      </trkpt>
      <trkpt lat="43.62745" lon="1.31061">
        <ele>162</ele>
        <time>2018-05-02T16:39:30.000Z</time>
      </trkpt>
      <trkpt lat="43.62742" lon="1.31063">
        <ele>161</ele>
        <time>2018-05-02T16:39:32.000Z</time>
      </trkpt>
      <trkpt lat="43.6274" lon="1.31066">
        <ele>161</ele>
        <time>2018-05-02T16:39:34.000Z</time>
      </trkpt>
      <trkpt lat="43.62737" lon="1.31069">
        <ele>162</ele>
        <time>2018-05-02T16:39:36.000Z</time>
      </trkpt>
      <trkpt lat="43.62735" lon="1.31072">
        <ele>162</ele>
        <time>2018-05-02T16:39:38.000Z</time>
      </trkpt>
      <trkpt lat="43.62733" lon="1.31074">
        <ele>162</ele>
        <time>2018-05-02T16:39:40.000Z</time>
      </trkpt>
      <trkpt lat="43.62731" lon="1.31076">
        <ele>162</ele>
        <time>2018-05-02T16:39:42.000Z</time>
      </trkpt>
      <trkpt lat="43.62729" lon="1.31079">
        <ele>162</ele>
        <time>2018-05-02T16:39:44.000Z</time>
      </trkpt>
      <trkpt lat="43.62728" lon="1.31083">
        <ele>163</ele>
        <time>2018-05-02T16:39:46.000Z</time>
      </trkpt>
      <trkpt lat="43.62727" lon="1.31086">
        <ele>163</ele>
        <time>2018-05-02T16:39:48.000Z</time>
      </trkpt>
      <trkpt lat="43.62724" lon="1.31089">
        <ele>163</ele>
        <time>2018-05-02T16:39:50.000Z</time>
      </trkpt>
      <trkpt lat="43.62722" lon="1.31092">
        <ele>163</ele>
        <time>2018-05-02T16:39:52.000Z</time>
      </trkpt>
      <trkpt lat="43.62719" lon="1.31094">
        <ele>163</ele>
        <time>2018-05-02T16:39:54.000Z</time>
      </trkpt>
      <trkpt lat="43.62716" lon="1.31095">
        <ele>163</ele>
        <time>2018-05-02T16:39:56.000Z</time>
      </trkpt>
      <trkpt lat="43.62714" lon="1.31098">
        <ele>163</ele>
        <time>2018-05-02T16:39:58.000Z</time>
      </trkpt>
      <trkpt lat="43.62711" lon="1.311">
        <ele>163</ele>
        <time>2018-05-02T16:40:00.000Z</time>
      </trkpt>
      <trkpt lat="43.6271" lon="1.31103">
        <ele>163</ele>
        <time>2018-05-02T16:40:02.000Z</time>
      </trkpt>
      <trkpt lat="43.62708" lon="1.31105">
        <ele>163</ele>
        <time>2018-05-02T16:40:04.000Z</time>
      </trkpt>
      <trkpt lat="43.62706" lon="1.31108">
        <ele>162</ele>
        <time>2018-05-02T16:40:06.000Z</time>
      </trkpt>
      <trkpt lat="43.62703" lon="1.3111">
        <ele>162</ele>
        <time>2018-05-02T16:40:08.000Z</time>
      </trkpt>
      <trkpt lat="43.62701" lon="1.31113">
        <ele>162</ele>
        <time>2018-05-02T16:40:10.000Z</time>
      </trkpt>
      <trkpt lat="43.62698" lon="1.31115">
        <ele>162</ele>
        <time>2018-05-02T16:40:12.000Z</time>
      </trkpt>
      <trkpt lat="43.62696" lon="1.31118">
        <ele>162</ele>
        <time>2018-05-02T16:40:14.000Z</time>
      </trkpt>
      <trkpt lat="43.62693" lon="1.3112">
        <ele>161</ele>
        <time>2018-05-02T16:40:16.000Z</time>
      </trkpt>
      <trkpt lat="43.62691" lon="1.31122">
        <ele>161</ele>
        <time>2018-05-02T16:40:18.000Z</time>
      </trkpt>
      <trkpt lat="43.62688" lon="1.31124">
        <ele>161</ele>
        <time>2018-05-02T16:40:20.000Z</time>
      </trkpt>
      <trkpt lat="43.62684" lon="1.31127">
        <ele>161</ele>
        <time>2018-05-02T16:40:22.000Z</time>
      </trkpt>
      <trkpt lat="43.6268" lon="1.31129">
        <ele>161</ele>
        <time>2018-05-02T16:40:24.000Z</time>
      </trkpt>
      <trkpt lat="43.62676" lon="1.31131">
        <ele>161</ele>
        <time>2018-05-02T16:40:26.000Z</time>
      </trkpt>
      <trkpt lat="43.62671" lon="1.31133">
        <ele>162</ele>
        <time>2018-05-02T16:40:28.000Z</time>
      </trkpt>
      <trkpt lat="43.62668" lon="1.31135">
        <ele>162</ele>
        <time>2018-05-02T16:40:30.000Z</time>
      </trkpt>
      <trkpt lat="43.62664" lon="1.31137">
        <ele>162</ele>
        <time>2018-05-02T16:40:32.000Z</time>
      </trkpt>
      <trkpt lat="43.62659" lon="1.31139">
        <ele>161</ele>
        <time>2018-05-02T16:40:34.000Z</time>
      </trkpt>
      <trkpt lat="43.62655" lon="1.3114">
        <ele>161</ele>
        <time>2018-05-02T16:40:36.000Z</time>
      </trkpt>
      <trkpt lat="43.62651" lon="1.31143">
        <ele>161</ele>
        <time>2018-05-02T16:40:38.000Z</time>
      </trkpt>
      <trkpt lat="43.62648" lon="1.31145">
        <ele>161</ele>
        <time>2018-05-02T16:40:40.000Z</time>
      </trkpt>
      <trkpt lat="43.62645" lon="1.31146">
        <ele>161</ele>
        <time>2018-05-02T16:40:42.000Z</time>
      </trkpt>
      <trkpt lat="43.62642" lon="1.31148">
        <ele>161</ele>
        <time>2018-05-02T16:40:44.000Z</time>
      </trkpt>
      <trkpt lat="43.62638" lon="1.31149">
        <ele>161</ele>
        <time>2018-05-02T16:40:46.000Z</time>
      </trkpt>
      <trkpt lat="43.62635" lon="1.3115">
        <ele>161</ele>
        <time>2018-05-02T16:40:48.000Z</time>
      </trkpt>
      <trkpt lat="43.62631" lon="1.31152">
        <ele>161</ele>
        <time>2018-05-02T16:40:50.000Z</time>
      </trkpt>
      <trkpt lat="43.62628" lon="1.31154">
        <ele>162</ele>
        <time>2018-05-02T16:40:52.000Z</time>
      </trkpt>
      <trkpt lat="43.62625" lon="1.31155">
        <ele>162</ele>
        <time>2018-05-02T16:40:54.000Z</time>
      </trkpt>
      <trkpt lat="43.62621" lon="1.31157">
        <ele>162</ele>
        <time>2018-05-02T16:40:56.000Z</time>
      </trkpt>
      <trkpt lat="43.62618" lon="1.31158">
        <ele>162</ele>
        <time>2018-05-02T16:40:58.000Z</time>
      </trkpt>
      <trkpt lat="43.62614" lon="1.31159">
        <ele>162</ele>
        <time>2018-05-02T16:41:00.000Z</time>
      </trkpt>
      <trkpt lat="43.62611" lon="1.31162">
        <ele>162</ele>
        <time>2018-05-02T16:41:02.000Z</time>
      </trkpt>
      <trkpt lat="43.62607" lon="1.31163">
        <ele>162</ele>
        <time>2018-05-02T16:41:04.000Z</time>
      </trkpt>
      <trkpt lat="43.62604" lon="1.31164">
        <ele>162</ele>
        <time>2018-05-02T16:41:06.000Z</time>
      </trkpt>
      <trkpt lat="43.62601" lon="1.31164">
        <ele>162</ele>
        <time>2018-05-02T16:41:08.000Z</time>
      </trkpt>
      <trkpt lat="43.62598" lon="1.31166">
        <ele>162</ele>
        <time>2018-05-02T16:41:10.000Z</time>
      </trkpt>
      <trkpt lat="43.62595" lon="1.31168">
        <ele>162</ele>
        <time>2018-05-02T16:41:12.000Z</time>
      </trkpt>
      <trkpt lat="43.62592" lon="1.31169">
        <ele>162</ele>
        <time>2018-05-02T16:41:14.000Z</time>
      </trkpt>
      <trkpt lat="43.62589" lon="1.31171">
        <ele>162</ele>
        <time>2018-05-02T16:41:16.000Z</time>
      </trkpt>
      <trkpt lat="43.62586" lon="1.31172">
        <ele>162</ele>
        <time>2018-05-02T16:41:18.000Z</time>
      </trkpt>
      <trkpt lat="43.62583" lon="1.31174">
        <ele>162</ele>
        <time>2018-05-02T16:41:20.000Z</time>
      </trkpt>
      <trkpt lat="43.6258" lon="1.31175">
        <ele>162</ele>
        <time>2018-05-02T16:41:22.000Z</time>
      </trkpt>
      <trkpt lat="43.62577" lon="1.31177">
        <ele>162</ele>
        <time>2018-05-02T16:41:24.000Z</time>
      </trkpt>
      <trkpt lat="43.62574" lon="1.31178">
        <ele>162</ele>
        <time>2018-05-02T16:41:26.000Z</time>
      </trkpt>
      <trkpt lat="43.62572" lon="1.31179">
        <ele>163</ele>
        <time>2018-05-02T16:41:28.000Z</time>
      </trkpt>
      <trkpt lat="43.62569" lon="1.31179">
        <ele>163</ele>
        <time>2018-05-02T16:41:30.000Z</time>
      </trkpt>
      <trkpt lat="43.62566" lon="1.3118">
        <ele>163</ele>
        <time>2018-05-02T16:41:32.000Z</time>
      </trkpt>
      <trkpt lat="43.62562" lon="1.31181">
        <ele>163</ele>
        <time>2018-05-02T16:41:34.000Z</time>
      </trkpt>
      <trkpt lat="43.62559" lon="1.31182">
        <ele>163</ele>
        <time>2018-05-02T16:41:36.000Z</time>
      </trkpt>
      <trkpt lat="43.62556" lon="1.31184">
        <ele>163</ele>
        <time>2018-05-02T16:41:38.000Z</time>
      </trkpt>
      <trkpt lat="43.62553" lon="1.31185">
        <ele>163</ele>
        <time>2018-05-02T16:41:40.000Z</time>
      </trkpt>
      <trkpt lat="43.6255" lon="1.31186">
        <ele>163</ele>
        <time>2018-05-02T16:41:42.000Z</time>
      </trkpt>
      <trkpt lat="43.62547" lon="1.31187">
        <ele>163</ele>
        <time>2018-05-02T16:41:44.000Z</time>
      </trkpt>
      <trkpt lat="43.62544" lon="1.31189">
        <ele>163</ele>
        <time>2018-05-02T16:41:46.000Z</time>
      </trkpt>
      <trkpt lat="43.62541" lon="1.31191">
        <ele>163</ele>
        <time>2018-05-02T16:41:48.000Z</time>
      </trkpt>
      <trkpt lat="43.62539" lon="1.31193">
        <ele>163</ele>
        <time>2018-05-02T16:41:50.000Z</time>
      </trkpt>
      <trkpt lat="43.62535" lon="1.31196">
        <ele>163</ele>
        <time>2018-05-02T16:41:52.000Z</time>
      </trkpt>
      <trkpt lat="43.62532" lon="1.31198">
        <ele>163</ele>
        <time>2018-05-02T16:41:54.000Z</time>
      </trkpt>
      <trkpt lat="43.62529" lon="1.312">
        <ele>163</ele>
        <time>2018-05-02T16:41:56.000Z</time>
      </trkpt>
      <trkpt lat="43.62526" lon="1.31202">
        <ele>163</ele>
        <time>2018-05-02T16:41:58.000Z</time>
      </trkpt>
      <trkpt lat="43.62522" lon="1.31204">
        <ele>163</ele>
        <time>2018-05-02T16:42:00.000Z</time>
      </trkpt>
      <trkpt lat="43.6252" lon="1.31206">
        <ele>163</ele>
        <time>2018-05-02T16:42:02.000Z</time>
      </trkpt>
      <trkpt lat="43.62517" lon="1.31208">
        <ele>163</ele>
        <time>2018-05-02T16:42:04.000Z</time>
      </trkpt>
      <trkpt lat="43.62514" lon="1.3121">
        <ele>163</ele>
        <time>2018-05-02T16:42:06.000Z</time>
      </trkpt>
      <trkpt lat="43.62511" lon="1.31211">
        <ele>163</ele>
        <time>2018-05-02T16:42:08.000Z</time>
      </trkpt>
      <trkpt lat="43.62507" lon="1.31213">
        <ele>163</ele>
        <time>2018-05-02T16:42:10.000Z</time>
      </trkpt>
      <trkpt lat="43.62504" lon="1.31215">
        <ele>164</ele>
        <time>2018-05-02T16:42:12.000Z</time>
      </trkpt>
      <trkpt lat="43.625" lon="1.31216">
        <ele>164</ele>
        <time>2018-05-02T16:42:14.000Z</time>
      </trkpt>
      <trkpt lat="43.62496" lon="1.31216">
        <ele>164</ele>
        <time>2018-05-02T16:42:16.000Z</time>
      </trkpt>
      <trkpt lat="43.62492" lon="1.31216">
        <ele>164</ele>
        <time>2018-05-02T16:42:18.000Z</time>
      </trkpt>
      <trkpt lat="43.62488" lon="1.31215">
        <ele>164</ele>
        <time>2018-05-02T16:42:20.000Z</time>
      </trkpt>
      <trkpt lat="43.62485" lon="1.31214">
        <ele>164</ele>
        <time>2018-05-02T16:42:22.000Z</time>
      </trkpt>
      <trkpt lat="43.62481" lon="1.31214">
        <ele>164</ele>
        <time>2018-05-02T16:42:24.000Z</time>
      </trkpt>
      <trkpt lat="43.62478" lon="1.31214">
        <ele>164</ele>
        <time>2018-05-02T16:42:26.000Z</time>
      </trkpt>
      <trkpt lat="43.62475" lon="1.31214">
        <ele>164</ele>
        <time>2018-05-02T16:42:28.000Z</time>
      </trkpt>
      <trkpt lat="43.62471" lon="1.31214">
        <ele>164</ele>
        <time>2018-05-02T16:42:30.000Z</time>
      </trkpt>
      <trkpt lat="43.62468" lon="1.31213">
        <ele>164</ele>
        <time>2018-05-02T16:42:32.000Z</time>
      </trkpt>
      <trkpt lat="43.62465" lon="1.31213">
        <ele>164</ele>
        <time>2018-05-02T16:42:34.000Z</time>
      </trkpt>
      <trkpt lat="43.62461" lon="1.31214">
        <ele>164</ele>
        <time>2018-05-02T16:42:36.000Z</time>
      </trkpt>
      <trkpt lat="43.62458" lon="1.31215">
        <ele>164</ele>
        <time>2018-05-02T16:42:38.000Z</time>
      </trkpt>
      <trkpt lat="43.62455" lon="1.31216">
        <ele>164</ele>
        <time>2018-05-02T16:42:40.000Z</time>
      </trkpt>
      <trkpt lat="43.62452" lon="1.31217">
        <ele>163</ele>
        <time>2018-05-02T16:42:42.000Z</time>
      </trkpt>
      <trkpt lat="43.62448" lon="1.31218">
        <ele>163</ele>
        <time>2018-05-02T16:42:44.000Z</time>
      </trkpt>
      <trkpt lat="43.62445" lon="1.31219">
        <ele>163</ele>
        <time>2018-05-02T16:42:46.000Z</time>
      </trkpt>
      <trkpt lat="43.62442" lon="1.31221">
        <ele>163</ele>
        <time>2018-05-02T16:42:48.000Z</time>
      </trkpt>
      <trkpt lat="43.62438" lon="1.31222">
        <ele>163</ele>
        <time>2018-05-02T16:42:50.000Z</time>
      </trkpt>
      <trkpt lat="43.62434" lon="1.31223">
        <ele>163</ele>
        <time>2018-05-02T16:42:52.000Z</time>
      </trkpt>
      <trkpt lat="43.62431" lon="1.31224">
        <ele>163</ele>
        <time>2018-05-02T16:42:54.000Z</time>
      </trkpt>
      <trkpt lat="43.62427" lon="1.31225">
        <ele>163</ele>
        <time>2018-05-02T16:42:56.000Z</time>
      </trkpt>
      <trkpt lat="43.62424" lon="1.31226">
        <ele>163</ele>
        <time>2018-05-02T16:42:58.000Z</time>
      </trkpt>
      <trkpt lat="43.6242" lon="1.31226">
        <ele>163</ele>
        <time>2018-05-02T16:43:00.000Z</time>
      </trkpt>
      <trkpt lat="43.62417" lon="1.31227">
        <ele>163</ele>
        <time>2018-05-02T16:43:02.000Z</time>
      </trkpt>
      <trkpt lat="43.62413" lon="1.31229">
        <ele>163</ele>
        <time>2018-05-02T16:43:04.000Z</time>
      </trkpt>
      <trkpt lat="43.62409" lon="1.31231">
        <ele>163</ele>
        <time>2018-05-02T16:43:06.000Z</time>
      </trkpt>
      <trkpt lat="43.62405" lon="1.31232">
        <ele>163</ele>
        <time>2018-05-02T16:43:08.000Z</time>
      </trkpt>
      <trkpt lat="43.62402" lon="1.31234">
        <ele>163</ele>
        <time>2018-05-02T16:43:10.000Z</time>
      </trkpt>
      <trkpt lat="43.62399" lon="1.31235">
        <ele>163</ele>
        <time>2018-05-02T16:43:12.000Z</time>
      </trkpt>
      <trkpt lat="43.62397" lon="1.31236">
        <ele>164</ele>
        <time>2018-05-02T16:43:14.000Z</time>
      </trkpt>
      <trkpt lat="43.62394" lon="1.31238">
        <ele>164</ele>
        <time>2018-05-02T16:43:16.000Z</time>
      </trkpt>
      <trkpt lat="43.6239" lon="1.31239">
        <ele>164</ele>
        <time>2018-05-02T16:43:18.000Z</time>
      </trkpt>
      <trkpt lat="43.62386" lon="1.3124">
        <ele>164</ele>
        <time>2018-05-02T16:43:20.000Z</time>
      </trkpt>
      <trkpt lat="43.62383" lon="1.31242">
        <ele>164</ele>
        <time>2018-05-02T16:43:22.000Z</time>
      </trkpt>
      <trkpt lat="43.6238" lon="1.31244">
        <ele>165</ele>
        <time>2018-05-02T16:43:24.000Z</time>
      </trkpt>
      <trkpt lat="43.62377" lon="1.31247">
        <ele>165</ele>
        <time>2018-05-02T16:43:26.000Z</time>
      </trkpt>
      <trkpt lat="43.62374" lon="1.31249">
        <ele>165</ele>
        <time>2018-05-02T16:43:28.000Z</time>
      </trkpt>
      <trkpt lat="43.62371" lon="1.31251">
        <ele>165</ele>
        <time>2018-05-02T16:43:30.000Z</time>
      </trkpt>
      <trkpt lat="43.62368" lon="1.31254">
        <ele>165</ele>
        <time>2018-05-02T16:43:32.000Z</time>
      </trkpt>
      <trkpt lat="43.62365" lon="1.31257">
        <ele>165</ele>
        <time>2018-05-02T16:43:34.000Z</time>
      </trkpt>
      <trkpt lat="43.62362" lon="1.31259">
        <ele>165</ele>
        <time>2018-05-02T16:43:36.000Z</time>
      </trkpt>
      <trkpt lat="43.6236" lon="1.31262">
        <ele>165</ele>
        <time>2018-05-02T16:43:38.000Z</time>
      </trkpt>
      <trkpt lat="43.62357" lon="1.31264">
        <ele>165</ele>
        <time>2018-05-02T16:43:40.000Z</time>
      </trkpt>
      <trkpt lat="43.62355" lon="1.31267">
        <ele>165</ele>
        <time>2018-05-02T16:43:42.000Z</time>
      </trkpt>
      <trkpt lat="43.62352" lon="1.31269">
        <ele>165</ele>
        <time>2018-05-02T16:43:44.000Z</time>
      </trkpt>
      <trkpt lat="43.62349" lon="1.31271">
        <ele>165</ele>
        <time>2018-05-02T16:43:46.000Z</time>
      </trkpt>
      <trkpt lat="43.62346" lon="1.31273">
        <ele>165</ele>
        <time>2018-05-02T16:43:48.000Z</time>
      </trkpt>
      <trkpt lat="43.62343" lon="1.31275">
        <ele>165</ele>
        <time>2018-05-02T16:43:50.000Z</time>
      </trkpt>
      <trkpt lat="43.6234" lon="1.31277">
        <ele>166</ele>
        <time>2018-05-02T16:43:52.000Z</time>
      </trkpt>
      <trkpt lat="43.62337" lon="1.31278">
        <ele>166</ele>
        <time>2018-05-02T16:43:54.000Z</time>
      </trkpt>
      <trkpt lat="43.62334" lon="1.3128">
        <ele>166</ele>
        <time>2018-05-02T16:43:56.000Z</time>
      </trkpt>
      <trkpt lat="43.6233" lon="1.31282">
        <ele>166</ele>
        <time>2018-05-02T16:43:58.000Z</time>
      </trkpt>
      <trkpt lat="43.62326" lon="1.31283">
        <ele>166</ele>
        <time>2018-05-02T16:44:00.000Z</time>
      </trkpt>
      <trkpt lat="43.62323" lon="1.31284">
        <ele>167</ele>
        <time>2018-05-02T16:44:02.000Z</time>
      </trkpt>
      <trkpt lat="43.62319" lon="1.31285">
        <ele>167</ele>
        <time>2018-05-02T16:44:04.000Z</time>
      </trkpt>
      <trkpt lat="43.62316" lon="1.31284">
        <ele>167</ele>
        <time>2018-05-02T16:44:06.000Z</time>
      </trkpt>
      <trkpt lat="43.62313" lon="1.31285">
        <ele>167</ele>
        <time>2018-05-02T16:44:08.000Z</time>
      </trkpt>
      <trkpt lat="43.62309" lon="1.31286">
        <ele>166</ele>
        <time>2018-05-02T16:44:10.000Z</time>
      </trkpt>
      <trkpt lat="43.62306" lon="1.31286">
        <ele>166</ele>
        <time>2018-05-02T16:44:12.000Z</time>
      </trkpt>
      <trkpt lat="43.62302" lon="1.31288">
        <ele>166</ele>
        <time>2018-05-02T16:44:14.000Z</time>
      </trkpt>
      <trkpt lat="43.62299" lon="1.31288">
        <ele>166</ele>
        <time>2018-05-02T16:44:16.000Z</time>
      </trkpt>
      <trkpt lat="43.62296" lon="1.31289">
        <ele>166</ele>
        <time>2018-05-02T16:44:18.000Z</time>
      </trkpt>
      <trkpt lat="43.62292" lon="1.3129">
        <ele>166</ele>
        <time>2018-05-02T16:44:20.000Z</time>
      </trkpt>
      <trkpt lat="43.62289" lon="1.31291">
        <ele>166</ele>
        <time>2018-05-02T16:44:22.000Z</time>
      </trkpt>
      <trkpt lat="43.62286" lon="1.31292">
        <ele>166</ele>
        <time>2018-05-02T16:44:24.000Z</time>
      </trkpt>
      <trkpt lat="43.62283" lon="1.31293">
        <ele>166</ele>
        <time>2018-05-02T16:44:26.000Z</time>
      </trkpt>
      <trkpt lat="43.6228" lon="1.31294">
        <ele>166</ele>
        <time>2018-05-02T16:44:28.000Z</time>
      </trkpt>
      <trkpt lat="43.62277" lon="1.31295">
        <ele>166</ele>
        <time>2018-05-02T16:44:30.000Z</time>
      </trkpt>
      <trkpt lat="43.62274" lon="1.31296">
        <ele>166</ele>
        <time>2018-05-02T16:44:32.000Z</time>
      </trkpt>
      <trkpt lat="43.62271" lon="1.31297">
        <ele>166</ele>
        <time>2018-05-02T16:44:34.000Z</time>
      </trkpt>
      <trkpt lat="43.62268" lon="1.31299">
        <ele>166</ele>
        <time>2018-05-02T16:44:36.000Z</time>
      </trkpt>
      <trkpt lat="43.62264" lon="1.313">
        <ele>166</ele>
        <time>2018-05-02T16:44:38.000Z</time>
      </trkpt>
      <trkpt lat="43.62261" lon="1.31301">
        <ele>166</ele>
        <time>2018-05-02T16:44:40.000Z</time>
      </trkpt>
      <trkpt lat="43.62258" lon="1.31303">
        <ele>166</ele>
        <time>2018-05-02T16:44:42.000Z</time>
      </trkpt>
      <trkpt lat="43.62255" lon="1.31304">
        <ele>166</ele>
        <time>2018-05-02T16:44:44.000Z</time>
      </trkpt>
      <trkpt lat="43.62252" lon="1.31305">
        <ele>166</ele>
        <time>2018-05-02T16:44:46.000Z</time>
      </trkpt>
      <trkpt lat="43.62248" lon="1.31306">
        <ele>166</ele>
        <time>2018-05-02T16:44:48.000Z</time>
      </trkpt>
      <trkpt lat="43.62245" lon="1.31307">
        <ele>166</ele>
        <time>2018-05-02T16:44:50.000Z</time>
      </trkpt>
      <trkpt lat="43.62242" lon="1.31309">
        <ele>166</ele>
        <time>2018-05-02T16:44:52.000Z</time>
      </trkpt>
      <trkpt lat="43.62239" lon="1.3131">
        <ele>166</ele>
        <time>2018-05-02T16:44:54.000Z</time>
      </trkpt>
      <trkpt lat="43.62236" lon="1.31312">
        <ele>166</ele>
        <time>2018-05-02T16:44:56.000Z</time>
      </trkpt>
      <trkpt lat="43.62234" lon="1.31313">
        <ele>166</ele>
        <time>2018-05-02T16:44:58.000Z</time>
      </trkpt>
      <trkpt lat="43.62231" lon="1.31314">
        <ele>166</ele>
        <time>2018-05-02T16:45:00.000Z</time>
      </trkpt>
      <trkpt lat="43.62228" lon="1.31315">
        <ele>166</ele>
        <time>2018-05-02T16:45:02.000Z</time>
      </trkpt>
      <trkpt lat="43.62225" lon="1.31316">
        <ele>166</ele>
        <time>2018-05-02T16:45:04.000Z</time>
      </trkpt>
      <trkpt lat="43.62222" lon="1.31317">
        <ele>166</ele>
        <time>2018-05-02T16:45:06.000Z</time>
      </trkpt>
      <trkpt lat="43.62219" lon="1.31318">
        <ele>166</ele>
        <time>2018-05-02T16:45:08.000Z</time>
      </trkpt>
      <trkpt lat="43.62215" lon="1.31319">
        <ele>166</ele>
        <time>2018-05-02T16:45:10.000Z</time>
      </trkpt>
      <trkpt lat="43.62212" lon="1.3132">
        <ele>166</ele>
        <time>2018-05-02T16:45:12.000Z</time>
      </trkpt>
      <trkpt lat="43.62209" lon="1.31321">
        <ele>166</ele>
        <time>2018-05-02T16:45:14.000Z</time>
      </trkpt>
      <trkpt lat="43.62205" lon="1.31322">
        <ele>166</ele>
        <time>2018-05-02T16:45:16.000Z</time>
      </trkpt>
      <trkpt lat="43.62202" lon="1.31323">
        <ele>166</ele>
        <time>2018-05-02T16:45:18.000Z</time>
      </trkpt>
      <trkpt lat="43.62198" lon="1.31324">
        <ele>166</ele>
        <time>2018-05-02T16:45:20.000Z</time>
      </trkpt>
      <trkpt lat="43.62195" lon="1.31325">
        <ele>166</ele>
        <time>2018-05-02T16:45:22.000Z</time>
      </trkpt>
      <trkpt lat="43.62191" lon="1.31325">
        <ele>166</ele>
        <time>2018-05-02T16:45:24.000Z</time>
      </trkpt>
      <trkpt lat="43.62188" lon="1.31325">
        <ele>166</ele>
        <time>2018-05-02T16:45:26.000Z</time>
      </trkpt>
      <trkpt lat="43.62185" lon="1.31326">
        <ele>166</ele>
        <time>2018-05-02T16:45:28.000Z</time>
      </trkpt>
      <trkpt lat="43.62181" lon="1.31327">
        <ele>166</ele>
        <time>2018-05-02T16:45:30.000Z</time>
      </trkpt>
      <trkpt lat="43.62178" lon="1.31327">
        <ele>166</ele>
        <time>2018-05-02T16:45:32.000Z</time>
      </trkpt>
      <trkpt lat="43.62174" lon="1.31327">
        <ele>166</ele>
        <time>2018-05-02T16:45:34.000Z</time>
      </trkpt>
      <trkpt lat="43.62171" lon="1.31328">
        <ele>166</ele>
        <time>2018-05-02T16:45:36.000Z</time>
      </trkpt>
      <trkpt lat="43.62167" lon="1.31328">
        <ele>166</ele>
        <time>2018-05-02T16:45:38.000Z</time>
      </trkpt>
      <trkpt lat="43.62164" lon="1.31329">
        <ele>166</ele>
        <time>2018-05-02T16:45:40.000Z</time>
      </trkpt>
      <trkpt lat="43.6216" lon="1.3133">
        <ele>166</ele>
        <time>2018-05-02T16:45:42.000Z</time>
      </trkpt>
      <trkpt lat="43.62157" lon="1.3133">
        <ele>166</ele>
        <time>2018-05-02T16:45:44.000Z</time>
      </trkpt>
      <trkpt lat="43.62154" lon="1.31331">
        <ele>166</ele>
        <time>2018-05-02T16:45:46.000Z</time>
      </trkpt>
      <trkpt lat="43.62151" lon="1.31331">
        <ele>166</ele>
        <time>2018-05-02T16:45:48.000Z</time>
      </trkpt>
      <trkpt lat="43.62148" lon="1.31332">
        <ele>166</ele>
        <time>2018-05-02T16:45:50.000Z</time>
      </trkpt>
      <trkpt lat="43.62145" lon="1.31333">
        <ele>166</ele>
        <time>2018-05-02T16:45:52.000Z</time>
      </trkpt>
      <trkpt lat="43.62142" lon="1.31334">
        <ele>167</ele>
        <time>2018-05-02T16:45:54.000Z</time>
      </trkpt>
      <trkpt lat="43.62138" lon="1.31335">
        <ele>167</ele>
        <time>2018-05-02T16:45:56.000Z</time>
      </trkpt>
      <trkpt lat="43.62135" lon="1.31337">
        <ele>167</ele>
        <time>2018-05-02T16:45:58.000Z</time>
      </trkpt>
      <trkpt lat="43.62132" lon="1.31338">
        <ele>167</ele>
        <time>2018-05-02T16:46:00.000Z</time>
      </trkpt>
      <trkpt lat="43.62129" lon="1.3134">
        <ele>167</ele>
        <time>2018-05-02T16:46:02.000Z</time>
      </trkpt>
      <trkpt lat="43.62126" lon="1.31341">
        <ele>167</ele>
        <time>2018-05-02T16:46:04.000Z</time>
      </trkpt>
      <trkpt lat="43.62123" lon="1.31342">
        <ele>167</ele>
        <time>2018-05-02T16:46:06.000Z</time>
      </trkpt>
      <trkpt lat="43.6212" lon="1.31343">
        <ele>167</ele>
        <time>2018-05-02T16:46:08.000Z</time>
      </trkpt>
      <trkpt lat="43.62117" lon="1.31345">
        <ele>167</ele>
        <time>2018-05-02T16:46:10.000Z</time>
      </trkpt>
      <trkpt lat="43.62114" lon="1.31346">
        <ele>167</ele>
        <time>2018-05-02T16:46:12.000Z</time>
      </trkpt>
      <trkpt lat="43.62111" lon="1.31348">
        <ele>167</ele>
        <time>2018-05-02T16:46:14.000Z</time>
      </trkpt>
      <trkpt lat="43.62108" lon="1.31349">
        <ele>167</ele>
        <time>2018-05-02T16:46:16.000Z</time>
      </trkpt>
      <trkpt lat="43.62105" lon="1.3135">
        <ele>167</ele>
        <time>2018-05-02T16:46:18.000Z</time>
      </trkpt>
      <trkpt lat="43.62102" lon="1.31351">
        <ele>167</ele>
        <time>2018-05-02T16:46:20.000Z</time>
      </trkpt>
      <trkpt lat="43.62099" lon="1.31352">
        <ele>167</ele>
        <time>2018-05-02T16:46:22.000Z</time>
      </trkpt>
      <trkpt lat="43.62096" lon="1.31354">
        <ele>167</ele>
        <time>2018-05-02T16:46:24.000Z</time>
      </trkpt>
      <trkpt lat="43.62093" lon="1.31355">
        <ele>167</ele>
        <time>2018-05-02T16:46:26.000Z</time>
      </trkpt>
      <trkpt lat="43.6209" lon="1.31355">
        <ele>167</ele>
        <time>2018-05-02T16:46:28.000Z</time>
      </trkpt>
      <trkpt lat="43.62088" lon="1.31355">
        <ele>167</ele>
        <time>2018-05-02T16:46:30.000Z</time>
      </trkpt>
      <trkpt lat="43.62086" lon="1.31355">
        <ele>167</ele>
        <time>2018-05-02T16:46:32.000Z</time>
      </trkpt>
      <trkpt lat="43.62086" lon="1.31355">
        <ele>167</ele>
        <time>2018-05-02T16:46:34.000Z</time>
      </trkpt>
      <trkpt lat="43.62085" lon="1.31355">
        <ele>167</ele>
        <time>2018-05-02T16:46:36.000Z</time>
      </trkpt>
      <trkpt lat="43.62085" lon="1.31356">
        <ele>167</ele>
        <time>2018-05-02T16:46:38.000Z</time>
      </trkpt>
      <trkpt lat="43.62084" lon="1.31356">
        <ele>167</ele>
        <time>2018-05-02T16:46:40.000Z</time>
      </trkpt>
      <trkpt lat="43.62084" lon="1.31356">
        <ele>167</ele>
        <time>2018-05-02T16:46:42.000Z</time>
      </trkpt>
      <trkpt lat="43.62084" lon="1.31356">
        <ele>167</ele>
        <time>2018-05-02T16:46:44.000Z</time>
      </trkpt>
      <trkpt lat="43.62083" lon="1.31356">
        <ele>167</ele>
        <time>2018-05-02T16:46:46.000Z</time>
      </trkpt>
      <trkpt lat="43.62084" lon="1.31356">
        <ele>167</ele>
        <time>2018-05-02T16:46:48.000Z</time>
      </trkpt>
      <trkpt lat="43.62083" lon="1.31356">
        <ele>167</ele>
        <time>2018-05-02T16:46:50.000Z</time>
      </trkpt>
      <trkpt lat="43.62083" lon="1.31356">
        <ele>167</ele>
        <time>2018-05-02T16:46:52.000Z</time>
      </trkpt>
      <trkpt lat="43.62083" lon="1.31355">
        <ele>167</ele>
        <time>2018-05-02T16:46:54.000Z</time>
      </trkpt>
      <trkpt lat="43.62083" lon="1.31355">
        <ele>167</ele>
        <time>2018-05-02T16:46:56.000Z</time>
      </trkpt>
      <trkpt lat="43.62083" lon="1.31355">
        <ele>167</ele>
        <time>2018-05-02T16:46:58.000Z</time>
      </trkpt>
      <trkpt lat="43.62083" lon="1.31356">
        <ele>167</ele>
        <time>2018-05-02T16:47:00.000Z</time>
      </trkpt>
      <trkpt lat="43.62083" lon="1.31355">
        <ele>167</ele>
        <time>2018-05-02T16:47:02.000Z</time>
      </trkpt>
      <trkpt lat="43.62083" lon="1.31356">
        <ele>167</ele>
        <time>2018-05-02T16:47:04.000Z</time>
      </trkpt>
      <trkpt lat="43.62083" lon="1.31356">
        <ele>167</ele>
        <time>2018-05-02T16:47:06.000Z</time>
      </trkpt>
      <trkpt lat="43.62083" lon="1.31356">
        <ele>167</ele>
        <time>2018-05-02T16:47:08.000Z</time>
      </trkpt>
      <trkpt lat="43.62083" lon="1.31356">
        <ele>167</ele>
        <time>2018-05-02T16:47:10.000Z</time>
      </trkpt>
      <trkpt lat="43.62083" lon="1.31357">
        <ele>167</ele>
        <time>2018-05-02T16:47:12.000Z</time>
      </trkpt>
      <trkpt lat="43.62083" lon="1.31357">
        <ele>167</ele>
        <time>2018-05-02T16:47:14.000Z</time>
      </trkpt>
      <trkpt lat="43.62084" lon="1.31357">
        <ele>167</ele>
        <time>2018-05-02T16:47:16.000Z</time>
      </trkpt>
      <trkpt lat="43.62084" lon="1.31357">
        <ele>167</ele>
        <time>2018-05-02T16:47:18.000Z</time>
      </trkpt>
      <trkpt lat="43.62084" lon="1.31357">
        <ele>167</ele>
        <time>2018-05-02T16:47:20.000Z</time>
      </trkpt>
      <trkpt lat="43.62084" lon="1.31357">
        <ele>167</ele>
        <time>2018-05-02T16:47:22.000Z</time>
      </trkpt>
      <trkpt lat="43.62084" lon="1.31357">
        <ele>167</ele>
        <time>2018-05-02T16:47:24.000Z</time>
      </trkpt>
      <trkpt lat="43.62083" lon="1.31357">
        <ele>167</ele>
        <time>2018-05-02T16:47:26.000Z</time>
      </trkpt>
      <trkpt lat="43.62083" lon="1.31357">
        <ele>167</ele>
        <time>2018-05-02T16:47:28.000Z</time>
      </trkpt>
      <trkpt lat="43.62083" lon="1.31357">
        <ele>167</ele>
        <time>2018-05-02T16:47:30.000Z</time>
      </trkpt>
      <trkpt lat="43.62082" lon="1.31357">
        <ele>167</ele>
        <time>2018-05-02T16:47:32.000Z</time>
      </trkpt>
      <trkpt lat="43.62082" lon="1.31357">
        <ele>167</ele>
        <time>2018-05-02T16:47:34.000Z</time>
      </trkpt>
      <trkpt lat="43.62082" lon="1.31356">
        <ele>167</ele>
        <time>2018-05-02T16:47:36.000Z</time>
      </trkpt>
      <trkpt lat="43.62082" lon="1.31356">
        <ele>167</ele>
        <time>2018-05-02T16:47:38.000Z</time>
      </trkpt>
      <trkpt lat="43.62083" lon="1.31356">
        <ele>167</ele>
        <time>2018-05-02T16:47:40.000Z</time>
      </trkpt>
      <trkpt lat="43.62082" lon="1.31356">
        <ele>167</ele>
        <time>2018-05-02T16:47:42.000Z</time>
      </trkpt>
      <trkpt lat="43.62082" lon="1.31355">
        <ele>167</ele>
        <time>2018-05-02T16:47:44.000Z</time>
      </trkpt>
      <trkpt lat="43.62082" lon="1.31356">
        <ele>167</ele>
        <time>2018-05-02T16:47:46.000Z</time>
      </trkpt>
      <trkpt lat="43.62083" lon="1.31356">
        <ele>167</ele>
        <time>2018-05-02T16:47:48.000Z</time>
      </trkpt>
      <trkpt lat="43.62083" lon="1.31356">
        <ele>167</ele>
        <time>2018-05-02T16:47:50.000Z</time>
      </trkpt>
      <trkpt lat="43.62083" lon="1.31356">
        <ele>167</ele>
        <time>2018-05-02T16:47:52.000Z</time>
      </trkpt>
      <trkpt lat="43.62083" lon="1.31356">
        <ele>167</ele>
        <time>2018-05-02T16:47:54.000Z</time>
      </trkpt>
      <trkpt lat="43.62083" lon="1.31356">
        <ele>167</ele>
        <time>2018-05-02T16:47:56.000Z</time>
      </trkpt>
      <trkpt lat="43.62083" lon="1.31357">
        <ele>167</ele>
        <time>2018-05-02T16:47:58.000Z</time>
      </trkpt>
      <trkpt lat="43.62083" lon="1.31357">
        <ele>167</ele>
        <time>2018-05-02T16:48:00.000Z</time>
      </trkpt>
      <trkpt lat="43.62083" lon="1.31356">
        <ele>167</ele>
        <time>2018-05-02T16:48:02.000Z</time>
      </trkpt>
      <trkpt lat="43.62083" lon="1.31356">
        <ele>167</ele>
        <time>2018-05-02T16:48:04.000Z</time>
      </trkpt>
      <trkpt lat="43.62083" lon="1.31356">
        <ele>167</ele>
        <time>2018-05-02T16:48:06.000Z</time>
      </trkpt>
      <trkpt lat="43.62083" lon="1.31356">
        <ele>167</ele>
        <time>2018-05-02T16:48:08.000Z</time>
      </trkpt>
      <trkpt lat="43.62083" lon="1.31356">
        <ele>167</ele>
        <time>2018-05-02T16:48:10.000Z</time>
      </trkpt>
      <trkpt lat="43.62084" lon="1.31356">
        <ele>167</ele>
        <time>2018-05-02T16:48:12.000Z</time>
      </trkpt>
      <trkpt lat="43.62084" lon="1.31355">
        <ele>167</ele>
        <time>2018-05-02T16:48:14.000Z</time>
      </trkpt>
      <trkpt lat="43.62084" lon="1.31355">
        <ele>167</ele>
        <time>2018-05-02T16:48:16.000Z</time>
      </trkpt>
      <trkpt lat="43.62084" lon="1.31355">
        <ele>167</ele>
        <time>2018-05-02T16:48:18.000Z</time>
      </trkpt>
      <trkpt lat="43.62084" lon="1.31355">
        <ele>167</ele>
        <time>2018-05-02T16:48:20.000Z</time>
      </trkpt>
      <trkpt lat="43.62084" lon="1.31355">
        <ele>167</ele>
        <time>2018-05-02T16:48:22.000Z</time>
      </trkpt>
      <trkpt lat="43.62084" lon="1.31355">
        <ele>167</ele>
        <time>2018-05-02T16:48:24.000Z</time>
      </trkpt>
      <trkpt lat="43.62084" lon="1.31355">
        <ele>167</ele>
        <time>2018-05-02T16:48:26.000Z</time>
      </trkpt>
      <trkpt lat="43.62083" lon="1.31355">
        <ele>167</ele>
        <time>2018-05-02T16:48:28.000Z</time>
      </trkpt>
      <trkpt lat="43.62082" lon="1.31356">
        <ele>167</ele>
        <time>2018-05-02T16:48:30.000Z</time>
      </trkpt>
      <trkpt lat="43.62081" lon="1.31356">
        <ele>167</ele>
        <time>2018-05-02T16:48:32.000Z</time>
      </trkpt>
      <trkpt lat="43.62081" lon="1.31357">
        <ele>167</ele>
        <time>2018-05-02T16:48:34.000Z</time>
      </trkpt>
      <trkpt lat="43.62081" lon="1.31357">
        <ele>167</ele>
        <time>2018-05-02T16:48:36.000Z</time>
      </trkpt>
      <trkpt lat="43.6208" lon="1.31358">
        <ele>167</ele>
        <time>2018-05-02T16:48:38.000Z</time>
      </trkpt>
      <trkpt lat="43.6208" lon="1.31358">
        <ele>167</ele>
        <time>2018-05-02T16:48:40.000Z</time>
      </trkpt>
      <trkpt lat="43.6208" lon="1.31359">
        <ele>167</ele>
        <time>2018-05-02T16:48:42.000Z</time>
      </trkpt>
      <trkpt lat="43.62081" lon="1.31358">
        <ele>167</ele>
        <time>2018-05-02T16:48:44.000Z</time>
      </trkpt>
      <trkpt lat="43.62081" lon="1.31358">
        <ele>167</ele>
        <time>2018-05-02T16:48:46.000Z</time>
      </trkpt>
      <trkpt lat="43.62081" lon="1.31358">
        <ele>167</ele>
        <time>2018-05-02T16:48:48.000Z</time>
      </trkpt>
      <trkpt lat="43.62081" lon="1.31358">
        <ele>167</ele>
        <time>2018-05-02T16:48:50.000Z</time>
      </trkpt>
      <trkpt lat="43.62082" lon="1.31357">
        <ele>167</ele>
        <time>2018-05-02T16:48:52.000Z</time>
      </trkpt>
      <trkpt lat="43.62082" lon="1.31357">
        <ele>167</ele>
        <time>2018-05-02T16:48:54.000Z</time>
      </trkpt>
      <trkpt lat="43.62082" lon="1.31357">
        <ele>167</ele>
        <time>2018-05-02T16:48:56.000Z</time>
      </trkpt>
      <trkpt lat="43.62083" lon="1.31357">
        <ele>167</ele>
        <time>2018-05-02T16:48:58.000Z</time>
      </trkpt>
      <trkpt lat="43.62083" lon="1.31357">
        <ele>167</ele>
        <time>2018-05-02T16:49:00.000Z</time>
      </trkpt>
      <trkpt lat="43.62083" lon="1.31357">
        <ele>167</ele>
        <time>2018-05-02T16:49:02.000Z</time>
      </trkpt>
      <trkpt lat="43.62083" lon="1.31357">
        <ele>167</ele>
        <time>2018-05-02T16:49:04.000Z</time>
      </trkpt>
      <trkpt lat="43.62083" lon="1.31357">
        <ele>167</ele>
        <time>2018-05-02T16:49:06.000Z</time>
      </trkpt>
      <trkpt lat="43.62083" lon="1.31357">
        <ele>167</ele>
        <time>2018-05-02T16:49:08.000Z</time>
      </trkpt>
      <trkpt lat="43.62083" lon="1.31357">
        <ele>167</ele>
        <time>2018-05-02T16:49:10.000Z</time>
      </trkpt>
      <trkpt lat="43.62083" lon="1.31356">
        <ele>167</ele>
        <time>2018-05-02T16:49:12.000Z</time>
      </trkpt>
      <trkpt lat="43.62082" lon="1.31357">
        <ele>167</ele>
        <time>2018-05-02T16:49:14.000Z</time>
      </trkpt>
      <trkpt lat="43.62083" lon="1.31357">
        <ele>167</ele>
        <time>2018-05-02T16:49:16.000Z</time>
      </trkpt>
      <trkpt lat="43.62083" lon="1.31357">
        <ele>167</ele>
        <time>2018-05-02T16:49:18.000Z</time>
      </trkpt>
      <trkpt lat="43.62082" lon="1.31357">
        <ele>167</ele>
        <time>2018-05-02T16:49:20.000Z</time>
      </trkpt>
      <trkpt lat="43.62082" lon="1.31356">
        <ele>167</ele>
        <time>2018-05-02T16:49:22.000Z</time>
      </trkpt>
      <trkpt lat="43.62082" lon="1.31356">
        <ele>167</ele>
        <time>2018-05-02T16:49:24.000Z</time>
      </trkpt>
      <trkpt lat="43.62083" lon="1.31356">
        <ele>167</ele>
        <time>2018-05-02T16:49:26.000Z</time>
      </trkpt>
      <trkpt lat="43.62084" lon="1.31356">
        <ele>167</ele>
        <time>2018-05-02T16:49:28.000Z</time>
      </trkpt>
      <trkpt lat="43.62084" lon="1.31355">
        <ele>167</ele>
        <time>2018-05-02T16:49:30.000Z</time>
      </trkpt>
      <trkpt lat="43.62085" lon="1.31355">
        <ele>167</ele>
        <time>2018-05-02T16:49:32.000Z</time>
      </trkpt>
      <trkpt lat="43.62085" lon="1.31355">
        <ele>167</ele>
        <time>2018-05-02T16:49:34.000Z</time>
      </trkpt>
      <trkpt lat="43.62085" lon="1.31355">
        <ele>167</ele>
        <time>2018-05-02T16:49:36.000Z</time>
      </trkpt>
      <trkpt lat="43.62085" lon="1.31356">
        <ele>167</ele>
        <time>2018-05-02T16:49:38.000Z</time>
      </trkpt>
      <trkpt lat="43.62085" lon="1.31356">
        <ele>167</ele>
        <time>2018-05-02T16:49:40.000Z</time>
      </trkpt>
      <trkpt lat="43.62085" lon="1.31356">
        <ele>167</ele>
        <time>2018-05-02T16:49:42.000Z</time>
      </trkpt>
      <trkpt lat="43.62086" lon="1.31356">
        <ele>167</ele>
        <time>2018-05-02T16:49:44.000Z</time>
      </trkpt>
      <trkpt lat="43.62086" lon="1.31356">
        <ele>167</ele>
        <time>2018-05-02T16:49:46.000Z</time>
      </trkpt>
      <trkpt lat="43.62086" lon="1.31356">
        <ele>167</ele>
        <time>2018-05-02T16:49:48.000Z</time>
      </trkpt>
      <trkpt lat="43.62086" lon="1.31356">
        <ele>167</ele>
        <time>2018-05-02T16:49:50.000Z</time>
      </trkpt>
      <trkpt lat="43.62086" lon="1.31356">
        <ele>167</ele>
        <time>2018-05-02T16:49:52.000Z</time>
      </trkpt>
      <trkpt lat="43.62086" lon="1.31356">
        <ele>167</ele>
        <time>2018-05-02T16:49:54.000Z</time>
      </trkpt>
      <trkpt lat="43.62086" lon="1.31356">
        <ele>167</ele>
        <time>2018-05-02T16:49:56.000Z</time>
      </trkpt>
      <trkpt lat="43.62086" lon="1.31356">
        <ele>167</ele>
        <time>2018-05-02T16:49:58.000Z</time>
      </trkpt>
      <trkpt lat="43.62086" lon="1.31356">
        <ele>167</ele>
        <time>2018-05-02T16:50:00.000Z</time>
      </trkpt>
      <trkpt lat="43.62086" lon="1.31356">
        <ele>167</ele>
        <time>2018-05-02T16:50:02.000Z</time>
      </trkpt>
      <trkpt lat="43.62086" lon="1.31357">
        <ele>167</ele>
        <time>2018-05-02T16:50:04.000Z</time>
      </trkpt>
      <trkpt lat="43.62086" lon="1.31357">
        <ele>167</ele>
        <time>2018-05-02T16:50:06.000Z</time>
      </trkpt>
      <trkpt lat="43.62086" lon="1.31357">
        <ele>167</ele>
        <time>2018-05-02T16:50:08.000Z</time>
      </trkpt>
      <trkpt lat="43.62086" lon="1.31357">
        <ele>167</ele>
        <time>2018-05-02T16:50:10.000Z</time>
      </trkpt>
      <trkpt lat="43.62086" lon="1.31357">
        <ele>167</ele>
        <time>2018-05-02T16:50:12.000Z</time>
      </trkpt>
      <trkpt lat="43.62086" lon="1.31357">
        <ele>167</ele>
        <time>2018-05-02T16:50:14.000Z</time>
      </trkpt>
      <trkpt lat="43.62086" lon="1.31357">
        <ele>167</ele>
        <time>2018-05-02T16:50:16.000Z</time>
      </trkpt>
      <trkpt lat="43.62086" lon="1.31357">
        <ele>167</ele>
        <time>2018-05-02T16:50:18.000Z</time>
      </trkpt>
      <trkpt lat="43.62086" lon="1.31357">
        <ele>167</ele>
        <time>2018-05-02T16:50:20.000Z</time>
      </trkpt>
      <trkpt lat="43.62086" lon="1.31357">
        <ele>167</ele>
        <time>2018-05-02T16:50:22.000Z</time>
      </trkpt>
      <trkpt lat="43.62087" lon="1.31357">
        <ele>167</ele>
        <time>2018-05-02T16:50:24.000Z</time>
      </trkpt>
      <trkpt lat="43.62087" lon="1.31357">
        <ele>167</ele>
        <time>2018-05-02T16:50:26.000Z</time>
      </trkpt>
      <trkpt lat="43.62087" lon="1.31357">
        <ele>167</ele>
        <time>2018-05-02T16:50:28.000Z</time>
      </trkpt>
      <trkpt lat="43.62087" lon="1.31357">
        <ele>167</ele>
        <time>2018-05-02T16:50:30.000Z</time>
      </trkpt>
      <trkpt lat="43.62087" lon="1.31358">
        <ele>167</ele>
        <time>2018-05-02T16:50:32.000Z</time>
      </trkpt>
      <trkpt lat="43.62087" lon="1.31358">
        <ele>167</ele>
        <time>2018-05-02T16:50:34.000Z</time>
      </trkpt>
      <trkpt lat="43.62087" lon="1.31358">
        <ele>167</ele>
        <time>2018-05-02T16:50:36.000Z</time>
      </trkpt>
      <trkpt lat="43.62087" lon="1.31358">
        <ele>167</ele>
        <time>2018-05-02T16:50:38.000Z</time>
      </trkpt>
      <trkpt lat="43.62087" lon="1.31358">
        <ele>167</ele>
        <time>2018-05-02T16:50:40.000Z</time>
      </trkpt>
      <trkpt lat="43.62087" lon="1.31358">
        <ele>167</ele>
        <time>2018-05-02T16:50:42.000Z</time>
      </trkpt>
      <trkpt lat="43.62086" lon="1.31358">
        <ele>167</ele>
        <time>2018-05-02T16:50:44.000Z</time>
      </trkpt>
      <trkpt lat="43.62086" lon="1.31358">
        <ele>167</ele>
        <time>2018-05-02T16:50:46.000Z</time>
      </trkpt>
      <trkpt lat="43.62086" lon="1.31358">
        <ele>167</ele>
        <time>2018-05-02T16:50:48.000Z</time>
      </trkpt>
      <trkpt lat="43.62086" lon="1.31357">
        <ele>167</ele>
        <time>2018-05-02T16:50:50.000Z</time>
      </trkpt>
      <trkpt lat="43.62086" lon="1.31358">
        <ele>167</ele>
        <time>2018-05-02T16:50:52.000Z</time>
      </trkpt>
      <trkpt lat="43.62086" lon="1.31358">
        <ele>167</ele>
        <time>2018-05-02T16:50:54.000Z</time>
      </trkpt>
      <trkpt lat="43.62086" lon="1.31358">
        <ele>167</ele>
        <time>2018-05-02T16:50:56.000Z</time>
      </trkpt>
      <trkpt lat="43.62086" lon="1.31359">
        <ele>167</ele>
        <time>2018-05-02T16:50:58.000Z</time>
      </trkpt>
      <trkpt lat="43.62086" lon="1.31359">
        <ele>167</ele>
        <time>2018-05-02T16:51:00.000Z</time>
      </trkpt>
      <trkpt lat="43.62086" lon="1.31358">
        <ele>167</ele>
        <time>2018-05-02T16:51:02.000Z</time>
      </trkpt>
      <trkpt lat="43.62087" lon="1.31359">
        <ele>167</ele>
        <time>2018-05-02T16:51:04.000Z</time>
      </trkpt>
      <trkpt lat="43.62086" lon="1.31359">
        <ele>167</ele>
        <time>2018-05-02T16:51:06.000Z</time>
      </trkpt>
      <trkpt lat="43.62086" lon="1.31359">
        <ele>167</ele>
        <time>2018-05-02T16:51:08.000Z</time>
      </trkpt>
      <trkpt lat="43.62087" lon="1.31359">
        <ele>167</ele>
        <time>2018-05-02T16:51:10.000Z</time>
      </trkpt>
      <trkpt lat="43.62086" lon="1.31358">
        <ele>167</ele>
        <time>2018-05-02T16:51:12.000Z</time>
      </trkpt>
      <trkpt lat="43.62086" lon="1.31358">
        <ele>167</ele>
        <time>2018-05-02T16:51:14.000Z</time>
      </trkpt>
      <trkpt lat="43.62086" lon="1.31358">
        <ele>167</ele>
        <time>2018-05-02T16:51:16.000Z</time>
      </trkpt>
      <trkpt lat="43.62087" lon="1.31358">
        <ele>167</ele>
        <time>2018-05-02T16:51:18.000Z</time>
      </trkpt>
      <trkpt lat="43.62086" lon="1.31359">
        <ele>167</ele>
        <time>2018-05-02T16:51:20.000Z</time>
      </trkpt>
      <trkpt lat="43.62086" lon="1.31359">
        <ele>167</ele>
        <time>2018-05-02T16:51:22.000Z</time>
      </trkpt>
      <trkpt lat="43.62086" lon="1.31359">
        <ele>167</ele>
        <time>2018-05-02T16:51:24.000Z</time>
      </trkpt>
      <trkpt lat="43.62085" lon="1.31359">
        <ele>167</ele>
        <time>2018-05-02T16:51:26.000Z</time>
      </trkpt>
      <trkpt lat="43.62086" lon="1.31358">
        <ele>167</ele>
        <time>2018-05-02T16:51:28.000Z</time>
      </trkpt>
      <trkpt lat="43.62086" lon="1.31358">
        <ele>167</ele>
        <time>2018-05-02T16:51:30.000Z</time>
      </trkpt>
      <trkpt lat="43.62086" lon="1.31358">
        <ele>167</ele>
        <time>2018-05-02T16:51:32.000Z</time>
      </trkpt>
      <trkpt lat="43.62086" lon="1.31358">
        <ele>167</ele>
        <time>2018-05-02T16:51:34.000Z</time>
      </trkpt>
      <trkpt lat="43.62086" lon="1.31358">
        <ele>167</ele>
        <time>2018-05-02T16:51:36.000Z</time>
      </trkpt>
      <trkpt lat="43.62086" lon="1.31358">
        <ele>167</ele>
        <time>2018-05-02T16:51:38.000Z</time>
      </trkpt>
      <trkpt lat="43.62087" lon="1.31359">
        <ele>167</ele>
        <time>2018-05-02T16:51:40.000Z</time>
      </trkpt>
      <trkpt lat="43.62087" lon="1.31359">
        <ele>167</ele>
        <time>2018-05-02T16:51:42.000Z</time>
      </trkpt>
      <trkpt lat="43.62087" lon="1.31359">
        <ele>167</ele>
        <time>2018-05-02T16:51:44.000Z</time>
      </trkpt>
      <trkpt lat="43.62087" lon="1.31359">
        <ele>167</ele>
        <time>2018-05-02T16:51:46.000Z</time>
      </trkpt>
      <trkpt lat="43.62087" lon="1.31359">
        <ele>167</ele>
        <time>2018-05-02T16:51:48.000Z</time>
      </trkpt>
      <trkpt lat="43.62087" lon="1.31359">
        <ele>167</ele>
        <time>2018-05-02T16:51:50.000Z</time>
      </trkpt>
      <trkpt lat="43.62087" lon="1.3136">
        <ele>167</ele>
        <time>2018-05-02T16:51:52.000Z</time>
      </trkpt>
      <trkpt lat="43.62087" lon="1.31359">
        <ele>167</ele>
        <time>2018-05-02T16:51:54.000Z</time>
      </trkpt>
      <trkpt lat="43.62087" lon="1.31359">
        <ele>167</ele>
        <time>2018-05-02T16:51:56.000Z</time>
      </trkpt>
      <trkpt lat="43.62087" lon="1.31359">
        <ele>167</ele>
        <time>2018-05-02T16:51:58.000Z</time>
      </trkpt>
      <trkpt lat="43.62087" lon="1.31359">
        <ele>167</ele>
        <time>2018-05-02T16:52:00.000Z</time>
      </trkpt>
      <trkpt lat="43.62087" lon="1.31359">
        <ele>167</ele>
        <time>2018-05-02T16:52:02.000Z</time>
      </trkpt>
      <trkpt lat="43.62087" lon="1.31359">
        <ele>167</ele>
        <time>2018-05-02T16:52:04.000Z</time>
      </trkpt>
      <trkpt lat="43.62087" lon="1.31359">
        <ele>167</ele>
        <time>2018-05-02T16:52:06.000Z</time>
      </trkpt>
      <trkpt lat="43.62087" lon="1.31359">
        <ele>167</ele>
        <time>2018-05-02T16:52:08.000Z</time>
      </trkpt>
      <trkpt lat="43.62087" lon="1.31358">
        <ele>167</ele>
        <time>2018-05-02T16:52:10.000Z</time>
      </trkpt>
      <trkpt lat="43.62087" lon="1.31359">
        <ele>167</ele>
        <time>2018-05-02T16:52:12.000Z</time>
      </trkpt>
      <trkpt lat="43.62087" lon="1.31359">
        <ele>167</ele>
        <time>2018-05-02T16:52:14.000Z</time>
      </trkpt>
      <trkpt lat="43.62086" lon="1.31359">
        <ele>167</ele>
        <time>2018-05-02T16:52:16.000Z</time>
      </trkpt>
      <trkpt lat="43.62086" lon="1.31359">
        <ele>167</ele>
        <time>2018-05-02T16:52:18.000Z</time>
      </trkpt>
      <trkpt lat="43.62086" lon="1.3136">
        <ele>167</ele>
        <time>2018-05-02T16:52:20.000Z</time>
      </trkpt>
      <trkpt lat="43.62086" lon="1.3136">
        <ele>167</ele>
        <time>2018-05-02T16:52:22.000Z</time>
      </trkpt>
      <trkpt lat="43.62086" lon="1.31359">
        <ele>167</ele>
        <time>2018-05-02T16:52:24.000Z</time>
      </trkpt>
      <trkpt lat="43.62085" lon="1.31359">
        <ele>167</ele>
        <time>2018-05-02T16:52:26.000Z</time>
      </trkpt>
      <trkpt lat="43.62085" lon="1.31358">
        <ele>167</ele>
        <time>2018-05-02T16:52:28.000Z</time>
      </trkpt>
      <trkpt lat="43.62085" lon="1.31358">
        <ele>167</ele>
        <time>2018-05-02T16:52:30.000Z</time>
      </trkpt>
      <trkpt lat="43.62085" lon="1.31358">
        <ele>167</ele>
        <time>2018-05-02T16:52:32.000Z</time>
      </trkpt>
      <trkpt lat="43.62085" lon="1.31357">
        <ele>167</ele>
        <time>2018-05-02T16:52:34.000Z</time>
      </trkpt>
      <trkpt lat="43.62085" lon="1.31357">
        <ele>167</ele>
        <time>2018-05-02T16:52:36.000Z</time>
      </trkpt>
      <trkpt lat="43.62085" lon="1.31357">
        <ele>167</ele>
        <time>2018-05-02T16:52:38.000Z</time>
      </trkpt>
      <trkpt lat="43.62086" lon="1.31357">
        <ele>167</ele>
        <time>2018-05-02T16:52:40.000Z</time>
      </trkpt>
      <trkpt lat="43.62085" lon="1.31357">
        <ele>167</ele>
        <time>2018-05-02T16:52:42.000Z</time>
      </trkpt>
      <trkpt lat="43.62085" lon="1.31357">
        <ele>167</ele>
        <time>2018-05-02T16:52:44.000Z</time>
      </trkpt>
      <trkpt lat="43.62086" lon="1.31355">
        <ele>167</ele>
        <time>2018-05-02T16:52:46.000Z</time>
      </trkpt>
      <trkpt lat="43.62088" lon="1.31355">
        <ele>167</ele>
        <time>2018-05-02T16:52:48.000Z</time>
      </trkpt>
      <trkpt lat="43.6209" lon="1.31355">
        <ele>167</ele>
        <time>2018-05-02T16:52:50.000Z</time>
      </trkpt>
      <trkpt lat="43.62092" lon="1.31354">
        <ele>167</ele>
        <time>2018-05-02T16:52:52.000Z</time>
      </trkpt>
      <trkpt lat="43.62095" lon="1.31353">
        <ele>167</ele>
        <time>2018-05-02T16:52:54.000Z</time>
      </trkpt>
      <trkpt lat="43.62098" lon="1.31352">
        <ele>167</ele>
        <time>2018-05-02T16:52:56.000Z</time>
      </trkpt>
      <trkpt lat="43.621" lon="1.31351">
        <ele>167</ele>
        <time>2018-05-02T16:52:58.000Z</time>
      </trkpt>
      <trkpt lat="43.62103" lon="1.31349">
        <ele>167</ele>
        <time>2018-05-02T16:53:00.000Z</time>
      </trkpt>
      <trkpt lat="43.62105" lon="1.31347">
        <ele>167</ele>
        <time>2018-05-02T16:53:02.000Z</time>
      </trkpt>
      <trkpt lat="43.62108" lon="1.31345">
        <ele>167</ele>
        <time>2018-05-02T16:53:04.000Z</time>
      </trkpt>
      <trkpt lat="43.62111" lon="1.31344">
        <ele>167</ele>
        <time>2018-05-02T16:53:06.000Z</time>
      </trkpt>
      <trkpt lat="43.62114" lon="1.31343">
        <ele>167</ele>
        <time>2018-05-02T16:53:08.000Z</time>
      </trkpt>
      <trkpt lat="43.62117" lon="1.31341">
        <ele>167</ele>
        <time>2018-05-02T16:53:10.000Z</time>
      </trkpt>
      <trkpt lat="43.6212" lon="1.31339">
        <ele>167</ele>
        <time>2018-05-02T16:53:12.000Z</time>
      </trkpt>
      <trkpt lat="43.62123" lon="1.31337">
        <ele>167</ele>
        <time>2018-05-02T16:53:14.000Z</time>
      </trkpt>
      <trkpt lat="43.62126" lon="1.31336">
        <ele>167</ele>
        <time>2018-05-02T16:53:16.000Z</time>
      </trkpt>
      <trkpt lat="43.62129" lon="1.31335">
        <ele>167</ele>
        <time>2018-05-02T16:53:18.000Z</time>
      </trkpt>
      <trkpt lat="43.62133" lon="1.31334">
        <ele>167</ele>
        <time>2018-05-02T16:53:20.000Z</time>
      </trkpt>
      <trkpt lat="43.62136" lon="1.31333">
        <ele>167</ele>
        <time>2018-05-02T16:53:22.000Z</time>
      </trkpt>
      <trkpt lat="43.62139" lon="1.31331">
        <ele>166</ele>
        <time>2018-05-02T16:53:24.000Z</time>
      </trkpt>
      <trkpt lat="43.62143" lon="1.3133">
        <ele>166</ele>
        <time>2018-05-02T16:53:26.000Z</time>
      </trkpt>
      <trkpt lat="43.62146" lon="1.31329">
        <ele>166</ele>
        <time>2018-05-02T16:53:28.000Z</time>
      </trkpt>
      <trkpt lat="43.6215" lon="1.31329">
        <ele>166</ele>
        <time>2018-05-02T16:53:30.000Z</time>
      </trkpt>
      <trkpt lat="43.62153" lon="1.31328">
        <ele>166</ele>
        <time>2018-05-02T16:53:32.000Z</time>
      </trkpt>
      <trkpt lat="43.62156" lon="1.31328">
        <ele>166</ele>
        <time>2018-05-02T16:53:34.000Z</time>
      </trkpt>
      <trkpt lat="43.62159" lon="1.31327">
        <ele>166</ele>
        <time>2018-05-02T16:53:36.000Z</time>
      </trkpt>
      <trkpt lat="43.62162" lon="1.31327">
        <ele>166</ele>
        <time>2018-05-02T16:53:38.000Z</time>
      </trkpt>
      <trkpt lat="43.62166" lon="1.31327">
        <ele>166</ele>
        <time>2018-05-02T16:53:40.000Z</time>
      </trkpt>
      <trkpt lat="43.62169" lon="1.31327">
        <ele>166</ele>
        <time>2018-05-02T16:53:42.000Z</time>
      </trkpt>
      <trkpt lat="43.62172" lon="1.31326">
        <ele>166</ele>
        <time>2018-05-02T16:53:44.000Z</time>
      </trkpt>
      <trkpt lat="43.62176" lon="1.31326">
        <ele>166</ele>
        <time>2018-05-02T16:53:46.000Z</time>
      </trkpt>
      <trkpt lat="43.62179" lon="1.31325">
        <ele>166</ele>
        <time>2018-05-02T16:53:48.000Z</time>
      </trkpt>
      <trkpt lat="43.62182" lon="1.31325">
        <ele>166</ele>
        <time>2018-05-02T16:53:50.000Z</time>
      </trkpt>
      <trkpt lat="43.62186" lon="1.31325">
        <ele>166</ele>
        <time>2018-05-02T16:53:52.000Z</time>
      </trkpt>
      <trkpt lat="43.62189" lon="1.31325">
        <ele>166</ele>
        <time>2018-05-02T16:53:54.000Z</time>
      </trkpt>
      <trkpt lat="43.62193" lon="1.31324">
        <ele>166</ele>
        <time>2018-05-02T16:53:56.000Z</time>
      </trkpt>
      <trkpt lat="43.62197" lon="1.31323">
        <ele>166</ele>
        <time>2018-05-02T16:53:58.000Z</time>
      </trkpt>
      <trkpt lat="43.622" lon="1.31323">
        <ele>166</ele>
        <time>2018-05-02T16:54:00.000Z</time>
      </trkpt>
      <trkpt lat="43.62204" lon="1.31322">
        <ele>166</ele>
        <time>2018-05-02T16:54:02.000Z</time>
      </trkpt>
      <trkpt lat="43.62207" lon="1.31321">
        <ele>166</ele>
        <time>2018-05-02T16:54:04.000Z</time>
      </trkpt>
      <trkpt lat="43.62211" lon="1.3132">
        <ele>166</ele>
        <time>2018-05-02T16:54:06.000Z</time>
      </trkpt>
      <trkpt lat="43.62214" lon="1.3132">
        <ele>166</ele>
        <time>2018-05-02T16:54:08.000Z</time>
      </trkpt>
      <trkpt lat="43.62218" lon="1.31319">
        <ele>166</ele>
        <time>2018-05-02T16:54:10.000Z</time>
      </trkpt>
      <trkpt lat="43.62221" lon="1.31318">
        <ele>166</ele>
        <time>2018-05-02T16:54:12.000Z</time>
      </trkpt>
      <trkpt lat="43.62225" lon="1.31317">
        <ele>166</ele>
        <time>2018-05-02T16:54:14.000Z</time>
      </trkpt>
      <trkpt lat="43.62228" lon="1.31316">
        <ele>166</ele>
        <time>2018-05-02T16:54:16.000Z</time>
      </trkpt>
      <trkpt lat="43.62231" lon="1.31315">
        <ele>166</ele>
        <time>2018-05-02T16:54:18.000Z</time>
      </trkpt>
      <trkpt lat="43.62235" lon="1.31313">
        <ele>166</ele>
        <time>2018-05-02T16:54:20.000Z</time>
      </trkpt>
      <trkpt lat="43.62238" lon="1.31311">
        <ele>166</ele>
        <time>2018-05-02T16:54:22.000Z</time>
      </trkpt>
      <trkpt lat="43.62242" lon="1.31311">
        <ele>166</ele>
        <time>2018-05-02T16:54:24.000Z</time>
      </trkpt>
      <trkpt lat="43.62245" lon="1.31309">
        <ele>166</ele>
        <time>2018-05-02T16:54:26.000Z</time>
      </trkpt>
      <trkpt lat="43.62248" lon="1.31308">
        <ele>166</ele>
        <time>2018-05-02T16:54:28.000Z</time>
      </trkpt>
      <trkpt lat="43.62251" lon="1.31307">
        <ele>166</ele>
        <time>2018-05-02T16:54:30.000Z</time>
      </trkpt>
      <trkpt lat="43.62255" lon="1.31306">
        <ele>166</ele>
        <time>2018-05-02T16:54:32.000Z</time>
      </trkpt>
      <trkpt lat="43.62258" lon="1.31305">
        <ele>166</ele>
        <time>2018-05-02T16:54:34.000Z</time>
      </trkpt>
      <trkpt lat="43.62262" lon="1.31305">
        <ele>166</ele>
        <time>2018-05-02T16:54:36.000Z</time>
      </trkpt>
      <trkpt lat="43.62265" lon="1.31303">
        <ele>166</ele>
        <time>2018-05-02T16:54:38.000Z</time>
      </trkpt>
      <trkpt lat="43.62268" lon="1.31301">
        <ele>166</ele>
        <time>2018-05-02T16:54:40.000Z</time>
      </trkpt>
      <trkpt lat="43.62272" lon="1.31299">
        <ele>166</ele>
        <time>2018-05-02T16:54:42.000Z</time>
      </trkpt>
      <trkpt lat="43.62275" lon="1.31297">
        <ele>166</ele>
        <time>2018-05-02T16:54:44.000Z</time>
      </trkpt>
      <trkpt lat="43.62278" lon="1.31296">
        <ele>166</ele>
        <time>2018-05-02T16:54:46.000Z</time>
      </trkpt>
      <trkpt lat="43.62281" lon="1.31294">
        <ele>166</ele>
        <time>2018-05-02T16:54:48.000Z</time>
      </trkpt>
      <trkpt lat="43.62284" lon="1.31292">
        <ele>166</ele>
        <time>2018-05-02T16:54:50.000Z</time>
      </trkpt>
      <trkpt lat="43.62287" lon="1.31291">
        <ele>166</ele>
        <time>2018-05-02T16:54:52.000Z</time>
      </trkpt>
      <trkpt lat="43.6229" lon="1.31289">
        <ele>166</ele>
        <time>2018-05-02T16:54:54.000Z</time>
      </trkpt>
      <trkpt lat="43.62293" lon="1.31288">
        <ele>166</ele>
        <time>2018-05-02T16:54:56.000Z</time>
      </trkpt>
      <trkpt lat="43.62297" lon="1.31286">
        <ele>166</ele>
        <time>2018-05-02T16:54:58.000Z</time>
      </trkpt>
      <trkpt lat="43.623" lon="1.31284">
        <ele>166</ele>
        <time>2018-05-02T16:55:00.000Z</time>
      </trkpt>
      <trkpt lat="43.62303" lon="1.31282">
        <ele>166</ele>
        <time>2018-05-02T16:55:02.000Z</time>
      </trkpt>
      <trkpt lat="43.62306" lon="1.31281">
        <ele>166</ele>
        <time>2018-05-02T16:55:04.000Z</time>
      </trkpt>
      <trkpt lat="43.62309" lon="1.3128">
        <ele>166</ele>
        <time>2018-05-02T16:55:06.000Z</time>
      </trkpt>
      <trkpt lat="43.62312" lon="1.31279">
        <ele>167</ele>
        <time>2018-05-02T16:55:08.000Z</time>
      </trkpt>
      <trkpt lat="43.62316" lon="1.31279">
        <ele>167</ele>
        <time>2018-05-02T16:55:10.000Z</time>
      </trkpt>
      <trkpt lat="43.62319" lon="1.31278">
        <ele>166</ele>
        <time>2018-05-02T16:55:12.000Z</time>
      </trkpt>
      <trkpt lat="43.62322" lon="1.31277">
        <ele>166</ele>
        <time>2018-05-02T16:55:14.000Z</time>
      </trkpt>
      <trkpt lat="43.62325" lon="1.31275">
        <ele>166</ele>
        <time>2018-05-02T16:55:16.000Z</time>
      </trkpt>
      <trkpt lat="43.62328" lon="1.31274">
        <ele>166</ele>
        <time>2018-05-02T16:55:18.000Z</time>
      </trkpt>
      <trkpt lat="43.62331" lon="1.31273">
        <ele>166</ele>
        <time>2018-05-02T16:55:20.000Z</time>
      </trkpt>
      <trkpt lat="43.62334" lon="1.31272">
        <ele>166</ele>
        <time>2018-05-02T16:55:22.000Z</time>
      </trkpt>
      <trkpt lat="43.62337" lon="1.3127">
        <ele>165</ele>
        <time>2018-05-02T16:55:24.000Z</time>
      </trkpt>
      <trkpt lat="43.6234" lon="1.31268">
        <ele>165</ele>
        <time>2018-05-02T16:55:26.000Z</time>
      </trkpt>
      <trkpt lat="43.62343" lon="1.31266">
        <ele>165</ele>
        <time>2018-05-02T16:55:28.000Z</time>
      </trkpt>
      <trkpt lat="43.62346" lon="1.31265">
        <ele>165</ele>
        <time>2018-05-02T16:55:30.000Z</time>
      </trkpt>
      <trkpt lat="43.6235" lon="1.31263">
        <ele>165</ele>
        <time>2018-05-02T16:55:32.000Z</time>
      </trkpt>
      <trkpt lat="43.62353" lon="1.31261">
        <ele>164</ele>
        <time>2018-05-02T16:55:34.000Z</time>
      </trkpt>
      <trkpt lat="43.62356" lon="1.31258">
        <ele>165</ele>
        <time>2018-05-02T16:55:36.000Z</time>
      </trkpt>
      <trkpt lat="43.62358" lon="1.31256">
        <ele>165</ele>
        <time>2018-05-02T16:55:38.000Z</time>
      </trkpt>
      <trkpt lat="43.62361" lon="1.31254">
        <ele>165</ele>
        <time>2018-05-02T16:55:40.000Z</time>
      </trkpt>
      <trkpt lat="43.62364" lon="1.31252">
        <ele>165</ele>
        <time>2018-05-02T16:55:42.000Z</time>
      </trkpt>
      <trkpt lat="43.62367" lon="1.3125">
        <ele>165</ele>
        <time>2018-05-02T16:55:44.000Z</time>
      </trkpt>
      <trkpt lat="43.6237" lon="1.31247">
        <ele>165</ele>
        <time>2018-05-02T16:55:46.000Z</time>
      </trkpt>
      <trkpt lat="43.62373" lon="1.31245">
        <ele>165</ele>
        <time>2018-05-02T16:55:48.000Z</time>
      </trkpt>
      <trkpt lat="43.62376" lon="1.31242">
        <ele>164</ele>
        <time>2018-05-02T16:55:50.000Z</time>
      </trkpt>
      <trkpt lat="43.6238" lon="1.3124">
        <ele>164</ele>
        <time>2018-05-02T16:55:52.000Z</time>
      </trkpt>
      <trkpt lat="43.62383" lon="1.31238">
        <ele>164</ele>
        <time>2018-05-02T16:55:54.000Z</time>
      </trkpt>
      <trkpt lat="43.62386" lon="1.31235">
        <ele>164</ele>
        <time>2018-05-02T16:55:56.000Z</time>
      </trkpt>
      <trkpt lat="43.62389" lon="1.31233">
        <ele>163</ele>
        <time>2018-05-02T16:55:58.000Z</time>
      </trkpt>
      <trkpt lat="43.62392" lon="1.31231">
        <ele>163</ele>
        <time>2018-05-02T16:56:00.000Z</time>
      </trkpt>
      <trkpt lat="43.62395" lon="1.3123">
        <ele>163</ele>
        <time>2018-05-02T16:56:02.000Z</time>
      </trkpt>
      <trkpt lat="43.62398" lon="1.31229">
        <ele>163</ele>
        <time>2018-05-02T16:56:04.000Z</time>
      </trkpt>
      <trkpt lat="43.62401" lon="1.31228">
        <ele>163</ele>
        <time>2018-05-02T16:56:06.000Z</time>
      </trkpt>
      <trkpt lat="43.62404" lon="1.31226">
        <ele>163</ele>
        <time>2018-05-02T16:56:08.000Z</time>
      </trkpt>
      <trkpt lat="43.62407" lon="1.31225">
        <ele>163</ele>
        <time>2018-05-02T16:56:10.000Z</time>
      </trkpt>
      <trkpt lat="43.62411" lon="1.31223">
        <ele>163</ele>
        <time>2018-05-02T16:56:12.000Z</time>
      </trkpt>
      <trkpt lat="43.62414" lon="1.31222">
        <ele>163</ele>
        <time>2018-05-02T16:56:14.000Z</time>
      </trkpt>
      <trkpt lat="43.62417" lon="1.31221">
        <ele>163</ele>
        <time>2018-05-02T16:56:16.000Z</time>
      </trkpt>
      <trkpt lat="43.6242" lon="1.31219">
        <ele>163</ele>
        <time>2018-05-02T16:56:18.000Z</time>
      </trkpt>
      <trkpt lat="43.62423" lon="1.31218">
        <ele>163</ele>
        <time>2018-05-02T16:56:20.000Z</time>
      </trkpt>
      <trkpt lat="43.62427" lon="1.31217">
        <ele>163</ele>
        <time>2018-05-02T16:56:22.000Z</time>
      </trkpt>
      <trkpt lat="43.6243" lon="1.31216">
        <ele>164</ele>
        <time>2018-05-02T16:56:24.000Z</time>
      </trkpt>
      <trkpt lat="43.62433" lon="1.31215">
        <ele>164</ele>
        <time>2018-05-02T16:56:26.000Z</time>
      </trkpt>
      <trkpt lat="43.62437" lon="1.31213">
        <ele>164</ele>
        <time>2018-05-02T16:56:28.000Z</time>
      </trkpt>
      <trkpt lat="43.6244" lon="1.31212">
        <ele>164</ele>
        <time>2018-05-02T16:56:30.000Z</time>
      </trkpt>
      <trkpt lat="43.62443" lon="1.31211">
        <ele>164</ele>
        <time>2018-05-02T16:56:32.000Z</time>
      </trkpt>
      <trkpt lat="43.62447" lon="1.3121">
        <ele>164</ele>
        <time>2018-05-02T16:56:34.000Z</time>
      </trkpt>
      <trkpt lat="43.6245" lon="1.31209">
        <ele>164</ele>
        <time>2018-05-02T16:56:36.000Z</time>
      </trkpt>
      <trkpt lat="43.62454" lon="1.31209">
        <ele>164</ele>
        <time>2018-05-02T16:56:38.000Z</time>
      </trkpt>
      <trkpt lat="43.62458" lon="1.31208">
        <ele>164</ele>
        <time>2018-05-02T16:56:40.000Z</time>
      </trkpt>
      <trkpt lat="43.62461" lon="1.31208">
        <ele>164</ele>
        <time>2018-05-02T16:56:42.000Z</time>
      </trkpt>
      <trkpt lat="43.62465" lon="1.31208">
        <ele>164</ele>
        <time>2018-05-02T16:56:44.000Z</time>
      </trkpt>
      <trkpt lat="43.62468" lon="1.31209">
        <ele>164</ele>
        <time>2018-05-02T16:56:46.000Z</time>
      </trkpt>
      <trkpt lat="43.62472" lon="1.3121">
        <ele>164</ele>
        <time>2018-05-02T16:56:48.000Z</time>
      </trkpt>
      <trkpt lat="43.62476" lon="1.3121">
        <ele>164</ele>
        <time>2018-05-02T16:56:50.000Z</time>
      </trkpt>
      <trkpt lat="43.6248" lon="1.3121">
        <ele>164</ele>
        <time>2018-05-02T16:56:52.000Z</time>
      </trkpt>
      <trkpt lat="43.62483" lon="1.3121">
        <ele>164</ele>
        <time>2018-05-02T16:56:54.000Z</time>
      </trkpt>
      <trkpt lat="43.62486" lon="1.31211">
        <ele>164</ele>
        <time>2018-05-02T16:56:56.000Z</time>
      </trkpt>
      <trkpt lat="43.6249" lon="1.31211">
        <ele>164</ele>
        <time>2018-05-02T16:56:58.000Z</time>
      </trkpt>
      <trkpt lat="43.62494" lon="1.3121">
        <ele>164</ele>
        <time>2018-05-02T16:57:00.000Z</time>
      </trkpt>
      <trkpt lat="43.62498" lon="1.3121">
        <ele>164</ele>
        <time>2018-05-02T16:57:02.000Z</time>
      </trkpt>
      <trkpt lat="43.62502" lon="1.31209">
        <ele>164</ele>
        <time>2018-05-02T16:57:04.000Z</time>
      </trkpt>
      <trkpt lat="43.62505" lon="1.31208">
        <ele>163</ele>
        <time>2018-05-02T16:57:06.000Z</time>
      </trkpt>
      <trkpt lat="43.62509" lon="1.31207">
        <ele>163</ele>
        <time>2018-05-02T16:57:08.000Z</time>
      </trkpt>
      <trkpt lat="43.62512" lon="1.31206">
        <ele>163</ele>
        <time>2018-05-02T16:57:10.000Z</time>
      </trkpt>
      <trkpt lat="43.62516" lon="1.31205">
        <ele>163</ele>
        <time>2018-05-02T16:57:12.000Z</time>
      </trkpt>
      <trkpt lat="43.6252" lon="1.31204">
        <ele>163</ele>
        <time>2018-05-02T16:57:14.000Z</time>
      </trkpt>
      <trkpt lat="43.62523" lon="1.31202">
        <ele>163</ele>
        <time>2018-05-02T16:57:16.000Z</time>
      </trkpt>
      <trkpt lat="43.62526" lon="1.312">
        <ele>163</ele>
        <time>2018-05-02T16:57:18.000Z</time>
      </trkpt>
      <trkpt lat="43.62529" lon="1.31198">
        <ele>163</ele>
        <time>2018-05-02T16:57:20.000Z</time>
      </trkpt>
      <trkpt lat="43.62533" lon="1.31195">
        <ele>163</ele>
        <time>2018-05-02T16:57:22.000Z</time>
      </trkpt>
      <trkpt lat="43.62537" lon="1.31193">
        <ele>163</ele>
        <time>2018-05-02T16:57:24.000Z</time>
      </trkpt>
      <trkpt lat="43.6254" lon="1.3119">
        <ele>163</ele>
        <time>2018-05-02T16:57:26.000Z</time>
      </trkpt>
      <trkpt lat="43.62543" lon="1.31188">
        <ele>163</ele>
        <time>2018-05-02T16:57:28.000Z</time>
      </trkpt>
      <trkpt lat="43.62546" lon="1.31185">
        <ele>163</ele>
        <time>2018-05-02T16:57:30.000Z</time>
      </trkpt>
      <trkpt lat="43.62549" lon="1.31183">
        <ele>163</ele>
        <time>2018-05-02T16:57:32.000Z</time>
      </trkpt>
      <trkpt lat="43.62551" lon="1.31181">
        <ele>163</ele>
        <time>2018-05-02T16:57:34.000Z</time>
      </trkpt>
      <trkpt lat="43.62554" lon="1.31179">
        <ele>163</ele>
        <time>2018-05-02T16:57:36.000Z</time>
      </trkpt>
      <trkpt lat="43.62557" lon="1.31177">
        <ele>163</ele>
        <time>2018-05-02T16:57:38.000Z</time>
      </trkpt>
      <trkpt lat="43.62561" lon="1.31176">
        <ele>163</ele>
        <time>2018-05-02T16:57:40.000Z</time>
      </trkpt>
      <trkpt lat="43.62564" lon="1.31175">
        <ele>162</ele>
        <time>2018-05-02T16:57:42.000Z</time>
      </trkpt>
      <trkpt lat="43.62568" lon="1.31174">
        <ele>162</ele>
        <time>2018-05-02T16:57:44.000Z</time>
      </trkpt>
      <trkpt lat="43.62571" lon="1.31173">
        <ele>162</ele>
        <time>2018-05-02T16:57:46.000Z</time>
      </trkpt>
      <trkpt lat="43.62575" lon="1.31172">
        <ele>162</ele>
        <time>2018-05-02T16:57:48.000Z</time>
      </trkpt>
      <trkpt lat="43.62578" lon="1.3117">
        <ele>162</ele>
        <time>2018-05-02T16:57:50.000Z</time>
      </trkpt>
      <trkpt lat="43.6258" lon="1.31167">
        <ele>162</ele>
        <time>2018-05-02T16:57:52.000Z</time>
      </trkpt>
      <trkpt lat="43.62583" lon="1.31165">
        <ele>162</ele>
        <time>2018-05-02T16:57:54.000Z</time>
      </trkpt>
      <trkpt lat="43.62586" lon="1.31164">
        <ele>162</ele>
        <time>2018-05-02T16:57:56.000Z</time>
      </trkpt>
      <trkpt lat="43.62589" lon="1.31162">
        <ele>162</ele>
        <time>2018-05-02T16:57:58.000Z</time>
      </trkpt>
      <trkpt lat="43.62592" lon="1.31161">
        <ele>162</ele>
        <time>2018-05-02T16:58:00.000Z</time>
      </trkpt>
      <trkpt lat="43.62596" lon="1.3116">
        <ele>162</ele>
        <time>2018-05-02T16:58:02.000Z</time>
      </trkpt>
      <trkpt lat="43.62599" lon="1.31159">
        <ele>161</ele>
        <time>2018-05-02T16:58:04.000Z</time>
      </trkpt>
      <trkpt lat="43.62602" lon="1.31157">
        <ele>161</ele>
        <time>2018-05-02T16:58:06.000Z</time>
      </trkpt>
      <trkpt lat="43.62606" lon="1.31156">
        <ele>161</ele>
        <time>2018-05-02T16:58:08.000Z</time>
      </trkpt>
      <trkpt lat="43.6261" lon="1.31155">
        <ele>162</ele>
        <time>2018-05-02T16:58:10.000Z</time>
      </trkpt>
      <trkpt lat="43.62613" lon="1.31154">
        <ele>162</ele>
        <time>2018-05-02T16:58:12.000Z</time>
      </trkpt>
      <trkpt lat="43.62616" lon="1.31153">
        <ele>161</ele>
        <time>2018-05-02T16:58:14.000Z</time>
      </trkpt>
      <trkpt lat="43.6262" lon="1.31151">
        <ele>161</ele>
        <time>2018-05-02T16:58:16.000Z</time>
      </trkpt>
      <trkpt lat="43.62623" lon="1.3115">
        <ele>161</ele>
        <time>2018-05-02T16:58:18.000Z</time>
      </trkpt>
      <trkpt lat="43.62627" lon="1.31149">
        <ele>161</ele>
        <time>2018-05-02T16:58:20.000Z</time>
      </trkpt>
      <trkpt lat="43.6263" lon="1.31148">
        <ele>161</ele>
        <time>2018-05-02T16:58:22.000Z</time>
      </trkpt>
      <trkpt lat="43.62634" lon="1.31146">
        <ele>161</ele>
        <time>2018-05-02T16:58:24.000Z</time>
      </trkpt>
      <trkpt lat="43.62637" lon="1.31144">
        <ele>161</ele>
        <time>2018-05-02T16:58:26.000Z</time>
      </trkpt>
      <trkpt lat="43.62641" lon="1.31142">
        <ele>161</ele>
        <time>2018-05-02T16:58:28.000Z</time>
      </trkpt>
      <trkpt lat="43.62644" lon="1.31139">
        <ele>161</ele>
        <time>2018-05-02T16:58:30.000Z</time>
      </trkpt>
      <trkpt lat="43.62645" lon="1.31136">
        <ele>162</ele>
        <time>2018-05-02T16:58:32.000Z</time>
      </trkpt>
      <trkpt lat="43.62648" lon="1.31134">
        <ele>162</ele>
        <time>2018-05-02T16:58:34.000Z</time>
      </trkpt>
      <trkpt lat="43.62652" lon="1.31132">
        <ele>162</ele>
        <time>2018-05-02T16:58:36.000Z</time>
      </trkpt>
      <trkpt lat="43.62655" lon="1.3113">
        <ele>162</ele>
        <time>2018-05-02T16:58:38.000Z</time>
      </trkpt>
      <trkpt lat="43.62659" lon="1.31128">
        <ele>162</ele>
        <time>2018-05-02T16:58:40.000Z</time>
      </trkpt>
      <trkpt lat="43.62662" lon="1.31126">
        <ele>162</ele>
        <time>2018-05-02T16:58:42.000Z</time>
      </trkpt>
      <trkpt lat="43.62665" lon="1.31124">
        <ele>162</ele>
        <time>2018-05-02T16:58:44.000Z</time>
      </trkpt>
      <trkpt lat="43.62668" lon="1.31122">
        <ele>162</ele>
        <time>2018-05-02T16:58:46.000Z</time>
      </trkpt>
      <trkpt lat="43.62671" lon="1.3112">
        <ele>162</ele>
        <time>2018-05-02T16:58:48.000Z</time>
      </trkpt>
      <trkpt lat="43.62675" lon="1.31118">
        <ele>161</ele>
        <time>2018-05-02T16:58:50.000Z</time>
      </trkpt>
      <trkpt lat="43.62678" lon="1.31116">
        <ele>161</ele>
        <time>2018-05-02T16:58:52.000Z</time>
      </trkpt>
      <trkpt lat="43.62681" lon="1.31113">
        <ele>161</ele>
        <time>2018-05-02T16:58:54.000Z</time>
      </trkpt>
      <trkpt lat="43.62684" lon="1.31111">
        <ele>161</ele>
        <time>2018-05-02T16:58:56.000Z</time>
      </trkpt>
      <trkpt lat="43.62686" lon="1.31109">
        <ele>161</ele>
        <time>2018-05-02T16:58:58.000Z</time>
      </trkpt>
      <trkpt lat="43.6269" lon="1.31108">
        <ele>161</ele>
        <time>2018-05-02T16:59:00.000Z</time>
      </trkpt>
      <trkpt lat="43.62693" lon="1.31106">
        <ele>161</ele>
        <time>2018-05-02T16:59:02.000Z</time>
      </trkpt>
      <trkpt lat="43.62696" lon="1.31104">
        <ele>161</ele>
        <time>2018-05-02T16:59:04.000Z</time>
      </trkpt>
      <trkpt lat="43.62699" lon="1.31101">
        <ele>162</ele>
        <time>2018-05-02T16:59:06.000Z</time>
      </trkpt>
      <trkpt lat="43.62702" lon="1.31099">
        <ele>162</ele>
        <time>2018-05-02T16:59:08.000Z</time>
      </trkpt>
      <trkpt lat="43.62705" lon="1.31097">
        <ele>162</ele>
        <time>2018-05-02T16:59:10.000Z</time>
      </trkpt>
      <trkpt lat="43.62708" lon="1.31095">
        <ele>163</ele>
        <time>2018-05-02T16:59:12.000Z</time>
      </trkpt>
      <trkpt lat="43.62711" lon="1.31092">
        <ele>163</ele>
        <time>2018-05-02T16:59:14.000Z</time>
      </trkpt>
      <trkpt lat="43.62713" lon="1.31089">
        <ele>163</ele>
        <time>2018-05-02T16:59:16.000Z</time>
      </trkpt>
      <trkpt lat="43.62716" lon="1.31086">
        <ele>163</ele>
        <time>2018-05-02T16:59:18.000Z</time>
      </trkpt>
      <trkpt lat="43.62719" lon="1.31084">
        <ele>163</ele>
        <time>2018-05-02T16:59:20.000Z</time>
      </trkpt>
      <trkpt lat="43.62722" lon="1.31082">
        <ele>162</ele>
        <time>2018-05-02T16:59:22.000Z</time>
      </trkpt>
      <trkpt lat="43.62725" lon="1.3108">
        <ele>162</ele>
        <time>2018-05-02T16:59:24.000Z</time>
      </trkpt>
      <trkpt lat="43.62728" lon="1.31078">
        <ele>162</ele>
        <time>2018-05-02T16:59:26.000Z</time>
      </trkpt>
      <trkpt lat="43.62731" lon="1.31076">
        <ele>162</ele>
        <time>2018-05-02T16:59:28.000Z</time>
      </trkpt>
      <trkpt lat="43.62734" lon="1.31075">
        <ele>162</ele>
        <time>2018-05-02T16:59:30.000Z</time>
      </trkpt>
      <trkpt lat="43.62737" lon="1.31072">
        <ele>162</ele>
        <time>2018-05-02T16:59:32.000Z</time>
      </trkpt>
      <trkpt lat="43.62739" lon="1.31069">
        <ele>162</ele>
        <time>2018-05-02T16:59:34.000Z</time>
      </trkpt>
      <trkpt lat="43.62741" lon="1.31067">
        <ele>162</ele>
        <time>2018-05-02T16:59:36.000Z</time>
      </trkpt>
      <trkpt lat="43.6274" lon="1.31066">
        <ele>162</ele>
        <time>2018-05-02T16:59:38.000Z</time>
      </trkpt>
      <trkpt lat="43.6274" lon="1.31066">
        <ele>162</ele>
        <time>2018-05-02T16:59:40.000Z</time>
      </trkpt>
      <trkpt lat="43.62741" lon="1.31066">
        <ele>161</ele>
        <time>2018-05-02T16:59:42.000Z</time>
      </trkpt>
      <trkpt lat="43.62742" lon="1.31066">
        <ele>162</ele>
        <time>2018-05-02T16:59:44.000Z</time>
      </trkpt>
      <trkpt lat="43.62742" lon="1.31065">
        <ele>161</ele>
        <time>2018-05-02T16:59:46.000Z</time>
      </trkpt>
      <trkpt lat="43.62741" lon="1.31065">
        <ele>161</ele>
        <time>2018-05-02T16:59:48.000Z</time>
      </trkpt>
      <trkpt lat="43.62742" lon="1.31065">
        <ele>161</ele>
        <time>2018-05-02T16:59:50.000Z</time>
      </trkpt>
      <trkpt lat="43.62742" lon="1.31065">
        <ele>161</ele>
        <time>2018-05-02T16:59:52.000Z</time>
      </trkpt>
      <trkpt lat="43.62742" lon="1.31064">
        <ele>161</ele>
        <time>2018-05-02T16:59:54.000Z</time>
      </trkpt>
      <trkpt lat="43.62742" lon="1.31063">
        <ele>161</ele>
        <time>2018-05-02T16:59:56.000Z</time>
      </trkpt>
      <trkpt lat="43.62741" lon="1.31064">
        <ele>161</ele>
        <time>2018-05-02T16:59:58.000Z</time>
      </trkpt>
      <trkpt lat="43.62742" lon="1.31065">
        <ele>161</ele>
        <time>2018-05-02T17:00:00.000Z</time>
      </trkpt>
      <trkpt lat="43.62741" lon="1.31065">
        <ele>161</ele>
        <time>2018-05-02T17:00:02.000Z</time>
      </trkpt>
      <trkpt lat="43.62743" lon="1.31063">
        <ele>161</ele>
        <time>2018-05-02T17:00:04.000Z</time>
      </trkpt>
      <trkpt lat="43.62747" lon="1.31062">
        <ele>162</ele>
        <time>2018-05-02T17:00:06.000Z</time>
      </trkpt>
      <trkpt lat="43.62751" lon="1.3106">
        <ele>162</ele>
        <time>2018-05-02T17:00:08.000Z</time>
      </trkpt>
      <trkpt lat="43.62754" lon="1.3106">
        <ele>162</ele>
        <time>2018-05-02T17:00:10.000Z</time>
      </trkpt>
      <trkpt lat="43.62757" lon="1.3106">
        <ele>162</ele>
        <time>2018-05-02T17:00:12.000Z</time>
      </trkpt>
      <trkpt lat="43.6276" lon="1.31059">
        <ele>162</ele>
        <time>2018-05-02T17:00:14.000Z</time>
      </trkpt>
      <trkpt lat="43.62764" lon="1.31058">
        <ele>162</ele>
        <time>2018-05-02T17:00:16.000Z</time>
      </trkpt>
      <trkpt lat="43.62768" lon="1.31056">
        <ele>162</ele>
        <time>2018-05-02T17:00:18.000Z</time>
      </trkpt>
      <trkpt lat="43.62771" lon="1.31055">
        <ele>162</ele>
        <time>2018-05-02T17:00:20.000Z</time>
      </trkpt>
      <trkpt lat="43.62774" lon="1.31054">
        <ele>163</ele>
        <time>2018-05-02T17:00:22.000Z</time>
      </trkpt>
      <trkpt lat="43.62778" lon="1.31053">
        <ele>163</ele>
        <time>2018-05-02T17:00:24.000Z</time>
      </trkpt>
      <trkpt lat="43.62781" lon="1.31051">
        <ele>163</ele>
        <time>2018-05-02T17:00:26.000Z</time>
      </trkpt>
      <trkpt lat="43.62784" lon="1.3105">
        <ele>163</ele>
        <time>2018-05-02T17:00:28.000Z</time>
      </trkpt>
      <trkpt lat="43.62788" lon="1.31048">
        <ele>164</ele>
        <time>2018-05-02T17:00:30.000Z</time>
      </trkpt>
      <trkpt lat="43.62792" lon="1.31045">
        <ele>164</ele>
        <time>2018-05-02T17:00:32.000Z</time>
      </trkpt>
      <trkpt lat="43.62795" lon="1.31043">
        <ele>164</ele>
        <time>2018-05-02T17:00:34.000Z</time>
      </trkpt>
      <trkpt lat="43.62798" lon="1.31041">
        <ele>165</ele>
        <time>2018-05-02T17:00:36.000Z</time>
      </trkpt>
      <trkpt lat="43.62803" lon="1.31039">
        <ele>165</ele>
        <time>2018-05-02T17:00:38.000Z</time>
      </trkpt>
      <trkpt lat="43.62806" lon="1.31036">
        <ele>165</ele>
        <time>2018-05-02T17:00:40.000Z</time>
      </trkpt>
      <trkpt lat="43.6281" lon="1.31034">
        <ele>166</ele>
        <time>2018-05-02T17:00:42.000Z</time>
      </trkpt>
      <trkpt lat="43.62813" lon="1.31031">
        <ele>166</ele>
        <time>2018-05-02T17:00:44.000Z</time>
      </trkpt>
      <trkpt lat="43.62816" lon="1.31028">
        <ele>166</ele>
        <time>2018-05-02T17:00:46.000Z</time>
      </trkpt>
      <trkpt lat="43.6282" lon="1.31026">
        <ele>166</ele>
        <time>2018-05-02T17:00:48.000Z</time>
      </trkpt>
      <trkpt lat="43.62823" lon="1.31023">
        <ele>166</ele>
        <time>2018-05-02T17:00:50.000Z</time>
      </trkpt>
      <trkpt lat="43.62826" lon="1.31021">
        <ele>166</ele>
        <time>2018-05-02T17:00:52.000Z</time>
      </trkpt>
      <trkpt lat="43.62829" lon="1.31017">
        <ele>165</ele>
        <time>2018-05-02T17:00:54.000Z</time>
      </trkpt>
      <trkpt lat="43.62832" lon="1.31014">
        <ele>165</ele>
        <time>2018-05-02T17:00:56.000Z</time>
      </trkpt>
      <trkpt lat="43.62835" lon="1.3101">
        <ele>164</ele>
        <time>2018-05-02T17:00:58.000Z</time>
      </trkpt>
      <trkpt lat="43.62837" lon="1.31006">
        <ele>164</ele>
        <time>2018-05-02T17:01:00.000Z</time>
      </trkpt>
      <trkpt lat="43.6284" lon="1.31003">
        <ele>163</ele>
        <time>2018-05-02T17:01:02.000Z</time>
      </trkpt>
      <trkpt lat="43.62843" lon="1.31">
        <ele>163</ele>
        <time>2018-05-02T17:01:04.000Z</time>
      </trkpt>
      <trkpt lat="43.62847" lon="1.30997">
        <ele>163</ele>
        <time>2018-05-02T17:01:06.000Z</time>
      </trkpt>
      <trkpt lat="43.62849" lon="1.30993">
        <ele>162</ele>
        <time>2018-05-02T17:01:08.000Z</time>
      </trkpt>
      <trkpt lat="43.62851" lon="1.30989">
        <ele>162</ele>
        <time>2018-05-02T17:01:10.000Z</time>
      </trkpt>
      <trkpt lat="43.62854" lon="1.30985">
        <ele>162</ele>
        <time>2018-05-02T17:01:12.000Z</time>
      </trkpt>
      <trkpt lat="43.62857" lon="1.30981">
        <ele>161</ele>
        <time>2018-05-02T17:01:14.000Z</time>
      </trkpt>
      <trkpt lat="43.6286" lon="1.30978">
        <ele>161</ele>
        <time>2018-05-02T17:01:16.000Z</time>
      </trkpt>
      <trkpt lat="43.62862" lon="1.30975">
        <ele>161</ele>
        <time>2018-05-02T17:01:18.000Z</time>
      </trkpt>
      <trkpt lat="43.62865" lon="1.30972">
        <ele>161</ele>
        <time>2018-05-02T17:01:20.000Z</time>
      </trkpt>
      <trkpt lat="43.62868" lon="1.30968">
        <ele>160</ele>
        <time>2018-05-02T17:01:22.000Z</time>
      </trkpt>
      <trkpt lat="43.62871" lon="1.30965">
        <ele>160</ele>
        <time>2018-05-02T17:01:24.000Z</time>
      </trkpt>
      <trkpt lat="43.62873" lon="1.30961">
        <ele>160</ele>
        <time>2018-05-02T17:01:26.000Z</time>
      </trkpt>
      <trkpt lat="43.62875" lon="1.30957">
        <ele>160</ele>
        <time>2018-05-02T17:01:28.000Z</time>
      </trkpt>
      <trkpt lat="43.62876" lon="1.30953">
        <ele>159</ele>
        <time>2018-05-02T17:01:30.000Z</time>
      </trkpt>
      <trkpt lat="43.62878" lon="1.30949">
        <ele>159</ele>
        <time>2018-05-02T17:01:32.000Z</time>
      </trkpt>
      <trkpt lat="43.6288" lon="1.30944">
        <ele>159</ele>
        <time>2018-05-02T17:01:34.000Z</time>
      </trkpt>
      <trkpt lat="43.62882" lon="1.3094">
        <ele>158</ele>
        <time>2018-05-02T17:01:36.000Z</time>
      </trkpt>
      <trkpt lat="43.62884" lon="1.30936">
        <ele>158</ele>
        <time>2018-05-02T17:01:38.000Z</time>
      </trkpt>
      <trkpt lat="43.62886" lon="1.30931">
        <ele>158</ele>
        <time>2018-05-02T17:01:40.000Z</time>
      </trkpt>
      <trkpt lat="43.62888" lon="1.30927">
        <ele>157</ele>
        <time>2018-05-02T17:01:42.000Z</time>
      </trkpt>
      <trkpt lat="43.62889" lon="1.30922">
        <ele>157</ele>
        <time>2018-05-02T17:01:44.000Z</time>
      </trkpt>
      <trkpt lat="43.62891" lon="1.30917">
        <ele>156</ele>
        <time>2018-05-02T17:01:46.000Z</time>
      </trkpt>
      <trkpt lat="43.62892" lon="1.30912">
        <ele>156</ele>
        <time>2018-05-02T17:01:48.000Z</time>
      </trkpt>
      <trkpt lat="43.62894" lon="1.30908">
        <ele>155</ele>
        <time>2018-05-02T17:01:50.000Z</time>
      </trkpt>
      <trkpt lat="43.62895" lon="1.30903">
        <ele>155</ele>
        <time>2018-05-02T17:01:52.000Z</time>
      </trkpt>
      <trkpt lat="43.62897" lon="1.30899">
        <ele>154</ele>
        <time>2018-05-02T17:01:54.000Z</time>
      </trkpt>
      <trkpt lat="43.62899" lon="1.30894">
        <ele>154</ele>
        <time>2018-05-02T17:01:56.000Z</time>
      </trkpt>
      <trkpt lat="43.62902" lon="1.3089">
        <ele>154</ele>
        <time>2018-05-02T17:01:58.000Z</time>
      </trkpt>
      <trkpt lat="43.62904" lon="1.30887">
        <ele>154</ele>
        <time>2018-05-02T17:02:00.000Z</time>
      </trkpt>
      <trkpt lat="43.62907" lon="1.30883">
        <ele>154</ele>
        <time>2018-05-02T17:02:02.000Z</time>
      </trkpt>
      <trkpt lat="43.62909" lon="1.3088">
        <ele>154</ele>
        <time>2018-05-02T17:02:04.000Z</time>
      </trkpt>
      <trkpt lat="43.62912" lon="1.30877">
        <ele>154</ele>
        <time>2018-05-02T17:02:06.000Z</time>
      </trkpt>
      <trkpt lat="43.62915" lon="1.30874">
        <ele>154</ele>
        <time>2018-05-02T17:02:08.000Z</time>
      </trkpt>
      <trkpt lat="43.62918" lon="1.3087">
        <ele>153</ele>
        <time>2018-05-02T17:02:10.000Z</time>
      </trkpt>
      <trkpt lat="43.6292" lon="1.30866">
        <ele>153</ele>
        <time>2018-05-02T17:02:12.000Z</time>
      </trkpt>
      <trkpt lat="43.62923" lon="1.30863">
        <ele>153</ele>
        <time>2018-05-02T17:02:14.000Z</time>
      </trkpt>
      <trkpt lat="43.62926" lon="1.3086">
        <ele>153</ele>
        <time>2018-05-02T17:02:16.000Z</time>
      </trkpt>
      <trkpt lat="43.62929" lon="1.30857">
        <ele>152</ele>
        <time>2018-05-02T17:02:18.000Z</time>
      </trkpt>
      <trkpt lat="43.62931" lon="1.30854">
        <ele>152</ele>
        <time>2018-05-02T17:02:20.000Z</time>
      </trkpt>
      <trkpt lat="43.62934" lon="1.3085">
        <ele>152</ele>
        <time>2018-05-02T17:02:22.000Z</time>
      </trkpt>
      <trkpt lat="43.62937" lon="1.30847">
        <ele>152</ele>
        <time>2018-05-02T17:02:24.000Z</time>
      </trkpt>
      <trkpt lat="43.6294" lon="1.30844">
        <ele>152</ele>
        <time>2018-05-02T17:02:26.000Z</time>
      </trkpt>
      <trkpt lat="43.62944" lon="1.30841">
        <ele>152</ele>
        <time>2018-05-02T17:02:28.000Z</time>
      </trkpt>
      <trkpt lat="43.62947" lon="1.30839">
        <ele>152</ele>
        <time>2018-05-02T17:02:30.000Z</time>
      </trkpt>
      <trkpt lat="43.6295" lon="1.30836">
        <ele>153</ele>
        <time>2018-05-02T17:02:32.000Z</time>
      </trkpt>
      <trkpt lat="43.62953" lon="1.30833">
        <ele>153</ele>
        <time>2018-05-02T17:02:34.000Z</time>
      </trkpt>
      <trkpt lat="43.62956" lon="1.3083">
        <ele>153</ele>
        <time>2018-05-02T17:02:36.000Z</time>
      </trkpt>
      <trkpt lat="43.6296" lon="1.30827">
        <ele>153</ele>
        <time>2018-05-02T17:02:38.000Z</time>
      </trkpt>
      <trkpt lat="43.62963" lon="1.30824">
        <ele>153</ele>
        <time>2018-05-02T17:02:40.000Z</time>
      </trkpt>
      <trkpt lat="43.62966" lon="1.30821">
        <ele>153</ele>
        <time>2018-05-02T17:02:42.000Z</time>
      </trkpt>
      <trkpt lat="43.62968" lon="1.30819">
        <ele>153</ele>
        <time>2018-05-02T17:02:44.000Z</time>
      </trkpt>
      <trkpt lat="43.62972" lon="1.30815">
        <ele>153</ele>
        <time>2018-05-02T17:02:46.000Z</time>
      </trkpt>
      <trkpt lat="43.62975" lon="1.30812">
        <ele>153</ele>
        <time>2018-05-02T17:02:48.000Z</time>
      </trkpt>
      <trkpt lat="43.62978" lon="1.30809">
        <ele>153</ele>
        <time>2018-05-02T17:02:50.000Z</time>
      </trkpt>
      <trkpt lat="43.62981" lon="1.30806">
        <ele>153</ele>
        <time>2018-05-02T17:02:52.000Z</time>
      </trkpt>
      <trkpt lat="43.62983" lon="1.30803">
        <ele>153</ele>
        <time>2018-05-02T17:02:54.000Z</time>
      </trkpt>
      <trkpt lat="43.62986" lon="1.308">
        <ele>153</ele>
        <time>2018-05-02T17:02:56.000Z</time>
      </trkpt>
      <trkpt lat="43.62989" lon="1.30796">
        <ele>153</ele>
        <time>2018-05-02T17:02:58.000Z</time>
      </trkpt>
      <trkpt lat="43.62992" lon="1.30793">
        <ele>153</ele>
        <time>2018-05-02T17:03:00.000Z</time>
      </trkpt>
      <trkpt lat="43.62996" lon="1.30791">
        <ele>153</ele>
        <time>2018-05-02T17:03:02.000Z</time>
      </trkpt>
      <trkpt lat="43.62999" lon="1.30788">
        <ele>153</ele>
        <time>2018-05-02T17:03:04.000Z</time>
      </trkpt>
      <trkpt lat="43.63002" lon="1.30785">
        <ele>153</ele>
        <time>2018-05-02T17:03:06.000Z</time>
      </trkpt>
      <trkpt lat="43.63005" lon="1.30783">
        <ele>153</ele>
        <time>2018-05-02T17:03:08.000Z</time>
      </trkpt>
      <trkpt lat="43.63008" lon="1.3078">
        <ele>153</ele>
        <time>2018-05-02T17:03:10.000Z</time>
      </trkpt>
      <trkpt lat="43.63011" lon="1.30777">
        <ele>153</ele>
        <time>2018-05-02T17:03:12.000Z</time>
      </trkpt>
      <trkpt lat="43.63014" lon="1.30774">
        <ele>153</ele>
        <time>2018-05-02T17:03:14.000Z</time>
      </trkpt>
      <trkpt lat="43.63016" lon="1.30771">
        <ele>153</ele>
        <time>2018-05-02T17:03:16.000Z</time>
      </trkpt>
      <trkpt lat="43.63019" lon="1.30767">
        <ele>153</ele>
        <time>2018-05-02T17:03:18.000Z</time>
      </trkpt>
      <trkpt lat="43.63022" lon="1.30764">
        <ele>153</ele>
        <time>2018-05-02T17:03:20.000Z</time>
      </trkpt>
      <trkpt lat="43.63025" lon="1.30762">
        <ele>152</ele>
        <time>2018-05-02T17:03:22.000Z</time>
      </trkpt>
      <trkpt lat="43.63028" lon="1.30758">
        <ele>152</ele>
        <time>2018-05-02T17:03:24.000Z</time>
      </trkpt>
      <trkpt lat="43.63031" lon="1.30756">
        <ele>152</ele>
        <time>2018-05-02T17:03:26.000Z</time>
      </trkpt>
      <trkpt lat="43.63034" lon="1.30754">
        <ele>152</ele>
        <time>2018-05-02T17:03:28.000Z</time>
      </trkpt>
      <trkpt lat="43.63037" lon="1.30752">
        <ele>152</ele>
        <time>2018-05-02T17:03:30.000Z</time>
      </trkpt>
      <trkpt lat="43.6304" lon="1.3075">
        <ele>151</ele>
        <time>2018-05-02T17:03:32.000Z</time>
      </trkpt>
      <trkpt lat="43.63043" lon="1.30748">
        <ele>152</ele>
        <time>2018-05-02T17:03:34.000Z</time>
      </trkpt>
      <trkpt lat="43.63046" lon="1.30747">
        <ele>152</ele>
        <time>2018-05-02T17:03:36.000Z</time>
      </trkpt>
      <trkpt lat="43.63051" lon="1.30746">
        <ele>152</ele>
        <time>2018-05-02T17:03:38.000Z</time>
      </trkpt>
      <trkpt lat="43.63053" lon="1.30746">
        <ele>152</ele>
        <time>2018-05-02T17:03:40.000Z</time>
      </trkpt>
      <trkpt lat="43.63056" lon="1.30745">
        <ele>152</ele>
        <time>2018-05-02T17:03:42.000Z</time>
      </trkpt>
      <trkpt lat="43.6306" lon="1.30744">
        <ele>152</ele>
        <time>2018-05-02T17:03:44.000Z</time>
      </trkpt>
      <trkpt lat="43.63062" lon="1.30743">
        <ele>152</ele>
        <time>2018-05-02T17:03:46.000Z</time>
      </trkpt>
      <trkpt lat="43.63065" lon="1.30741">
        <ele>152</ele>
        <time>2018-05-02T17:03:48.000Z</time>
      </trkpt>
      <trkpt lat="43.63067" lon="1.30738">
        <ele>152</ele>
        <time>2018-05-02T17:03:50.000Z</time>
      </trkpt>
      <trkpt lat="43.6307" lon="1.30736">
        <ele>152</ele>
        <time>2018-05-02T17:03:52.000Z</time>
      </trkpt>
      <trkpt lat="43.63073" lon="1.30735">
        <ele>152</ele>
        <time>2018-05-02T17:03:54.000Z</time>
      </trkpt>
      <trkpt lat="43.63075" lon="1.30734">
        <ele>152</ele>
        <time>2018-05-02T17:03:56.000Z</time>
      </trkpt>
      <trkpt lat="43.63078" lon="1.30732">
        <ele>152</ele>
        <time>2018-05-02T17:03:58.000Z</time>
      </trkpt>
      <trkpt lat="43.6308" lon="1.30729">
        <ele>152</ele>
        <time>2018-05-02T17:04:00.000Z</time>
      </trkpt>
      <trkpt lat="43.63083" lon="1.30726">
        <ele>152</ele>
        <time>2018-05-02T17:04:02.000Z</time>
      </trkpt>
      <trkpt lat="43.63085" lon="1.30722">
        <ele>152</ele>
        <time>2018-05-02T17:04:04.000Z</time>
      </trkpt>
      <trkpt lat="43.63089" lon="1.3072">
        <ele>152</ele>
        <time>2018-05-02T17:04:06.000Z</time>
      </trkpt>
      <trkpt lat="43.63092" lon="1.30718">
        <ele>152</ele>
        <time>2018-05-02T17:04:08.000Z</time>
      </trkpt>
      <trkpt lat="43.63096" lon="1.30716">
        <ele>152</ele>
        <time>2018-05-02T17:04:10.000Z</time>
      </trkpt>
      <trkpt lat="43.63099" lon="1.30714">
        <ele>152</ele>
        <time>2018-05-02T17:04:12.000Z</time>
      </trkpt>
      <trkpt lat="43.63103" lon="1.30714">
        <ele>152</ele>
        <time>2018-05-02T17:04:14.000Z</time>
      </trkpt>
      <trkpt lat="43.63106" lon="1.30712">
        <ele>152</ele>
        <time>2018-05-02T17:04:16.000Z</time>
      </trkpt>
      <trkpt lat="43.63109" lon="1.3071">
        <ele>152</ele>
        <time>2018-05-02T17:04:18.000Z</time>
      </trkpt>
      <trkpt lat="43.63113" lon="1.3071">
        <ele>152</ele>
        <time>2018-05-02T17:04:20.000Z</time>
      </trkpt>
      <trkpt lat="43.63117" lon="1.30711">
        <ele>152</ele>
        <time>2018-05-02T17:04:22.000Z</time>
      </trkpt>
      <trkpt lat="43.63121" lon="1.30711">
        <ele>152</ele>
        <time>2018-05-02T17:04:24.000Z</time>
      </trkpt>
      <trkpt lat="43.63124" lon="1.30711">
        <ele>152</ele>
        <time>2018-05-02T17:04:26.000Z</time>
      </trkpt>
      <trkpt lat="43.63128" lon="1.30711">
        <ele>151</ele>
        <time>2018-05-02T17:04:28.000Z</time>
      </trkpt>
      <trkpt lat="43.63132" lon="1.30712">
        <ele>151</ele>
        <time>2018-05-02T17:04:30.000Z</time>
      </trkpt>
      <trkpt lat="43.63136" lon="1.30711">
        <ele>151</ele>
        <time>2018-05-02T17:04:32.000Z</time>
      </trkpt>
      <trkpt lat="43.63139" lon="1.30711">
        <ele>151</ele>
        <time>2018-05-02T17:04:34.000Z</time>
      </trkpt>
      <trkpt lat="43.63143" lon="1.3071">
        <ele>151</ele>
        <time>2018-05-02T17:04:36.000Z</time>
      </trkpt>
      <trkpt lat="43.63147" lon="1.3071">
        <ele>151</ele>
        <time>2018-05-02T17:04:38.000Z</time>
      </trkpt>
      <trkpt lat="43.63151" lon="1.30709">
        <ele>151</ele>
        <time>2018-05-02T17:04:40.000Z</time>
      </trkpt>
      <trkpt lat="43.63154" lon="1.30708">
        <ele>151</ele>
        <time>2018-05-02T17:04:42.000Z</time>
      </trkpt>
      <trkpt lat="43.63156" lon="1.30707">
        <ele>151</ele>
        <time>2018-05-02T17:04:44.000Z</time>
      </trkpt>
      <trkpt lat="43.63158" lon="1.30706">
        <ele>151</ele>
        <time>2018-05-02T17:04:46.000Z</time>
      </trkpt>
      <trkpt lat="43.63161" lon="1.30705">
        <ele>151</ele>
        <time>2018-05-02T17:04:48.000Z</time>
      </trkpt>
      <trkpt lat="43.63164" lon="1.30705">
        <ele>151</ele>
        <time>2018-05-02T17:04:50.000Z</time>
      </trkpt>
      <trkpt lat="43.63166" lon="1.30704">
        <ele>151</ele>
        <time>2018-05-02T17:04:52.000Z</time>
      </trkpt>
      <trkpt lat="43.6317" lon="1.30701">
        <ele>151</ele>
        <time>2018-05-02T17:04:54.000Z</time>
      </trkpt>
      <trkpt lat="43.63172" lon="1.30698">
        <ele>151</ele>
        <time>2018-05-02T17:04:56.000Z</time>
      </trkpt>
      <trkpt lat="43.63175" lon="1.30697">
        <ele>152</ele>
        <time>2018-05-02T17:04:58.000Z</time>
      </trkpt>
      <trkpt lat="43.63178" lon="1.30697">
        <ele>152</ele>
        <time>2018-05-02T17:05:00.000Z</time>
      </trkpt>
      <trkpt lat="43.63181" lon="1.30698">
        <ele>152</ele>
        <time>2018-05-02T17:05:02.000Z</time>
      </trkpt>
      <trkpt lat="43.63184" lon="1.30697">
        <ele>152</ele>
        <time>2018-05-02T17:05:04.000Z</time>
      </trkpt>
      <trkpt lat="43.63187" lon="1.30694">
        <ele>152</ele>
        <time>2018-05-02T17:05:06.000Z</time>
      </trkpt>
      <trkpt lat="43.63189" lon="1.30691">
        <ele>152</ele>
        <time>2018-05-02T17:05:08.000Z</time>
      </trkpt>
      <trkpt lat="43.63193" lon="1.30687">
        <ele>152</ele>
        <time>2018-05-02T17:05:10.000Z</time>
      </trkpt>
      <trkpt lat="43.63198" lon="1.30685">
        <ele>152</ele>
        <time>2018-05-02T17:05:12.000Z</time>
      </trkpt>
      <trkpt lat="43.63203" lon="1.30685">
        <ele>152</ele>
        <time>2018-05-02T17:05:14.000Z</time>
      </trkpt>
      <trkpt lat="43.63207" lon="1.30685">
        <ele>152</ele>
        <time>2018-05-02T17:05:16.000Z</time>
      </trkpt>
      <trkpt lat="43.63211" lon="1.30685">
        <ele>152</ele>
        <time>2018-05-02T17:05:18.000Z</time>
      </trkpt>
      <trkpt lat="43.63214" lon="1.30686">
        <ele>152</ele>
        <time>2018-05-02T17:05:20.000Z</time>
      </trkpt>
      <trkpt lat="43.63217" lon="1.30688">
        <ele>152</ele>
        <time>2018-05-02T17:05:22.000Z</time>
      </trkpt>
      <trkpt lat="43.6322" lon="1.30691">
        <ele>152</ele>
        <time>2018-05-02T17:05:24.000Z</time>
      </trkpt>
      <trkpt lat="43.63223" lon="1.30693">
        <ele>151</ele>
        <time>2018-05-02T17:05:26.000Z</time>
      </trkpt>
      <trkpt lat="43.63226" lon="1.30697">
        <ele>151</ele>
        <time>2018-05-02T17:05:28.000Z</time>
      </trkpt>
      <trkpt lat="43.63228" lon="1.30701">
        <ele>151</ele>
        <time>2018-05-02T17:05:30.000Z</time>
      </trkpt>
      <trkpt lat="43.63229" lon="1.30705">
        <ele>151</ele>
        <time>2018-05-02T17:05:32.000Z</time>
      </trkpt>
      <trkpt lat="43.63231" lon="1.30711">
        <ele>151</ele>
        <time>2018-05-02T17:05:34.000Z</time>
      </trkpt>
      <trkpt lat="43.63232" lon="1.30716">
        <ele>151</ele>
        <time>2018-05-02T17:05:36.000Z</time>
      </trkpt>
      <trkpt lat="43.63234" lon="1.30721">
        <ele>151</ele>
        <time>2018-05-02T17:05:38.000Z</time>
      </trkpt>
      <trkpt lat="43.63234" lon="1.30726">
        <ele>151</ele>
        <time>2018-05-02T17:05:40.000Z</time>
      </trkpt>
      <trkpt lat="43.63235" lon="1.3073">
        <ele>150</ele>
        <time>2018-05-02T17:05:42.000Z</time>
      </trkpt>
      <trkpt lat="43.63237" lon="1.30735">
        <ele>150</ele>
        <time>2018-05-02T17:05:44.000Z</time>
      </trkpt>
      <trkpt lat="43.63237" lon="1.3074">
        <ele>150</ele>
        <time>2018-05-02T17:05:46.000Z</time>
      </trkpt>
      <trkpt lat="43.63239" lon="1.30744">
        <ele>151</ele>
        <time>2018-05-02T17:05:48.000Z</time>
      </trkpt>
      <trkpt lat="43.63242" lon="1.3075">
        <ele>151</ele>
        <time>2018-05-02T17:05:50.000Z</time>
      </trkpt>
      <trkpt lat="43.63243" lon="1.30754">
        <ele>151</ele>
        <time>2018-05-02T17:05:52.000Z</time>
      </trkpt>
      <trkpt lat="43.63245" lon="1.30757">
        <ele>151</ele>
        <time>2018-05-02T17:05:54.000Z</time>
      </trkpt>
      <trkpt lat="43.63247" lon="1.3076">
        <ele>151</ele>
        <time>2018-05-02T17:05:56.000Z</time>
      </trkpt>
      <trkpt lat="43.6325" lon="1.30764">
        <ele>151</ele>
        <time>2018-05-02T17:05:58.000Z</time>
      </trkpt>
      <trkpt lat="43.63253" lon="1.30768">
        <ele>151</ele>
        <time>2018-05-02T17:06:00.000Z</time>
      </trkpt>
      <trkpt lat="43.63255" lon="1.30771">
        <ele>151</ele>
        <time>2018-05-02T17:06:02.000Z</time>
      </trkpt>
      <trkpt lat="43.63256" lon="1.30775">
        <ele>151</ele>
        <time>2018-05-02T17:06:04.000Z</time>
      </trkpt>
      <trkpt lat="43.6326" lon="1.30779">
        <ele>151</ele>
        <time>2018-05-02T17:06:06.000Z</time>
      </trkpt>
      <trkpt lat="43.63264" lon="1.30784">
        <ele>151</ele>
        <time>2018-05-02T17:06:08.000Z</time>
      </trkpt>
      <trkpt lat="43.63267" lon="1.3079">
        <ele>151</ele>
        <time>2018-05-02T17:06:10.000Z</time>
      </trkpt>
      <trkpt lat="43.63268" lon="1.30795">
        <ele>151</ele>
        <time>2018-05-02T17:06:12.000Z</time>
      </trkpt>
      <trkpt lat="43.63267" lon="1.308">
        <ele>151</ele>
        <time>2018-05-02T17:06:14.000Z</time>
      </trkpt>
      <trkpt lat="43.63267" lon="1.30804">
        <ele>151</ele>
        <time>2018-05-02T17:06:16.000Z</time>
      </trkpt>
      <trkpt lat="43.63265" lon="1.30809">
        <ele>151</ele>
        <time>2018-05-02T17:06:18.000Z</time>
      </trkpt>
      <trkpt lat="43.63262" lon="1.30813">
        <ele>151</ele>
        <time>2018-05-02T17:06:20.000Z</time>
      </trkpt>
      <trkpt lat="43.63262" lon="1.30818">
        <ele>151</ele>
        <time>2018-05-02T17:06:22.000Z</time>
      </trkpt>
      <trkpt lat="43.63261" lon="1.30821">
        <ele>151</ele>
        <time>2018-05-02T17:06:24.000Z</time>
      </trkpt>
      <trkpt lat="43.63261" lon="1.30825">
        <ele>151</ele>
        <time>2018-05-02T17:06:26.000Z</time>
      </trkpt>
      <trkpt lat="43.63259" lon="1.30829">
        <ele>151</ele>
        <time>2018-05-02T17:06:28.000Z</time>
      </trkpt>
      <trkpt lat="43.63259" lon="1.30833">
        <ele>151</ele>
        <time>2018-05-02T17:06:30.000Z</time>
      </trkpt>
      <trkpt lat="43.63256" lon="1.30837">
        <ele>151</ele>
        <time>2018-05-02T17:06:32.000Z</time>
      </trkpt>
      <trkpt lat="43.63253" lon="1.3084">
        <ele>151</ele>
        <time>2018-05-02T17:06:34.000Z</time>
      </trkpt>
      <trkpt lat="43.63252" lon="1.30843">
        <ele>151</ele>
        <time>2018-05-02T17:06:36.000Z</time>
      </trkpt>
      <trkpt lat="43.6325" lon="1.30846">
        <ele>151</ele>
        <time>2018-05-02T17:06:38.000Z</time>
      </trkpt>
      <trkpt lat="43.63246" lon="1.30849">
        <ele>151</ele>
        <time>2018-05-02T17:06:40.000Z</time>
      </trkpt>
      <trkpt lat="43.63243" lon="1.30852">
        <ele>151</ele>
        <time>2018-05-02T17:06:42.000Z</time>
      </trkpt>
      <trkpt lat="43.6324" lon="1.30855">
        <ele>151</ele>
        <time>2018-05-02T17:06:44.000Z</time>
      </trkpt>
      <trkpt lat="43.63239" lon="1.30858">
        <ele>151</ele>
        <time>2018-05-02T17:06:46.000Z</time>
      </trkpt>
      <trkpt lat="43.63238" lon="1.30862">
        <ele>151</ele>
        <time>2018-05-02T17:06:48.000Z</time>
      </trkpt>
      <trkpt lat="43.63236" lon="1.30866">
        <ele>151</ele>
        <time>2018-05-02T17:06:50.000Z</time>
      </trkpt>
      <trkpt lat="43.63232" lon="1.3087">
        <ele>151</ele>
        <time>2018-05-02T17:06:52.000Z</time>
      </trkpt>
      <trkpt lat="43.6323" lon="1.30873">
        <ele>152</ele>
        <time>2018-05-02T17:06:54.000Z</time>
      </trkpt>
      <trkpt lat="43.63228" lon="1.30875">
        <ele>152</ele>
        <time>2018-05-02T17:06:56.000Z</time>
      </trkpt>
      <trkpt lat="43.63226" lon="1.30879">
        <ele>152</ele>
        <time>2018-05-02T17:06:58.000Z</time>
      </trkpt>
      <trkpt lat="43.63224" lon="1.30882">
        <ele>152</ele>
        <time>2018-05-02T17:07:00.000Z</time>
      </trkpt>
      <trkpt lat="43.63223" lon="1.30886">
        <ele>152</ele>
        <time>2018-05-02T17:07:02.000Z</time>
      </trkpt>
      <trkpt lat="43.63222" lon="1.3089">
        <ele>152</ele>
        <time>2018-05-02T17:07:04.000Z</time>
      </trkpt>
      <trkpt lat="43.63221" lon="1.30894">
        <ele>152</ele>
        <time>2018-05-02T17:07:06.000Z</time>
      </trkpt>
      <trkpt lat="43.63219" lon="1.30897">
        <ele>153</ele>
        <time>2018-05-02T17:07:08.000Z</time>
      </trkpt>
      <trkpt lat="43.63217" lon="1.30901">
        <ele>153</ele>
        <time>2018-05-02T17:07:10.000Z</time>
      </trkpt>
      <trkpt lat="43.63216" lon="1.30904">
        <ele>153</ele>
        <time>2018-05-02T17:07:12.000Z</time>
      </trkpt>
      <trkpt lat="43.63214" lon="1.30907">
        <ele>153</ele>
        <time>2018-05-02T17:07:14.000Z</time>
      </trkpt>
      <trkpt lat="43.63213" lon="1.30912">
        <ele>153</ele>
        <time>2018-05-02T17:07:16.000Z</time>
      </trkpt>
      <trkpt lat="43.63211" lon="1.30917">
        <ele>153</ele>
        <time>2018-05-02T17:07:18.000Z</time>
      </trkpt>
      <trkpt lat="43.63209" lon="1.30922">
        <ele>153</ele>
        <time>2018-05-02T17:07:20.000Z</time>
      </trkpt>
      <trkpt lat="43.63207" lon="1.30928">
        <ele>154</ele>
        <time>2018-05-02T17:07:22.000Z</time>
      </trkpt>
      <trkpt lat="43.63206" lon="1.30934">
        <ele>154</ele>
        <time>2018-05-02T17:07:24.000Z</time>
      </trkpt>
      <trkpt lat="43.63206" lon="1.3094">
        <ele>155</ele>
        <time>2018-05-02T17:07:26.000Z</time>
      </trkpt>
      <trkpt lat="43.63206" lon="1.30946">
        <ele>155</ele>
        <time>2018-05-02T17:07:28.000Z</time>
      </trkpt>
      <trkpt lat="43.63206" lon="1.30952">
        <ele>155</ele>
        <time>2018-05-02T17:07:30.000Z</time>
      </trkpt>
      <trkpt lat="43.63206" lon="1.30956">
        <ele>156</ele>
        <time>2018-05-02T17:07:32.000Z</time>
      </trkpt>
      <trkpt lat="43.63206" lon="1.30961">
        <ele>156</ele>
        <time>2018-05-02T17:07:34.000Z</time>
      </trkpt>
      <trkpt lat="43.63206" lon="1.30965">
        <ele>156</ele>
        <time>2018-05-02T17:07:36.000Z</time>
      </trkpt>
      <trkpt lat="43.63205" lon="1.30971">
        <ele>157</ele>
        <time>2018-05-02T17:07:38.000Z</time>
      </trkpt>
      <trkpt lat="43.63204" lon="1.30976">
        <ele>157</ele>
        <time>2018-05-02T17:07:40.000Z</time>
      </trkpt>
      <trkpt lat="43.63204" lon="1.30981">
        <ele>157</ele>
        <time>2018-05-02T17:07:42.000Z</time>
      </trkpt>
      <trkpt lat="43.63204" lon="1.30985">
        <ele>157</ele>
        <time>2018-05-02T17:07:44.000Z</time>
      </trkpt>
      <trkpt lat="43.63203" lon="1.30991">
        <ele>157</ele>
        <time>2018-05-02T17:07:46.000Z</time>
      </trkpt>
      <trkpt lat="43.63203" lon="1.30995">
        <ele>157</ele>
        <time>2018-05-02T17:07:48.000Z</time>
      </trkpt>
      <trkpt lat="43.63202" lon="1.31">
        <ele>157</ele>
        <time>2018-05-02T17:07:50.000Z</time>
      </trkpt>
      <trkpt lat="43.63202" lon="1.31005">
        <ele>157</ele>
        <time>2018-05-02T17:07:52.000Z</time>
      </trkpt>
      <trkpt lat="43.63202" lon="1.31011">
        <ele>157</ele>
        <time>2018-05-02T17:07:54.000Z</time>
      </trkpt>
      <trkpt lat="43.63201" lon="1.31016">
        <ele>158</ele>
        <time>2018-05-02T17:07:56.000Z</time>
      </trkpt>
      <trkpt lat="43.63202" lon="1.3102">
        <ele>158</ele>
        <time>2018-05-02T17:07:58.000Z</time>
      </trkpt>
      <trkpt lat="43.63202" lon="1.31025">
        <ele>158</ele>
        <time>2018-05-02T17:08:00.000Z</time>
      </trkpt>
      <trkpt lat="43.63201" lon="1.3103">
        <ele>158</ele>
        <time>2018-05-02T17:08:02.000Z</time>
      </trkpt>
      <trkpt lat="43.632" lon="1.31035">
        <ele>158</ele>
        <time>2018-05-02T17:08:04.000Z</time>
      </trkpt>
      <trkpt lat="43.63198" lon="1.31039">
        <ele>158</ele>
        <time>2018-05-02T17:08:06.000Z</time>
      </trkpt>
      <trkpt lat="43.63196" lon="1.31043">
        <ele>159</ele>
        <time>2018-05-02T17:08:08.000Z</time>
      </trkpt>
      <trkpt lat="43.63195" lon="1.31047">
        <ele>159</ele>
        <time>2018-05-02T17:08:10.000Z</time>
      </trkpt>
      <trkpt lat="43.63195" lon="1.3105">
        <ele>159</ele>
        <time>2018-05-02T17:08:12.000Z</time>
      </trkpt>
      <trkpt lat="43.63195" lon="1.31052">
        <ele>159</ele>
        <time>2018-05-02T17:08:14.000Z</time>
      </trkpt>
      <trkpt lat="43.63194" lon="1.31054">
        <ele>159</ele>
        <time>2018-05-02T17:08:16.000Z</time>
      </trkpt>
      <trkpt lat="43.63192" lon="1.31057">
        <ele>159</ele>
        <time>2018-05-02T17:08:18.000Z</time>
      </trkpt>
      <trkpt lat="43.63189" lon="1.3106">
        <ele>160</ele>
        <time>2018-05-02T17:08:20.000Z</time>
      </trkpt>
      <trkpt lat="43.63189" lon="1.31063">
        <ele>160</ele>
        <time>2018-05-02T17:08:22.000Z</time>
      </trkpt>
      <trkpt lat="43.63188" lon="1.31067">
        <ele>160</ele>
        <time>2018-05-02T17:08:24.000Z</time>
      </trkpt>
      <trkpt lat="43.63188" lon="1.31071">
        <ele>160</ele>
        <time>2018-05-02T17:08:26.000Z</time>
      </trkpt>
      <trkpt lat="43.63187" lon="1.31075">
        <ele>160</ele>
        <time>2018-05-02T17:08:28.000Z</time>
      </trkpt>
      <trkpt lat="43.63185" lon="1.31078">
        <ele>160</ele>
        <time>2018-05-02T17:08:30.000Z</time>
      </trkpt>
      <trkpt lat="43.63183" lon="1.31081">
        <ele>160</ele>
        <time>2018-05-02T17:08:32.000Z</time>
      </trkpt>
      <trkpt lat="43.63182" lon="1.31085">
        <ele>160</ele>
        <time>2018-05-02T17:08:34.000Z</time>
      </trkpt>
      <trkpt lat="43.63181" lon="1.31087">
        <ele>161</ele>
        <time>2018-05-02T17:08:36.000Z</time>
      </trkpt>
      <trkpt lat="43.63179" lon="1.3109">
        <ele>161</ele>
        <time>2018-05-02T17:08:38.000Z</time>
      </trkpt>
      <trkpt lat="43.6318" lon="1.31092">
        <ele>161</ele>
        <time>2018-05-02T17:08:40.000Z</time>
      </trkpt>
      <trkpt lat="43.63179" lon="1.31095">
        <ele>161</ele>
        <time>2018-05-02T17:08:42.000Z</time>
      </trkpt>
      <trkpt lat="43.63177" lon="1.31097">
        <ele>161</ele>
        <time>2018-05-02T17:08:44.000Z</time>
      </trkpt>
      <trkpt lat="43.63174" lon="1.31099">
        <ele>161</ele>
        <time>2018-05-02T17:08:46.000Z</time>
      </trkpt>
      <trkpt lat="43.63172" lon="1.31102">
        <ele>162</ele>
        <time>2018-05-02T17:08:48.000Z</time>
      </trkpt>
      <trkpt lat="43.63171" lon="1.31105">
        <ele>162</ele>
        <time>2018-05-02T17:08:50.000Z</time>
      </trkpt>
      <trkpt lat="43.6317" lon="1.31109">
        <ele>162</ele>
        <time>2018-05-02T17:08:52.000Z</time>
      </trkpt>
      <trkpt lat="43.63168" lon="1.31112">
        <ele>162</ele>
        <time>2018-05-02T17:08:54.000Z</time>
      </trkpt>
      <trkpt lat="43.63166" lon="1.31115">
        <ele>162</ele>
        <time>2018-05-02T17:08:56.000Z</time>
      </trkpt>
      <trkpt lat="43.63164" lon="1.31119">
        <ele>163</ele>
        <time>2018-05-02T17:08:58.000Z</time>
      </trkpt>
      <trkpt lat="43.63161" lon="1.31123">
        <ele>163</ele>
        <time>2018-05-02T17:09:00.000Z</time>
      </trkpt>
      <trkpt lat="43.6316" lon="1.31126">
        <ele>163</ele>
        <time>2018-05-02T17:09:02.000Z</time>
      </trkpt>
      <trkpt lat="43.63158" lon="1.3113">
        <ele>163</ele>
        <time>2018-05-02T17:09:04.000Z</time>
      </trkpt>
      <trkpt lat="43.63156" lon="1.31133">
        <ele>163</ele>
        <time>2018-05-02T17:09:06.000Z</time>
      </trkpt>
      <trkpt lat="43.63154" lon="1.31137">
        <ele>164</ele>
        <time>2018-05-02T17:09:08.000Z</time>
      </trkpt>
      <trkpt lat="43.63152" lon="1.3114">
        <ele>164</ele>
        <time>2018-05-02T17:09:10.000Z</time>
      </trkpt>
      <trkpt lat="43.6315" lon="1.31144">
        <ele>164</ele>
        <time>2018-05-02T17:09:12.000Z</time>
      </trkpt>
      <trkpt lat="43.63149" lon="1.31148">
        <ele>164</ele>
        <time>2018-05-02T17:09:14.000Z</time>
      </trkpt>
      <trkpt lat="43.63148" lon="1.31151">
        <ele>164</ele>
        <time>2018-05-02T17:09:16.000Z</time>
      </trkpt>
      <trkpt lat="43.63146" lon="1.31155">
        <ele>164</ele>
        <time>2018-05-02T17:09:18.000Z</time>
      </trkpt>
      <trkpt lat="43.63145" lon="1.31159">
        <ele>164</ele>
        <time>2018-05-02T17:09:20.000Z</time>
      </trkpt>
      <trkpt lat="43.63143" lon="1.31162">
        <ele>164</ele>
        <time>2018-05-02T17:09:22.000Z</time>
      </trkpt>
      <trkpt lat="43.63141" lon="1.31166">
        <ele>164</ele>
        <time>2018-05-02T17:09:24.000Z</time>
      </trkpt>
      <trkpt lat="43.63139" lon="1.31169">
        <ele>165</ele>
        <time>2018-05-02T17:09:26.000Z</time>
      </trkpt>
      <trkpt lat="43.63136" lon="1.31172">
        <ele>165</ele>
        <time>2018-05-02T17:09:28.000Z</time>
      </trkpt>
      <trkpt lat="43.63134" lon="1.31175">
        <ele>165</ele>
        <time>2018-05-02T17:09:30.000Z</time>
      </trkpt>
      <trkpt lat="43.63132" lon="1.31179">
        <ele>165</ele>
        <time>2018-05-02T17:09:32.000Z</time>
      </trkpt>
      <trkpt lat="43.6313" lon="1.31182">
        <ele>165</ele>
        <time>2018-05-02T17:09:34.000Z</time>
      </trkpt>
      <trkpt lat="43.63129" lon="1.31185">
        <ele>165</ele>
        <time>2018-05-02T17:09:36.000Z</time>
      </trkpt>
      <trkpt lat="43.63127" lon="1.31188">
        <ele>166</ele>
        <time>2018-05-02T17:09:38.000Z</time>
      </trkpt>
      <trkpt lat="43.63126" lon="1.31191">
        <ele>166</ele>
        <time>2018-05-02T17:09:40.000Z</time>
      </trkpt>
      <trkpt lat="43.63125" lon="1.31195">
        <ele>166</ele>
        <time>2018-05-02T17:09:42.000Z</time>
      </trkpt>
      <trkpt lat="43.63123" lon="1.31199">
        <ele>166</ele>
        <time>2018-05-02T17:09:44.000Z</time>
      </trkpt>
      <trkpt lat="43.63123" lon="1.31202">
        <ele>166</ele>
        <time>2018-05-02T17:09:46.000Z</time>
      </trkpt>
      <trkpt lat="43.63123" lon="1.31206">
        <ele>166</ele>
        <time>2018-05-02T17:09:48.000Z</time>
      </trkpt>
      <trkpt lat="43.63123" lon="1.31209">
        <ele>166</ele>
        <time>2018-05-02T17:09:50.000Z</time>
      </trkpt>
      <trkpt lat="43.63121" lon="1.31212">
        <ele>166</ele>
        <time>2018-05-02T17:09:52.000Z</time>
      </trkpt>
      <trkpt lat="43.6312" lon="1.31215">
        <ele>166</ele>
        <time>2018-05-02T17:09:54.000Z</time>
      </trkpt>
      <trkpt lat="43.6312" lon="1.31218">
        <ele>166</ele>
        <time>2018-05-02T17:09:56.000Z</time>
      </trkpt>
      <trkpt lat="43.63119" lon="1.31221">
        <ele>166</ele>
        <time>2018-05-02T17:09:58.000Z</time>
      </trkpt>
      <trkpt lat="43.63117" lon="1.31225">
        <ele>166</ele>
        <time>2018-05-02T17:10:00.000Z</time>
      </trkpt>
      <trkpt lat="43.63114" lon="1.31229">
        <ele>167</ele>
        <time>2018-05-02T17:10:02.000Z</time>
      </trkpt>
      <trkpt lat="43.63111" lon="1.31232">
        <ele>167</ele>
        <time>2018-05-02T17:10:04.000Z</time>
      </trkpt>
      <trkpt lat="43.63109" lon="1.31236">
        <ele>167</ele>
        <time>2018-05-02T17:10:06.000Z</time>
      </trkpt>
      <trkpt lat="43.63107" lon="1.31239">
        <ele>168</ele>
        <time>2018-05-02T17:10:08.000Z</time>
      </trkpt>
      <trkpt lat="43.63104" lon="1.31242">
        <ele>168</ele>
        <time>2018-05-02T17:10:10.000Z</time>
      </trkpt>
      <trkpt lat="43.63101" lon="1.31246">
        <ele>169</ele>
        <time>2018-05-02T17:10:12.000Z</time>
      </trkpt>
      <trkpt lat="43.63098" lon="1.31249">
        <ele>169</ele>
        <time>2018-05-02T17:10:14.000Z</time>
      </trkpt>
      <trkpt lat="43.63097" lon="1.31251">
        <ele>169</ele>
        <time>2018-05-02T17:10:16.000Z</time>
      </trkpt>
      <trkpt lat="43.63095" lon="1.31254">
        <ele>170</ele>
        <time>2018-05-02T17:10:18.000Z</time>
      </trkpt>
      <trkpt lat="43.63093" lon="1.31258">
        <ele>170</ele>
        <time>2018-05-02T17:10:20.000Z</time>
      </trkpt>
      <trkpt lat="43.63091" lon="1.3126">
        <ele>170</ele>
        <time>2018-05-02T17:10:22.000Z</time>
      </trkpt>
      <trkpt lat="43.63088" lon="1.31263">
        <ele>170</ele>
        <time>2018-05-02T17:10:24.000Z</time>
      </trkpt>
      <trkpt lat="43.63087" lon="1.31267">
        <ele>171</ele>
        <time>2018-05-02T17:10:26.000Z</time>
      </trkpt>
      <trkpt lat="43.63085" lon="1.3127">
        <ele>171</ele>
        <time>2018-05-02T17:10:28.000Z</time>
      </trkpt>
      <trkpt lat="43.63082" lon="1.31271">
        <ele>171</ele>
        <time>2018-05-02T17:10:30.000Z</time>
      </trkpt>
      <trkpt lat="43.63081" lon="1.31269">
        <ele>171</ele>
        <time>2018-05-02T17:10:32.000Z</time>
      </trkpt>
      <trkpt lat="43.6308" lon="1.31267">
        <ele>171</ele>
        <time>2018-05-02T17:10:34.000Z</time>
      </trkpt>
      <trkpt lat="43.6308" lon="1.31264">
        <ele>171</ele>
        <time>2018-05-02T17:10:36.000Z</time>
      </trkpt>
      <trkpt lat="43.63081" lon="1.31262">
        <ele>171</ele>
        <time>2018-05-02T17:10:38.000Z</time>
      </trkpt>
      <trkpt lat="43.63083" lon="1.3126">
        <ele>171</ele>
        <time>2018-05-02T17:10:40.000Z</time>
      </trkpt>
      <trkpt lat="43.63083" lon="1.31257">
        <ele>170</ele>
        <time>2018-05-02T17:10:42.000Z</time>
      </trkpt>
      <trkpt lat="43.63085" lon="1.31254">
        <ele>170</ele>
        <time>2018-05-02T17:10:44.000Z</time>
      </trkpt>
      <trkpt lat="43.63086" lon="1.31251">
        <ele>170</ele>
        <time>2018-05-02T17:10:46.000Z</time>
      </trkpt>
      <trkpt lat="43.63087" lon="1.31248">
        <ele>170</ele>
        <time>2018-05-02T17:10:48.000Z</time>
      </trkpt>
      <trkpt lat="43.63089" lon="1.31243">
        <ele>169</ele>
        <time>2018-05-02T17:10:50.000Z</time>
      </trkpt>
      <trkpt lat="43.63091" lon="1.31239">
        <ele>169</ele>
        <time>2018-05-02T17:10:52.000Z</time>
      </trkpt>
      <trkpt lat="43.63093" lon="1.31235">
        <ele>169</ele>
        <time>2018-05-02T17:10:54.000Z</time>
      </trkpt>
      <trkpt lat="43.63095" lon="1.31231">
        <ele>169</ele>
        <time>2018-05-02T17:10:56.000Z</time>
      </trkpt>
      <trkpt lat="43.63097" lon="1.31227">
        <ele>168</ele>
        <time>2018-05-02T17:10:58.000Z</time>
      </trkpt>
      <trkpt lat="43.63099" lon="1.31224">
        <ele>168</ele>
        <time>2018-05-02T17:11:00.000Z</time>
      </trkpt>
      <trkpt lat="43.63101" lon="1.31221">
        <ele>168</ele>
        <time>2018-05-02T17:11:02.000Z</time>
      </trkpt>
      <trkpt lat="43.63103" lon="1.31218">
        <ele>168</ele>
        <time>2018-05-02T17:11:04.000Z</time>
      </trkpt>
      <trkpt lat="43.63105" lon="1.31215">
        <ele>168</ele>
        <time>2018-05-02T17:11:06.000Z</time>
      </trkpt>
      <trkpt lat="43.63107" lon="1.31212">
        <ele>168</ele>
        <time>2018-05-02T17:11:08.000Z</time>
      </trkpt>
      <trkpt lat="43.6311" lon="1.31209">
        <ele>167</ele>
        <time>2018-05-02T17:11:10.000Z</time>
      </trkpt>
      <trkpt lat="43.63113" lon="1.31205">
        <ele>167</ele>
        <time>2018-05-02T17:11:12.000Z</time>
      </trkpt>
      <trkpt lat="43.63115" lon="1.31202">
        <ele>167</ele>
        <time>2018-05-02T17:11:14.000Z</time>
      </trkpt>
      <trkpt lat="43.63116" lon="1.31199">
        <ele>167</ele>
        <time>2018-05-02T17:11:16.000Z</time>
      </trkpt>
      <trkpt lat="43.63118" lon="1.31196">
        <ele>167</ele>
        <time>2018-05-02T17:11:18.000Z</time>
      </trkpt>
      <trkpt lat="43.63119" lon="1.31192">
        <ele>166</ele>
        <time>2018-05-02T17:11:20.000Z</time>
      </trkpt>
      <trkpt lat="43.63121" lon="1.31189">
        <ele>166</ele>
        <time>2018-05-02T17:11:22.000Z</time>
      </trkpt>
      <trkpt lat="43.63123" lon="1.31184">
        <ele>166</ele>
        <time>2018-05-02T17:11:24.000Z</time>
      </trkpt>
      <trkpt lat="43.63125" lon="1.3118">
        <ele>166</ele>
        <time>2018-05-02T17:11:26.000Z</time>
      </trkpt>
      <trkpt lat="43.63127" lon="1.31176">
        <ele>166</ele>
        <time>2018-05-02T17:11:28.000Z</time>
      </trkpt>
      <trkpt lat="43.63129" lon="1.31171">
        <ele>166</ele>
        <time>2018-05-02T17:11:30.000Z</time>
      </trkpt>
      <trkpt lat="43.63131" lon="1.31166">
        <ele>165</ele>
        <time>2018-05-02T17:11:32.000Z</time>
      </trkpt>
      <trkpt lat="43.63133" lon="1.31162">
        <ele>165</ele>
        <time>2018-05-02T17:11:34.000Z</time>
      </trkpt>
      <trkpt lat="43.63135" lon="1.31157">
        <ele>165</ele>
        <time>2018-05-02T17:11:36.000Z</time>
      </trkpt>
      <trkpt lat="43.63136" lon="1.31154">
        <ele>165</ele>
        <time>2018-05-02T17:11:38.000Z</time>
      </trkpt>
      <trkpt lat="43.63138" lon="1.31151">
        <ele>165</ele>
        <time>2018-05-02T17:11:40.000Z</time>
      </trkpt>
      <trkpt lat="43.6314" lon="1.31148">
        <ele>165</ele>
        <time>2018-05-02T17:11:42.000Z</time>
      </trkpt>
      <trkpt lat="43.63141" lon="1.31145">
        <ele>165</ele>
        <time>2018-05-02T17:11:44.000Z</time>
      </trkpt>
      <trkpt lat="43.63143" lon="1.3114">
        <ele>165</ele>
        <time>2018-05-02T17:11:46.000Z</time>
      </trkpt>
      <trkpt lat="43.63145" lon="1.31136">
        <ele>164</ele>
        <time>2018-05-02T17:11:48.000Z</time>
      </trkpt>
      <trkpt lat="43.63147" lon="1.31133">
        <ele>164</ele>
        <time>2018-05-02T17:11:50.000Z</time>
      </trkpt>
      <trkpt lat="43.63149" lon="1.31129">
        <ele>164</ele>
        <time>2018-05-02T17:11:52.000Z</time>
      </trkpt>
      <trkpt lat="43.63151" lon="1.31125">
        <ele>164</ele>
        <time>2018-05-02T17:11:54.000Z</time>
      </trkpt>
      <trkpt lat="43.63153" lon="1.31121">
        <ele>164</ele>
        <time>2018-05-02T17:11:56.000Z</time>
      </trkpt>
      <trkpt lat="43.63156" lon="1.31116">
        <ele>164</ele>
        <time>2018-05-02T17:11:58.000Z</time>
      </trkpt>
      <trkpt lat="43.63158" lon="1.31113">
        <ele>163</ele>
        <time>2018-05-02T17:12:00.000Z</time>
      </trkpt>
      <trkpt lat="43.63161" lon="1.31109">
        <ele>163</ele>
        <time>2018-05-02T17:12:02.000Z</time>
      </trkpt>
      <trkpt lat="43.63164" lon="1.31105">
        <ele>163</ele>
        <time>2018-05-02T17:12:04.000Z</time>
      </trkpt>
      <trkpt lat="43.63167" lon="1.31101">
        <ele>162</ele>
        <time>2018-05-02T17:12:06.000Z</time>
      </trkpt>
      <trkpt lat="43.63168" lon="1.31097">
        <ele>162</ele>
        <time>2018-05-02T17:12:08.000Z</time>
      </trkpt>
      <trkpt lat="43.6317" lon="1.31092">
        <ele>162</ele>
        <time>2018-05-02T17:12:10.000Z</time>
      </trkpt>
      <trkpt lat="43.63171" lon="1.31088">
        <ele>162</ele>
        <time>2018-05-02T17:12:12.000Z</time>
      </trkpt>
      <trkpt lat="43.63172" lon="1.31084">
        <ele>162</ele>
        <time>2018-05-02T17:12:14.000Z</time>
      </trkpt>
      <trkpt lat="43.63172" lon="1.31079">
        <ele>162</ele>
        <time>2018-05-02T17:12:16.000Z</time>
      </trkpt>
      <trkpt lat="43.63173" lon="1.31074">
        <ele>162</ele>
        <time>2018-05-02T17:12:18.000Z</time>
      </trkpt>
      <trkpt lat="43.63173" lon="1.3107">
        <ele>161</ele>
        <time>2018-05-02T17:12:20.000Z</time>
      </trkpt>
      <trkpt lat="43.63174" lon="1.31064">
        <ele>161</ele>
        <time>2018-05-02T17:12:22.000Z</time>
      </trkpt>
      <trkpt lat="43.63174" lon="1.3106">
        <ele>161</ele>
        <time>2018-05-02T17:12:24.000Z</time>
      </trkpt>
      <trkpt lat="43.63176" lon="1.31055">
        <ele>161</ele>
        <time>2018-05-02T17:12:26.000Z</time>
      </trkpt>
      <trkpt lat="43.63178" lon="1.3105">
        <ele>160</ele>
        <time>2018-05-02T17:12:28.000Z</time>
      </trkpt>
      <trkpt lat="43.63179" lon="1.31046">
        <ele>160</ele>
        <time>2018-05-02T17:12:30.000Z</time>
      </trkpt>
      <trkpt lat="43.6318" lon="1.31041">
        <ele>160</ele>
        <time>2018-05-02T17:12:32.000Z</time>
      </trkpt>
      <trkpt lat="43.63181" lon="1.31036">
        <ele>160</ele>
        <time>2018-05-02T17:12:34.000Z</time>
      </trkpt>
      <trkpt lat="43.6318" lon="1.31031">
        <ele>160</ele>
        <time>2018-05-02T17:12:36.000Z</time>
      </trkpt>
      <trkpt lat="43.63182" lon="1.31026">
        <ele>159</ele>
        <time>2018-05-02T17:12:38.000Z</time>
      </trkpt>
      <trkpt lat="43.63185" lon="1.31021">
        <ele>159</ele>
        <time>2018-05-02T17:12:40.000Z</time>
      </trkpt>
      <trkpt lat="43.63185" lon="1.31016">
        <ele>159</ele>
        <time>2018-05-02T17:12:42.000Z</time>
      </trkpt>
      <trkpt lat="43.63185" lon="1.31011">
        <ele>159</ele>
        <time>2018-05-02T17:12:44.000Z</time>
      </trkpt>
      <trkpt lat="43.63185" lon="1.31006">
        <ele>159</ele>
        <time>2018-05-02T17:12:46.000Z</time>
      </trkpt>
      <trkpt lat="43.63186" lon="1.31001">
        <ele>158</ele>
        <time>2018-05-02T17:12:48.000Z</time>
      </trkpt>
      <trkpt lat="43.63187" lon="1.30996">
        <ele>158</ele>
        <time>2018-05-02T17:12:50.000Z</time>
      </trkpt>
      <trkpt lat="43.63188" lon="1.30992">
        <ele>158</ele>
        <time>2018-05-02T17:12:52.000Z</time>
      </trkpt>
      <trkpt lat="43.63189" lon="1.30987">
        <ele>158</ele>
        <time>2018-05-02T17:12:54.000Z</time>
      </trkpt>
      <trkpt lat="43.6319" lon="1.30982">
        <ele>158</ele>
        <time>2018-05-02T17:12:56.000Z</time>
      </trkpt>
      <trkpt lat="43.63191" lon="1.30977">
        <ele>158</ele>
        <time>2018-05-02T17:12:58.000Z</time>
      </trkpt>
      <trkpt lat="43.63192" lon="1.30971">
        <ele>157</ele>
        <time>2018-05-02T17:13:00.000Z</time>
      </trkpt>
      <trkpt lat="43.63193" lon="1.30966">
        <ele>157</ele>
        <time>2018-05-02T17:13:02.000Z</time>
      </trkpt>
      <trkpt lat="43.63194" lon="1.30962">
        <ele>157</ele>
        <time>2018-05-02T17:13:04.000Z</time>
      </trkpt>
      <trkpt lat="43.63195" lon="1.30958">
        <ele>156</ele>
        <time>2018-05-02T17:13:06.000Z</time>
      </trkpt>
      <trkpt lat="43.63196" lon="1.30953">
        <ele>156</ele>
        <time>2018-05-02T17:13:08.000Z</time>
      </trkpt>
      <trkpt lat="43.63197" lon="1.30948">
        <ele>156</ele>
        <time>2018-05-02T17:13:10.000Z</time>
      </trkpt>
      <trkpt lat="43.63197" lon="1.30944">
        <ele>155</ele>
        <time>2018-05-02T17:13:12.000Z</time>
      </trkpt>
      <trkpt lat="43.63198" lon="1.3094">
        <ele>155</ele>
        <time>2018-05-02T17:13:14.000Z</time>
      </trkpt>
      <trkpt lat="43.632" lon="1.30937">
        <ele>155</ele>
        <time>2018-05-02T17:13:16.000Z</time>
      </trkpt>
      <trkpt lat="43.63201" lon="1.30933">
        <ele>154</ele>
        <time>2018-05-02T17:13:18.000Z</time>
      </trkpt>
      <trkpt lat="43.63203" lon="1.3093">
        <ele>154</ele>
        <time>2018-05-02T17:13:20.000Z</time>
      </trkpt>
      <trkpt lat="43.63205" lon="1.30927">
        <ele>154</ele>
        <time>2018-05-02T17:13:22.000Z</time>
      </trkpt>
      <trkpt lat="43.63206" lon="1.30924">
        <ele>154</ele>
        <time>2018-05-02T17:13:24.000Z</time>
      </trkpt>
      <trkpt lat="43.63207" lon="1.30922">
        <ele>153</ele>
        <time>2018-05-02T17:13:26.000Z</time>
      </trkpt>
      <trkpt lat="43.6321" lon="1.3092">
        <ele>153</ele>
        <time>2018-05-02T17:13:28.000Z</time>
      </trkpt>
      <trkpt lat="43.63212" lon="1.30915">
        <ele>153</ele>
        <time>2018-05-02T17:13:30.000Z</time>
      </trkpt>
      <trkpt lat="43.63214" lon="1.30911">
        <ele>153</ele>
        <time>2018-05-02T17:13:32.000Z</time>
      </trkpt>
      <trkpt lat="43.63216" lon="1.30907">
        <ele>153</ele>
        <time>2018-05-02T17:13:34.000Z</time>
      </trkpt>
      <trkpt lat="43.63219" lon="1.30905">
        <ele>153</ele>
        <time>2018-05-02T17:13:36.000Z</time>
      </trkpt>
      <trkpt lat="43.63221" lon="1.30902">
        <ele>153</ele>
        <time>2018-05-02T17:13:38.000Z</time>
      </trkpt>
      <trkpt lat="43.63224" lon="1.30899">
        <ele>153</ele>
        <time>2018-05-02T17:13:40.000Z</time>
      </trkpt>
      <trkpt lat="43.63226" lon="1.30895">
        <ele>152</ele>
        <time>2018-05-02T17:13:42.000Z</time>
      </trkpt>
      <trkpt lat="43.63228" lon="1.30889">
        <ele>152</ele>
        <time>2018-05-02T17:13:44.000Z</time>
      </trkpt>
      <trkpt lat="43.6323" lon="1.30885">
        <ele>152</ele>
        <time>2018-05-02T17:13:46.000Z</time>
      </trkpt>
      <trkpt lat="43.63231" lon="1.3088">
        <ele>152</ele>
        <time>2018-05-02T17:13:48.000Z</time>
      </trkpt>
      <trkpt lat="43.63234" lon="1.30877">
        <ele>152</ele>
        <time>2018-05-02T17:13:50.000Z</time>
      </trkpt>
      <trkpt lat="43.63236" lon="1.30874">
        <ele>152</ele>
        <time>2018-05-02T17:13:52.000Z</time>
      </trkpt>
      <trkpt lat="43.63238" lon="1.30871">
        <ele>151</ele>
        <time>2018-05-02T17:13:54.000Z</time>
      </trkpt>
      <trkpt lat="43.6324" lon="1.30867">
        <ele>151</ele>
        <time>2018-05-02T17:13:56.000Z</time>
      </trkpt>
      <trkpt lat="43.63242" lon="1.30862">
        <ele>151</ele>
        <time>2018-05-02T17:13:58.000Z</time>
      </trkpt>
      <trkpt lat="43.63244" lon="1.30858">
        <ele>151</ele>
        <time>2018-05-02T17:14:00.000Z</time>
      </trkpt>
      <trkpt lat="43.63246" lon="1.30853">
        <ele>151</ele>
        <time>2018-05-02T17:14:02.000Z</time>
      </trkpt>
      <trkpt lat="43.63249" lon="1.30848">
        <ele>151</ele>
        <time>2018-05-02T17:14:04.000Z</time>
      </trkpt>
      <trkpt lat="43.63251" lon="1.30844">
        <ele>151</ele>
        <time>2018-05-02T17:14:06.000Z</time>
      </trkpt>
      <trkpt lat="43.63253" lon="1.3084">
        <ele>151</ele>
        <time>2018-05-02T17:14:08.000Z</time>
      </trkpt>
      <trkpt lat="43.63255" lon="1.30836">
        <ele>151</ele>
        <time>2018-05-02T17:14:10.000Z</time>
      </trkpt>
      <trkpt lat="43.63256" lon="1.30831">
        <ele>151</ele>
        <time>2018-05-02T17:14:12.000Z</time>
      </trkpt>
      <trkpt lat="43.63258" lon="1.30825">
        <ele>151</ele>
        <time>2018-05-02T17:14:14.000Z</time>
      </trkpt>
      <trkpt lat="43.6326" lon="1.30821">
        <ele>151</ele>
        <time>2018-05-02T17:14:16.000Z</time>
      </trkpt>
      <trkpt lat="43.63262" lon="1.30815">
        <ele>151</ele>
        <time>2018-05-02T17:14:18.000Z</time>
      </trkpt>
      <trkpt lat="43.63263" lon="1.3081">
        <ele>151</ele>
        <time>2018-05-02T17:14:20.000Z</time>
      </trkpt>
      <trkpt lat="43.63265" lon="1.30805">
        <ele>151</ele>
        <time>2018-05-02T17:14:22.000Z</time>
      </trkpt>
      <trkpt lat="43.63266" lon="1.30801">
        <ele>151</ele>
        <time>2018-05-02T17:14:24.000Z</time>
      </trkpt>
      <trkpt lat="43.63267" lon="1.30797">
        <ele>151</ele>
        <time>2018-05-02T17:14:26.000Z</time>
      </trkpt>
      <trkpt lat="43.63268" lon="1.30794">
        <ele>151</ele>
        <time>2018-05-02T17:14:28.000Z</time>
      </trkpt>
      <trkpt lat="43.63268" lon="1.3079">
        <ele>151</ele>
        <time>2018-05-02T17:14:30.000Z</time>
      </trkpt>
      <trkpt lat="43.6327" lon="1.30787">
        <ele>151</ele>
        <time>2018-05-02T17:14:32.000Z</time>
      </trkpt>
      <trkpt lat="43.63272" lon="1.30783">
        <ele>151</ele>
        <time>2018-05-02T17:14:34.000Z</time>
      </trkpt>
      <trkpt lat="43.63274" lon="1.30779">
        <ele>150</ele>
        <time>2018-05-02T17:14:36.000Z</time>
      </trkpt>
      <trkpt lat="43.63275" lon="1.30776">
        <ele>150</ele>
        <time>2018-05-02T17:14:38.000Z</time>
      </trkpt>
      <trkpt lat="43.63277" lon="1.30772">
        <ele>150</ele>
        <time>2018-05-02T17:14:40.000Z</time>
      </trkpt>
      <trkpt lat="43.6328" lon="1.30768">
        <ele>150</ele>
        <time>2018-05-02T17:14:42.000Z</time>
      </trkpt>
      <trkpt lat="43.63282" lon="1.30765">
        <ele>150</ele>
        <time>2018-05-02T17:14:44.000Z</time>
      </trkpt>
      <trkpt lat="43.63284" lon="1.30762">
        <ele>150</ele>
        <time>2018-05-02T17:14:46.000Z</time>
      </trkpt>
      <trkpt lat="43.63286" lon="1.30759">
        <ele>150</ele>
        <time>2018-05-02T17:14:48.000Z</time>
      </trkpt>
      <trkpt lat="43.63287" lon="1.30755">
        <ele>150</ele>
        <time>2018-05-02T17:14:50.000Z</time>
      </trkpt>
      <trkpt lat="43.6329" lon="1.30751">
        <ele>150</ele>
        <time>2018-05-02T17:14:52.000Z</time>
      </trkpt>
      <trkpt lat="43.63293" lon="1.30749">
        <ele>150</ele>
        <time>2018-05-02T17:14:54.000Z</time>
      </trkpt>
      <trkpt lat="43.63295" lon="1.30748">
        <ele>150</ele>
        <time>2018-05-02T17:14:56.000Z</time>
      </trkpt>
      <trkpt lat="43.63297" lon="1.30749">
        <ele>150</ele>
        <time>2018-05-02T17:14:58.000Z</time>
      </trkpt>
      <trkpt lat="43.63298" lon="1.30751">
        <ele>150</ele>
        <time>2018-05-02T17:15:00.000Z</time>
      </trkpt>
      <trkpt lat="43.633" lon="1.30753">
        <ele>150</ele>
        <time>2018-05-02T17:15:02.000Z</time>
      </trkpt>
      <trkpt lat="43.63301" lon="1.30756">
        <ele>150</ele>
        <time>2018-05-02T17:15:04.000Z</time>
      </trkpt>
      <trkpt lat="43.63303" lon="1.30758">
        <ele>150</ele>
        <time>2018-05-02T17:15:06.000Z</time>
      </trkpt>
      <trkpt lat="43.63306" lon="1.30761">
        <ele>150</ele>
        <time>2018-05-02T17:15:08.000Z</time>
      </trkpt>
      <trkpt lat="43.63307" lon="1.30763">
        <ele>150</ele>
        <time>2018-05-02T17:15:10.000Z</time>
      </trkpt>
      <trkpt lat="43.63309" lon="1.30766">
        <ele>150</ele>
        <time>2018-05-02T17:15:12.000Z</time>
      </trkpt>
      <trkpt lat="43.63312" lon="1.3077">
        <ele>150</ele>
        <time>2018-05-02T17:15:14.000Z</time>
      </trkpt>
      <trkpt lat="43.63314" lon="1.30774">
        <ele>149</ele>
        <time>2018-05-02T17:15:16.000Z</time>
      </trkpt>
      <trkpt lat="43.63317" lon="1.30777">
        <ele>149</ele>
        <time>2018-05-02T17:15:18.000Z</time>
      </trkpt>
      <trkpt lat="43.63321" lon="1.30781">
        <ele>149</ele>
        <time>2018-05-02T17:15:20.000Z</time>
      </trkpt>
      <trkpt lat="43.63323" lon="1.30784">
        <ele>149</ele>
        <time>2018-05-02T17:15:22.000Z</time>
      </trkpt>
      <trkpt lat="43.63325" lon="1.30787">
        <ele>149</ele>
        <time>2018-05-02T17:15:24.000Z</time>
      </trkpt>
      <trkpt lat="43.63327" lon="1.3079">
        <ele>149</ele>
        <time>2018-05-02T17:15:26.000Z</time>
      </trkpt>
      <trkpt lat="43.63328" lon="1.30794">
        <ele>149</ele>
        <time>2018-05-02T17:15:28.000Z</time>
      </trkpt>
      <trkpt lat="43.63331" lon="1.30797">
        <ele>149</ele>
        <time>2018-05-02T17:15:30.000Z</time>
      </trkpt>
      <trkpt lat="43.63334" lon="1.30801">
        <ele>149</ele>
        <time>2018-05-02T17:15:32.000Z</time>
      </trkpt>
      <trkpt lat="43.63337" lon="1.30805">
        <ele>149</ele>
        <time>2018-05-02T17:15:34.000Z</time>
      </trkpt>
      <trkpt lat="43.6334" lon="1.30808">
        <ele>149</ele>
        <time>2018-05-02T17:15:36.000Z</time>
      </trkpt>
      <trkpt lat="43.63342" lon="1.30811">
        <ele>149</ele>
        <time>2018-05-02T17:15:38.000Z</time>
      </trkpt>
      <trkpt lat="43.63345" lon="1.30814">
        <ele>149</ele>
        <time>2018-05-02T17:15:40.000Z</time>
      </trkpt>
      <trkpt lat="43.63347" lon="1.30817">
        <ele>149</ele>
        <time>2018-05-02T17:15:42.000Z</time>
      </trkpt>
      <trkpt lat="43.63349" lon="1.3082">
        <ele>149</ele>
        <time>2018-05-02T17:15:44.000Z</time>
      </trkpt>
      <trkpt lat="43.63352" lon="1.30824">
        <ele>149</ele>
        <time>2018-05-02T17:15:46.000Z</time>
      </trkpt>
      <trkpt lat="43.63355" lon="1.30828">
        <ele>149</ele>
        <time>2018-05-02T17:15:48.000Z</time>
      </trkpt>
      <trkpt lat="43.63358" lon="1.30831">
        <ele>149</ele>
        <time>2018-05-02T17:15:50.000Z</time>
      </trkpt>
      <trkpt lat="43.6336" lon="1.30835">
        <ele>149</ele>
        <time>2018-05-02T17:15:52.000Z</time>
      </trkpt>
      <trkpt lat="43.63364" lon="1.30839">
        <ele>149</ele>
        <time>2018-05-02T17:15:54.000Z</time>
      </trkpt>
      <trkpt lat="43.63367" lon="1.30843">
        <ele>149</ele>
        <time>2018-05-02T17:15:56.000Z</time>
      </trkpt>
      <trkpt lat="43.6337" lon="1.30847">
        <ele>149</ele>
        <time>2018-05-02T17:15:58.000Z</time>
      </trkpt>
      <trkpt lat="43.63373" lon="1.3085">
        <ele>149</ele>
        <time>2018-05-02T17:16:00.000Z</time>
      </trkpt>
      <trkpt lat="43.63375" lon="1.30854">
        <ele>149</ele>
        <time>2018-05-02T17:16:02.000Z</time>
      </trkpt>
      <trkpt lat="43.63378" lon="1.30857">
        <ele>149</ele>
        <time>2018-05-02T17:16:04.000Z</time>
      </trkpt>
      <trkpt lat="43.6338" lon="1.3086">
        <ele>149</ele>
        <time>2018-05-02T17:16:06.000Z</time>
      </trkpt>
      <trkpt lat="43.63381" lon="1.30863">
        <ele>149</ele>
        <time>2018-05-02T17:16:08.000Z</time>
      </trkpt>
      <trkpt lat="43.63383" lon="1.30867">
        <ele>149</ele>
        <time>2018-05-02T17:16:10.000Z</time>
      </trkpt>
      <trkpt lat="43.63386" lon="1.3087">
        <ele>149</ele>
        <time>2018-05-02T17:16:12.000Z</time>
      </trkpt>
      <trkpt lat="43.63388" lon="1.30873">
        <ele>149</ele>
        <time>2018-05-02T17:16:14.000Z</time>
      </trkpt>
      <trkpt lat="43.6339" lon="1.30877">
        <ele>149</ele>
        <time>2018-05-02T17:16:16.000Z</time>
      </trkpt>
      <trkpt lat="43.63391" lon="1.30879">
        <ele>149</ele>
        <time>2018-05-02T17:16:18.000Z</time>
      </trkpt>
      <trkpt lat="43.63393" lon="1.30883">
        <ele>149</ele>
        <time>2018-05-02T17:16:20.000Z</time>
      </trkpt>
      <trkpt lat="43.63396" lon="1.30885">
        <ele>148</ele>
        <time>2018-05-02T17:16:22.000Z</time>
      </trkpt>
      <trkpt lat="43.63398" lon="1.30888">
        <ele>148</ele>
        <time>2018-05-02T17:16:24.000Z</time>
      </trkpt>
      <trkpt lat="43.634" lon="1.30891">
        <ele>148</ele>
        <time>2018-05-02T17:16:26.000Z</time>
      </trkpt>
      <trkpt lat="43.63403" lon="1.30894">
        <ele>148</ele>
        <time>2018-05-02T17:16:28.000Z</time>
      </trkpt>
      <trkpt lat="43.63405" lon="1.30898">
        <ele>148</ele>
        <time>2018-05-02T17:16:30.000Z</time>
      </trkpt>
      <trkpt lat="43.63408" lon="1.30901">
        <ele>148</ele>
        <time>2018-05-02T17:16:32.000Z</time>
      </trkpt>
      <trkpt lat="43.6341" lon="1.30904">
        <ele>148</ele>
        <time>2018-05-02T17:16:34.000Z</time>
      </trkpt>
      <trkpt lat="43.63413" lon="1.30907">
        <ele>148</ele>
        <time>2018-05-02T17:16:36.000Z</time>
      </trkpt>
      <trkpt lat="43.63416" lon="1.3091">
        <ele>148</ele>
        <time>2018-05-02T17:16:38.000Z</time>
      </trkpt>
      <trkpt lat="43.63419" lon="1.30914">
        <ele>148</ele>
        <time>2018-05-02T17:16:40.000Z</time>
      </trkpt>
      <trkpt lat="43.63421" lon="1.30917">
        <ele>148</ele>
        <time>2018-05-02T17:16:42.000Z</time>
      </trkpt>
      <trkpt lat="43.63425" lon="1.30919">
        <ele>148</ele>
        <time>2018-05-02T17:16:44.000Z</time>
      </trkpt>
      <trkpt lat="43.63427" lon="1.30921">
        <ele>148</ele>
        <time>2018-05-02T17:16:46.000Z</time>
      </trkpt>
      <trkpt lat="43.63431" lon="1.30923">
        <ele>148</ele>
        <time>2018-05-02T17:16:48.000Z</time>
      </trkpt>
      <trkpt lat="43.63434" lon="1.30925">
        <ele>148</ele>
        <time>2018-05-02T17:16:50.000Z</time>
      </trkpt>
      <trkpt lat="43.63437" lon="1.30927">
        <ele>148</ele>
        <time>2018-05-02T17:16:52.000Z</time>
      </trkpt>
      <trkpt lat="43.6344" lon="1.30928">
        <ele>148</ele>
        <time>2018-05-02T17:16:54.000Z</time>
      </trkpt>
      <trkpt lat="43.63443" lon="1.3093">
        <ele>148</ele>
        <time>2018-05-02T17:16:56.000Z</time>
      </trkpt>
      <trkpt lat="43.63446" lon="1.30932">
        <ele>148</ele>
        <time>2018-05-02T17:16:58.000Z</time>
      </trkpt>
      <trkpt lat="43.6345" lon="1.30934">
        <ele>148</ele>
        <time>2018-05-02T17:17:00.000Z</time>
      </trkpt>
      <trkpt lat="43.63453" lon="1.30936">
        <ele>148</ele>
        <time>2018-05-02T17:17:02.000Z</time>
      </trkpt>
      <trkpt lat="43.63457" lon="1.30938">
        <ele>148</ele>
        <time>2018-05-02T17:17:04.000Z</time>
      </trkpt>
      <trkpt lat="43.63461" lon="1.3094">
        <ele>148</ele>
        <time>2018-05-02T17:17:06.000Z</time>
      </trkpt>
      <trkpt lat="43.63464" lon="1.30942">
        <ele>148</ele>
        <time>2018-05-02T17:17:08.000Z</time>
      </trkpt>
      <trkpt lat="43.63466" lon="1.30942">
        <ele>148</ele>
        <time>2018-05-02T17:17:10.000Z</time>
      </trkpt>
      <trkpt lat="43.63468" lon="1.30943">
        <ele>148</ele>
        <time>2018-05-02T17:17:12.000Z</time>
      </trkpt>
      <trkpt lat="43.63471" lon="1.30945">
        <ele>148</ele>
        <time>2018-05-02T17:17:14.000Z</time>
      </trkpt>
      <trkpt lat="43.63474" lon="1.30946">
        <ele>148</ele>
        <time>2018-05-02T17:17:16.000Z</time>
      </trkpt>
      <trkpt lat="43.63478" lon="1.30948">
        <ele>148</ele>
        <time>2018-05-02T17:17:18.000Z</time>
      </trkpt>
      <trkpt lat="43.63481" lon="1.30949">
        <ele>148</ele>
        <time>2018-05-02T17:17:20.000Z</time>
      </trkpt>
      <trkpt lat="43.63484" lon="1.30951">
        <ele>149</ele>
        <time>2018-05-02T17:17:22.000Z</time>
      </trkpt>
      <trkpt lat="43.63488" lon="1.30952">
        <ele>149</ele>
        <time>2018-05-02T17:17:24.000Z</time>
      </trkpt>
      <trkpt lat="43.6349" lon="1.30954">
        <ele>149</ele>
        <time>2018-05-02T17:17:26.000Z</time>
      </trkpt>
      <trkpt lat="43.63492" lon="1.30955">
        <ele>149</ele>
        <time>2018-05-02T17:17:28.000Z</time>
      </trkpt>
      <trkpt lat="43.63496" lon="1.30957">
        <ele>149</ele>
        <time>2018-05-02T17:17:30.000Z</time>
      </trkpt>
      <trkpt lat="43.63501" lon="1.30958">
        <ele>149</ele>
        <time>2018-05-02T17:17:32.000Z</time>
      </trkpt>
      <trkpt lat="43.63506" lon="1.3096">
        <ele>149</ele>
        <time>2018-05-02T17:17:34.000Z</time>
      </trkpt>
      <trkpt lat="43.63509" lon="1.30962">
        <ele>149</ele>
        <time>2018-05-02T17:17:36.000Z</time>
      </trkpt>
      <trkpt lat="43.63512" lon="1.30965">
        <ele>149</ele>
        <time>2018-05-02T17:17:38.000Z</time>
      </trkpt>
      <trkpt lat="43.63515" lon="1.30967">
        <ele>149</ele>
        <time>2018-05-02T17:17:40.000Z</time>
      </trkpt>
      <trkpt lat="43.63517" lon="1.30969">
        <ele>149</ele>
        <time>2018-05-02T17:17:42.000Z</time>
      </trkpt>
      <trkpt lat="43.63519" lon="1.30972">
        <ele>149</ele>
        <time>2018-05-02T17:17:44.000Z</time>
      </trkpt>
      <trkpt lat="43.63523" lon="1.30976">
        <ele>149</ele>
        <time>2018-05-02T17:17:46.000Z</time>
      </trkpt>
      <trkpt lat="43.63526" lon="1.3098">
        <ele>149</ele>
        <time>2018-05-02T17:17:48.000Z</time>
      </trkpt>
      <trkpt lat="43.63528" lon="1.30983">
        <ele>149</ele>
        <time>2018-05-02T17:17:50.000Z</time>
      </trkpt>
      <trkpt lat="43.6353" lon="1.30988">
        <ele>149</ele>
        <time>2018-05-02T17:17:52.000Z</time>
      </trkpt>
      <trkpt lat="43.63532" lon="1.30992">
        <ele>149</ele>
        <time>2018-05-02T17:17:54.000Z</time>
      </trkpt>
      <trkpt lat="43.63533" lon="1.30995">
        <ele>149</ele>
        <time>2018-05-02T17:17:56.000Z</time>
      </trkpt>
      <trkpt lat="43.63535" lon="1.30999">
        <ele>149</ele>
        <time>2018-05-02T17:17:58.000Z</time>
      </trkpt>
      <trkpt lat="43.63537" lon="1.31002">
        <ele>149</ele>
        <time>2018-05-02T17:18:00.000Z</time>
      </trkpt>
      <trkpt lat="43.63538" lon="1.31005">
        <ele>149</ele>
        <time>2018-05-02T17:18:02.000Z</time>
      </trkpt>
      <trkpt lat="43.63539" lon="1.31009">
        <ele>149</ele>
        <time>2018-05-02T17:18:04.000Z</time>
      </trkpt>
      <trkpt lat="43.63542" lon="1.31012">
        <ele>149</ele>
        <time>2018-05-02T17:18:06.000Z</time>
      </trkpt>
      <trkpt lat="43.63544" lon="1.31015">
        <ele>149</ele>
        <time>2018-05-02T17:18:08.000Z</time>
      </trkpt>
      <trkpt lat="43.63546" lon="1.31018">
        <ele>149</ele>
        <time>2018-05-02T17:18:10.000Z</time>
      </trkpt>
      <trkpt lat="43.63548" lon="1.31022">
        <ele>149</ele>
        <time>2018-05-02T17:18:12.000Z</time>
      </trkpt>
      <trkpt lat="43.63549" lon="1.31025">
        <ele>149</ele>
        <time>2018-05-02T17:18:14.000Z</time>
      </trkpt>
      <trkpt lat="43.63551" lon="1.31027">
        <ele>149</ele>
        <time>2018-05-02T17:18:16.000Z</time>
      </trkpt>
      <trkpt lat="43.63554" lon="1.3103">
        <ele>149</ele>
        <time>2018-05-02T17:18:18.000Z</time>
      </trkpt>
      <trkpt lat="43.63556" lon="1.31034">
        <ele>149</ele>
        <time>2018-05-02T17:18:20.000Z</time>
      </trkpt>
      <trkpt lat="43.63559" lon="1.31039">
        <ele>150</ele>
        <time>2018-05-02T17:18:22.000Z</time>
      </trkpt>
      <trkpt lat="43.63562" lon="1.31043">
        <ele>150</ele>
        <time>2018-05-02T17:18:24.000Z</time>
      </trkpt>
      <trkpt lat="43.63565" lon="1.31046">
        <ele>150</ele>
        <time>2018-05-02T17:18:26.000Z</time>
      </trkpt>
      <trkpt lat="43.63568" lon="1.31051">
        <ele>150</ele>
        <time>2018-05-02T17:18:28.000Z</time>
      </trkpt>
      <trkpt lat="43.63572" lon="1.31054">
        <ele>150</ele>
        <time>2018-05-02T17:18:30.000Z</time>
      </trkpt>
      <trkpt lat="43.63574" lon="1.31058">
        <ele>150</ele>
        <time>2018-05-02T17:18:32.000Z</time>
      </trkpt>
      <trkpt lat="43.63577" lon="1.31061">
        <ele>150</ele>
        <time>2018-05-02T17:18:34.000Z</time>
      </trkpt>
      <trkpt lat="43.63579" lon="1.31065">
        <ele>150</ele>
        <time>2018-05-02T17:18:36.000Z</time>
      </trkpt>
      <trkpt lat="43.63582" lon="1.31069">
        <ele>150</ele>
        <time>2018-05-02T17:18:38.000Z</time>
      </trkpt>
      <trkpt lat="43.63584" lon="1.31073">
        <ele>150</ele>
        <time>2018-05-02T17:18:40.000Z</time>
      </trkpt>
      <trkpt lat="43.63587" lon="1.31076">
        <ele>150</ele>
        <time>2018-05-02T17:18:42.000Z</time>
      </trkpt>
      <trkpt lat="43.63589" lon="1.31079">
        <ele>150</ele>
        <time>2018-05-02T17:18:44.000Z</time>
      </trkpt>
      <trkpt lat="43.63591" lon="1.31083">
        <ele>150</ele>
        <time>2018-05-02T17:18:46.000Z</time>
      </trkpt>
      <trkpt lat="43.63593" lon="1.31087">
        <ele>149</ele>
        <time>2018-05-02T17:18:48.000Z</time>
      </trkpt>
      <trkpt lat="43.63595" lon="1.31091">
        <ele>149</ele>
        <time>2018-05-02T17:18:50.000Z</time>
      </trkpt>
      <trkpt lat="43.63597" lon="1.31095">
        <ele>149</ele>
        <time>2018-05-02T17:18:52.000Z</time>
      </trkpt>
      <trkpt lat="43.63599" lon="1.31098">
        <ele>149</ele>
        <time>2018-05-02T17:18:54.000Z</time>
      </trkpt>
      <trkpt lat="43.63602" lon="1.31101">
        <ele>149</ele>
        <time>2018-05-02T17:18:56.000Z</time>
      </trkpt>
      <trkpt lat="43.63605" lon="1.31103">
        <ele>149</ele>
        <time>2018-05-02T17:18:58.000Z</time>
      </trkpt>
      <trkpt lat="43.63607" lon="1.31106">
        <ele>149</ele>
        <time>2018-05-02T17:19:00.000Z</time>
      </trkpt>
      <trkpt lat="43.6361" lon="1.31109">
        <ele>149</ele>
        <time>2018-05-02T17:19:02.000Z</time>
      </trkpt>
      <trkpt lat="43.63612" lon="1.31112">
        <ele>149</ele>
        <time>2018-05-02T17:19:04.000Z</time>
      </trkpt>
      <trkpt lat="43.63614" lon="1.31117">
        <ele>149</ele>
        <time>2018-05-02T17:19:06.000Z</time>
      </trkpt>
      <trkpt lat="43.63616" lon="1.31121">
        <ele>149</ele>
        <time>2018-05-02T17:19:08.000Z</time>
      </trkpt>
      <trkpt lat="43.63619" lon="1.31125">
        <ele>149</ele>
        <time>2018-05-02T17:19:10.000Z</time>
      </trkpt>
      <trkpt lat="43.63621" lon="1.31128">
        <ele>149</ele>
        <time>2018-05-02T17:19:12.000Z</time>
      </trkpt>
      <trkpt lat="43.63624" lon="1.31131">
        <ele>149</ele>
        <time>2018-05-02T17:19:14.000Z</time>
      </trkpt>
      <trkpt lat="43.63626" lon="1.31136">
        <ele>149</ele>
        <time>2018-05-02T17:19:16.000Z</time>
      </trkpt>
      <trkpt lat="43.63627" lon="1.3114">
        <ele>149</ele>
        <time>2018-05-02T17:19:18.000Z</time>
      </trkpt>
      <trkpt lat="43.63629" lon="1.31146">
        <ele>149</ele>
        <time>2018-05-02T17:19:20.000Z</time>
      </trkpt>
      <trkpt lat="43.63631" lon="1.31151">
        <ele>149</ele>
        <time>2018-05-02T17:19:22.000Z</time>
      </trkpt>
      <trkpt lat="43.63633" lon="1.31156">
        <ele>149</ele>
        <time>2018-05-02T17:19:24.000Z</time>
      </trkpt>
      <trkpt lat="43.63636" lon="1.31161">
        <ele>149</ele>
        <time>2018-05-02T17:19:26.000Z</time>
      </trkpt>
      <trkpt lat="43.63639" lon="1.31167">
        <ele>149</ele>
        <time>2018-05-02T17:19:28.000Z</time>
      </trkpt>
      <trkpt lat="43.63641" lon="1.31171">
        <ele>149</ele>
        <time>2018-05-02T17:19:30.000Z</time>
      </trkpt>
      <trkpt lat="43.63642" lon="1.31174">
        <ele>149</ele>
        <time>2018-05-02T17:19:32.000Z</time>
      </trkpt>
      <trkpt lat="43.63643" lon="1.31179">
        <ele>149</ele>
        <time>2018-05-02T17:19:34.000Z</time>
      </trkpt>
      <trkpt lat="43.63644" lon="1.31183">
        <ele>149</ele>
        <time>2018-05-02T17:19:36.000Z</time>
      </trkpt>
      <trkpt lat="43.63645" lon="1.31186">
        <ele>149</ele>
        <time>2018-05-02T17:19:38.000Z</time>
      </trkpt>
      <trkpt lat="43.63646" lon="1.3119">
        <ele>149</ele>
        <time>2018-05-02T17:19:40.000Z</time>
      </trkpt>
      <trkpt lat="43.63647" lon="1.31194">
        <ele>149</ele>
        <time>2018-05-02T17:19:42.000Z</time>
      </trkpt>
      <trkpt lat="43.63649" lon="1.31198">
        <ele>149</ele>
        <time>2018-05-02T17:19:44.000Z</time>
      </trkpt>
      <trkpt lat="43.63651" lon="1.31202">
        <ele>149</ele>
        <time>2018-05-02T17:19:46.000Z</time>
      </trkpt>
      <trkpt lat="43.63654" lon="1.31205">
        <ele>149</ele>
        <time>2018-05-02T17:19:48.000Z</time>
      </trkpt>
      <trkpt lat="43.63656" lon="1.31208">
        <ele>149</ele>
        <time>2018-05-02T17:19:50.000Z</time>
      </trkpt>
      <trkpt lat="43.63658" lon="1.31212">
        <ele>149</ele>
        <time>2018-05-02T17:19:52.000Z</time>
      </trkpt>
      <trkpt lat="43.63661" lon="1.31215">
        <ele>149</ele>
        <time>2018-05-02T17:19:54.000Z</time>
      </trkpt>
      <trkpt lat="43.63663" lon="1.31218">
        <ele>149</ele>
        <time>2018-05-02T17:19:56.000Z</time>
      </trkpt>
      <trkpt lat="43.63666" lon="1.31222">
        <ele>149</ele>
        <time>2018-05-02T17:19:58.000Z</time>
      </trkpt>
      <trkpt lat="43.63668" lon="1.31225">
        <ele>150</ele>
        <time>2018-05-02T17:20:00.000Z</time>
      </trkpt>
      <trkpt lat="43.63669" lon="1.31228">
        <ele>150</ele>
        <time>2018-05-02T17:20:02.000Z</time>
      </trkpt>
      <trkpt lat="43.63671" lon="1.31231">
        <ele>150</ele>
        <time>2018-05-02T17:20:04.000Z</time>
      </trkpt>
      <trkpt lat="43.63673" lon="1.31235">
        <ele>150</ele>
        <time>2018-05-02T17:20:06.000Z</time>
      </trkpt>
      <trkpt lat="43.63675" lon="1.31238">
        <ele>150</ele>
        <time>2018-05-02T17:20:08.000Z</time>
      </trkpt>
      <trkpt lat="43.63678" lon="1.31241">
        <ele>150</ele>
        <time>2018-05-02T17:20:10.000Z</time>
      </trkpt>
      <trkpt lat="43.63681" lon="1.31244">
        <ele>150</ele>
        <time>2018-05-02T17:20:12.000Z</time>
      </trkpt>
      <trkpt lat="43.63683" lon="1.31249">
        <ele>150</ele>
        <time>2018-05-02T17:20:14.000Z</time>
      </trkpt>
      <trkpt lat="43.63685" lon="1.31254">
        <ele>150</ele>
        <time>2018-05-02T17:20:16.000Z</time>
      </trkpt>
      <trkpt lat="43.63687" lon="1.31259">
        <ele>150</ele>
        <time>2018-05-02T17:20:18.000Z</time>
      </trkpt>
      <trkpt lat="43.63689" lon="1.31265">
        <ele>150</ele>
        <time>2018-05-02T17:20:20.000Z</time>
      </trkpt>
      <trkpt lat="43.63691" lon="1.3127">
        <ele>150</ele>
        <time>2018-05-02T17:20:22.000Z</time>
      </trkpt>
      <trkpt lat="43.63691" lon="1.31275">
        <ele>150</ele>
        <time>2018-05-02T17:20:24.000Z</time>
      </trkpt>
      <trkpt lat="43.63692" lon="1.3128">
        <ele>150</ele>
        <time>2018-05-02T17:20:26.000Z</time>
      </trkpt>
      <trkpt lat="43.63693" lon="1.31285">
        <ele>150</ele>
        <time>2018-05-02T17:20:28.000Z</time>
      </trkpt>
      <trkpt lat="43.63694" lon="1.31291">
        <ele>150</ele>
        <time>2018-05-02T17:20:30.000Z</time>
      </trkpt>
      <trkpt lat="43.63695" lon="1.31295">
        <ele>150</ele>
        <time>2018-05-02T17:20:32.000Z</time>
      </trkpt>
      <trkpt lat="43.63695" lon="1.313">
        <ele>150</ele>
        <time>2018-05-02T17:20:34.000Z</time>
      </trkpt>
      <trkpt lat="43.63695" lon="1.31305">
        <ele>150</ele>
        <time>2018-05-02T17:20:36.000Z</time>
      </trkpt>
      <trkpt lat="43.63696" lon="1.3131">
        <ele>150</ele>
        <time>2018-05-02T17:20:38.000Z</time>
      </trkpt>
      <trkpt lat="43.63696" lon="1.31314">
        <ele>150</ele>
        <time>2018-05-02T17:20:40.000Z</time>
      </trkpt>
      <trkpt lat="43.63697" lon="1.31319">
        <ele>150</ele>
        <time>2018-05-02T17:20:42.000Z</time>
      </trkpt>
      <trkpt lat="43.63698" lon="1.31324">
        <ele>150</ele>
        <time>2018-05-02T17:20:44.000Z</time>
      </trkpt>
      <trkpt lat="43.637" lon="1.31328">
        <ele>150</ele>
        <time>2018-05-02T17:20:46.000Z</time>
      </trkpt>
      <trkpt lat="43.63701" lon="1.31331">
        <ele>150</ele>
        <time>2018-05-02T17:20:48.000Z</time>
      </trkpt>
      <trkpt lat="43.63701" lon="1.31335">
        <ele>150</ele>
        <time>2018-05-02T17:20:50.000Z</time>
      </trkpt>
      <trkpt lat="43.63702" lon="1.31339">
        <ele>150</ele>
        <time>2018-05-02T17:20:52.000Z</time>
      </trkpt>
      <trkpt lat="43.63703" lon="1.31345">
        <ele>150</ele>
        <time>2018-05-02T17:20:54.000Z</time>
      </trkpt>
      <trkpt lat="43.63704" lon="1.31349">
        <ele>150</ele>
        <time>2018-05-02T17:20:56.000Z</time>
      </trkpt>
      <trkpt lat="43.63705" lon="1.31354">
        <ele>150</ele>
        <time>2018-05-02T17:20:58.000Z</time>
      </trkpt>
      <trkpt lat="43.63707" lon="1.31358">
        <ele>150</ele>
        <time>2018-05-02T17:21:00.000Z</time>
      </trkpt>
      <trkpt lat="43.63708" lon="1.31364">
        <ele>150</ele>
        <time>2018-05-02T17:21:02.000Z</time>
      </trkpt>
      <trkpt lat="43.63709" lon="1.31368">
        <ele>150</ele>
        <time>2018-05-02T17:21:04.000Z</time>
      </trkpt>
      <trkpt lat="43.6371" lon="1.31373">
        <ele>150</ele>
        <time>2018-05-02T17:21:06.000Z</time>
      </trkpt>
      <trkpt lat="43.63711" lon="1.31378">
        <ele>150</ele>
        <time>2018-05-02T17:21:08.000Z</time>
      </trkpt>
      <trkpt lat="43.63712" lon="1.31382">
        <ele>150</ele>
        <time>2018-05-02T17:21:10.000Z</time>
      </trkpt>
      <trkpt lat="43.63713" lon="1.31386">
        <ele>150</ele>
        <time>2018-05-02T17:21:12.000Z</time>
      </trkpt>
      <trkpt lat="43.63715" lon="1.3139">
        <ele>150</ele>
        <time>2018-05-02T17:21:14.000Z</time>
      </trkpt>
      <trkpt lat="43.63716" lon="1.31395">
        <ele>150</ele>
        <time>2018-05-02T17:21:16.000Z</time>
      </trkpt>
      <trkpt lat="43.63718" lon="1.31398">
        <ele>150</ele>
        <time>2018-05-02T17:21:18.000Z</time>
      </trkpt>
      <trkpt lat="43.63718" lon="1.31403">
        <ele>150</ele>
        <time>2018-05-02T17:21:20.000Z</time>
      </trkpt>
      <trkpt lat="43.6372" lon="1.31407">
        <ele>150</ele>
        <time>2018-05-02T17:21:22.000Z</time>
      </trkpt>
      <trkpt lat="43.63722" lon="1.31411">
        <ele>149</ele>
        <time>2018-05-02T17:21:24.000Z</time>
      </trkpt>
      <trkpt lat="43.63724" lon="1.31415">
        <ele>149</ele>
        <time>2018-05-02T17:21:26.000Z</time>
      </trkpt>
      <trkpt lat="43.63727" lon="1.31419">
        <ele>149</ele>
        <time>2018-05-02T17:21:28.000Z</time>
      </trkpt>
      <trkpt lat="43.63729" lon="1.31423">
        <ele>149</ele>
        <time>2018-05-02T17:21:30.000Z</time>
      </trkpt>
      <trkpt lat="43.63731" lon="1.31428">
        <ele>149</ele>
        <time>2018-05-02T17:21:32.000Z</time>
      </trkpt>
      <trkpt lat="43.63733" lon="1.31432">
        <ele>149</ele>
        <time>2018-05-02T17:21:34.000Z</time>
      </trkpt>
      <trkpt lat="43.63736" lon="1.31436">
        <ele>149</ele>
        <time>2018-05-02T17:21:36.000Z</time>
      </trkpt>
      <trkpt lat="43.63737" lon="1.3144">
        <ele>148</ele>
        <time>2018-05-02T17:21:38.000Z</time>
      </trkpt>
      <trkpt lat="43.63738" lon="1.31445">
        <ele>148</ele>
        <time>2018-05-02T17:21:40.000Z</time>
      </trkpt>
      <trkpt lat="43.6374" lon="1.31449">
        <ele>148</ele>
        <time>2018-05-02T17:21:42.000Z</time>
      </trkpt>
      <trkpt lat="43.63743" lon="1.31454">
        <ele>148</ele>
        <time>2018-05-02T17:21:44.000Z</time>
      </trkpt>
      <trkpt lat="43.63745" lon="1.31458">
        <ele>148</ele>
        <time>2018-05-02T17:21:46.000Z</time>
      </trkpt>
      <trkpt lat="43.63749" lon="1.31462">
        <ele>148</ele>
        <time>2018-05-02T17:21:48.000Z</time>
      </trkpt>
      <trkpt lat="43.63752" lon="1.31467">
        <ele>148</ele>
        <time>2018-05-02T17:21:50.000Z</time>
      </trkpt>
      <trkpt lat="43.63754" lon="1.31471">
        <ele>147</ele>
        <time>2018-05-02T17:21:52.000Z</time>
      </trkpt>
      <trkpt lat="43.63756" lon="1.31474">
        <ele>147</ele>
        <time>2018-05-02T17:21:54.000Z</time>
      </trkpt>
      <trkpt lat="43.63758" lon="1.31477">
        <ele>147</ele>
        <time>2018-05-02T17:21:56.000Z</time>
      </trkpt>
      <trkpt lat="43.63759" lon="1.31481">
        <ele>147</ele>
        <time>2018-05-02T17:21:58.000Z</time>
      </trkpt>
      <trkpt lat="43.63761" lon="1.31485">
        <ele>147</ele>
        <time>2018-05-02T17:22:00.000Z</time>
      </trkpt>
      <trkpt lat="43.63763" lon="1.31489">
        <ele>147</ele>
        <time>2018-05-02T17:22:02.000Z</time>
      </trkpt>
      <trkpt lat="43.63766" lon="1.31493">
        <ele>147</ele>
        <time>2018-05-02T17:22:04.000Z</time>
      </trkpt>
      <trkpt lat="43.63768" lon="1.31497">
        <ele>147</ele>
        <time>2018-05-02T17:22:06.000Z</time>
      </trkpt>
      <trkpt lat="43.63771" lon="1.31501">
        <ele>147</ele>
        <time>2018-05-02T17:22:08.000Z</time>
      </trkpt>
      <trkpt lat="43.63773" lon="1.31505">
        <ele>147</ele>
        <time>2018-05-02T17:22:10.000Z</time>
      </trkpt>
      <trkpt lat="43.63774" lon="1.31509">
        <ele>147</ele>
        <time>2018-05-02T17:22:12.000Z</time>
      </trkpt>
      <trkpt lat="43.63775" lon="1.31513">
        <ele>147</ele>
        <time>2018-05-02T17:22:14.000Z</time>
      </trkpt>
      <trkpt lat="43.63777" lon="1.31517">
        <ele>147</ele>
        <time>2018-05-02T17:22:16.000Z</time>
      </trkpt>
      <trkpt lat="43.6378" lon="1.3152">
        <ele>147</ele>
        <time>2018-05-02T17:22:18.000Z</time>
      </trkpt>
      <trkpt lat="43.63783" lon="1.31524">
        <ele>147</ele>
        <time>2018-05-02T17:22:20.000Z</time>
      </trkpt>
      <trkpt lat="43.63785" lon="1.31527">
        <ele>147</ele>
        <time>2018-05-02T17:22:22.000Z</time>
      </trkpt>
      <trkpt lat="43.63787" lon="1.3153">
        <ele>147</ele>
        <time>2018-05-02T17:22:24.000Z</time>
      </trkpt>
      <trkpt lat="43.63789" lon="1.31534">
        <ele>147</ele>
        <time>2018-05-02T17:22:26.000Z</time>
      </trkpt>
      <trkpt lat="43.63792" lon="1.31538">
        <ele>147</ele>
        <time>2018-05-02T17:22:28.000Z</time>
      </trkpt>
      <trkpt lat="43.63794" lon="1.31542">
        <ele>147</ele>
        <time>2018-05-02T17:22:30.000Z</time>
      </trkpt>
      <trkpt lat="43.63796" lon="1.31545">
        <ele>147</ele>
        <time>2018-05-02T17:22:32.000Z</time>
      </trkpt>
      <trkpt lat="43.63799" lon="1.31548">
        <ele>147</ele>
        <time>2018-05-02T17:22:34.000Z</time>
      </trkpt>
      <trkpt lat="43.63801" lon="1.31552">
        <ele>147</ele>
        <time>2018-05-02T17:22:36.000Z</time>
      </trkpt>
      <trkpt lat="43.63804" lon="1.31556">
        <ele>147</ele>
        <time>2018-05-02T17:22:38.000Z</time>
      </trkpt>
      <trkpt lat="43.63806" lon="1.31561">
        <ele>146</ele>
        <time>2018-05-02T17:22:40.000Z</time>
      </trkpt>
      <trkpt lat="43.63808" lon="1.31564">
        <ele>146</ele>
        <time>2018-05-02T17:22:42.000Z</time>
      </trkpt>
      <trkpt lat="43.6381" lon="1.31569">
        <ele>147</ele>
        <time>2018-05-02T17:22:44.000Z</time>
      </trkpt>
      <trkpt lat="43.63812" lon="1.31573">
        <ele>147</ele>
        <time>2018-05-02T17:22:46.000Z</time>
      </trkpt>
      <trkpt lat="43.63814" lon="1.31577">
        <ele>147</ele>
        <time>2018-05-02T17:22:48.000Z</time>
      </trkpt>
      <trkpt lat="43.63815" lon="1.31581">
        <ele>147</ele>
        <time>2018-05-02T17:22:50.000Z</time>
      </trkpt>
      <trkpt lat="43.63817" lon="1.31586">
        <ele>147</ele>
        <time>2018-05-02T17:22:52.000Z</time>
      </trkpt>
      <trkpt lat="43.6382" lon="1.3159">
        <ele>147</ele>
        <time>2018-05-02T17:22:54.000Z</time>
      </trkpt>
      <trkpt lat="43.63822" lon="1.31594">
        <ele>147</ele>
        <time>2018-05-02T17:22:56.000Z</time>
      </trkpt>
      <trkpt lat="43.63824" lon="1.31598">
        <ele>147</ele>
        <time>2018-05-02T17:22:58.000Z</time>
      </trkpt>
      <trkpt lat="43.63824" lon="1.31602">
        <ele>148</ele>
        <time>2018-05-02T17:23:00.000Z</time>
      </trkpt>
      <trkpt lat="43.63826" lon="1.31607">
        <ele>148</ele>
        <time>2018-05-02T17:23:02.000Z</time>
      </trkpt>
      <trkpt lat="43.63827" lon="1.31611">
        <ele>148</ele>
        <time>2018-05-02T17:23:04.000Z</time>
      </trkpt>
      <trkpt lat="43.63828" lon="1.31614">
        <ele>148</ele>
        <time>2018-05-02T17:23:06.000Z</time>
      </trkpt>
      <trkpt lat="43.6383" lon="1.31617">
        <ele>148</ele>
        <time>2018-05-02T17:23:08.000Z</time>
      </trkpt>
      <trkpt lat="43.63832" lon="1.3162">
        <ele>148</ele>
        <time>2018-05-02T17:23:10.000Z</time>
      </trkpt>
      <trkpt lat="43.63834" lon="1.31623">
        <ele>148</ele>
        <time>2018-05-02T17:23:12.000Z</time>
      </trkpt>
      <trkpt lat="43.63836" lon="1.31625">
        <ele>148</ele>
        <time>2018-05-02T17:23:14.000Z</time>
      </trkpt>
      <trkpt lat="43.63839" lon="1.31628">
        <ele>148</ele>
        <time>2018-05-02T17:23:16.000Z</time>
      </trkpt>
      <trkpt lat="43.63842" lon="1.31631">
        <ele>149</ele>
        <time>2018-05-02T17:23:18.000Z</time>
      </trkpt>
      <trkpt lat="43.63845" lon="1.31635">
        <ele>149</ele>
        <time>2018-05-02T17:23:20.000Z</time>
      </trkpt>
      <trkpt lat="43.63847" lon="1.31637">
        <ele>149</ele>
        <time>2018-05-02T17:23:22.000Z</time>
      </trkpt>
      <trkpt lat="43.63848" lon="1.31641">
        <ele>149</ele>
        <time>2018-05-02T17:23:24.000Z</time>
      </trkpt>
      <trkpt lat="43.63851" lon="1.31644">
        <ele>149</ele>
        <time>2018-05-02T17:23:26.000Z</time>
      </trkpt>
      <trkpt lat="43.63854" lon="1.31647">
        <ele>149</ele>
        <time>2018-05-02T17:23:28.000Z</time>
      </trkpt>
      <trkpt lat="43.63857" lon="1.31651">
        <ele>149</ele>
        <time>2018-05-02T17:23:30.000Z</time>
      </trkpt>
      <trkpt lat="43.63862" lon="1.31655">
        <ele>149</ele>
        <time>2018-05-02T17:23:32.000Z</time>
      </trkpt>
      <trkpt lat="43.63865" lon="1.31657">
        <ele>149</ele>
        <time>2018-05-02T17:23:34.000Z</time>
      </trkpt>
      <trkpt lat="43.63868" lon="1.3166">
        <ele>149</ele>
        <time>2018-05-02T17:23:36.000Z</time>
      </trkpt>
      <trkpt lat="43.63871" lon="1.31663">
        <ele>148</ele>
        <time>2018-05-02T17:23:38.000Z</time>
      </trkpt>
      <trkpt lat="43.63874" lon="1.31665">
        <ele>148</ele>
        <time>2018-05-02T17:23:40.000Z</time>
      </trkpt>
      <trkpt lat="43.63876" lon="1.31667">
        <ele>148</ele>
        <time>2018-05-02T17:23:42.000Z</time>
      </trkpt>
      <trkpt lat="43.6388" lon="1.31671">
        <ele>148</ele>
        <time>2018-05-02T17:23:44.000Z</time>
      </trkpt>
      <trkpt lat="43.63883" lon="1.31674">
        <ele>148</ele>
        <time>2018-05-02T17:23:46.000Z</time>
      </trkpt>
      <trkpt lat="43.63886" lon="1.31676">
        <ele>148</ele>
        <time>2018-05-02T17:23:48.000Z</time>
      </trkpt>
      <trkpt lat="43.63889" lon="1.31678">
        <ele>148</ele>
        <time>2018-05-02T17:23:50.000Z</time>
      </trkpt>
      <trkpt lat="43.63891" lon="1.31681">
        <ele>148</ele>
        <time>2018-05-02T17:23:52.000Z</time>
      </trkpt>
      <trkpt lat="43.63893" lon="1.31683">
        <ele>148</ele>
        <time>2018-05-02T17:23:54.000Z</time>
      </trkpt>
      <trkpt lat="43.63895" lon="1.31685">
        <ele>148</ele>
        <time>2018-05-02T17:23:56.000Z</time>
      </trkpt>
      <trkpt lat="43.63897" lon="1.31688">
        <ele>148</ele>
        <time>2018-05-02T17:23:58.000Z</time>
      </trkpt>
      <trkpt lat="43.63899" lon="1.31691">
        <ele>147</ele>
        <time>2018-05-02T17:24:00.000Z</time>
      </trkpt>
      <trkpt lat="43.63902" lon="1.31693">
        <ele>147</ele>
        <time>2018-05-02T17:24:02.000Z</time>
      </trkpt>
      <trkpt lat="43.63906" lon="1.31696">
        <ele>147</ele>
        <time>2018-05-02T17:24:04.000Z</time>
      </trkpt>
      <trkpt lat="43.63909" lon="1.31699">
        <ele>147</ele>
        <time>2018-05-02T17:24:06.000Z</time>
      </trkpt>
      <trkpt lat="43.63911" lon="1.31702">
        <ele>147</ele>
        <time>2018-05-02T17:24:08.000Z</time>
      </trkpt>
      <trkpt lat="43.63914" lon="1.31705">
        <ele>147</ele>
        <time>2018-05-02T17:24:10.000Z</time>
      </trkpt>
      <trkpt lat="43.63917" lon="1.31708">
        <ele>147</ele>
        <time>2018-05-02T17:24:12.000Z</time>
      </trkpt>
      <trkpt lat="43.6392" lon="1.3171">
        <ele>147</ele>
        <time>2018-05-02T17:24:14.000Z</time>
      </trkpt>
      <trkpt lat="43.63923" lon="1.31713">
        <ele>147</ele>
        <time>2018-05-02T17:24:16.000Z</time>
      </trkpt>
      <trkpt lat="43.63926" lon="1.31715">
        <ele>147</ele>
        <time>2018-05-02T17:24:18.000Z</time>
      </trkpt>
      <trkpt lat="43.63929" lon="1.31718">
        <ele>146</ele>
        <time>2018-05-02T17:24:20.000Z</time>
      </trkpt>
      <trkpt lat="43.63932" lon="1.3172">
        <ele>146</ele>
        <time>2018-05-02T17:24:22.000Z</time>
      </trkpt>
      <trkpt lat="43.63936" lon="1.31722">
        <ele>146</ele>
        <time>2018-05-02T17:24:24.000Z</time>
      </trkpt>
      <trkpt lat="43.63938" lon="1.31724">
        <ele>146</ele>
        <time>2018-05-02T17:24:26.000Z</time>
      </trkpt>
      <trkpt lat="43.63941" lon="1.31726">
        <ele>146</ele>
        <time>2018-05-02T17:24:28.000Z</time>
      </trkpt>
      <trkpt lat="43.63943" lon="1.31728">
        <ele>146</ele>
        <time>2018-05-02T17:24:30.000Z</time>
      </trkpt>
      <trkpt lat="43.63947" lon="1.3173">
        <ele>146</ele>
        <time>2018-05-02T17:24:32.000Z</time>
      </trkpt>
      <trkpt lat="43.63951" lon="1.31732">
        <ele>146</ele>
        <time>2018-05-02T17:24:34.000Z</time>
      </trkpt>
      <trkpt lat="43.63956" lon="1.31735">
        <ele>146</ele>
        <time>2018-05-02T17:24:36.000Z</time>
      </trkpt>
      <trkpt lat="43.63959" lon="1.31737">
        <ele>146</ele>
        <time>2018-05-02T17:24:38.000Z</time>
      </trkpt>
      <trkpt lat="43.63962" lon="1.31739">
        <ele>146</ele>
        <time>2018-05-02T17:24:40.000Z</time>
      </trkpt>
      <trkpt lat="43.63966" lon="1.31741">
        <ele>146</ele>
        <time>2018-05-02T17:24:42.000Z</time>
      </trkpt>
      <trkpt lat="43.63969" lon="1.31743">
        <ele>146</ele>
        <time>2018-05-02T17:24:44.000Z</time>
      </trkpt>
      <trkpt lat="43.63972" lon="1.31745">
        <ele>146</ele>
        <time>2018-05-02T17:24:46.000Z</time>
      </trkpt>
      <trkpt lat="43.63975" lon="1.31748">
        <ele>146</ele>
        <time>2018-05-02T17:24:48.000Z</time>
      </trkpt>
      <trkpt lat="43.63978" lon="1.31751">
        <ele>146</ele>
        <time>2018-05-02T17:24:50.000Z</time>
      </trkpt>
      <trkpt lat="43.63982" lon="1.31753">
        <ele>146</ele>
        <time>2018-05-02T17:24:52.000Z</time>
      </trkpt>
      <trkpt lat="43.63985" lon="1.31755">
        <ele>146</ele>
        <time>2018-05-02T17:24:54.000Z</time>
      </trkpt>
      <trkpt lat="43.63989" lon="1.31757">
        <ele>146</ele>
        <time>2018-05-02T17:24:56.000Z</time>
      </trkpt>
      <trkpt lat="43.63992" lon="1.31758">
        <ele>146</ele>
        <time>2018-05-02T17:24:58.000Z</time>
      </trkpt>
      <trkpt lat="43.63995" lon="1.3176">
        <ele>146</ele>
        <time>2018-05-02T17:25:00.000Z</time>
      </trkpt>
      <trkpt lat="43.63996" lon="1.31762">
        <ele>146</ele>
        <time>2018-05-02T17:25:02.000Z</time>
      </trkpt>
      <trkpt lat="43.63998" lon="1.31763">
        <ele>146</ele>
        <time>2018-05-02T17:25:04.000Z</time>
      </trkpt>
      <trkpt lat="43.64001" lon="1.31765">
        <ele>146</ele>
        <time>2018-05-02T17:25:06.000Z</time>
      </trkpt>
      <trkpt lat="43.64004" lon="1.31767">
        <ele>146</ele>
        <time>2018-05-02T17:25:08.000Z</time>
      </trkpt>
      <trkpt lat="43.64009" lon="1.3177">
        <ele>146</ele>
        <time>2018-05-02T17:25:10.000Z</time>
      </trkpt>
      <trkpt lat="43.64012" lon="1.31772">
        <ele>146</ele>
        <time>2018-05-02T17:25:12.000Z</time>
      </trkpt>
      <trkpt lat="43.64016" lon="1.31775">
        <ele>146</ele>
        <time>2018-05-02T17:25:14.000Z</time>
      </trkpt>
      <trkpt lat="43.64019" lon="1.31778">
        <ele>146</ele>
        <time>2018-05-02T17:25:16.000Z</time>
      </trkpt>
      <trkpt lat="43.64024" lon="1.3178">
        <ele>146</ele>
        <time>2018-05-02T17:25:18.000Z</time>
      </trkpt>
      <trkpt lat="43.64028" lon="1.31783">
        <ele>146</ele>
        <time>2018-05-02T17:25:20.000Z</time>
      </trkpt>
      <trkpt lat="43.64032" lon="1.31785">
        <ele>146</ele>
        <time>2018-05-02T17:25:22.000Z</time>
      </trkpt>
      <trkpt lat="43.64036" lon="1.31787">
        <ele>146</ele>
        <time>2018-05-02T17:25:24.000Z</time>
      </trkpt>
      <trkpt lat="43.64038" lon="1.31789">
        <ele>146</ele>
        <time>2018-05-02T17:25:26.000Z</time>
      </trkpt>
      <trkpt lat="43.64041" lon="1.31791">
        <ele>147</ele>
        <time>2018-05-02T17:25:28.000Z</time>
      </trkpt>
      <trkpt lat="43.64044" lon="1.31793">
        <ele>147</ele>
        <time>2018-05-02T17:25:30.000Z</time>
      </trkpt>
      <trkpt lat="43.64047" lon="1.31794">
        <ele>147</ele>
        <time>2018-05-02T17:25:32.000Z</time>
      </trkpt>
      <trkpt lat="43.64049" lon="1.31796">
        <ele>147</ele>
        <time>2018-05-02T17:25:34.000Z</time>
      </trkpt>
      <trkpt lat="43.64052" lon="1.31798">
        <ele>147</ele>
        <time>2018-05-02T17:25:36.000Z</time>
      </trkpt>
      <trkpt lat="43.64054" lon="1.31799">
        <ele>147</ele>
        <time>2018-05-02T17:25:38.000Z</time>
      </trkpt>
      <trkpt lat="43.64056" lon="1.31801">
        <ele>147</ele>
        <time>2018-05-02T17:25:40.000Z</time>
      </trkpt>
      <trkpt lat="43.64058" lon="1.31802">
        <ele>147</ele>
        <time>2018-05-02T17:25:42.000Z</time>
      </trkpt>
      <trkpt lat="43.64059" lon="1.31803">
        <ele>147</ele>
        <time>2018-05-02T17:25:44.000Z</time>
      </trkpt>
      <trkpt lat="43.6406" lon="1.31804">
        <ele>147</ele>
        <time>2018-05-02T17:25:46.000Z</time>
      </trkpt>
      <trkpt lat="43.64062" lon="1.31806">
        <ele>147</ele>
        <time>2018-05-02T17:25:48.000Z</time>
      </trkpt>
      <trkpt lat="43.64065" lon="1.31807">
        <ele>147</ele>
        <time>2018-05-02T17:25:50.000Z</time>
      </trkpt>
      <trkpt lat="43.64069" lon="1.31809">
        <ele>147</ele>
        <time>2018-05-02T17:25:52.000Z</time>
      </trkpt>
      <trkpt lat="43.64072" lon="1.31811">
        <ele>147</ele>
        <time>2018-05-02T17:25:54.000Z</time>
      </trkpt>
      <trkpt lat="43.64076" lon="1.31813">
        <ele>147</ele>
        <time>2018-05-02T17:25:56.000Z</time>
      </trkpt>
      <trkpt lat="43.64081" lon="1.31815">
        <ele>147</ele>
        <time>2018-05-02T17:25:58.000Z</time>
      </trkpt>
      <trkpt lat="43.64086" lon="1.31817">
        <ele>147</ele>
        <time>2018-05-02T17:26:00.000Z</time>
      </trkpt>
      <trkpt lat="43.64089" lon="1.31819">
        <ele>147</ele>
        <time>2018-05-02T17:26:02.000Z</time>
      </trkpt>
      <trkpt lat="43.64093" lon="1.3182">
        <ele>148</ele>
        <time>2018-05-02T17:26:04.000Z</time>
      </trkpt>
      <trkpt lat="43.64096" lon="1.31822">
        <ele>148</ele>
        <time>2018-05-02T17:26:06.000Z</time>
      </trkpt>
      <trkpt lat="43.64099" lon="1.31823">
        <ele>148</ele>
        <time>2018-05-02T17:26:08.000Z</time>
      </trkpt>
      <trkpt lat="43.64102" lon="1.31825">
        <ele>148</ele>
        <time>2018-05-02T17:26:10.000Z</time>
      </trkpt>
      <trkpt lat="43.64105" lon="1.31826">
        <ele>148</ele>
        <time>2018-05-02T17:26:12.000Z</time>
      </trkpt>
      <trkpt lat="43.64109" lon="1.31828">
        <ele>148</ele>
        <time>2018-05-02T17:26:14.000Z</time>
      </trkpt>
      <trkpt lat="43.64112" lon="1.3183">
        <ele>148</ele>
        <time>2018-05-02T17:26:16.000Z</time>
      </trkpt>
      <trkpt lat="43.64117" lon="1.31833">
        <ele>148</ele>
        <time>2018-05-02T17:26:18.000Z</time>
      </trkpt>
      <trkpt lat="43.64121" lon="1.31835">
        <ele>148</ele>
        <time>2018-05-02T17:26:20.000Z</time>
      </trkpt>
      <trkpt lat="43.64124" lon="1.31836">
        <ele>148</ele>
        <time>2018-05-02T17:26:22.000Z</time>
      </trkpt>
      <trkpt lat="43.64127" lon="1.31838">
        <ele>148</ele>
        <time>2018-05-02T17:26:24.000Z</time>
      </trkpt>
      <trkpt lat="43.6413" lon="1.3184">
        <ele>148</ele>
        <time>2018-05-02T17:26:26.000Z</time>
      </trkpt>
      <trkpt lat="43.64133" lon="1.31841">
        <ele>148</ele>
        <time>2018-05-02T17:26:28.000Z</time>
      </trkpt>
      <trkpt lat="43.64136" lon="1.31843">
        <ele>148</ele>
        <time>2018-05-02T17:26:30.000Z</time>
      </trkpt>
      <trkpt lat="43.64139" lon="1.31845">
        <ele>148</ele>
        <time>2018-05-02T17:26:32.000Z</time>
      </trkpt>
      <trkpt lat="43.64142" lon="1.31847">
        <ele>148</ele>
        <time>2018-05-02T17:26:34.000Z</time>
      </trkpt>
      <trkpt lat="43.64145" lon="1.31849">
        <ele>148</ele>
        <time>2018-05-02T17:26:36.000Z</time>
      </trkpt>
      <trkpt lat="43.64147" lon="1.3185">
        <ele>148</ele>
        <time>2018-05-02T17:26:38.000Z</time>
      </trkpt>
      <trkpt lat="43.6415" lon="1.31852">
        <ele>148</ele>
        <time>2018-05-02T17:26:40.000Z</time>
      </trkpt>
      <trkpt lat="43.64153" lon="1.31853">
        <ele>148</ele>
        <time>2018-05-02T17:26:42.000Z</time>
      </trkpt>
      <trkpt lat="43.64157" lon="1.31854">
        <ele>148</ele>
        <time>2018-05-02T17:26:44.000Z</time>
      </trkpt>
      <trkpt lat="43.64159" lon="1.31855">
        <ele>148</ele>
        <time>2018-05-02T17:26:46.000Z</time>
      </trkpt>
      <trkpt lat="43.64162" lon="1.31855">
        <ele>148</ele>
        <time>2018-05-02T17:26:48.000Z</time>
      </trkpt>
      <trkpt lat="43.64165" lon="1.31856">
        <ele>149</ele>
        <time>2018-05-02T17:26:50.000Z</time>
      </trkpt>
      <trkpt lat="43.64168" lon="1.31858">
        <ele>149</ele>
        <time>2018-05-02T17:26:52.000Z</time>
      </trkpt>
      <trkpt lat="43.64171" lon="1.3186">
        <ele>149</ele>
        <time>2018-05-02T17:26:54.000Z</time>
      </trkpt>
      <trkpt lat="43.64174" lon="1.31861">
        <ele>149</ele>
        <time>2018-05-02T17:26:56.000Z</time>
      </trkpt>
      <trkpt lat="43.64177" lon="1.31862">
        <ele>149</ele>
        <time>2018-05-02T17:26:58.000Z</time>
      </trkpt>
      <trkpt lat="43.6418" lon="1.31863">
        <ele>149</ele>
        <time>2018-05-02T17:27:00.000Z</time>
      </trkpt>
      <trkpt lat="43.64184" lon="1.31864">
        <ele>149</ele>
        <time>2018-05-02T17:27:02.000Z</time>
      </trkpt>
      <trkpt lat="43.64188" lon="1.31866">
        <ele>149</ele>
        <time>2018-05-02T17:27:04.000Z</time>
      </trkpt>
      <trkpt lat="43.64193" lon="1.31869">
        <ele>148</ele>
        <time>2018-05-02T17:27:06.000Z</time>
      </trkpt>
      <trkpt lat="43.64197" lon="1.31871">
        <ele>148</ele>
        <time>2018-05-02T17:27:08.000Z</time>
      </trkpt>
      <trkpt lat="43.64201" lon="1.31873">
        <ele>148</ele>
        <time>2018-05-02T17:27:10.000Z</time>
      </trkpt>
      <trkpt lat="43.64204" lon="1.31876">
        <ele>148</ele>
        <time>2018-05-02T17:27:12.000Z</time>
      </trkpt>
      <trkpt lat="43.64206" lon="1.31878">
        <ele>148</ele>
        <time>2018-05-02T17:27:14.000Z</time>
      </trkpt>
      <trkpt lat="43.64208" lon="1.31879">
        <ele>148</ele>
        <time>2018-05-02T17:27:16.000Z</time>
      </trkpt>
      <trkpt lat="43.64211" lon="1.31881">
        <ele>148</ele>
        <time>2018-05-02T17:27:18.000Z</time>
      </trkpt>
      <trkpt lat="43.64213" lon="1.31883">
        <ele>148</ele>
        <time>2018-05-02T17:27:20.000Z</time>
      </trkpt>
      <trkpt lat="43.64216" lon="1.31886">
        <ele>148</ele>
        <time>2018-05-02T17:27:22.000Z</time>
      </trkpt>
      <trkpt lat="43.64219" lon="1.31888">
        <ele>148</ele>
        <time>2018-05-02T17:27:24.000Z</time>
      </trkpt>
      <trkpt lat="43.64222" lon="1.31891">
        <ele>148</ele>
        <time>2018-05-02T17:27:26.000Z</time>
      </trkpt>
      <trkpt lat="43.64225" lon="1.31893">
        <ele>148</ele>
        <time>2018-05-02T17:27:28.000Z</time>
      </trkpt>
      <trkpt lat="43.64228" lon="1.31895">
        <ele>148</ele>
        <time>2018-05-02T17:27:30.000Z</time>
      </trkpt>
      <trkpt lat="43.64231" lon="1.31897">
        <ele>148</ele>
        <time>2018-05-02T17:27:32.000Z</time>
      </trkpt>
      <trkpt lat="43.64233" lon="1.319">
        <ele>148</ele>
        <time>2018-05-02T17:27:34.000Z</time>
      </trkpt>
      <trkpt lat="43.64236" lon="1.31902">
        <ele>148</ele>
        <time>2018-05-02T17:27:36.000Z</time>
      </trkpt>
      <trkpt lat="43.64238" lon="1.31904">
        <ele>148</ele>
        <time>2018-05-02T17:27:38.000Z</time>
      </trkpt>
      <trkpt lat="43.64241" lon="1.31907">
        <ele>148</ele>
        <time>2018-05-02T17:27:40.000Z</time>
      </trkpt>
      <trkpt lat="43.64244" lon="1.31909">
        <ele>148</ele>
        <time>2018-05-02T17:27:42.000Z</time>
      </trkpt>
      <trkpt lat="43.64246" lon="1.31911">
        <ele>148</ele>
        <time>2018-05-02T17:27:44.000Z</time>
      </trkpt>
      <trkpt lat="43.64248" lon="1.31912">
        <ele>148</ele>
        <time>2018-05-02T17:27:46.000Z</time>
      </trkpt>
      <trkpt lat="43.64251" lon="1.31913">
        <ele>148</ele>
        <time>2018-05-02T17:27:48.000Z</time>
      </trkpt>
      <trkpt lat="43.64252" lon="1.31914">
        <ele>148</ele>
        <time>2018-05-02T17:27:50.000Z</time>
      </trkpt>
      <trkpt lat="43.64253" lon="1.31913">
        <ele>148</ele>
        <time>2018-05-02T17:27:52.000Z</time>
      </trkpt>
      <trkpt lat="43.64254" lon="1.31914">
        <ele>148</ele>
        <time>2018-05-02T17:27:54.000Z</time>
      </trkpt>
      <trkpt lat="43.64255" lon="1.31913">
        <ele>148</ele>
        <time>2018-05-02T17:27:56.000Z</time>
      </trkpt>
      <trkpt lat="43.64256" lon="1.31914">
        <ele>148</ele>
        <time>2018-05-02T17:27:58.000Z</time>
      </trkpt>
      <trkpt lat="43.64256" lon="1.31913">
        <ele>148</ele>
        <time>2018-05-02T17:28:00.000Z</time>
      </trkpt>
      <trkpt lat="43.64256" lon="1.31914">
        <ele>148</ele>
        <time>2018-05-02T17:28:02.000Z</time>
      </trkpt>
      <trkpt lat="43.64256" lon="1.31914">
        <ele>148</ele>
        <time>2018-05-02T17:28:04.000Z</time>
      </trkpt>
      <trkpt lat="43.64257" lon="1.31915">
        <ele>148</ele>
        <time>2018-05-02T17:28:06.000Z</time>
      </trkpt>
      <trkpt lat="43.64257" lon="1.31915">
        <ele>148</ele>
        <time>2018-05-02T17:28:08.000Z</time>
      </trkpt>
      <trkpt lat="43.64257" lon="1.31914">
        <ele>147</ele>
        <time>2018-05-02T17:28:10.000Z</time>
      </trkpt>
      <trkpt lat="43.64258" lon="1.31914">
        <ele>147</ele>
        <time>2018-05-02T17:28:12.000Z</time>
      </trkpt>
      <trkpt lat="43.64259" lon="1.31915">
        <ele>147</ele>
        <time>2018-05-02T17:28:14.000Z</time>
      </trkpt>
      <trkpt lat="43.6426" lon="1.31915">
        <ele>147</ele>
        <time>2018-05-02T17:28:16.000Z</time>
      </trkpt>
      <trkpt lat="43.6426" lon="1.31915">
        <ele>147</ele>
        <time>2018-05-02T17:28:18.000Z</time>
      </trkpt>
      <trkpt lat="43.6426" lon="1.31914">
        <ele>147</ele>
        <time>2018-05-02T17:28:20.000Z</time>
      </trkpt>
      <trkpt lat="43.6426" lon="1.31914">
        <ele>147</ele>
        <time>2018-05-02T17:28:22.000Z</time>
      </trkpt>
      <trkpt lat="43.6426" lon="1.31913">
        <ele>147</ele>
        <time>2018-05-02T17:28:24.000Z</time>
      </trkpt>
      <trkpt lat="43.6426" lon="1.31913">
        <ele>147</ele>
        <time>2018-05-02T17:28:26.000Z</time>
      </trkpt>
      <trkpt lat="43.6426" lon="1.31913">
        <ele>147</ele>
        <time>2018-05-02T17:28:28.000Z</time>
      </trkpt>
      <trkpt lat="43.6426" lon="1.31912">
        <ele>147</ele>
        <time>2018-05-02T17:28:30.000Z</time>
      </trkpt>
      <trkpt lat="43.6426" lon="1.31912">
        <ele>147</ele>
        <time>2018-05-02T17:28:32.000Z</time>
      </trkpt>
      <trkpt lat="43.6426" lon="1.31912">
        <ele>147</ele>
        <time>2018-05-02T17:28:34.000Z</time>
      </trkpt>
      <trkpt lat="43.6426" lon="1.31912">
        <ele>147</ele>
        <time>2018-05-02T17:28:36.000Z</time>
      </trkpt>
      <trkpt lat="43.64259" lon="1.31912">
        <ele>147</ele>
        <time>2018-05-02T17:28:38.000Z</time>
      </trkpt>
      <trkpt lat="43.64259" lon="1.31912">
        <ele>147</ele>
        <time>2018-05-02T17:28:40.000Z</time>
      </trkpt>
      <trkpt lat="43.64259" lon="1.31912">
        <ele>147</ele>
        <time>2018-05-02T17:28:42.000Z</time>
      </trkpt>
      <trkpt lat="43.64259" lon="1.31913">
        <ele>147</ele>
        <time>2018-05-02T17:28:44.000Z</time>
      </trkpt>
      <trkpt lat="43.64259" lon="1.31913">
        <ele>147</ele>
        <time>2018-05-02T17:28:46.000Z</time>
      </trkpt>
      <trkpt lat="43.64259" lon="1.31913">
        <ele>147</ele>
        <time>2018-05-02T17:28:48.000Z</time>
      </trkpt>
      <trkpt lat="43.64259" lon="1.31913">
        <ele>147</ele>
        <time>2018-05-02T17:28:50.000Z</time>
      </trkpt>
      <trkpt lat="43.64259" lon="1.31914">
        <ele>147</ele>
        <time>2018-05-02T17:28:52.000Z</time>
      </trkpt>
      <trkpt lat="43.64259" lon="1.31914">
        <ele>147</ele>
        <time>2018-05-02T17:28:54.000Z</time>
      </trkpt>
      <trkpt lat="43.64259" lon="1.31915">
        <ele>147</ele>
        <time>2018-05-02T17:28:56.000Z</time>
      </trkpt>
      <trkpt lat="43.64259" lon="1.31916">
        <ele>147</ele>
        <time>2018-05-02T17:28:58.000Z</time>
      </trkpt>
      <trkpt lat="43.64259" lon="1.31916">
        <ele>147</ele>
        <time>2018-05-02T17:29:00.000Z</time>
      </trkpt>
      <trkpt lat="43.64259" lon="1.31916">
        <ele>147</ele>
        <time>2018-05-02T17:29:02.000Z</time>
      </trkpt>
      <trkpt lat="43.64259" lon="1.31916">
        <ele>147</ele>
        <time>2018-05-02T17:29:04.000Z</time>
      </trkpt>
      <trkpt lat="43.64258" lon="1.31916">
        <ele>147</ele>
        <time>2018-05-02T17:29:06.000Z</time>
      </trkpt>
      <trkpt lat="43.64258" lon="1.31917">
        <ele>147</ele>
        <time>2018-05-02T17:29:08.000Z</time>
      </trkpt>
      <trkpt lat="43.64258" lon="1.31917">
        <ele>148</ele>
        <time>2018-05-02T17:29:10.000Z</time>
      </trkpt>
      <trkpt lat="43.64258" lon="1.31917">
        <ele>147</ele>
        <time>2018-05-02T17:29:12.000Z</time>
      </trkpt>
      <trkpt lat="43.64258" lon="1.31916">
        <ele>147</ele>
        <time>2018-05-02T17:29:14.000Z</time>
      </trkpt>
      <trkpt lat="43.64258" lon="1.31916">
        <ele>147</ele>
        <time>2018-05-02T17:29:16.000Z</time>
      </trkpt>
      <trkpt lat="43.64258" lon="1.31915">
        <ele>147</ele>
        <time>2018-05-02T17:29:18.000Z</time>
      </trkpt>
      <trkpt lat="43.64258" lon="1.31915">
        <ele>147</ele>
        <time>2018-05-02T17:29:20.000Z</time>
      </trkpt>
      <trkpt lat="43.64258" lon="1.31915">
        <ele>147</ele>
        <time>2018-05-02T17:29:22.000Z</time>
      </trkpt>
      <trkpt lat="43.64258" lon="1.31916">
        <ele>148</ele>
        <time>2018-05-02T17:29:24.000Z</time>
      </trkpt>
      <trkpt lat="43.64257" lon="1.31918">
        <ele>148</ele>
        <time>2018-05-02T17:29:26.000Z</time>
      </trkpt>
      <trkpt lat="43.64257" lon="1.31919">
        <ele>148</ele>
        <time>2018-05-02T17:29:28.000Z</time>
      </trkpt>
      <trkpt lat="43.64258" lon="1.31919">
        <ele>148</ele>
        <time>2018-05-02T17:29:30.000Z</time>
      </trkpt>
      <trkpt lat="43.64258" lon="1.31919">
        <ele>148</ele>
        <time>2018-05-02T17:29:32.000Z</time>
      </trkpt>
      <trkpt lat="43.64258" lon="1.31919">
        <ele>148</ele>
        <time>2018-05-02T17:29:34.000Z</time>
      </trkpt>
      <trkpt lat="43.64258" lon="1.31918">
        <ele>148</ele>
        <time>2018-05-02T17:29:36.000Z</time>
      </trkpt>
      <trkpt lat="43.64259" lon="1.31918">
        <ele>148</ele>
        <time>2018-05-02T17:29:38.000Z</time>
      </trkpt>
      <trkpt lat="43.64258" lon="1.31918">
        <ele>148</ele>
        <time>2018-05-02T17:29:40.000Z</time>
      </trkpt>
      <trkpt lat="43.64258" lon="1.31918">
        <ele>148</ele>
        <time>2018-05-02T17:29:42.000Z</time>
      </trkpt>
      <trkpt lat="43.64259" lon="1.31918">
        <ele>148</ele>
        <time>2018-05-02T17:29:44.000Z</time>
      </trkpt>
      <trkpt lat="43.64259" lon="1.31917">
        <ele>147</ele>
        <time>2018-05-02T17:29:46.000Z</time>
      </trkpt>
      <trkpt lat="43.64259" lon="1.31917">
        <ele>147</ele>
        <time>2018-05-02T17:29:48.000Z</time>
      </trkpt>
      <trkpt lat="43.64259" lon="1.31917">
        <ele>147</ele>
        <time>2018-05-02T17:29:50.000Z</time>
      </trkpt>
      <trkpt lat="43.64259" lon="1.31917">
        <ele>147</ele>
        <time>2018-05-02T17:29:52.000Z</time>
      </trkpt>
      <trkpt lat="43.64259" lon="1.31916">
        <ele>147</ele>
        <time>2018-05-02T17:29:54.000Z</time>
      </trkpt>
      <trkpt lat="43.64259" lon="1.31915">
        <ele>147</ele>
        <time>2018-05-02T17:29:56.000Z</time>
      </trkpt>
      <trkpt lat="43.6426" lon="1.31915">
        <ele>147</ele>
        <time>2018-05-02T17:29:58.000Z</time>
      </trkpt>
      <trkpt lat="43.64259" lon="1.31915">
        <ele>147</ele>
        <time>2018-05-02T17:30:00.000Z</time>
      </trkpt>
      <trkpt lat="43.64259" lon="1.31915">
        <ele>147</ele>
        <time>2018-05-02T17:30:02.000Z</time>
      </trkpt>
      <trkpt lat="43.64259" lon="1.31916">
        <ele>147</ele>
        <time>2018-05-02T17:30:04.000Z</time>
      </trkpt>
      <trkpt lat="43.6426" lon="1.31917">
        <ele>147</ele>
        <time>2018-05-02T17:30:06.000Z</time>
      </trkpt>
      <trkpt lat="43.6426" lon="1.31917">
        <ele>147</ele>
        <time>2018-05-02T17:30:08.000Z</time>
      </trkpt>
      <trkpt lat="43.6426" lon="1.31917">
        <ele>147</ele>
        <time>2018-05-02T17:30:10.000Z</time>
      </trkpt>
      <trkpt lat="43.64261" lon="1.31917">
        <ele>147</ele>
        <time>2018-05-02T17:30:12.000Z</time>
      </trkpt>
      <trkpt lat="43.64261" lon="1.31917">
        <ele>147</ele>
        <time>2018-05-02T17:30:14.000Z</time>
      </trkpt>
      <trkpt lat="43.64261" lon="1.31917">
        <ele>147</ele>
        <time>2018-05-02T17:30:16.000Z</time>
      </trkpt>
      <trkpt lat="43.6426" lon="1.31917">
        <ele>147</ele>
        <time>2018-05-02T17:30:18.000Z</time>
      </trkpt>
      <trkpt lat="43.6426" lon="1.31919">
        <ele>147</ele>
        <time>2018-05-02T17:30:20.000Z</time>
      </trkpt>
      <trkpt lat="43.6426" lon="1.31919">
        <ele>147</ele>
        <time>2018-05-02T17:30:22.000Z</time>
      </trkpt>
      <trkpt lat="43.64259" lon="1.31919">
        <ele>148</ele>
        <time>2018-05-02T17:30:24.000Z</time>
      </trkpt>
      <trkpt lat="43.64259" lon="1.31919">
        <ele>147</ele>
        <time>2018-05-02T17:30:26.000Z</time>
      </trkpt>
      <trkpt lat="43.64259" lon="1.31918">
        <ele>147</ele>
        <time>2018-05-02T17:30:28.000Z</time>
      </trkpt>
      <trkpt lat="43.64259" lon="1.31917">
        <ele>147</ele>
        <time>2018-05-02T17:30:30.000Z</time>
      </trkpt>
      <trkpt lat="43.64259" lon="1.31917">
        <ele>147</ele>
        <time>2018-05-02T17:30:32.000Z</time>
      </trkpt>
      <trkpt lat="43.6426" lon="1.31916">
        <ele>147</ele>
        <time>2018-05-02T17:30:34.000Z</time>
      </trkpt>
      <trkpt lat="43.6426" lon="1.31916">
        <ele>147</ele>
        <time>2018-05-02T17:30:36.000Z</time>
      </trkpt>
      <trkpt lat="43.64259" lon="1.31916">
        <ele>147</ele>
        <time>2018-05-02T17:30:38.000Z</time>
      </trkpt>
      <trkpt lat="43.64258" lon="1.31916">
        <ele>148</ele>
        <time>2018-05-02T17:30:40.000Z</time>
      </trkpt>
      <trkpt lat="43.64256" lon="1.31915">
        <ele>148</ele>
        <time>2018-05-02T17:30:42.000Z</time>
      </trkpt>
      <trkpt lat="43.64255" lon="1.31916">
        <ele>148</ele>
        <time>2018-05-02T17:30:44.000Z</time>
      </trkpt>
      <trkpt lat="43.64252" lon="1.31915">
        <ele>148</ele>
        <time>2018-05-02T17:30:46.000Z</time>
      </trkpt>
      <trkpt lat="43.64251" lon="1.31914">
        <ele>148</ele>
        <time>2018-05-02T17:30:48.000Z</time>
      </trkpt>
      <trkpt lat="43.64248" lon="1.31912">
        <ele>148</ele>
        <time>2018-05-02T17:30:50.000Z</time>
      </trkpt>
      <trkpt lat="43.64246" lon="1.3191">
        <ele>148</ele>
        <time>2018-05-02T17:30:52.000Z</time>
      </trkpt>
      <trkpt lat="43.64244" lon="1.31908">
        <ele>148</ele>
        <time>2018-05-02T17:30:54.000Z</time>
      </trkpt>
      <trkpt lat="43.64241" lon="1.31906">
        <ele>148</ele>
        <time>2018-05-02T17:30:56.000Z</time>
      </trkpt>
      <trkpt lat="43.64239" lon="1.31904">
        <ele>148</ele>
        <time>2018-05-02T17:30:58.000Z</time>
      </trkpt>
      <trkpt lat="43.64236" lon="1.31902">
        <ele>148</ele>
        <time>2018-05-02T17:31:00.000Z</time>
      </trkpt>
      <trkpt lat="43.64232" lon="1.319">
        <ele>148</ele>
        <time>2018-05-02T17:31:02.000Z</time>
      </trkpt>
      <trkpt lat="43.64229" lon="1.31899">
        <ele>148</ele>
        <time>2018-05-02T17:31:04.000Z</time>
      </trkpt>
      <trkpt lat="43.64226" lon="1.31897">
        <ele>148</ele>
        <time>2018-05-02T17:31:06.000Z</time>
      </trkpt>
      <trkpt lat="43.64222" lon="1.31895">
        <ele>148</ele>
        <time>2018-05-02T17:31:08.000Z</time>
      </trkpt>
      <trkpt lat="43.64219" lon="1.31893">
        <ele>148</ele>
        <time>2018-05-02T17:31:10.000Z</time>
      </trkpt>
      <trkpt lat="43.64215" lon="1.31891">
        <ele>148</ele>
        <time>2018-05-02T17:31:12.000Z</time>
      </trkpt>
      <trkpt lat="43.64212" lon="1.31888">
        <ele>148</ele>
        <time>2018-05-02T17:31:14.000Z</time>
      </trkpt>
      <trkpt lat="43.64208" lon="1.31886">
        <ele>148</ele>
        <time>2018-05-02T17:31:16.000Z</time>
      </trkpt>
      <trkpt lat="43.64205" lon="1.31884">
        <ele>148</ele>
        <time>2018-05-02T17:31:18.000Z</time>
      </trkpt>
      <trkpt lat="43.64203" lon="1.31882">
        <ele>148</ele>
        <time>2018-05-02T17:31:20.000Z</time>
      </trkpt>
      <trkpt lat="43.642" lon="1.31879">
        <ele>148</ele>
        <time>2018-05-02T17:31:22.000Z</time>
      </trkpt>
      <trkpt lat="43.64197" lon="1.31878">
        <ele>149</ele>
        <time>2018-05-02T17:31:24.000Z</time>
      </trkpt>
      <trkpt lat="43.64194" lon="1.31876">
        <ele>149</ele>
        <time>2018-05-02T17:31:26.000Z</time>
      </trkpt>
      <trkpt lat="43.64191" lon="1.31872">
        <ele>149</ele>
        <time>2018-05-02T17:31:28.000Z</time>
      </trkpt>
      <trkpt lat="43.64188" lon="1.3187">
        <ele>149</ele>
        <time>2018-05-02T17:31:30.000Z</time>
      </trkpt>
      <trkpt lat="43.64186" lon="1.31867">
        <ele>149</ele>
        <time>2018-05-02T17:31:32.000Z</time>
      </trkpt>
      <trkpt lat="43.64183" lon="1.31865">
        <ele>149</ele>
        <time>2018-05-02T17:31:34.000Z</time>
      </trkpt>
      <trkpt lat="43.6418" lon="1.31864">
        <ele>149</ele>
        <time>2018-05-02T17:31:36.000Z</time>
      </trkpt>
      <trkpt lat="43.64176" lon="1.31864">
        <ele>149</ele>
        <time>2018-05-02T17:31:38.000Z</time>
      </trkpt>
      <trkpt lat="43.64172" lon="1.31862">
        <ele>149</ele>
        <time>2018-05-02T17:31:40.000Z</time>
      </trkpt>
      <trkpt lat="43.64168" lon="1.31861">
        <ele>149</ele>
        <time>2018-05-02T17:31:42.000Z</time>
      </trkpt>
      <trkpt lat="43.64165" lon="1.3186">
        <ele>149</ele>
        <time>2018-05-02T17:31:44.000Z</time>
      </trkpt>
      <trkpt lat="43.64162" lon="1.31859">
        <ele>149</ele>
        <time>2018-05-02T17:31:46.000Z</time>
      </trkpt>
      <trkpt lat="43.64158" lon="1.31857">
        <ele>149</ele>
        <time>2018-05-02T17:31:48.000Z</time>
      </trkpt>
      <trkpt lat="43.64155" lon="1.31855">
        <ele>148</ele>
        <time>2018-05-02T17:31:50.000Z</time>
      </trkpt>
      <trkpt lat="43.64152" lon="1.31853">
        <ele>148</ele>
        <time>2018-05-02T17:31:52.000Z</time>
      </trkpt>
      <trkpt lat="43.64149" lon="1.31852">
        <ele>148</ele>
        <time>2018-05-02T17:31:54.000Z</time>
      </trkpt>
      <trkpt lat="43.64147" lon="1.3185">
        <ele>148</ele>
        <time>2018-05-02T17:31:56.000Z</time>
      </trkpt>
      <trkpt lat="43.64144" lon="1.31849">
        <ele>148</ele>
        <time>2018-05-02T17:31:58.000Z</time>
      </trkpt>
      <trkpt lat="43.64141" lon="1.31847">
        <ele>148</ele>
        <time>2018-05-02T17:32:00.000Z</time>
      </trkpt>
      <trkpt lat="43.64138" lon="1.31846">
        <ele>148</ele>
        <time>2018-05-02T17:32:02.000Z</time>
      </trkpt>
      <trkpt lat="43.64135" lon="1.31843">
        <ele>148</ele>
        <time>2018-05-02T17:32:04.000Z</time>
      </trkpt>
      <trkpt lat="43.64133" lon="1.31842">
        <ele>148</ele>
        <time>2018-05-02T17:32:06.000Z</time>
      </trkpt>
      <trkpt lat="43.64129" lon="1.3184">
        <ele>148</ele>
        <time>2018-05-02T17:32:08.000Z</time>
      </trkpt>
      <trkpt lat="43.64126" lon="1.31838">
        <ele>148</ele>
        <time>2018-05-02T17:32:10.000Z</time>
      </trkpt>
      <trkpt lat="43.64122" lon="1.31836">
        <ele>148</ele>
        <time>2018-05-02T17:32:12.000Z</time>
      </trkpt>
      <trkpt lat="43.64119" lon="1.31834">
        <ele>148</ele>
        <time>2018-05-02T17:32:14.000Z</time>
      </trkpt>
      <trkpt lat="43.64116" lon="1.31833">
        <ele>148</ele>
        <time>2018-05-02T17:32:16.000Z</time>
      </trkpt>
      <trkpt lat="43.64113" lon="1.31832">
        <ele>148</ele>
        <time>2018-05-02T17:32:18.000Z</time>
      </trkpt>
      <trkpt lat="43.6411" lon="1.3183">
        <ele>148</ele>
        <time>2018-05-02T17:32:20.000Z</time>
      </trkpt>
      <trkpt lat="43.64106" lon="1.31828">
        <ele>148</ele>
        <time>2018-05-02T17:32:22.000Z</time>
      </trkpt>
      <trkpt lat="43.64103" lon="1.31826">
        <ele>148</ele>
        <time>2018-05-02T17:32:24.000Z</time>
      </trkpt>
      <trkpt lat="43.64099" lon="1.31824">
        <ele>148</ele>
        <time>2018-05-02T17:32:26.000Z</time>
      </trkpt>
      <trkpt lat="43.64097" lon="1.31821">
        <ele>148</ele>
        <time>2018-05-02T17:32:28.000Z</time>
      </trkpt>
      <trkpt lat="43.64093" lon="1.3182">
        <ele>148</ele>
        <time>2018-05-02T17:32:30.000Z</time>
      </trkpt>
      <trkpt lat="43.64091" lon="1.31819">
        <ele>148</ele>
        <time>2018-05-02T17:32:32.000Z</time>
      </trkpt>
      <trkpt lat="43.64088" lon="1.31818">
        <ele>148</ele>
        <time>2018-05-02T17:32:34.000Z</time>
      </trkpt>
      <trkpt lat="43.64084" lon="1.31816">
        <ele>148</ele>
        <time>2018-05-02T17:32:36.000Z</time>
      </trkpt>
      <trkpt lat="43.64081" lon="1.31814">
        <ele>147</ele>
        <time>2018-05-02T17:32:38.000Z</time>
      </trkpt>
      <trkpt lat="43.64077" lon="1.31811">
        <ele>147</ele>
        <time>2018-05-02T17:32:40.000Z</time>
      </trkpt>
      <trkpt lat="43.64075" lon="1.3181">
        <ele>147</ele>
        <time>2018-05-02T17:32:42.000Z</time>
      </trkpt>
      <trkpt lat="43.64072" lon="1.31808">
        <ele>147</ele>
        <time>2018-05-02T17:32:44.000Z</time>
      </trkpt>
      <trkpt lat="43.64069" lon="1.31806">
        <ele>147</ele>
        <time>2018-05-02T17:32:46.000Z</time>
      </trkpt>
      <trkpt lat="43.64066" lon="1.31805">
        <ele>147</ele>
        <time>2018-05-02T17:32:48.000Z</time>
      </trkpt>
      <trkpt lat="43.64062" lon="1.31804">
        <ele>147</ele>
        <time>2018-05-02T17:32:50.000Z</time>
      </trkpt>
      <trkpt lat="43.64057" lon="1.31802">
        <ele>147</ele>
        <time>2018-05-02T17:32:52.000Z</time>
      </trkpt>
      <trkpt lat="43.64054" lon="1.318">
        <ele>147</ele>
        <time>2018-05-02T17:32:54.000Z</time>
      </trkpt>
      <trkpt lat="43.64051" lon="1.31798">
        <ele>147</ele>
        <time>2018-05-02T17:32:56.000Z</time>
      </trkpt>
      <trkpt lat="43.64048" lon="1.31796">
        <ele>147</ele>
        <time>2018-05-02T17:32:58.000Z</time>
      </trkpt>
      <trkpt lat="43.64045" lon="1.31793">
        <ele>147</ele>
        <time>2018-05-02T17:33:00.000Z</time>
      </trkpt>
      <trkpt lat="43.64043" lon="1.31791">
        <ele>147</ele>
        <time>2018-05-02T17:33:02.000Z</time>
      </trkpt>
      <trkpt lat="43.64039" lon="1.31789">
        <ele>146</ele>
        <time>2018-05-02T17:33:04.000Z</time>
      </trkpt>
      <trkpt lat="43.64036" lon="1.31788">
        <ele>146</ele>
        <time>2018-05-02T17:33:06.000Z</time>
      </trkpt>
      <trkpt lat="43.64032" lon="1.31786">
        <ele>146</ele>
        <time>2018-05-02T17:33:08.000Z</time>
      </trkpt>
      <trkpt lat="43.64028" lon="1.31784">
        <ele>146</ele>
        <time>2018-05-02T17:33:10.000Z</time>
      </trkpt>
      <trkpt lat="43.64024" lon="1.31782">
        <ele>146</ele>
        <time>2018-05-02T17:33:12.000Z</time>
      </trkpt>
      <trkpt lat="43.64021" lon="1.31779">
        <ele>146</ele>
        <time>2018-05-02T17:33:14.000Z</time>
      </trkpt>
      <trkpt lat="43.64018" lon="1.31778">
        <ele>146</ele>
        <time>2018-05-02T17:33:16.000Z</time>
      </trkpt>
      <trkpt lat="43.64015" lon="1.31776">
        <ele>146</ele>
        <time>2018-05-02T17:33:18.000Z</time>
      </trkpt>
      <trkpt lat="43.64012" lon="1.31774">
        <ele>146</ele>
        <time>2018-05-02T17:33:20.000Z</time>
      </trkpt>
      <trkpt lat="43.64009" lon="1.31773">
        <ele>146</ele>
        <time>2018-05-02T17:33:22.000Z</time>
      </trkpt>
      <trkpt lat="43.64007" lon="1.31772">
        <ele>146</ele>
        <time>2018-05-02T17:33:24.000Z</time>
      </trkpt>
      <trkpt lat="43.64004" lon="1.31772">
        <ele>146</ele>
        <time>2018-05-02T17:33:26.000Z</time>
      </trkpt>
      <trkpt lat="43.64001" lon="1.31771">
        <ele>146</ele>
        <time>2018-05-02T17:33:28.000Z</time>
      </trkpt>
      <trkpt lat="43.63999" lon="1.3177">
        <ele>146</ele>
        <time>2018-05-02T17:33:30.000Z</time>
      </trkpt>
      <trkpt lat="43.63995" lon="1.31768">
        <ele>146</ele>
        <time>2018-05-02T17:33:32.000Z</time>
      </trkpt>
      <trkpt lat="43.63992" lon="1.31768">
        <ele>146</ele>
        <time>2018-05-02T17:33:34.000Z</time>
      </trkpt>
      <trkpt lat="43.63988" lon="1.31767">
        <ele>146</ele>
        <time>2018-05-02T17:33:36.000Z</time>
      </trkpt>
      <trkpt lat="43.63985" lon="1.31765">
        <ele>146</ele>
        <time>2018-05-02T17:33:38.000Z</time>
      </trkpt>
      <trkpt lat="43.63981" lon="1.31764">
        <ele>146</ele>
        <time>2018-05-02T17:33:40.000Z</time>
      </trkpt>
      <trkpt lat="43.63978" lon="1.31763">
        <ele>146</ele>
        <time>2018-05-02T17:33:42.000Z</time>
      </trkpt>
      <trkpt lat="43.63973" lon="1.31761">
        <ele>146</ele>
        <time>2018-05-02T17:33:44.000Z</time>
      </trkpt>
      <trkpt lat="43.6397" lon="1.3176">
        <ele>146</ele>
        <time>2018-05-02T17:33:46.000Z</time>
      </trkpt>
      <trkpt lat="43.63967" lon="1.31758">
        <ele>146</ele>
        <time>2018-05-02T17:33:48.000Z</time>
      </trkpt>
      <trkpt lat="43.63964" lon="1.31756">
        <ele>146</ele>
        <time>2018-05-02T17:33:50.000Z</time>
      </trkpt>
      <trkpt lat="43.63961" lon="1.31754">
        <ele>146</ele>
        <time>2018-05-02T17:33:52.000Z</time>
      </trkpt>
      <trkpt lat="43.63959" lon="1.31752">
        <ele>146</ele>
        <time>2018-05-02T17:33:54.000Z</time>
      </trkpt>
      <trkpt lat="43.63957" lon="1.3175">
        <ele>146</ele>
        <time>2018-05-02T17:33:56.000Z</time>
      </trkpt>
      <trkpt lat="43.63954" lon="1.31747">
        <ele>146</ele>
        <time>2018-05-02T17:33:58.000Z</time>
      </trkpt>
      <trkpt lat="43.63951" lon="1.31744">
        <ele>146</ele>
        <time>2018-05-02T17:34:00.000Z</time>
      </trkpt>
      <trkpt lat="43.63947" lon="1.31741">
        <ele>146</ele>
        <time>2018-05-02T17:34:02.000Z</time>
      </trkpt>
      <trkpt lat="43.63944" lon="1.31739">
        <ele>146</ele>
        <time>2018-05-02T17:34:04.000Z</time>
      </trkpt>
      <trkpt lat="43.63941" lon="1.31737">
        <ele>146</ele>
        <time>2018-05-02T17:34:06.000Z</time>
      </trkpt>
      <trkpt lat="43.63938" lon="1.31734">
        <ele>146</ele>
        <time>2018-05-02T17:34:08.000Z</time>
      </trkpt>
      <trkpt lat="43.63935" lon="1.31732">
        <ele>146</ele>
        <time>2018-05-02T17:34:10.000Z</time>
      </trkpt>
      <trkpt lat="43.63932" lon="1.3173">
        <ele>146</ele>
        <time>2018-05-02T17:34:12.000Z</time>
      </trkpt>
      <trkpt lat="43.63929" lon="1.31727">
        <ele>146</ele>
        <time>2018-05-02T17:34:14.000Z</time>
      </trkpt>
      <trkpt lat="43.63926" lon="1.31725">
        <ele>146</ele>
        <time>2018-05-02T17:34:16.000Z</time>
      </trkpt>
      <trkpt lat="43.63923" lon="1.31722">
        <ele>146</ele>
        <time>2018-05-02T17:34:18.000Z</time>
      </trkpt>
      <trkpt lat="43.63921" lon="1.3172">
        <ele>146</ele>
        <time>2018-05-02T17:34:20.000Z</time>
      </trkpt>
      <trkpt lat="43.63918" lon="1.31718">
        <ele>147</ele>
        <time>2018-05-02T17:34:22.000Z</time>
      </trkpt>
      <trkpt lat="43.63915" lon="1.31715">
        <ele>147</ele>
        <time>2018-05-02T17:34:24.000Z</time>
      </trkpt>
      <trkpt lat="43.63913" lon="1.31712">
        <ele>147</ele>
        <time>2018-05-02T17:34:26.000Z</time>
      </trkpt>
      <trkpt lat="43.6391" lon="1.3171">
        <ele>147</ele>
        <time>2018-05-02T17:34:28.000Z</time>
      </trkpt>
      <trkpt lat="43.63907" lon="1.31707">
        <ele>147</ele>
        <time>2018-05-02T17:34:30.000Z</time>
      </trkpt>
      <trkpt lat="43.63905" lon="1.31704">
        <ele>147</ele>
        <time>2018-05-02T17:34:32.000Z</time>
      </trkpt>
      <trkpt lat="43.63902" lon="1.31702">
        <ele>147</ele>
        <time>2018-05-02T17:34:34.000Z</time>
      </trkpt>
      <trkpt lat="43.63899" lon="1.31699">
        <ele>147</ele>
        <time>2018-05-02T17:34:36.000Z</time>
      </trkpt>
      <trkpt lat="43.63896" lon="1.31696">
        <ele>147</ele>
        <time>2018-05-02T17:34:38.000Z</time>
      </trkpt>
      <trkpt lat="43.63893" lon="1.31692">
        <ele>147</ele>
        <time>2018-05-02T17:34:40.000Z</time>
      </trkpt>
      <trkpt lat="43.6389" lon="1.31689">
        <ele>148</ele>
        <time>2018-05-02T17:34:42.000Z</time>
      </trkpt>
      <trkpt lat="43.63887" lon="1.31686">
        <ele>148</ele>
        <time>2018-05-02T17:34:44.000Z</time>
      </trkpt>
      <trkpt lat="43.63884" lon="1.31683">
        <ele>148</ele>
        <time>2018-05-02T17:34:46.000Z</time>
      </trkpt>
      <trkpt lat="43.63881" lon="1.31681">
        <ele>148</ele>
        <time>2018-05-02T17:34:48.000Z</time>
      </trkpt>
      <trkpt lat="43.63878" lon="1.31679">
        <ele>148</ele>
        <time>2018-05-02T17:34:50.000Z</time>
      </trkpt>
      <trkpt lat="43.63875" lon="1.31676">
        <ele>148</ele>
        <time>2018-05-02T17:34:52.000Z</time>
      </trkpt>
      <trkpt lat="43.63872" lon="1.31673">
        <ele>148</ele>
        <time>2018-05-02T17:34:54.000Z</time>
      </trkpt>
      <trkpt lat="43.63869" lon="1.31671">
        <ele>148</ele>
        <time>2018-05-02T17:34:56.000Z</time>
      </trkpt>
      <trkpt lat="43.63866" lon="1.31668">
        <ele>148</ele>
        <time>2018-05-02T17:34:58.000Z</time>
      </trkpt>
      <trkpt lat="43.63864" lon="1.31665">
        <ele>148</ele>
        <time>2018-05-02T17:35:00.000Z</time>
      </trkpt>
      <trkpt lat="43.63861" lon="1.31662">
        <ele>149</ele>
        <time>2018-05-02T17:35:02.000Z</time>
      </trkpt>
      <trkpt lat="43.63859" lon="1.31659">
        <ele>149</ele>
        <time>2018-05-02T17:35:04.000Z</time>
      </trkpt>
      <trkpt lat="43.63856" lon="1.31657">
        <ele>149</ele>
        <time>2018-05-02T17:35:06.000Z</time>
      </trkpt>
      <trkpt lat="43.63854" lon="1.31654">
        <ele>149</ele>
        <time>2018-05-02T17:35:08.000Z</time>
      </trkpt>
      <trkpt lat="43.63851" lon="1.31652">
        <ele>149</ele>
        <time>2018-05-02T17:35:10.000Z</time>
      </trkpt>
      <trkpt lat="43.63848" lon="1.31649">
        <ele>149</ele>
        <time>2018-05-02T17:35:12.000Z</time>
      </trkpt>
      <trkpt lat="43.63845" lon="1.31646">
        <ele>149</ele>
        <time>2018-05-02T17:35:14.000Z</time>
      </trkpt>
      <trkpt lat="43.63843" lon="1.31644">
        <ele>149</ele>
        <time>2018-05-02T17:35:16.000Z</time>
      </trkpt>
      <trkpt lat="43.6384" lon="1.31641">
        <ele>149</ele>
        <time>2018-05-02T17:35:18.000Z</time>
      </trkpt>
      <trkpt lat="43.63838" lon="1.31638">
        <ele>148</ele>
        <time>2018-05-02T17:35:20.000Z</time>
      </trkpt>
      <trkpt lat="43.63836" lon="1.31636">
        <ele>148</ele>
        <time>2018-05-02T17:35:22.000Z</time>
      </trkpt>
      <trkpt lat="43.63834" lon="1.31633">
        <ele>148</ele>
        <time>2018-05-02T17:35:24.000Z</time>
      </trkpt>
      <trkpt lat="43.63831" lon="1.3163">
        <ele>148</ele>
        <time>2018-05-02T17:35:26.000Z</time>
      </trkpt>
      <trkpt lat="43.63828" lon="1.31626">
        <ele>148</ele>
        <time>2018-05-02T17:35:28.000Z</time>
      </trkpt>
      <trkpt lat="43.63826" lon="1.31622">
        <ele>148</ele>
        <time>2018-05-02T17:35:30.000Z</time>
      </trkpt>
      <trkpt lat="43.63823" lon="1.3162">
        <ele>148</ele>
        <time>2018-05-02T17:35:32.000Z</time>
      </trkpt>
      <trkpt lat="43.63821" lon="1.31616">
        <ele>148</ele>
        <time>2018-05-02T17:35:34.000Z</time>
      </trkpt>
      <trkpt lat="43.63819" lon="1.31612">
        <ele>148</ele>
        <time>2018-05-02T17:35:36.000Z</time>
      </trkpt>
      <trkpt lat="43.63816" lon="1.3161">
        <ele>148</ele>
        <time>2018-05-02T17:35:38.000Z</time>
      </trkpt>
      <trkpt lat="43.63815" lon="1.31605">
        <ele>148</ele>
        <time>2018-05-02T17:35:40.000Z</time>
      </trkpt>
      <trkpt lat="43.63813" lon="1.31602">
        <ele>147</ele>
        <time>2018-05-02T17:35:42.000Z</time>
      </trkpt>
      <trkpt lat="43.63811" lon="1.31598">
        <ele>147</ele>
        <time>2018-05-02T17:35:44.000Z</time>
      </trkpt>
      <trkpt lat="43.63809" lon="1.31593">
        <ele>147</ele>
        <time>2018-05-02T17:35:46.000Z</time>
      </trkpt>
      <trkpt lat="43.63807" lon="1.31589">
        <ele>147</ele>
        <time>2018-05-02T17:35:48.000Z</time>
      </trkpt>
      <trkpt lat="43.63805" lon="1.31585">
        <ele>147</ele>
        <time>2018-05-02T17:35:50.000Z</time>
      </trkpt>
      <trkpt lat="43.63803" lon="1.31582">
        <ele>147</ele>
        <time>2018-05-02T17:35:52.000Z</time>
      </trkpt>
      <trkpt lat="43.63801" lon="1.31579">
        <ele>147</ele>
        <time>2018-05-02T17:35:54.000Z</time>
      </trkpt>
      <trkpt lat="43.638" lon="1.31575">
        <ele>147</ele>
        <time>2018-05-02T17:35:56.000Z</time>
      </trkpt>
      <trkpt lat="43.63798" lon="1.31572">
        <ele>147</ele>
        <time>2018-05-02T17:35:58.000Z</time>
      </trkpt>
      <trkpt lat="43.63796" lon="1.31568">
        <ele>146</ele>
        <time>2018-05-02T17:36:00.000Z</time>
      </trkpt>
      <trkpt lat="43.63794" lon="1.31564">
        <ele>146</ele>
        <time>2018-05-02T17:36:02.000Z</time>
      </trkpt>
      <trkpt lat="43.63793" lon="1.31561">
        <ele>146</ele>
        <time>2018-05-02T17:36:04.000Z</time>
      </trkpt>
      <trkpt lat="43.63791" lon="1.31558">
        <ele>146</ele>
        <time>2018-05-02T17:36:06.000Z</time>
      </trkpt>
      <trkpt lat="43.63789" lon="1.31555">
        <ele>146</ele>
        <time>2018-05-02T17:36:08.000Z</time>
      </trkpt>
      <trkpt lat="43.63787" lon="1.31551">
        <ele>146</ele>
        <time>2018-05-02T17:36:10.000Z</time>
      </trkpt>
      <trkpt lat="43.63785" lon="1.31547">
        <ele>146</ele>
        <time>2018-05-02T17:36:12.000Z</time>
      </trkpt>
      <trkpt lat="43.63783" lon="1.31544">
        <ele>146</ele>
        <time>2018-05-02T17:36:14.000Z</time>
      </trkpt>
      <trkpt lat="43.63781" lon="1.3154">
        <ele>146</ele>
        <time>2018-05-02T17:36:16.000Z</time>
      </trkpt>
      <trkpt lat="43.63779" lon="1.31537">
        <ele>146</ele>
        <time>2018-05-02T17:36:18.000Z</time>
      </trkpt>
      <trkpt lat="43.63777" lon="1.31533">
        <ele>146</ele>
        <time>2018-05-02T17:36:20.000Z</time>
      </trkpt>
      <trkpt lat="43.63775" lon="1.31528">
        <ele>147</ele>
        <time>2018-05-02T17:36:22.000Z</time>
      </trkpt>
      <trkpt lat="43.63773" lon="1.31523">
        <ele>147</ele>
        <time>2018-05-02T17:36:24.000Z</time>
      </trkpt>
      <trkpt lat="43.63771" lon="1.31518">
        <ele>147</ele>
        <time>2018-05-02T17:36:26.000Z</time>
      </trkpt>
      <trkpt lat="43.63769" lon="1.31513">
        <ele>147</ele>
        <time>2018-05-02T17:36:28.000Z</time>
      </trkpt>
      <trkpt lat="43.63767" lon="1.31508">
        <ele>147</ele>
        <time>2018-05-02T17:36:30.000Z</time>
      </trkpt>
      <trkpt lat="43.63765" lon="1.31503">
        <ele>147</ele>
        <time>2018-05-02T17:36:32.000Z</time>
      </trkpt>
      <trkpt lat="43.63763" lon="1.31499">
        <ele>147</ele>
        <time>2018-05-02T17:36:34.000Z</time>
      </trkpt>
      <trkpt lat="43.63761" lon="1.31495">
        <ele>147</ele>
        <time>2018-05-02T17:36:36.000Z</time>
      </trkpt>
      <trkpt lat="43.6376" lon="1.31491">
        <ele>147</ele>
        <time>2018-05-02T17:36:38.000Z</time>
      </trkpt>
      <trkpt lat="43.63758" lon="1.31487">
        <ele>147</ele>
        <time>2018-05-02T17:36:40.000Z</time>
      </trkpt>
      <trkpt lat="43.63756" lon="1.31483">
        <ele>147</ele>
        <time>2018-05-02T17:36:42.000Z</time>
      </trkpt>
      <trkpt lat="43.63755" lon="1.31479">
        <ele>147</ele>
        <time>2018-05-02T17:36:44.000Z</time>
      </trkpt>
      <trkpt lat="43.63753" lon="1.31476">
        <ele>147</ele>
        <time>2018-05-02T17:36:46.000Z</time>
      </trkpt>
      <trkpt lat="43.63751" lon="1.31472">
        <ele>147</ele>
        <time>2018-05-02T17:36:48.000Z</time>
      </trkpt>
      <trkpt lat="43.63749" lon="1.31469">
        <ele>148</ele>
        <time>2018-05-02T17:36:50.000Z</time>
      </trkpt>
      <trkpt lat="43.63747" lon="1.31465">
        <ele>148</ele>
        <time>2018-05-02T17:36:52.000Z</time>
      </trkpt>
      <trkpt lat="43.63745" lon="1.31461">
        <ele>148</ele>
        <time>2018-05-02T17:36:54.000Z</time>
      </trkpt>
      <trkpt lat="43.63743" lon="1.31457">
        <ele>148</ele>
        <time>2018-05-02T17:36:56.000Z</time>
      </trkpt>
      <trkpt lat="43.63741" lon="1.31453">
        <ele>148</ele>
        <time>2018-05-02T17:36:58.000Z</time>
      </trkpt>
      <trkpt lat="43.6374" lon="1.31449">
        <ele>148</ele>
        <time>2018-05-02T17:37:00.000Z</time>
      </trkpt>
      <trkpt lat="43.63738" lon="1.31446">
        <ele>148</ele>
        <time>2018-05-02T17:37:02.000Z</time>
      </trkpt>
      <trkpt lat="43.63736" lon="1.31442">
        <ele>148</ele>
        <time>2018-05-02T17:37:04.000Z</time>
      </trkpt>
      <trkpt lat="43.63734" lon="1.31439">
        <ele>148</ele>
        <time>2018-05-02T17:37:06.000Z</time>
      </trkpt>
      <trkpt lat="43.63733" lon="1.31435">
        <ele>149</ele>
        <time>2018-05-02T17:37:08.000Z</time>
      </trkpt>
      <trkpt lat="43.63731" lon="1.31431">
        <ele>149</ele>
        <time>2018-05-02T17:37:10.000Z</time>
      </trkpt>
      <trkpt lat="43.63729" lon="1.31427">
        <ele>149</ele>
        <time>2018-05-02T17:37:12.000Z</time>
      </trkpt>
      <trkpt lat="43.63728" lon="1.31424">
        <ele>149</ele>
        <time>2018-05-02T17:37:14.000Z</time>
      </trkpt>
      <trkpt lat="43.63726" lon="1.3142">
        <ele>149</ele>
        <time>2018-05-02T17:37:16.000Z</time>
      </trkpt>
      <trkpt lat="43.63724" lon="1.31416">
        <ele>149</ele>
        <time>2018-05-02T17:37:18.000Z</time>
      </trkpt>
      <trkpt lat="43.63722" lon="1.31412">
        <ele>149</ele>
        <time>2018-05-02T17:37:20.000Z</time>
      </trkpt>
      <trkpt lat="43.63721" lon="1.31408">
        <ele>150</ele>
        <time>2018-05-02T17:37:22.000Z</time>
      </trkpt>
      <trkpt lat="43.63719" lon="1.31404">
        <ele>150</ele>
        <time>2018-05-02T17:37:24.000Z</time>
      </trkpt>
      <trkpt lat="43.63718" lon="1.31399">
        <ele>150</ele>
        <time>2018-05-02T17:37:26.000Z</time>
      </trkpt>
      <trkpt lat="43.63716" lon="1.31395">
        <ele>150</ele>
        <time>2018-05-02T17:37:28.000Z</time>
      </trkpt>
      <trkpt lat="43.63715" lon="1.31391">
        <ele>150</ele>
        <time>2018-05-02T17:37:30.000Z</time>
      </trkpt>
      <trkpt lat="43.63714" lon="1.31386">
        <ele>150</ele>
        <time>2018-05-02T17:37:32.000Z</time>
      </trkpt>
      <trkpt lat="43.63713" lon="1.31381">
        <ele>150</ele>
        <time>2018-05-02T17:37:34.000Z</time>
      </trkpt>
      <trkpt lat="43.63711" lon="1.31377">
        <ele>150</ele>
        <time>2018-05-02T17:37:36.000Z</time>
      </trkpt>
      <trkpt lat="43.63709" lon="1.31372">
        <ele>150</ele>
        <time>2018-05-02T17:37:38.000Z</time>
      </trkpt>
      <trkpt lat="43.63708" lon="1.31368">
        <ele>150</ele>
        <time>2018-05-02T17:37:40.000Z</time>
      </trkpt>
      <trkpt lat="43.63707" lon="1.31364">
        <ele>150</ele>
        <time>2018-05-02T17:37:42.000Z</time>
      </trkpt>
      <trkpt lat="43.63705" lon="1.3136">
        <ele>150</ele>
        <time>2018-05-02T17:37:44.000Z</time>
      </trkpt>
      <trkpt lat="43.63704" lon="1.31356">
        <ele>150</ele>
        <time>2018-05-02T17:37:46.000Z</time>
      </trkpt>
      <trkpt lat="43.63703" lon="1.31351">
        <ele>150</ele>
        <time>2018-05-02T17:37:48.000Z</time>
      </trkpt>
      <trkpt lat="43.63701" lon="1.31345">
        <ele>150</ele>
        <time>2018-05-02T17:37:50.000Z</time>
      </trkpt>
      <trkpt lat="43.63699" lon="1.3134">
        <ele>150</ele>
        <time>2018-05-02T17:37:52.000Z</time>
      </trkpt>
      <trkpt lat="43.63698" lon="1.31335">
        <ele>150</ele>
        <time>2018-05-02T17:37:54.000Z</time>
      </trkpt>
      <trkpt lat="43.63698" lon="1.31329">
        <ele>150</ele>
        <time>2018-05-02T17:37:56.000Z</time>
      </trkpt>
      <trkpt lat="43.63696" lon="1.31324">
        <ele>150</ele>
        <time>2018-05-02T17:37:58.000Z</time>
      </trkpt>
      <trkpt lat="43.63695" lon="1.31319">
        <ele>150</ele>
        <time>2018-05-02T17:38:00.000Z</time>
      </trkpt>
      <trkpt lat="43.63694" lon="1.31314">
        <ele>150</ele>
        <time>2018-05-02T17:38:02.000Z</time>
      </trkpt>
      <trkpt lat="43.63693" lon="1.31309">
        <ele>150</ele>
        <time>2018-05-02T17:38:04.000Z</time>
      </trkpt>
      <trkpt lat="43.63692" lon="1.31304">
        <ele>150</ele>
        <time>2018-05-02T17:38:06.000Z</time>
      </trkpt>
      <trkpt lat="43.63691" lon="1.31299">
        <ele>150</ele>
        <time>2018-05-02T17:38:08.000Z</time>
      </trkpt>
      <trkpt lat="43.63691" lon="1.31295">
        <ele>150</ele>
        <time>2018-05-02T17:38:10.000Z</time>
      </trkpt>
      <trkpt lat="43.6369" lon="1.3129">
        <ele>150</ele>
        <time>2018-05-02T17:38:12.000Z</time>
      </trkpt>
      <trkpt lat="43.63689" lon="1.31286">
        <ele>150</ele>
        <time>2018-05-02T17:38:14.000Z</time>
      </trkpt>
      <trkpt lat="43.63687" lon="1.31281">
        <ele>150</ele>
        <time>2018-05-02T17:38:16.000Z</time>
      </trkpt>
      <trkpt lat="43.63686" lon="1.31276">
        <ele>150</ele>
        <time>2018-05-02T17:38:18.000Z</time>
      </trkpt>
      <trkpt lat="43.63684" lon="1.3127">
        <ele>150</ele>
        <time>2018-05-02T17:38:20.000Z</time>
      </trkpt>
      <trkpt lat="43.63683" lon="1.31266">
        <ele>150</ele>
        <time>2018-05-02T17:38:22.000Z</time>
      </trkpt>
      <trkpt lat="43.63681" lon="1.31262">
        <ele>150</ele>
        <time>2018-05-02T17:38:24.000Z</time>
      </trkpt>
      <trkpt lat="43.6368" lon="1.31258">
        <ele>150</ele>
        <time>2018-05-02T17:38:26.000Z</time>
      </trkpt>
      <trkpt lat="43.63679" lon="1.31254">
        <ele>150</ele>
        <time>2018-05-02T17:38:28.000Z</time>
      </trkpt>
      <trkpt lat="43.63677" lon="1.31251">
        <ele>150</ele>
        <time>2018-05-02T17:38:30.000Z</time>
      </trkpt>
      <trkpt lat="43.63676" lon="1.31247">
        <ele>150</ele>
        <time>2018-05-02T17:38:32.000Z</time>
      </trkpt>
      <trkpt lat="43.63674" lon="1.31243">
        <ele>150</ele>
        <time>2018-05-02T17:38:34.000Z</time>
      </trkpt>
      <trkpt lat="43.63671" lon="1.31239">
        <ele>150</ele>
        <time>2018-05-02T17:38:36.000Z</time>
      </trkpt>
      <trkpt lat="43.63669" lon="1.31236">
        <ele>150</ele>
        <time>2018-05-02T17:38:38.000Z</time>
      </trkpt>
      <trkpt lat="43.63666" lon="1.31232">
        <ele>150</ele>
        <time>2018-05-02T17:38:40.000Z</time>
      </trkpt>
      <trkpt lat="43.63664" lon="1.31228">
        <ele>149</ele>
        <time>2018-05-02T17:38:42.000Z</time>
      </trkpt>
      <trkpt lat="43.63661" lon="1.31224">
        <ele>149</ele>
        <time>2018-05-02T17:38:44.000Z</time>
      </trkpt>
      <trkpt lat="43.63658" lon="1.31221">
        <ele>149</ele>
        <time>2018-05-02T17:38:46.000Z</time>
      </trkpt>
      <trkpt lat="43.63656" lon="1.31218">
        <ele>149</ele>
        <time>2018-05-02T17:38:48.000Z</time>
      </trkpt>
      <trkpt lat="43.63653" lon="1.31214">
        <ele>149</ele>
        <time>2018-05-02T17:38:50.000Z</time>
      </trkpt>
      <trkpt lat="43.6365" lon="1.3121">
        <ele>149</ele>
        <time>2018-05-02T17:38:52.000Z</time>
      </trkpt>
      <trkpt lat="43.63648" lon="1.31206">
        <ele>149</ele>
        <time>2018-05-02T17:38:54.000Z</time>
      </trkpt>
      <trkpt lat="43.63646" lon="1.31203">
        <ele>149</ele>
        <time>2018-05-02T17:38:56.000Z</time>
      </trkpt>
      <trkpt lat="43.63645" lon="1.312">
        <ele>149</ele>
        <time>2018-05-02T17:38:58.000Z</time>
      </trkpt>
      <trkpt lat="43.63643" lon="1.31196">
        <ele>149</ele>
        <time>2018-05-02T17:39:00.000Z</time>
      </trkpt>
      <trkpt lat="43.63641" lon="1.31193">
        <ele>148</ele>
        <time>2018-05-02T17:39:02.000Z</time>
      </trkpt>
      <trkpt lat="43.63639" lon="1.31189">
        <ele>148</ele>
        <time>2018-05-02T17:39:04.000Z</time>
      </trkpt>
      <trkpt lat="43.63638" lon="1.31185">
        <ele>148</ele>
        <time>2018-05-02T17:39:06.000Z</time>
      </trkpt>
      <trkpt lat="43.63636" lon="1.3118">
        <ele>148</ele>
        <time>2018-05-02T17:39:08.000Z</time>
      </trkpt>
      <trkpt lat="43.63635" lon="1.31177">
        <ele>148</ele>
        <time>2018-05-02T17:39:10.000Z</time>
      </trkpt>
      <trkpt lat="43.63633" lon="1.31171">
        <ele>148</ele>
        <time>2018-05-02T17:39:12.000Z</time>
      </trkpt>
      <trkpt lat="43.63631" lon="1.31166">
        <ele>148</ele>
        <time>2018-05-02T17:39:14.000Z</time>
      </trkpt>
      <trkpt lat="43.6363" lon="1.31161">
        <ele>148</ele>
        <time>2018-05-02T17:39:16.000Z</time>
      </trkpt>
      <trkpt lat="43.63629" lon="1.31157">
        <ele>148</ele>
        <time>2018-05-02T17:39:18.000Z</time>
      </trkpt>
      <trkpt lat="43.63627" lon="1.31153">
        <ele>148</ele>
        <time>2018-05-02T17:39:20.000Z</time>
      </trkpt>
      <trkpt lat="43.63625" lon="1.31149">
        <ele>148</ele>
        <time>2018-05-02T17:39:22.000Z</time>
      </trkpt>
      <trkpt lat="43.63624" lon="1.31145">
        <ele>148</ele>
        <time>2018-05-02T17:39:24.000Z</time>
      </trkpt>
      <trkpt lat="43.63622" lon="1.31141">
        <ele>148</ele>
        <time>2018-05-02T17:39:26.000Z</time>
      </trkpt>
      <trkpt lat="43.63621" lon="1.31137">
        <ele>149</ele>
        <time>2018-05-02T17:39:28.000Z</time>
      </trkpt>
      <trkpt lat="43.6362" lon="1.31133">
        <ele>149</ele>
        <time>2018-05-02T17:39:30.000Z</time>
      </trkpt>
      <trkpt lat="43.63618" lon="1.31129">
        <ele>149</ele>
        <time>2018-05-02T17:39:32.000Z</time>
      </trkpt>
      <trkpt lat="43.63616" lon="1.31125">
        <ele>149</ele>
        <time>2018-05-02T17:39:34.000Z</time>
      </trkpt>
      <trkpt lat="43.63613" lon="1.31122">
        <ele>149</ele>
        <time>2018-05-02T17:39:36.000Z</time>
      </trkpt>
      <trkpt lat="43.6361" lon="1.31119">
        <ele>149</ele>
        <time>2018-05-02T17:39:38.000Z</time>
      </trkpt>
      <trkpt lat="43.63608" lon="1.31116">
        <ele>149</ele>
        <time>2018-05-02T17:39:40.000Z</time>
      </trkpt>
      <trkpt lat="43.63605" lon="1.31111">
        <ele>149</ele>
        <time>2018-05-02T17:39:42.000Z</time>
      </trkpt>
      <trkpt lat="43.63602" lon="1.31107">
        <ele>149</ele>
        <time>2018-05-02T17:39:44.000Z</time>
      </trkpt>
      <trkpt lat="43.636" lon="1.31102">
        <ele>149</ele>
        <time>2018-05-02T17:39:46.000Z</time>
      </trkpt>
      <trkpt lat="43.63598" lon="1.31099">
        <ele>149</ele>
        <time>2018-05-02T17:39:48.000Z</time>
      </trkpt>
      <trkpt lat="43.63595" lon="1.31096">
        <ele>149</ele>
        <time>2018-05-02T17:39:50.000Z</time>
      </trkpt>
      <trkpt lat="43.63594" lon="1.31094">
        <ele>149</ele>
        <time>2018-05-02T17:39:52.000Z</time>
      </trkpt>
      <trkpt lat="43.63592" lon="1.31091">
        <ele>149</ele>
        <time>2018-05-02T17:39:54.000Z</time>
      </trkpt>
      <trkpt lat="43.6359" lon="1.31086">
        <ele>149</ele>
        <time>2018-05-02T17:39:56.000Z</time>
      </trkpt>
      <trkpt lat="43.63587" lon="1.31083">
        <ele>149</ele>
        <time>2018-05-02T17:39:58.000Z</time>
      </trkpt>
      <trkpt lat="43.63585" lon="1.31079">
        <ele>149</ele>
        <time>2018-05-02T17:40:00.000Z</time>
      </trkpt>
      <trkpt lat="43.63582" lon="1.31076">
        <ele>149</ele>
        <time>2018-05-02T17:40:02.000Z</time>
      </trkpt>
      <trkpt lat="43.6358" lon="1.31071">
        <ele>150</ele>
        <time>2018-05-02T17:40:04.000Z</time>
      </trkpt>
      <trkpt lat="43.63578" lon="1.31068">
        <ele>150</ele>
        <time>2018-05-02T17:40:06.000Z</time>
      </trkpt>
      <trkpt lat="43.63576" lon="1.31065">
        <ele>150</ele>
        <time>2018-05-02T17:40:08.000Z</time>
      </trkpt>
      <trkpt lat="43.63574" lon="1.31062">
        <ele>150</ele>
        <time>2018-05-02T17:40:10.000Z</time>
      </trkpt>
      <trkpt lat="43.63571" lon="1.31059">
        <ele>150</ele>
        <time>2018-05-02T17:40:12.000Z</time>
      </trkpt>
      <trkpt lat="43.6357" lon="1.31055">
        <ele>150</ele>
        <time>2018-05-02T17:40:14.000Z</time>
      </trkpt>
      <trkpt lat="43.63568" lon="1.31052">
        <ele>150</ele>
        <time>2018-05-02T17:40:16.000Z</time>
      </trkpt>
      <trkpt lat="43.63566" lon="1.31048">
        <ele>150</ele>
        <time>2018-05-02T17:40:18.000Z</time>
      </trkpt>
      <trkpt lat="43.63564" lon="1.31044">
        <ele>150</ele>
        <time>2018-05-02T17:40:20.000Z</time>
      </trkpt>
      <trkpt lat="43.63562" lon="1.3104">
        <ele>150</ele>
        <time>2018-05-02T17:40:22.000Z</time>
      </trkpt>
      <trkpt lat="43.6356" lon="1.31037">
        <ele>150</ele>
        <time>2018-05-02T17:40:24.000Z</time>
      </trkpt>
      <trkpt lat="43.63558" lon="1.31034">
        <ele>150</ele>
        <time>2018-05-02T17:40:26.000Z</time>
      </trkpt>
      <trkpt lat="43.63555" lon="1.31031">
        <ele>150</ele>
        <time>2018-05-02T17:40:28.000Z</time>
      </trkpt>
      <trkpt lat="43.63553" lon="1.31027">
        <ele>149</ele>
        <time>2018-05-02T17:40:30.000Z</time>
      </trkpt>
      <trkpt lat="43.6355" lon="1.31023">
        <ele>149</ele>
        <time>2018-05-02T17:40:32.000Z</time>
      </trkpt>
      <trkpt lat="43.63548" lon="1.31019">
        <ele>149</ele>
        <time>2018-05-02T17:40:34.000Z</time>
      </trkpt>
      <trkpt lat="43.63546" lon="1.31015">
        <ele>149</ele>
        <time>2018-05-02T17:40:36.000Z</time>
      </trkpt>
      <trkpt lat="43.63544" lon="1.31012">
        <ele>149</ele>
        <time>2018-05-02T17:40:38.000Z</time>
      </trkpt>
      <trkpt lat="43.63543" lon="1.31008">
        <ele>149</ele>
        <time>2018-05-02T17:40:40.000Z</time>
      </trkpt>
      <trkpt lat="43.6354" lon="1.31003">
        <ele>149</ele>
        <time>2018-05-02T17:40:42.000Z</time>
      </trkpt>
      <trkpt lat="43.63538" lon="1.30999">
        <ele>149</ele>
        <time>2018-05-02T17:40:44.000Z</time>
      </trkpt>
      <trkpt lat="43.63536" lon="1.30995">
        <ele>149</ele>
        <time>2018-05-02T17:40:46.000Z</time>
      </trkpt>
      <trkpt lat="43.63534" lon="1.30992">
        <ele>149</ele>
        <time>2018-05-02T17:40:48.000Z</time>
      </trkpt>
      <trkpt lat="43.63532" lon="1.30989">
        <ele>149</ele>
        <time>2018-05-02T17:40:50.000Z</time>
      </trkpt>
      <trkpt lat="43.63529" lon="1.30986">
        <ele>149</ele>
        <time>2018-05-02T17:40:52.000Z</time>
      </trkpt>
      <trkpt lat="43.63527" lon="1.30984">
        <ele>149</ele>
        <time>2018-05-02T17:40:54.000Z</time>
      </trkpt>
      <trkpt lat="43.63525" lon="1.30982">
        <ele>149</ele>
        <time>2018-05-02T17:40:56.000Z</time>
      </trkpt>
      <trkpt lat="43.63521" lon="1.3098">
        <ele>149</ele>
        <time>2018-05-02T17:40:58.000Z</time>
      </trkpt>
      <trkpt lat="43.63518" lon="1.30978">
        <ele>149</ele>
        <time>2018-05-02T17:41:00.000Z</time>
      </trkpt>
      <trkpt lat="43.63515" lon="1.30976">
        <ele>149</ele>
        <time>2018-05-02T17:41:02.000Z</time>
      </trkpt>
      <trkpt lat="43.63512" lon="1.30974">
        <ele>149</ele>
        <time>2018-05-02T17:41:04.000Z</time>
      </trkpt>
      <trkpt lat="43.63508" lon="1.30973">
        <ele>149</ele>
        <time>2018-05-02T17:41:06.000Z</time>
      </trkpt>
      <trkpt lat="43.63506" lon="1.30971">
        <ele>149</ele>
        <time>2018-05-02T17:41:08.000Z</time>
      </trkpt>
      <trkpt lat="43.63503" lon="1.30969">
        <ele>149</ele>
        <time>2018-05-02T17:41:10.000Z</time>
      </trkpt>
      <trkpt lat="43.635" lon="1.30966">
        <ele>149</ele>
        <time>2018-05-02T17:41:12.000Z</time>
      </trkpt>
      <trkpt lat="43.63497" lon="1.30965">
        <ele>149</ele>
        <time>2018-05-02T17:41:14.000Z</time>
      </trkpt>
      <trkpt lat="43.63494" lon="1.30963">
        <ele>149</ele>
        <time>2018-05-02T17:41:16.000Z</time>
      </trkpt>
      <trkpt lat="43.63491" lon="1.30962">
        <ele>149</ele>
        <time>2018-05-02T17:41:18.000Z</time>
      </trkpt>
      <trkpt lat="43.63488" lon="1.30961">
        <ele>148</ele>
        <time>2018-05-02T17:41:20.000Z</time>
      </trkpt>
      <trkpt lat="43.63484" lon="1.30959">
        <ele>148</ele>
        <time>2018-05-02T17:41:22.000Z</time>
      </trkpt>
      <trkpt lat="43.63481" lon="1.30957">
        <ele>148</ele>
        <time>2018-05-02T17:41:24.000Z</time>
      </trkpt>
      <trkpt lat="43.63478" lon="1.30955">
        <ele>148</ele>
        <time>2018-05-02T17:41:26.000Z</time>
      </trkpt>
      <trkpt lat="43.63475" lon="1.30952">
        <ele>148</ele>
        <time>2018-05-02T17:41:28.000Z</time>
      </trkpt>
      <trkpt lat="43.63471" lon="1.30951">
        <ele>148</ele>
        <time>2018-05-02T17:41:30.000Z</time>
      </trkpt>
      <trkpt lat="43.63467" lon="1.3095">
        <ele>148</ele>
        <time>2018-05-02T17:41:32.000Z</time>
      </trkpt>
      <trkpt lat="43.63464" lon="1.30947">
        <ele>148</ele>
        <time>2018-05-02T17:41:34.000Z</time>
      </trkpt>
      <trkpt lat="43.63461" lon="1.30945">
        <ele>148</ele>
        <time>2018-05-02T17:41:36.000Z</time>
      </trkpt>
      <trkpt lat="43.63458" lon="1.30943">
        <ele>148</ele>
        <time>2018-05-02T17:41:38.000Z</time>
      </trkpt>
      <trkpt lat="43.63455" lon="1.30942">
        <ele>148</ele>
        <time>2018-05-02T17:41:40.000Z</time>
      </trkpt>
      <trkpt lat="43.63451" lon="1.30941">
        <ele>148</ele>
        <time>2018-05-02T17:41:42.000Z</time>
      </trkpt>
      <trkpt lat="43.63447" lon="1.3094">
        <ele>148</ele>
        <time>2018-05-02T17:41:44.000Z</time>
      </trkpt>
      <trkpt lat="43.63443" lon="1.30938">
        <ele>148</ele>
        <time>2018-05-02T17:41:46.000Z</time>
      </trkpt>
      <trkpt lat="43.63439" lon="1.30936">
        <ele>148</ele>
        <time>2018-05-02T17:41:48.000Z</time>
      </trkpt>
      <trkpt lat="43.63436" lon="1.30934">
        <ele>148</ele>
        <time>2018-05-02T17:41:50.000Z</time>
      </trkpt>
      <trkpt lat="43.63433" lon="1.30932">
        <ele>148</ele>
        <time>2018-05-02T17:41:52.000Z</time>
      </trkpt>
      <trkpt lat="43.63431" lon="1.30929">
        <ele>148</ele>
        <time>2018-05-02T17:41:54.000Z</time>
      </trkpt>
      <trkpt lat="43.63427" lon="1.30927">
        <ele>148</ele>
        <time>2018-05-02T17:41:56.000Z</time>
      </trkpt>
      <trkpt lat="43.63424" lon="1.30925">
        <ele>148</ele>
        <time>2018-05-02T17:41:58.000Z</time>
      </trkpt>
      <trkpt lat="43.6342" lon="1.30922">
        <ele>148</ele>
        <time>2018-05-02T17:42:00.000Z</time>
      </trkpt>
      <trkpt lat="43.63417" lon="1.3092">
        <ele>148</ele>
        <time>2018-05-02T17:42:02.000Z</time>
      </trkpt>
      <trkpt lat="43.63414" lon="1.30916">
        <ele>148</ele>
        <time>2018-05-02T17:42:04.000Z</time>
      </trkpt>
      <trkpt lat="43.63411" lon="1.30913">
        <ele>148</ele>
        <time>2018-05-02T17:42:06.000Z</time>
      </trkpt>
      <trkpt lat="43.63409" lon="1.30909">
        <ele>148</ele>
        <time>2018-05-02T17:42:08.000Z</time>
      </trkpt>
      <trkpt lat="43.63406" lon="1.30904">
        <ele>148</ele>
        <time>2018-05-02T17:42:10.000Z</time>
      </trkpt>
      <trkpt lat="43.63403" lon="1.30901">
        <ele>148</ele>
        <time>2018-05-02T17:42:12.000Z</time>
      </trkpt>
      <trkpt lat="43.63401" lon="1.30898">
        <ele>148</ele>
        <time>2018-05-02T17:42:14.000Z</time>
      </trkpt>
      <trkpt lat="43.63398" lon="1.30895">
        <ele>148</ele>
        <time>2018-05-02T17:42:16.000Z</time>
      </trkpt>
      <trkpt lat="43.63396" lon="1.30892">
        <ele>148</ele>
        <time>2018-05-02T17:42:18.000Z</time>
      </trkpt>
      <trkpt lat="43.63394" lon="1.30888">
        <ele>149</ele>
        <time>2018-05-02T17:42:20.000Z</time>
      </trkpt>
      <trkpt lat="43.63392" lon="1.30884">
        <ele>149</ele>
        <time>2018-05-02T17:42:22.000Z</time>
      </trkpt>
      <trkpt lat="43.63389" lon="1.3088">
        <ele>149</ele>
        <time>2018-05-02T17:42:24.000Z</time>
      </trkpt>
      <trkpt lat="43.63387" lon="1.30877">
        <ele>149</ele>
        <time>2018-05-02T17:42:26.000Z</time>
      </trkpt>
      <trkpt lat="43.63385" lon="1.30874">
        <ele>149</ele>
        <time>2018-05-02T17:42:28.000Z</time>
      </trkpt>
      <trkpt lat="43.63382" lon="1.30871">
        <ele>149</ele>
        <time>2018-05-02T17:42:30.000Z</time>
      </trkpt>
      <trkpt lat="43.6338" lon="1.30867">
        <ele>149</ele>
        <time>2018-05-02T17:42:32.000Z</time>
      </trkpt>
      <trkpt lat="43.63378" lon="1.30863">
        <ele>149</ele>
        <time>2018-05-02T17:42:34.000Z</time>
      </trkpt>
      <trkpt lat="43.63375" lon="1.3086">
        <ele>149</ele>
        <time>2018-05-02T17:42:36.000Z</time>
      </trkpt>
      <trkpt lat="43.63373" lon="1.30856">
        <ele>149</ele>
        <time>2018-05-02T17:42:38.000Z</time>
      </trkpt>
      <trkpt lat="43.63371" lon="1.30852">
        <ele>149</ele>
        <time>2018-05-02T17:42:40.000Z</time>
      </trkpt>
      <trkpt lat="43.63368" lon="1.30849">
        <ele>149</ele>
        <time>2018-05-02T17:42:42.000Z</time>
      </trkpt>
      <trkpt lat="43.63366" lon="1.30845">
        <ele>149</ele>
        <time>2018-05-02T17:42:44.000Z</time>
      </trkpt>
      <trkpt lat="43.63363" lon="1.30841">
        <ele>149</ele>
        <time>2018-05-02T17:42:46.000Z</time>
      </trkpt>
      <trkpt lat="43.63361" lon="1.30837">
        <ele>149</ele>
        <time>2018-05-02T17:42:48.000Z</time>
      </trkpt>
      <trkpt lat="43.63359" lon="1.30833">
        <ele>149</ele>
        <time>2018-05-02T17:42:50.000Z</time>
      </trkpt>
      <trkpt lat="43.63356" lon="1.3083">
        <ele>149</ele>
        <time>2018-05-02T17:42:52.000Z</time>
      </trkpt>
      <trkpt lat="43.63354" lon="1.30826">
        <ele>149</ele>
        <time>2018-05-02T17:42:54.000Z</time>
      </trkpt>
      <trkpt lat="43.63352" lon="1.30823">
        <ele>149</ele>
        <time>2018-05-02T17:42:56.000Z</time>
      </trkpt>
      <trkpt lat="43.63349" lon="1.3082">
        <ele>149</ele>
        <time>2018-05-02T17:42:58.000Z</time>
      </trkpt>
      <trkpt lat="43.63347" lon="1.30817">
        <ele>149</ele>
        <time>2018-05-02T17:43:00.000Z</time>
      </trkpt>
      <trkpt lat="43.63345" lon="1.30814">
        <ele>149</ele>
        <time>2018-05-02T17:43:02.000Z</time>
      </trkpt>
      <trkpt lat="43.63342" lon="1.30811">
        <ele>149</ele>
        <time>2018-05-02T17:43:04.000Z</time>
      </trkpt>
      <trkpt lat="43.6334" lon="1.30807">
        <ele>149</ele>
        <time>2018-05-02T17:43:06.000Z</time>
      </trkpt>
      <trkpt lat="43.63338" lon="1.30804">
        <ele>149</ele>
        <time>2018-05-02T17:43:08.000Z</time>
      </trkpt>
      <trkpt lat="43.63336" lon="1.30801">
        <ele>149</ele>
        <time>2018-05-02T17:43:10.000Z</time>
      </trkpt>
      <trkpt lat="43.63333" lon="1.30798">
        <ele>149</ele>
        <time>2018-05-02T17:43:12.000Z</time>
      </trkpt>
      <trkpt lat="43.63331" lon="1.30795">
        <ele>149</ele>
        <time>2018-05-02T17:43:14.000Z</time>
      </trkpt>
      <trkpt lat="43.63329" lon="1.30792">
        <ele>149</ele>
        <time>2018-05-02T17:43:16.000Z</time>
      </trkpt>
      <trkpt lat="43.63327" lon="1.30789">
        <ele>149</ele>
        <time>2018-05-02T17:43:18.000Z</time>
      </trkpt>
      <trkpt lat="43.63324" lon="1.30785">
        <ele>149</ele>
        <time>2018-05-02T17:43:20.000Z</time>
      </trkpt>
      <trkpt lat="43.63322" lon="1.30782">
        <ele>149</ele>
        <time>2018-05-02T17:43:22.000Z</time>
      </trkpt>
      <trkpt lat="43.6332" lon="1.30779">
        <ele>149</ele>
        <time>2018-05-02T17:43:24.000Z</time>
      </trkpt>
      <trkpt lat="43.63317" lon="1.30776">
        <ele>149</ele>
        <time>2018-05-02T17:43:26.000Z</time>
      </trkpt>
      <trkpt lat="43.63315" lon="1.30773">
        <ele>150</ele>
        <time>2018-05-02T17:43:28.000Z</time>
      </trkpt>
      <trkpt lat="43.63313" lon="1.30769">
        <ele>150</ele>
        <time>2018-05-02T17:43:30.000Z</time>
      </trkpt>
      <trkpt lat="43.6331" lon="1.30766">
        <ele>150</ele>
        <time>2018-05-02T17:43:32.000Z</time>
      </trkpt>
      <trkpt lat="43.63308" lon="1.30763">
        <ele>150</ele>
        <time>2018-05-02T17:43:34.000Z</time>
      </trkpt>
      <trkpt lat="43.63306" lon="1.3076">
        <ele>150</ele>
        <time>2018-05-02T17:43:36.000Z</time>
      </trkpt>
      <trkpt lat="43.63304" lon="1.30757">
        <ele>150</ele>
        <time>2018-05-02T17:43:38.000Z</time>
      </trkpt>
      <trkpt lat="43.63302" lon="1.30755">
        <ele>150</ele>
        <time>2018-05-02T17:43:40.000Z</time>
      </trkpt>
      <trkpt lat="43.633" lon="1.30752">
        <ele>150</ele>
        <time>2018-05-02T17:43:42.000Z</time>
      </trkpt>
      <trkpt lat="43.63299" lon="1.30751">
        <ele>150</ele>
        <time>2018-05-02T17:43:44.000Z</time>
      </trkpt>
      <trkpt lat="43.63297" lon="1.3075">
        <ele>150</ele>
        <time>2018-05-02T17:43:46.000Z</time>
      </trkpt>
      <trkpt lat="43.63295" lon="1.30748">
        <ele>150</ele>
        <time>2018-05-02T17:43:48.000Z</time>
      </trkpt>
      <trkpt lat="43.63293" lon="1.30745">
        <ele>150</ele>
        <time>2018-05-02T17:43:50.000Z</time>
      </trkpt>
      <trkpt lat="43.63292" lon="1.30741">
        <ele>150</ele>
        <time>2018-05-02T17:43:52.000Z</time>
      </trkpt>
      <trkpt lat="43.63293" lon="1.30737">
        <ele>150</ele>
        <time>2018-05-02T17:43:54.000Z</time>
      </trkpt>
      <trkpt lat="43.63294" lon="1.30733">
        <ele>150</ele>
        <time>2018-05-02T17:43:56.000Z</time>
      </trkpt>
      <trkpt lat="43.63294" lon="1.30729">
        <ele>150</ele>
        <time>2018-05-02T17:43:58.000Z</time>
      </trkpt>
      <trkpt lat="43.63295" lon="1.30725">
        <ele>151</ele>
        <time>2018-05-02T17:44:00.000Z</time>
      </trkpt>
      <trkpt lat="43.63295" lon="1.3072">
        <ele>151</ele>
        <time>2018-05-02T17:44:02.000Z</time>
      </trkpt>
      <trkpt lat="43.63294" lon="1.30717">
        <ele>151</ele>
        <time>2018-05-02T17:44:04.000Z</time>
      </trkpt>
      <trkpt lat="43.63295" lon="1.30714">
        <ele>151</ele>
        <time>2018-05-02T17:44:06.000Z</time>
      </trkpt>
      <trkpt lat="43.63296" lon="1.30712">
        <ele>151</ele>
        <time>2018-05-02T17:44:08.000Z</time>
      </trkpt>
      <trkpt lat="43.63298" lon="1.30709">
        <ele>151</ele>
        <time>2018-05-02T17:44:10.000Z</time>
      </trkpt>
      <trkpt lat="43.633" lon="1.30706">
        <ele>151</ele>
        <time>2018-05-02T17:44:12.000Z</time>
      </trkpt>
      <trkpt lat="43.63301" lon="1.30704">
        <ele>151</ele>
        <time>2018-05-02T17:44:14.000Z</time>
      </trkpt>
      <trkpt lat="43.63302" lon="1.30701">
        <ele>151</ele>
        <time>2018-05-02T17:44:16.000Z</time>
      </trkpt>
      <trkpt lat="43.63304" lon="1.30698">
        <ele>152</ele>
        <time>2018-05-02T17:44:18.000Z</time>
      </trkpt>
      <trkpt lat="43.63304" lon="1.30694">
        <ele>152</ele>
        <time>2018-05-02T17:44:20.000Z</time>
      </trkpt>
      <trkpt lat="43.63305" lon="1.30691">
        <ele>152</ele>
        <time>2018-05-02T17:44:22.000Z</time>
      </trkpt>
      <trkpt lat="43.63305" lon="1.30687">
        <ele>152</ele>
        <time>2018-05-02T17:44:24.000Z</time>
      </trkpt>
      <trkpt lat="43.63305" lon="1.30684">
        <ele>152</ele>
        <time>2018-05-02T17:44:26.000Z</time>
      </trkpt>
      <trkpt lat="43.63306" lon="1.30681">
        <ele>152</ele>
        <time>2018-05-02T17:44:28.000Z</time>
      </trkpt>
      <trkpt lat="43.63306" lon="1.30679">
        <ele>153</ele>
        <time>2018-05-02T17:44:30.000Z</time>
      </trkpt>
      <trkpt lat="43.63307" lon="1.30676">
        <ele>153</ele>
        <time>2018-05-02T17:44:32.000Z</time>
      </trkpt>
      <trkpt lat="43.63307" lon="1.30672">
        <ele>153</ele>
        <time>2018-05-02T17:44:34.000Z</time>
      </trkpt>
      <trkpt lat="43.63308" lon="1.30667">
        <ele>154</ele>
        <time>2018-05-02T17:44:36.000Z</time>
      </trkpt>
      <trkpt lat="43.63308" lon="1.30663">
        <ele>154</ele>
        <time>2018-05-02T17:44:38.000Z</time>
      </trkpt>
      <trkpt lat="43.63308" lon="1.3066">
        <ele>155</ele>
        <time>2018-05-02T17:44:40.000Z</time>
      </trkpt>
      <trkpt lat="43.63309" lon="1.30656">
        <ele>155</ele>
        <time>2018-05-02T17:44:42.000Z</time>
      </trkpt>
      <trkpt lat="43.6331" lon="1.30651">
        <ele>155</ele>
        <time>2018-05-02T17:44:44.000Z</time>
      </trkpt>
      <trkpt lat="43.6331" lon="1.30648">
        <ele>156</ele>
        <time>2018-05-02T17:44:46.000Z</time>
      </trkpt>
      <trkpt lat="43.63311" lon="1.30643">
        <ele>156</ele>
        <time>2018-05-02T17:44:48.000Z</time>
      </trkpt>
      <trkpt lat="43.63312" lon="1.30638">
        <ele>156</ele>
        <time>2018-05-02T17:44:50.000Z</time>
      </trkpt>
      <trkpt lat="43.63314" lon="1.30633">
        <ele>157</ele>
        <time>2018-05-02T17:44:52.000Z</time>
      </trkpt>
      <trkpt lat="43.63316" lon="1.30628">
        <ele>157</ele>
        <time>2018-05-02T17:44:54.000Z</time>
      </trkpt>
      <trkpt lat="43.63317" lon="1.30623">
        <ele>157</ele>
        <time>2018-05-02T17:44:56.000Z</time>
      </trkpt>
      <trkpt lat="43.63319" lon="1.30619">
        <ele>157</ele>
        <time>2018-05-02T17:44:58.000Z</time>
      </trkpt>
      <trkpt lat="43.6332" lon="1.30615">
        <ele>157</ele>
        <time>2018-05-02T17:45:00.000Z</time>
      </trkpt>
      <trkpt lat="43.63322" lon="1.30613">
        <ele>158</ele>
        <time>2018-05-02T17:45:02.000Z</time>
      </trkpt>
      <trkpt lat="43.63324" lon="1.3061">
        <ele>158</ele>
        <time>2018-05-02T17:45:04.000Z</time>
      </trkpt>
      <trkpt lat="43.63325" lon="1.30607">
        <ele>158</ele>
        <time>2018-05-02T17:45:06.000Z</time>
      </trkpt>
      <trkpt lat="43.63326" lon="1.30604">
        <ele>159</ele>
        <time>2018-05-02T17:45:08.000Z</time>
      </trkpt>
      <trkpt lat="43.63326" lon="1.30601">
        <ele>159</ele>
        <time>2018-05-02T17:45:10.000Z</time>
      </trkpt>
      <trkpt lat="43.63327" lon="1.30598">
        <ele>159</ele>
        <time>2018-05-02T17:45:12.000Z</time>
      </trkpt>
      <trkpt lat="43.63328" lon="1.30595">
        <ele>160</ele>
        <time>2018-05-02T17:45:14.000Z</time>
      </trkpt>
      <trkpt lat="43.63329" lon="1.30592">
        <ele>160</ele>
        <time>2018-05-02T17:45:16.000Z</time>
      </trkpt>
      <trkpt lat="43.6333" lon="1.30589">
        <ele>160</ele>
        <time>2018-05-02T17:45:18.000Z</time>
      </trkpt>
      <trkpt lat="43.63332" lon="1.30586">
        <ele>160</ele>
        <time>2018-05-02T17:45:20.000Z</time>
      </trkpt>
      <trkpt lat="43.63333" lon="1.30583">
        <ele>161</ele>
        <time>2018-05-02T17:45:22.000Z</time>
      </trkpt>
      <trkpt lat="43.63335" lon="1.30579">
        <ele>161</ele>
        <time>2018-05-02T17:45:24.000Z</time>
      </trkpt>
      <trkpt lat="43.63337" lon="1.30576">
        <ele>162</ele>
        <time>2018-05-02T17:45:26.000Z</time>
      </trkpt>
      <trkpt lat="43.6334" lon="1.30574">
        <ele>162</ele>
        <time>2018-05-02T17:45:28.000Z</time>
      </trkpt>
      <trkpt lat="43.63342" lon="1.30571">
        <ele>162</ele>
        <time>2018-05-02T17:45:30.000Z</time>
      </trkpt>
      <trkpt lat="43.63344" lon="1.30568">
        <ele>163</ele>
        <time>2018-05-02T17:45:32.000Z</time>
      </trkpt>
      <trkpt lat="43.63346" lon="1.30565">
        <ele>163</ele>
        <time>2018-05-02T17:45:34.000Z</time>
      </trkpt>
      <trkpt lat="43.63348" lon="1.30561">
        <ele>163</ele>
        <time>2018-05-02T17:45:36.000Z</time>
      </trkpt>
      <trkpt lat="43.63351" lon="1.30558">
        <ele>164</ele>
        <time>2018-05-02T17:45:38.000Z</time>
      </trkpt>
      <trkpt lat="43.63353" lon="1.30554">
        <ele>164</ele>
        <time>2018-05-02T17:45:40.000Z</time>
      </trkpt>
      <trkpt lat="43.63355" lon="1.30551">
        <ele>164</ele>
        <time>2018-05-02T17:45:42.000Z</time>
      </trkpt>
      <trkpt lat="43.63357" lon="1.30548">
        <ele>165</ele>
        <time>2018-05-02T17:45:44.000Z</time>
      </trkpt>
      <trkpt lat="43.6336" lon="1.30546">
        <ele>165</ele>
        <time>2018-05-02T17:45:46.000Z</time>
      </trkpt>
      <trkpt lat="43.63362" lon="1.30544">
        <ele>165</ele>
        <time>2018-05-02T17:45:48.000Z</time>
      </trkpt>
      <trkpt lat="43.63364" lon="1.30542">
        <ele>165</ele>
        <time>2018-05-02T17:45:50.000Z</time>
      </trkpt>
      <trkpt lat="43.63366" lon="1.30539">
        <ele>165</ele>
        <time>2018-05-02T17:45:52.000Z</time>
      </trkpt>
      <trkpt lat="43.63368" lon="1.30537">
        <ele>166</ele>
        <time>2018-05-02T17:45:54.000Z</time>
      </trkpt>
      <trkpt lat="43.6337" lon="1.30535">
        <ele>166</ele>
        <time>2018-05-02T17:45:56.000Z</time>
      </trkpt>
      <trkpt lat="43.63372" lon="1.30532">
        <ele>166</ele>
        <time>2018-05-02T17:45:58.000Z</time>
      </trkpt>
      <trkpt lat="43.63374" lon="1.3053">
        <ele>166</ele>
        <time>2018-05-02T17:46:00.000Z</time>
      </trkpt>
      <trkpt lat="43.63376" lon="1.30528">
        <ele>167</ele>
        <time>2018-05-02T17:46:02.000Z</time>
      </trkpt>
      <trkpt lat="43.63378" lon="1.30525">
        <ele>167</ele>
        <time>2018-05-02T17:46:04.000Z</time>
      </trkpt>
      <trkpt lat="43.6338" lon="1.30522">
        <ele>167</ele>
        <time>2018-05-02T17:46:06.000Z</time>
      </trkpt>
      <trkpt lat="43.63382" lon="1.30519">
        <ele>167</ele>
        <time>2018-05-02T17:46:08.000Z</time>
      </trkpt>
      <trkpt lat="43.63383" lon="1.30516">
        <ele>167</ele>
        <time>2018-05-02T17:46:10.000Z</time>
      </trkpt>
      <trkpt lat="43.63385" lon="1.30513">
        <ele>167</ele>
        <time>2018-05-02T17:46:12.000Z</time>
      </trkpt>
      <trkpt lat="43.63386" lon="1.30509">
        <ele>168</ele>
        <time>2018-05-02T17:46:14.000Z</time>
      </trkpt>
      <trkpt lat="43.63387" lon="1.30505">
        <ele>168</ele>
        <time>2018-05-02T17:46:16.000Z</time>
      </trkpt>
      <trkpt lat="43.63389" lon="1.30501">
        <ele>169</ele>
        <time>2018-05-02T17:46:18.000Z</time>
      </trkpt>
      <trkpt lat="43.6339" lon="1.30497">
        <ele>169</ele>
        <time>2018-05-02T17:46:20.000Z</time>
      </trkpt>
      <trkpt lat="43.63391" lon="1.30494">
        <ele>169</ele>
        <time>2018-05-02T17:46:22.000Z</time>
      </trkpt>
      <trkpt lat="43.63393" lon="1.30491">
        <ele>170</ele>
        <time>2018-05-02T17:46:24.000Z</time>
      </trkpt>
      <trkpt lat="43.63394" lon="1.30487">
        <ele>170</ele>
        <time>2018-05-02T17:46:26.000Z</time>
      </trkpt>
      <trkpt lat="43.63396" lon="1.30485">
        <ele>171</ele>
        <time>2018-05-02T17:46:28.000Z</time>
      </trkpt>
      <trkpt lat="43.63399" lon="1.30482">
        <ele>171</ele>
        <time>2018-05-02T17:46:30.000Z</time>
      </trkpt>
      <trkpt lat="43.63401" lon="1.30479">
        <ele>171</ele>
        <time>2018-05-02T17:46:32.000Z</time>
      </trkpt>
      <trkpt lat="43.63402" lon="1.30476">
        <ele>172</ele>
        <time>2018-05-02T17:46:34.000Z</time>
      </trkpt>
      <trkpt lat="43.63401" lon="1.30473">
        <ele>171</ele>
        <time>2018-05-02T17:46:36.000Z</time>
      </trkpt>
      <trkpt lat="43.63402" lon="1.30469">
        <ele>171</ele>
        <time>2018-05-02T17:46:38.000Z</time>
      </trkpt>
      <trkpt lat="43.63403" lon="1.30464">
        <ele>171</ele>
        <time>2018-05-02T17:46:40.000Z</time>
      </trkpt>
      <trkpt lat="43.63405" lon="1.3046">
        <ele>172</ele>
        <time>2018-05-02T17:46:42.000Z</time>
      </trkpt>
      <trkpt lat="43.63407" lon="1.30458">
        <ele>172</ele>
        <time>2018-05-02T17:46:44.000Z</time>
      </trkpt>
      <trkpt lat="43.63409" lon="1.30455">
        <ele>172</ele>
        <time>2018-05-02T17:46:46.000Z</time>
      </trkpt>
      <trkpt lat="43.6341" lon="1.30453">
        <ele>172</ele>
        <time>2018-05-02T17:46:48.000Z</time>
      </trkpt>
      <trkpt lat="43.63411" lon="1.3045">
        <ele>173</ele>
        <time>2018-05-02T17:46:50.000Z</time>
      </trkpt>
      <trkpt lat="43.63414" lon="1.30446">
        <ele>173</ele>
        <time>2018-05-02T17:46:52.000Z</time>
      </trkpt>
      <trkpt lat="43.63416" lon="1.30443">
        <ele>174</ele>
        <time>2018-05-02T17:46:54.000Z</time>
      </trkpt>
      <trkpt lat="43.63418" lon="1.30439">
        <ele>174</ele>
        <time>2018-05-02T17:46:56.000Z</time>
      </trkpt>
      <trkpt lat="43.63419" lon="1.30436">
        <ele>174</ele>
        <time>2018-05-02T17:46:58.000Z</time>
      </trkpt>
      <trkpt lat="43.63421" lon="1.30432">
        <ele>175</ele>
        <time>2018-05-02T17:47:00.000Z</time>
      </trkpt>
      <trkpt lat="43.63422" lon="1.3043">
        <ele>175</ele>
        <time>2018-05-02T17:47:02.000Z</time>
      </trkpt>
      <trkpt lat="43.63424" lon="1.30428">
        <ele>176</ele>
        <time>2018-05-02T17:47:04.000Z</time>
      </trkpt>
      <trkpt lat="43.63427" lon="1.30427">
        <ele>176</ele>
        <time>2018-05-02T17:47:06.000Z</time>
      </trkpt>
      <trkpt lat="43.63429" lon="1.30425">
        <ele>177</ele>
        <time>2018-05-02T17:47:08.000Z</time>
      </trkpt>
      <trkpt lat="43.63431" lon="1.30423">
        <ele>177</ele>
        <time>2018-05-02T17:47:10.000Z</time>
      </trkpt>
      <trkpt lat="43.63434" lon="1.3042">
        <ele>178</ele>
        <time>2018-05-02T17:47:12.000Z</time>
      </trkpt>
      <trkpt lat="43.63436" lon="1.30417">
        <ele>179</ele>
        <time>2018-05-02T17:47:14.000Z</time>
      </trkpt>
      <trkpt lat="43.63438" lon="1.30415">
        <ele>179</ele>
        <time>2018-05-02T17:47:16.000Z</time>
      </trkpt>
      <trkpt lat="43.63442" lon="1.30412">
        <ele>179</ele>
        <time>2018-05-02T17:47:18.000Z</time>
      </trkpt>
      <trkpt lat="43.63444" lon="1.3041">
        <ele>179</ele>
        <time>2018-05-02T17:47:20.000Z</time>
      </trkpt>
      <trkpt lat="43.63446" lon="1.30407">
        <ele>179</ele>
        <time>2018-05-02T17:47:22.000Z</time>
      </trkpt>
      <trkpt lat="43.63448" lon="1.30404">
        <ele>179</ele>
        <time>2018-05-02T17:47:24.000Z</time>
      </trkpt>
      <trkpt lat="43.6345" lon="1.30401">
        <ele>179</ele>
        <time>2018-05-02T17:47:26.000Z</time>
      </trkpt>
      <trkpt lat="43.63451" lon="1.30398">
        <ele>179</ele>
        <time>2018-05-02T17:47:28.000Z</time>
      </trkpt>
      <trkpt lat="43.63453" lon="1.30395">
        <ele>179</ele>
        <time>2018-05-02T17:47:30.000Z</time>
      </trkpt>
      <trkpt lat="43.63454" lon="1.30392">
        <ele>180</ele>
        <time>2018-05-02T17:47:32.000Z</time>
      </trkpt>
      <trkpt lat="43.63455" lon="1.3039">
        <ele>180</ele>
        <time>2018-05-02T17:47:34.000Z</time>
      </trkpt>
      <trkpt lat="43.63456" lon="1.30387">
        <ele>180</ele>
        <time>2018-05-02T17:47:36.000Z</time>
      </trkpt>
      <trkpt lat="43.63457" lon="1.30385">
        <ele>180</ele>
        <time>2018-05-02T17:47:38.000Z</time>
      </trkpt>
      <trkpt lat="43.63459" lon="1.30382">
        <ele>180</ele>
        <time>2018-05-02T17:47:40.000Z</time>
      </trkpt>
      <trkpt lat="43.6346" lon="1.3038">
        <ele>180</ele>
        <time>2018-05-02T17:47:42.000Z</time>
      </trkpt>
      <trkpt lat="43.63461" lon="1.30378">
        <ele>180</ele>
        <time>2018-05-02T17:47:44.000Z</time>
      </trkpt>
      <trkpt lat="43.63463" lon="1.30376">
        <ele>180</ele>
        <time>2018-05-02T17:47:46.000Z</time>
      </trkpt>
      <trkpt lat="43.63463" lon="1.30374">
        <ele>180</ele>
        <time>2018-05-02T17:47:48.000Z</time>
      </trkpt>
      <trkpt lat="43.63464" lon="1.3037">
        <ele>180</ele>
        <time>2018-05-02T17:47:50.000Z</time>
      </trkpt>
      <trkpt lat="43.63465" lon="1.30367">
        <ele>180</ele>
        <time>2018-05-02T17:47:52.000Z</time>
      </trkpt>
      <trkpt lat="43.63466" lon="1.30364">
        <ele>180</ele>
        <time>2018-05-02T17:47:54.000Z</time>
      </trkpt>
      <trkpt lat="43.63466" lon="1.30362">
        <ele>181</ele>
        <time>2018-05-02T17:47:56.000Z</time>
      </trkpt>
      <trkpt lat="43.63466" lon="1.30358">
        <ele>181</ele>
        <time>2018-05-02T17:47:58.000Z</time>
      </trkpt>
      <trkpt lat="43.63466" lon="1.30355">
        <ele>181</ele>
        <time>2018-05-02T17:48:00.000Z</time>
      </trkpt>
      <trkpt lat="43.63467" lon="1.30351">
        <ele>181</ele>
        <time>2018-05-02T17:48:02.000Z</time>
      </trkpt>
      <trkpt lat="43.63467" lon="1.30346">
        <ele>181</ele>
        <time>2018-05-02T17:48:04.000Z</time>
      </trkpt>
      <trkpt lat="43.63467" lon="1.30342">
        <ele>181</ele>
        <time>2018-05-02T17:48:06.000Z</time>
      </trkpt>
      <trkpt lat="43.63467" lon="1.30338">
        <ele>181</ele>
        <time>2018-05-02T17:48:08.000Z</time>
      </trkpt>
      <trkpt lat="43.63468" lon="1.30333">
        <ele>181</ele>
        <time>2018-05-02T17:48:10.000Z</time>
      </trkpt>
      <trkpt lat="43.63468" lon="1.3033">
        <ele>181</ele>
        <time>2018-05-02T17:48:12.000Z</time>
      </trkpt>
      <trkpt lat="43.63468" lon="1.30326">
        <ele>181</ele>
        <time>2018-05-02T17:48:14.000Z</time>
      </trkpt>
      <trkpt lat="43.63469" lon="1.30322">
        <ele>181</ele>
        <time>2018-05-02T17:48:16.000Z</time>
      </trkpt>
      <trkpt lat="43.63469" lon="1.30317">
        <ele>181</ele>
        <time>2018-05-02T17:48:18.000Z</time>
      </trkpt>
      <trkpt lat="43.63469" lon="1.30312">
        <ele>181</ele>
        <time>2018-05-02T17:48:20.000Z</time>
      </trkpt>
      <trkpt lat="43.63467" lon="1.30307">
        <ele>181</ele>
        <time>2018-05-02T17:48:22.000Z</time>
      </trkpt>
      <trkpt lat="43.63466" lon="1.30301">
        <ele>182</ele>
        <time>2018-05-02T17:48:24.000Z</time>
      </trkpt>
      <trkpt lat="43.63466" lon="1.30296">
        <ele>182</ele>
        <time>2018-05-02T17:48:26.000Z</time>
      </trkpt>
      <trkpt lat="43.63465" lon="1.30291">
        <ele>182</ele>
        <time>2018-05-02T17:48:28.000Z</time>
      </trkpt>
      <trkpt lat="43.63466" lon="1.30286">
        <ele>182</ele>
        <time>2018-05-02T17:48:30.000Z</time>
      </trkpt>
      <trkpt lat="43.63468" lon="1.30282">
        <ele>182</ele>
        <time>2018-05-02T17:48:32.000Z</time>
      </trkpt>
      <trkpt lat="43.63469" lon="1.30278">
        <ele>182</ele>
        <time>2018-05-02T17:48:34.000Z</time>
      </trkpt>
      <trkpt lat="43.63471" lon="1.30274">
        <ele>182</ele>
        <time>2018-05-02T17:48:36.000Z</time>
      </trkpt>
      <trkpt lat="43.63472" lon="1.30272">
        <ele>182</ele>
        <time>2018-05-02T17:48:38.000Z</time>
      </trkpt>
      <trkpt lat="43.63472" lon="1.3027">
        <ele>182</ele>
        <time>2018-05-02T17:48:40.000Z</time>
      </trkpt>
      <trkpt lat="43.63472" lon="1.30271">
        <ele>182</ele>
        <time>2018-05-02T17:48:42.000Z</time>
      </trkpt>
      <trkpt lat="43.63471" lon="1.3027">
        <ele>182</ele>
        <time>2018-05-02T17:48:44.000Z</time>
      </trkpt>
      <trkpt lat="43.63471" lon="1.3027">
        <ele>182</ele>
        <time>2018-05-02T17:48:46.000Z</time>
      </trkpt>
      <trkpt lat="43.63473" lon="1.30269">
        <ele>182</ele>
        <time>2018-05-02T17:48:48.000Z</time>
      </trkpt>
      <trkpt lat="43.63475" lon="1.30268">
        <ele>182</ele>
        <time>2018-05-02T17:48:50.000Z</time>
      </trkpt>
      <trkpt lat="43.63476" lon="1.30267">
        <ele>182</ele>
        <time>2018-05-02T17:48:52.000Z</time>
      </trkpt>
      <trkpt lat="43.63477" lon="1.30265">
        <ele>182</ele>
        <time>2018-05-02T17:48:54.000Z</time>
      </trkpt>
      <trkpt lat="43.63477" lon="1.30263">
        <ele>182</ele>
        <time>2018-05-02T17:48:56.000Z</time>
      </trkpt>
      <trkpt lat="43.63477" lon="1.30262">
        <ele>182</ele>
        <time>2018-05-02T17:48:58.000Z</time>
      </trkpt>
      <trkpt lat="43.63477" lon="1.30261">
        <ele>182</ele>
        <time>2018-05-02T17:49:00.000Z</time>
      </trkpt>
      <trkpt lat="43.63477" lon="1.3026">
        <ele>182</ele>
        <time>2018-05-02T17:49:02.000Z</time>
      </trkpt>
      <trkpt lat="43.63477" lon="1.30259">
        <ele>182</ele>
        <time>2018-05-02T17:49:04.000Z</time>
      </trkpt>
      <trkpt lat="43.63477" lon="1.30259">
        <ele>182</ele>
        <time>2018-05-02T17:49:06.000Z</time>
      </trkpt>
      <trkpt lat="43.63477" lon="1.30259">
        <ele>182</ele>
        <time>2018-05-02T17:49:08.000Z</time>
      </trkpt>
      <trkpt lat="43.63477" lon="1.30259">
        <ele>182</ele>
        <time>2018-05-02T17:49:10.000Z</time>
      </trkpt>
      <trkpt lat="43.63478" lon="1.30259">
        <ele>182</ele>
        <time>2018-05-02T17:49:12.000Z</time>
      </trkpt>
      <trkpt lat="43.63478" lon="1.30259">
        <ele>182</ele>
        <time>2018-05-02T17:49:14.000Z</time>
      </trkpt>
      <trkpt lat="43.63478" lon="1.30259">
        <ele>182</ele>
        <time>2018-05-02T17:49:16.000Z</time>
      </trkpt>
      <trkpt lat="43.63477" lon="1.30259">
        <ele>182</ele>
        <time>2018-05-02T17:49:18.000Z</time>
      </trkpt>
      <trkpt lat="43.63477" lon="1.30259">
        <ele>182</ele>
        <time>2018-05-02T17:49:20.000Z</time>
      </trkpt>
      <trkpt lat="43.63476" lon="1.3026">
        <ele>182</ele>
        <time>2018-05-02T17:49:22.000Z</time>
      </trkpt>
      <trkpt lat="43.63476" lon="1.3026">
        <ele>182</ele>
        <time>2018-05-02T17:49:24.000Z</time>
      </trkpt>
      <trkpt lat="43.63475" lon="1.3026">
        <ele>182</ele>
        <time>2018-05-02T17:49:26.000Z</time>
      </trkpt>
      <trkpt lat="43.63477" lon="1.30258">
        <ele>182</ele>
        <time>2018-05-02T17:49:28.000Z</time>
      </trkpt>
      <trkpt lat="43.63478" lon="1.30257">
        <ele>182</ele>
        <time>2018-05-02T17:49:30.000Z</time>
      </trkpt>
      <trkpt lat="43.63478" lon="1.30257">
        <ele>182</ele>
        <time>2018-05-02T17:49:32.000Z</time>
      </trkpt>
      <trkpt lat="43.63475" lon="1.30257">
        <ele>182</ele>
        <time>2018-05-02T17:49:34.000Z</time>
      </trkpt>
      <trkpt lat="43.63474" lon="1.30259">
        <ele>182</ele>
        <time>2018-05-02T17:49:36.000Z</time>
      </trkpt>
      <trkpt lat="43.63474" lon="1.3026">
        <ele>182</ele>
        <time>2018-05-02T17:49:38.000Z</time>
      </trkpt>
      <trkpt lat="43.63474" lon="1.3026">
        <ele>182</ele>
        <time>2018-05-02T17:49:40.000Z</time>
      </trkpt>
      <trkpt lat="43.63473" lon="1.30261">
        <ele>182</ele>
        <time>2018-05-02T17:49:42.000Z</time>
      </trkpt>
      <trkpt lat="43.63472" lon="1.30262">
        <ele>182</ele>
        <time>2018-05-02T17:49:44.000Z</time>
      </trkpt>
      <trkpt lat="43.63471" lon="1.30265">
        <ele>182</ele>
        <time>2018-05-02T17:49:46.000Z</time>
      </trkpt>
      <trkpt lat="43.6347" lon="1.30269">
        <ele>182</ele>
        <time>2018-05-02T17:49:48.000Z</time>
      </trkpt>
      <trkpt lat="43.63469" lon="1.30272">
        <ele>182</ele>
        <time>2018-05-02T17:49:50.000Z</time>
      </trkpt>
      <trkpt lat="43.63468" lon="1.30275">
        <ele>182</ele>
        <time>2018-05-02T17:49:52.000Z</time>
      </trkpt>
      <trkpt lat="43.63468" lon="1.30279">
        <ele>182</ele>
        <time>2018-05-02T17:49:54.000Z</time>
      </trkpt>
      <trkpt lat="43.63468" lon="1.30282">
        <ele>182</ele>
        <time>2018-05-02T17:49:56.000Z</time>
      </trkpt>
      <trkpt lat="43.63468" lon="1.30286">
        <ele>182</ele>
        <time>2018-05-02T17:49:58.000Z</time>
      </trkpt>
      <trkpt lat="43.63469" lon="1.3029">
        <ele>182</ele>
        <time>2018-05-02T17:50:00.000Z</time>
      </trkpt>
      <trkpt lat="43.63469" lon="1.30294">
        <ele>182</ele>
        <time>2018-05-02T17:50:02.000Z</time>
      </trkpt>
      <trkpt lat="43.63469" lon="1.30299">
        <ele>182</ele>
        <time>2018-05-02T17:50:04.000Z</time>
      </trkpt>
      <trkpt lat="43.63469" lon="1.30305">
        <ele>182</ele>
        <time>2018-05-02T17:50:06.000Z</time>
      </trkpt>
      <trkpt lat="43.6347" lon="1.30309">
        <ele>181</ele>
        <time>2018-05-02T17:50:08.000Z</time>
      </trkpt>
      <trkpt lat="43.6347" lon="1.30313">
        <ele>181</ele>
        <time>2018-05-02T17:50:10.000Z</time>
      </trkpt>
      <trkpt lat="43.6347" lon="1.30317">
        <ele>181</ele>
        <time>2018-05-02T17:50:12.000Z</time>
      </trkpt>
      <trkpt lat="43.6347" lon="1.30321">
        <ele>181</ele>
        <time>2018-05-02T17:50:14.000Z</time>
      </trkpt>
      <trkpt lat="43.6347" lon="1.30326">
        <ele>181</ele>
        <time>2018-05-02T17:50:16.000Z</time>
      </trkpt>
      <trkpt lat="43.63471" lon="1.3033">
        <ele>181</ele>
        <time>2018-05-02T17:50:18.000Z</time>
      </trkpt>
      <trkpt lat="43.6347" lon="1.30335">
        <ele>181</ele>
        <time>2018-05-02T17:50:20.000Z</time>
      </trkpt>
      <trkpt lat="43.6347" lon="1.30339">
        <ele>181</ele>
        <time>2018-05-02T17:50:22.000Z</time>
      </trkpt>
      <trkpt lat="43.6347" lon="1.30344">
        <ele>181</ele>
        <time>2018-05-02T17:50:24.000Z</time>
      </trkpt>
      <trkpt lat="43.63469" lon="1.30347">
        <ele>181</ele>
        <time>2018-05-02T17:50:26.000Z</time>
      </trkpt>
      <trkpt lat="43.63469" lon="1.30351">
        <ele>181</ele>
        <time>2018-05-02T17:50:28.000Z</time>
      </trkpt>
      <trkpt lat="43.6347" lon="1.30355">
        <ele>181</ele>
        <time>2018-05-02T17:50:30.000Z</time>
      </trkpt>
      <trkpt lat="43.63469" lon="1.30359">
        <ele>181</ele>
        <time>2018-05-02T17:50:32.000Z</time>
      </trkpt>
      <trkpt lat="43.63469" lon="1.30361">
        <ele>181</ele>
        <time>2018-05-02T17:50:34.000Z</time>
      </trkpt>
      <trkpt lat="43.63467" lon="1.30364">
        <ele>181</ele>
        <time>2018-05-02T17:50:36.000Z</time>
      </trkpt>
      <trkpt lat="43.63466" lon="1.30368">
        <ele>180</ele>
        <time>2018-05-02T17:50:38.000Z</time>
      </trkpt>
      <trkpt lat="43.63466" lon="1.30372">
        <ele>180</ele>
        <time>2018-05-02T17:50:40.000Z</time>
      </trkpt>
      <trkpt lat="43.63466" lon="1.30377">
        <ele>180</ele>
        <time>2018-05-02T17:50:42.000Z</time>
      </trkpt>
      <trkpt lat="43.63465" lon="1.30381">
        <ele>180</ele>
        <time>2018-05-02T17:50:44.000Z</time>
      </trkpt>
      <trkpt lat="43.63464" lon="1.30385">
        <ele>180</ele>
        <time>2018-05-02T17:50:46.000Z</time>
      </trkpt>
      <trkpt lat="43.63462" lon="1.30389">
        <ele>180</ele>
        <time>2018-05-02T17:50:48.000Z</time>
      </trkpt>
      <trkpt lat="43.6346" lon="1.30394">
        <ele>180</ele>
        <time>2018-05-02T17:50:50.000Z</time>
      </trkpt>
      <trkpt lat="43.63458" lon="1.30398">
        <ele>180</ele>
        <time>2018-05-02T17:50:52.000Z</time>
      </trkpt>
      <trkpt lat="43.63455" lon="1.30402">
        <ele>179</ele>
        <time>2018-05-02T17:50:54.000Z</time>
      </trkpt>
      <trkpt lat="43.63453" lon="1.30406">
        <ele>179</ele>
        <time>2018-05-02T17:50:56.000Z</time>
      </trkpt>
      <trkpt lat="43.63451" lon="1.30409">
        <ele>179</ele>
        <time>2018-05-02T17:50:58.000Z</time>
      </trkpt>
      <trkpt lat="43.63447" lon="1.30413">
        <ele>179</ele>
        <time>2018-05-02T17:51:00.000Z</time>
      </trkpt>
      <trkpt lat="43.63444" lon="1.30416">
        <ele>179</ele>
        <time>2018-05-02T17:51:02.000Z</time>
      </trkpt>
      <trkpt lat="43.63441" lon="1.30419">
        <ele>179</ele>
        <time>2018-05-02T17:51:04.000Z</time>
      </trkpt>
      <trkpt lat="43.63438" lon="1.30422">
        <ele>179</ele>
        <time>2018-05-02T17:51:06.000Z</time>
      </trkpt>
      <trkpt lat="43.63435" lon="1.30424">
        <ele>178</ele>
        <time>2018-05-02T17:51:08.000Z</time>
      </trkpt>
      <trkpt lat="43.63432" lon="1.30427">
        <ele>178</ele>
        <time>2018-05-02T17:51:10.000Z</time>
      </trkpt>
      <trkpt lat="43.6343" lon="1.30429">
        <ele>177</ele>
        <time>2018-05-02T17:51:12.000Z</time>
      </trkpt>
      <trkpt lat="43.63428" lon="1.30433">
        <ele>176</ele>
        <time>2018-05-02T17:51:14.000Z</time>
      </trkpt>
      <trkpt lat="43.63426" lon="1.30436">
        <ele>176</ele>
        <time>2018-05-02T17:51:16.000Z</time>
      </trkpt>
      <trkpt lat="43.63423" lon="1.30439">
        <ele>175</ele>
        <time>2018-05-02T17:51:18.000Z</time>
      </trkpt>
      <trkpt lat="43.6342" lon="1.30443">
        <ele>175</ele>
        <time>2018-05-02T17:51:20.000Z</time>
      </trkpt>
      <trkpt lat="43.63418" lon="1.30446">
        <ele>174</ele>
        <time>2018-05-02T17:51:22.000Z</time>
      </trkpt>
      <trkpt lat="43.63415" lon="1.3045">
        <ele>173</ele>
        <time>2018-05-02T17:51:24.000Z</time>
      </trkpt>
      <trkpt lat="43.63414" lon="1.30453">
        <ele>173</ele>
        <time>2018-05-02T17:51:26.000Z</time>
      </trkpt>
      <trkpt lat="43.63411" lon="1.30457">
        <ele>172</ele>
        <time>2018-05-02T17:51:28.000Z</time>
      </trkpt>
      <trkpt lat="43.63409" lon="1.30462">
        <ele>172</ele>
        <time>2018-05-02T17:51:30.000Z</time>
      </trkpt>
      <trkpt lat="43.63408" lon="1.30465">
        <ele>172</ele>
        <time>2018-05-02T17:51:32.000Z</time>
      </trkpt>
      <trkpt lat="43.63407" lon="1.30469">
        <ele>172</ele>
        <time>2018-05-02T17:51:34.000Z</time>
      </trkpt>
      <trkpt lat="43.63406" lon="1.30474">
        <ele>172</ele>
        <time>2018-05-02T17:51:36.000Z</time>
      </trkpt>
      <trkpt lat="43.63404" lon="1.30477">
        <ele>172</ele>
        <time>2018-05-02T17:51:38.000Z</time>
      </trkpt>
      <trkpt lat="43.63401" lon="1.3048">
        <ele>172</ele>
        <time>2018-05-02T17:51:40.000Z</time>
      </trkpt>
      <trkpt lat="43.634" lon="1.30483">
        <ele>171</ele>
        <time>2018-05-02T17:51:42.000Z</time>
      </trkpt>
      <trkpt lat="43.63398" lon="1.30486">
        <ele>171</ele>
        <time>2018-05-02T17:51:44.000Z</time>
      </trkpt>
      <trkpt lat="43.63397" lon="1.30489">
        <ele>171</ele>
        <time>2018-05-02T17:51:46.000Z</time>
      </trkpt>
      <trkpt lat="43.63395" lon="1.30492">
        <ele>170</ele>
        <time>2018-05-02T17:51:48.000Z</time>
      </trkpt>
      <trkpt lat="43.63393" lon="1.30496">
        <ele>170</ele>
        <time>2018-05-02T17:51:50.000Z</time>
      </trkpt>
      <trkpt lat="43.63392" lon="1.305">
        <ele>169</ele>
        <time>2018-05-02T17:51:52.000Z</time>
      </trkpt>
      <trkpt lat="43.63391" lon="1.30503">
        <ele>169</ele>
        <time>2018-05-02T17:51:54.000Z</time>
      </trkpt>
      <trkpt lat="43.6339" lon="1.30507">
        <ele>169</ele>
        <time>2018-05-02T17:51:56.000Z</time>
      </trkpt>
      <trkpt lat="43.63388" lon="1.3051">
        <ele>168</ele>
        <time>2018-05-02T17:51:58.000Z</time>
      </trkpt>
      <trkpt lat="43.63386" lon="1.30514">
        <ele>168</ele>
        <time>2018-05-02T17:52:00.000Z</time>
      </trkpt>
      <trkpt lat="43.63383" lon="1.30518">
        <ele>167</ele>
        <time>2018-05-02T17:52:02.000Z</time>
      </trkpt>
      <trkpt lat="43.6338" lon="1.3052">
        <ele>167</ele>
        <time>2018-05-02T17:52:04.000Z</time>
      </trkpt>
      <trkpt lat="43.63377" lon="1.30522">
        <ele>167</ele>
        <time>2018-05-02T17:52:06.000Z</time>
      </trkpt>
      <trkpt lat="43.63374" lon="1.30525">
        <ele>166</ele>
        <time>2018-05-02T17:52:08.000Z</time>
      </trkpt>
      <trkpt lat="43.6337" lon="1.30528">
        <ele>166</ele>
        <time>2018-05-02T17:52:10.000Z</time>
      </trkpt>
      <trkpt lat="43.63368" lon="1.30532">
        <ele>166</ele>
        <time>2018-05-02T17:52:12.000Z</time>
      </trkpt>
      <trkpt lat="43.63364" lon="1.30535">
        <ele>165</ele>
        <time>2018-05-02T17:52:14.000Z</time>
      </trkpt>
      <trkpt lat="43.63361" lon="1.30538">
        <ele>165</ele>
        <time>2018-05-02T17:52:16.000Z</time>
      </trkpt>
      <trkpt lat="43.63358" lon="1.30541">
        <ele>165</ele>
        <time>2018-05-02T17:52:18.000Z</time>
      </trkpt>
      <trkpt lat="43.63355" lon="1.30543">
        <ele>164</ele>
        <time>2018-05-02T17:52:20.000Z</time>
      </trkpt>
      <trkpt lat="43.63352" lon="1.30546">
        <ele>164</ele>
        <time>2018-05-02T17:52:22.000Z</time>
      </trkpt>
      <trkpt lat="43.63349" lon="1.30547">
        <ele>163</ele>
        <time>2018-05-02T17:52:24.000Z</time>
      </trkpt>
      <trkpt lat="43.63346" lon="1.30549">
        <ele>163</ele>
        <time>2018-05-02T17:52:26.000Z</time>
      </trkpt>
      <trkpt lat="43.63343" lon="1.30551">
        <ele>162</ele>
        <time>2018-05-02T17:52:28.000Z</time>
      </trkpt>
      <trkpt lat="43.6334" lon="1.30553">
        <ele>162</ele>
        <time>2018-05-02T17:52:30.000Z</time>
      </trkpt>
      <trkpt lat="43.63337" lon="1.30554">
        <ele>162</ele>
        <time>2018-05-02T17:52:32.000Z</time>
      </trkpt>
      <trkpt lat="43.63335" lon="1.30557">
        <ele>162</ele>
        <time>2018-05-02T17:52:34.000Z</time>
      </trkpt>
      <trkpt lat="43.63333" lon="1.30561">
        <ele>162</ele>
        <time>2018-05-02T17:52:36.000Z</time>
      </trkpt>
      <trkpt lat="43.63332" lon="1.30565">
        <ele>162</ele>
        <time>2018-05-02T17:52:38.000Z</time>
      </trkpt>
      <trkpt lat="43.6333" lon="1.30568">
        <ele>161</ele>
        <time>2018-05-02T17:52:40.000Z</time>
      </trkpt>
      <trkpt lat="43.63329" lon="1.30571">
        <ele>161</ele>
        <time>2018-05-02T17:52:42.000Z</time>
      </trkpt>
      <trkpt lat="43.63328" lon="1.30575">
        <ele>161</ele>
        <time>2018-05-02T17:52:44.000Z</time>
      </trkpt>
      <trkpt lat="43.63326" lon="1.30579">
        <ele>160</ele>
        <time>2018-05-02T17:52:46.000Z</time>
      </trkpt>
      <trkpt lat="43.63327" lon="1.30583">
        <ele>160</ele>
        <time>2018-05-02T17:52:48.000Z</time>
      </trkpt>
      <trkpt lat="43.63327" lon="1.30587">
        <ele>160</ele>
        <time>2018-05-02T17:52:50.000Z</time>
      </trkpt>
      <trkpt lat="43.63326" lon="1.30591">
        <ele>160</ele>
        <time>2018-05-02T17:52:52.000Z</time>
      </trkpt>
      <trkpt lat="43.63325" lon="1.30595">
        <ele>159</ele>
        <time>2018-05-02T17:52:54.000Z</time>
      </trkpt>
      <trkpt lat="43.63325" lon="1.30599">
        <ele>159</ele>
        <time>2018-05-02T17:52:56.000Z</time>
      </trkpt>
      <trkpt lat="43.63323" lon="1.30602">
        <ele>158</ele>
        <time>2018-05-02T17:52:58.000Z</time>
      </trkpt>
      <trkpt lat="43.63321" lon="1.30606">
        <ele>158</ele>
        <time>2018-05-02T17:53:00.000Z</time>
      </trkpt>
      <trkpt lat="43.6332" lon="1.3061">
        <ele>158</ele>
        <time>2018-05-02T17:53:02.000Z</time>
      </trkpt>
      <trkpt lat="43.63319" lon="1.30614">
        <ele>157</ele>
        <time>2018-05-02T17:53:04.000Z</time>
      </trkpt>
      <trkpt lat="43.63318" lon="1.30617">
        <ele>157</ele>
        <time>2018-05-02T17:53:06.000Z</time>
      </trkpt>
      <trkpt lat="43.63316" lon="1.30621">
        <ele>157</ele>
        <time>2018-05-02T17:53:08.000Z</time>
      </trkpt>
      <trkpt lat="43.63315" lon="1.30625">
        <ele>157</ele>
        <time>2018-05-02T17:53:10.000Z</time>
      </trkpt>
      <trkpt lat="43.63314" lon="1.30629">
        <ele>157</ele>
        <time>2018-05-02T17:53:12.000Z</time>
      </trkpt>
      <trkpt lat="43.63314" lon="1.30633">
        <ele>157</ele>
        <time>2018-05-02T17:53:14.000Z</time>
      </trkpt>
      <trkpt lat="43.63313" lon="1.30638">
        <ele>156</ele>
        <time>2018-05-02T17:53:16.000Z</time>
      </trkpt>
      <trkpt lat="43.63312" lon="1.30642">
        <ele>156</ele>
        <time>2018-05-02T17:53:18.000Z</time>
      </trkpt>
      <trkpt lat="43.63311" lon="1.30647">
        <ele>156</ele>
        <time>2018-05-02T17:53:20.000Z</time>
      </trkpt>
      <trkpt lat="43.63312" lon="1.30651">
        <ele>156</ele>
        <time>2018-05-02T17:53:22.000Z</time>
      </trkpt>
      <trkpt lat="43.63312" lon="1.30654">
        <ele>155</ele>
        <time>2018-05-02T17:53:24.000Z</time>
      </trkpt>
      <trkpt lat="43.63312" lon="1.30658">
        <ele>155</ele>
        <time>2018-05-02T17:53:26.000Z</time>
      </trkpt>
      <trkpt lat="43.63312" lon="1.30661">
        <ele>155</ele>
        <time>2018-05-02T17:53:28.000Z</time>
      </trkpt>
      <trkpt lat="43.63311" lon="1.30665">
        <ele>154</ele>
        <time>2018-05-02T17:53:30.000Z</time>
      </trkpt>
      <trkpt lat="43.6331" lon="1.30668">
        <ele>154</ele>
        <time>2018-05-02T17:53:32.000Z</time>
      </trkpt>
      <trkpt lat="43.63308" lon="1.30673">
        <ele>153</ele>
        <time>2018-05-02T17:53:34.000Z</time>
      </trkpt>
      <trkpt lat="43.63307" lon="1.30679">
        <ele>153</ele>
        <time>2018-05-02T17:53:36.000Z</time>
      </trkpt>
      <trkpt lat="43.63305" lon="1.30684">
        <ele>152</ele>
        <time>2018-05-02T17:53:38.000Z</time>
      </trkpt>
      <trkpt lat="43.63304" lon="1.30689">
        <ele>152</ele>
        <time>2018-05-02T17:53:40.000Z</time>
      </trkpt>
      <trkpt lat="43.63302" lon="1.30692">
        <ele>152</ele>
        <time>2018-05-02T17:53:42.000Z</time>
      </trkpt>
      <trkpt lat="43.633" lon="1.30694">
        <ele>152</ele>
        <time>2018-05-02T17:53:44.000Z</time>
      </trkpt>
      <trkpt lat="43.63299" lon="1.30696">
        <ele>152</ele>
        <time>2018-05-02T17:53:46.000Z</time>
      </trkpt>
      <trkpt lat="43.63297" lon="1.30697">
        <ele>152</ele>
        <time>2018-05-02T17:53:48.000Z</time>
      </trkpt>
      <trkpt lat="43.63297" lon="1.30695">
        <ele>152</ele>
        <time>2018-05-02T17:53:50.000Z</time>
      </trkpt>
      <trkpt lat="43.63296" lon="1.30693">
        <ele>152</ele>
        <time>2018-05-02T17:53:52.000Z</time>
      </trkpt>
      <trkpt lat="43.63294" lon="1.3069">
        <ele>152</ele>
        <time>2018-05-02T17:53:54.000Z</time>
      </trkpt>
      <trkpt lat="43.63292" lon="1.30689">
        <ele>152</ele>
        <time>2018-05-02T17:53:56.000Z</time>
      </trkpt>
      <trkpt lat="43.63291" lon="1.30688">
        <ele>152</ele>
        <time>2018-05-02T17:53:58.000Z</time>
      </trkpt>
      <trkpt lat="43.63291" lon="1.30688">
        <ele>152</ele>
        <time>2018-05-02T17:54:00.000Z</time>
      </trkpt>
      <trkpt lat="43.6329" lon="1.30687">
        <ele>152</ele>
        <time>2018-05-02T17:54:02.000Z</time>
      </trkpt>
      <trkpt lat="43.6329" lon="1.30685">
        <ele>152</ele>
        <time>2018-05-02T17:54:04.000Z</time>
      </trkpt>
      <trkpt lat="43.63288" lon="1.30682">
        <ele>152</ele>
        <time>2018-05-02T17:54:06.000Z</time>
      </trkpt>
      <trkpt lat="43.63286" lon="1.30679">
        <ele>152</ele>
        <time>2018-05-02T17:54:08.000Z</time>
      </trkpt>
      <trkpt lat="43.63284" lon="1.30675">
        <ele>152</ele>
        <time>2018-05-02T17:54:10.000Z</time>
      </trkpt>
      <trkpt lat="43.63282" lon="1.30671">
        <ele>152</ele>
        <time>2018-05-02T17:54:12.000Z</time>
      </trkpt>
      <trkpt lat="43.63281" lon="1.30668">
        <ele>152</ele>
        <time>2018-05-02T17:54:14.000Z</time>
      </trkpt>
      <trkpt lat="43.63281" lon="1.30664">
        <ele>153</ele>
        <time>2018-05-02T17:54:16.000Z</time>
      </trkpt>
      <trkpt lat="43.63281" lon="1.30661">
        <ele>153</ele>
        <time>2018-05-02T17:54:18.000Z</time>
      </trkpt>
      <trkpt lat="43.63281" lon="1.3066">
        <ele>153</ele>
        <time>2018-05-02T17:54:20.000Z</time>
      </trkpt>
      <trkpt lat="43.63281" lon="1.30657">
        <ele>153</ele>
        <time>2018-05-02T17:54:22.000Z</time>
      </trkpt>
      <trkpt lat="43.63281" lon="1.30654">
        <ele>153</ele>
        <time>2018-05-02T17:54:24.000Z</time>
      </trkpt>
      <trkpt lat="43.63282" lon="1.30651">
        <ele>154</ele>
        <time>2018-05-02T17:54:26.000Z</time>
      </trkpt>
      <trkpt lat="43.63282" lon="1.30648">
        <ele>154</ele>
        <time>2018-05-02T17:54:28.000Z</time>
      </trkpt>
      <trkpt lat="43.63282" lon="1.30644">
        <ele>154</ele>
        <time>2018-05-02T17:54:30.000Z</time>
      </trkpt>
      <trkpt lat="43.63282" lon="1.3064">
        <ele>154</ele>
        <time>2018-05-02T17:54:32.000Z</time>
      </trkpt>
      <trkpt lat="43.63282" lon="1.30639">
        <ele>154</ele>
        <time>2018-05-02T17:54:34.000Z</time>
      </trkpt>
      <trkpt lat="43.63283" lon="1.30635">
        <ele>154</ele>
        <time>2018-05-02T17:54:36.000Z</time>
      </trkpt>
      <trkpt lat="43.63284" lon="1.3063">
        <ele>154</ele>
        <time>2018-05-02T17:54:38.000Z</time>
      </trkpt>
      <trkpt lat="43.63285" lon="1.30624">
        <ele>155</ele>
        <time>2018-05-02T17:54:40.000Z</time>
      </trkpt>
      <trkpt lat="43.63286" lon="1.30619">
        <ele>155</ele>
        <time>2018-05-02T17:54:42.000Z</time>
      </trkpt>
      <trkpt lat="43.63287" lon="1.30614">
        <ele>155</ele>
        <time>2018-05-02T17:54:44.000Z</time>
      </trkpt>
      <trkpt lat="43.63288" lon="1.30609">
        <ele>155</ele>
        <time>2018-05-02T17:54:46.000Z</time>
      </trkpt>
      <trkpt lat="43.63289" lon="1.30604">
        <ele>155</ele>
        <time>2018-05-02T17:54:48.000Z</time>
      </trkpt>
      <trkpt lat="43.6329" lon="1.306">
        <ele>156</ele>
        <time>2018-05-02T17:54:50.000Z</time>
      </trkpt>
      <trkpt lat="43.63292" lon="1.30595">
        <ele>156</ele>
        <time>2018-05-02T17:54:52.000Z</time>
      </trkpt>
      <trkpt lat="43.63293" lon="1.3059">
        <ele>156</ele>
        <time>2018-05-02T17:54:54.000Z</time>
      </trkpt>
      <trkpt lat="43.63295" lon="1.30585">
        <ele>157</ele>
        <time>2018-05-02T17:54:56.000Z</time>
      </trkpt>
      <trkpt lat="43.63296" lon="1.30579">
        <ele>157</ele>
        <time>2018-05-02T17:54:58.000Z</time>
      </trkpt>
      <trkpt lat="43.63298" lon="1.30575">
        <ele>157</ele>
        <time>2018-05-02T17:55:00.000Z</time>
      </trkpt>
      <trkpt lat="43.63298" lon="1.3057">
        <ele>158</ele>
        <time>2018-05-02T17:55:02.000Z</time>
      </trkpt>
      <trkpt lat="43.63299" lon="1.30566">
        <ele>158</ele>
        <time>2018-05-02T17:55:04.000Z</time>
      </trkpt>
      <trkpt lat="43.63299" lon="1.30561">
        <ele>158</ele>
        <time>2018-05-02T17:55:06.000Z</time>
      </trkpt>
      <trkpt lat="43.63301" lon="1.30556">
        <ele>158</ele>
        <time>2018-05-02T17:55:08.000Z</time>
      </trkpt>
      <trkpt lat="43.63302" lon="1.30552">
        <ele>158</ele>
        <time>2018-05-02T17:55:10.000Z</time>
      </trkpt>
      <trkpt lat="43.63302" lon="1.30547">
        <ele>157</ele>
        <time>2018-05-02T17:55:12.000Z</time>
      </trkpt>
      <trkpt lat="43.63303" lon="1.30543">
        <ele>157</ele>
        <time>2018-05-02T17:55:14.000Z</time>
      </trkpt>
      <trkpt lat="43.63304" lon="1.30539">
        <ele>157</ele>
        <time>2018-05-02T17:55:16.000Z</time>
      </trkpt>
      <trkpt lat="43.63305" lon="1.30533">
        <ele>157</ele>
        <time>2018-05-02T17:55:18.000Z</time>
      </trkpt>
      <trkpt lat="43.63306" lon="1.30527">
        <ele>156</ele>
        <time>2018-05-02T17:55:20.000Z</time>
      </trkpt>
      <trkpt lat="43.63308" lon="1.30523">
        <ele>156</ele>
        <time>2018-05-02T17:55:22.000Z</time>
      </trkpt>
      <trkpt lat="43.63309" lon="1.30519">
        <ele>156</ele>
        <time>2018-05-02T17:55:24.000Z</time>
      </trkpt>
      <trkpt lat="43.63311" lon="1.30516">
        <ele>157</ele>
        <time>2018-05-02T17:55:26.000Z</time>
      </trkpt>
      <trkpt lat="43.63312" lon="1.30512">
        <ele>157</ele>
        <time>2018-05-02T17:55:28.000Z</time>
      </trkpt>
      <trkpt lat="43.63313" lon="1.30506">
        <ele>157</ele>
        <time>2018-05-02T17:55:30.000Z</time>
      </trkpt>
      <trkpt lat="43.63314" lon="1.30502">
        <ele>157</ele>
        <time>2018-05-02T17:55:32.000Z</time>
      </trkpt>
      <trkpt lat="43.63315" lon="1.30497">
        <ele>157</ele>
        <time>2018-05-02T17:55:34.000Z</time>
      </trkpt>
      <trkpt lat="43.63316" lon="1.30493">
        <ele>157</ele>
        <time>2018-05-02T17:55:36.000Z</time>
      </trkpt>
      <trkpt lat="43.63318" lon="1.3049">
        <ele>158</ele>
        <time>2018-05-02T17:55:38.000Z</time>
      </trkpt>
      <trkpt lat="43.6332" lon="1.30486">
        <ele>158</ele>
        <time>2018-05-02T17:55:40.000Z</time>
      </trkpt>
      <trkpt lat="43.63322" lon="1.30482">
        <ele>159</ele>
        <time>2018-05-02T17:55:42.000Z</time>
      </trkpt>
      <trkpt lat="43.63324" lon="1.30479">
        <ele>159</ele>
        <time>2018-05-02T17:55:44.000Z</time>
      </trkpt>
      <trkpt lat="43.63325" lon="1.30476">
        <ele>159</ele>
        <time>2018-05-02T17:55:46.000Z</time>
      </trkpt>
      <trkpt lat="43.63326" lon="1.30472">
        <ele>159</ele>
        <time>2018-05-02T17:55:48.000Z</time>
      </trkpt>
      <trkpt lat="43.63327" lon="1.30469">
        <ele>160</ele>
        <time>2018-05-02T17:55:50.000Z</time>
      </trkpt>
      <trkpt lat="43.63327" lon="1.30466">
        <ele>160</ele>
        <time>2018-05-02T17:55:52.000Z</time>
      </trkpt>
      <trkpt lat="43.63327" lon="1.30463">
        <ele>160</ele>
        <time>2018-05-02T17:55:54.000Z</time>
      </trkpt>
      <trkpt lat="43.63327" lon="1.3046">
        <ele>160</ele>
        <time>2018-05-02T17:55:56.000Z</time>
      </trkpt>
      <trkpt lat="43.63328" lon="1.30455">
        <ele>160</ele>
        <time>2018-05-02T17:55:58.000Z</time>
      </trkpt>
      <trkpt lat="43.6333" lon="1.30452">
        <ele>160</ele>
        <time>2018-05-02T17:56:00.000Z</time>
      </trkpt>
      <trkpt lat="43.6333" lon="1.30447">
        <ele>160</ele>
        <time>2018-05-02T17:56:02.000Z</time>
      </trkpt>
      <trkpt lat="43.6333" lon="1.30443">
        <ele>160</ele>
        <time>2018-05-02T17:56:04.000Z</time>
      </trkpt>
      <trkpt lat="43.63329" lon="1.30438">
        <ele>159</ele>
        <time>2018-05-02T17:56:06.000Z</time>
      </trkpt>
      <trkpt lat="43.63329" lon="1.30433">
        <ele>159</ele>
        <time>2018-05-02T17:56:08.000Z</time>
      </trkpt>
      <trkpt lat="43.63329" lon="1.30427">
        <ele>159</ele>
        <time>2018-05-02T17:56:10.000Z</time>
      </trkpt>
      <trkpt lat="43.63329" lon="1.30421">
        <ele>159</ele>
        <time>2018-05-02T17:56:12.000Z</time>
      </trkpt>
      <trkpt lat="43.63329" lon="1.30417">
        <ele>159</ele>
        <time>2018-05-02T17:56:14.000Z</time>
      </trkpt>
      <trkpt lat="43.63329" lon="1.30413">
        <ele>159</ele>
        <time>2018-05-02T17:56:16.000Z</time>
      </trkpt>
      <trkpt lat="43.63329" lon="1.30409">
        <ele>158</ele>
        <time>2018-05-02T17:56:18.000Z</time>
      </trkpt>
      <trkpt lat="43.63329" lon="1.30404">
        <ele>158</ele>
        <time>2018-05-02T17:56:20.000Z</time>
      </trkpt>
      <trkpt lat="43.63329" lon="1.30399">
        <ele>158</ele>
        <time>2018-05-02T17:56:22.000Z</time>
      </trkpt>
      <trkpt lat="43.63329" lon="1.30397">
        <ele>158</ele>
        <time>2018-05-02T17:56:24.000Z</time>
      </trkpt>
      <trkpt lat="43.63329" lon="1.30393">
        <ele>158</ele>
        <time>2018-05-02T17:56:26.000Z</time>
      </trkpt>
      <trkpt lat="43.63328" lon="1.30389">
        <ele>158</ele>
        <time>2018-05-02T17:56:28.000Z</time>
      </trkpt>
      <trkpt lat="43.63326" lon="1.30385">
        <ele>158</ele>
        <time>2018-05-02T17:56:30.000Z</time>
      </trkpt>
      <trkpt lat="43.63324" lon="1.30379">
        <ele>158</ele>
        <time>2018-05-02T17:56:32.000Z</time>
      </trkpt>
      <trkpt lat="43.63322" lon="1.30373">
        <ele>157</ele>
        <time>2018-05-02T17:56:34.000Z</time>
      </trkpt>
      <trkpt lat="43.63321" lon="1.30368">
        <ele>157</ele>
        <time>2018-05-02T17:56:36.000Z</time>
      </trkpt>
      <trkpt lat="43.6332" lon="1.30361">
        <ele>157</ele>
        <time>2018-05-02T17:56:38.000Z</time>
      </trkpt>
      <trkpt lat="43.63318" lon="1.30357">
        <ele>157</ele>
        <time>2018-05-02T17:56:40.000Z</time>
      </trkpt>
      <trkpt lat="43.63317" lon="1.30353">
        <ele>157</ele>
        <time>2018-05-02T17:56:42.000Z</time>
      </trkpt>
      <trkpt lat="43.63315" lon="1.30349">
        <ele>157</ele>
        <time>2018-05-02T17:56:44.000Z</time>
      </trkpt>
      <trkpt lat="43.63314" lon="1.30345">
        <ele>157</ele>
        <time>2018-05-02T17:56:46.000Z</time>
      </trkpt>
      <trkpt lat="43.63312" lon="1.3034">
        <ele>157</ele>
        <time>2018-05-02T17:56:48.000Z</time>
      </trkpt>
      <trkpt lat="43.6331" lon="1.30337">
        <ele>156</ele>
        <time>2018-05-02T17:56:50.000Z</time>
      </trkpt>
      <trkpt lat="43.63307" lon="1.30332">
        <ele>156</ele>
        <time>2018-05-02T17:56:52.000Z</time>
      </trkpt>
      <trkpt lat="43.63305" lon="1.30328">
        <ele>156</ele>
        <time>2018-05-02T17:56:54.000Z</time>
      </trkpt>
      <trkpt lat="43.63303" lon="1.30325">
        <ele>156</ele>
        <time>2018-05-02T17:56:56.000Z</time>
      </trkpt>
      <trkpt lat="43.63301" lon="1.30321">
        <ele>155</ele>
        <time>2018-05-02T17:56:58.000Z</time>
      </trkpt>
      <trkpt lat="43.63299" lon="1.30316">
        <ele>155</ele>
        <time>2018-05-02T17:57:00.000Z</time>
      </trkpt>
      <trkpt lat="43.63297" lon="1.30312">
        <ele>155</ele>
        <time>2018-05-02T17:57:02.000Z</time>
      </trkpt>
      <trkpt lat="43.63296" lon="1.30306">
        <ele>155</ele>
        <time>2018-05-02T17:57:04.000Z</time>
      </trkpt>
      <trkpt lat="43.63294" lon="1.30302">
        <ele>155</ele>
        <time>2018-05-02T17:57:06.000Z</time>
      </trkpt>
      <trkpt lat="43.63293" lon="1.30297">
        <ele>155</ele>
        <time>2018-05-02T17:57:08.000Z</time>
      </trkpt>
      <trkpt lat="43.63291" lon="1.30292">
        <ele>155</ele>
        <time>2018-05-02T17:57:10.000Z</time>
      </trkpt>
      <trkpt lat="43.63289" lon="1.30288">
        <ele>155</ele>
        <time>2018-05-02T17:57:12.000Z</time>
      </trkpt>
      <trkpt lat="43.63287" lon="1.30284">
        <ele>155</ele>
        <time>2018-05-02T17:57:14.000Z</time>
      </trkpt>
      <trkpt lat="43.63285" lon="1.3028">
        <ele>155</ele>
        <time>2018-05-02T17:57:16.000Z</time>
      </trkpt>
      <trkpt lat="43.63283" lon="1.30277">
        <ele>155</ele>
        <time>2018-05-02T17:57:18.000Z</time>
      </trkpt>
      <trkpt lat="43.6328" lon="1.30274">
        <ele>155</ele>
        <time>2018-05-02T17:57:20.000Z</time>
      </trkpt>
      <trkpt lat="43.63277" lon="1.3027">
        <ele>154</ele>
        <time>2018-05-02T17:57:22.000Z</time>
      </trkpt>
      <trkpt lat="43.63275" lon="1.30267">
        <ele>154</ele>
        <time>2018-05-02T17:57:24.000Z</time>
      </trkpt>
      <trkpt lat="43.63272" lon="1.30263">
        <ele>154</ele>
        <time>2018-05-02T17:57:26.000Z</time>
      </trkpt>
      <trkpt lat="43.6327" lon="1.3026">
        <ele>154</ele>
        <time>2018-05-02T17:57:28.000Z</time>
      </trkpt>
      <trkpt lat="43.63268" lon="1.30256">
        <ele>154</ele>
        <time>2018-05-02T17:57:30.000Z</time>
      </trkpt>
      <trkpt lat="43.63265" lon="1.30252">
        <ele>154</ele>
        <time>2018-05-02T17:57:32.000Z</time>
      </trkpt>
      <trkpt lat="43.63263" lon="1.30248">
        <ele>154</ele>
        <time>2018-05-02T17:57:34.000Z</time>
      </trkpt>
      <trkpt lat="43.6326" lon="1.30245">
        <ele>154</ele>
        <time>2018-05-02T17:57:36.000Z</time>
      </trkpt>
      <trkpt lat="43.63258" lon="1.30242">
        <ele>154</ele>
        <time>2018-05-02T17:57:38.000Z</time>
      </trkpt>
      <trkpt lat="43.63255" lon="1.30239">
        <ele>154</ele>
        <time>2018-05-02T17:57:40.000Z</time>
      </trkpt>
      <trkpt lat="43.63252" lon="1.30237">
        <ele>154</ele>
        <time>2018-05-02T17:57:42.000Z</time>
      </trkpt>
      <trkpt lat="43.63249" lon="1.30236">
        <ele>154</ele>
        <time>2018-05-02T17:57:44.000Z</time>
      </trkpt>
      <trkpt lat="43.63245" lon="1.30235">
        <ele>153</ele>
        <time>2018-05-02T17:57:46.000Z</time>
      </trkpt>
      <trkpt lat="43.63242" lon="1.30232">
        <ele>153</ele>
        <time>2018-05-02T17:57:48.000Z</time>
      </trkpt>
      <trkpt lat="43.63238" lon="1.3023">
        <ele>153</ele>
        <time>2018-05-02T17:57:50.000Z</time>
      </trkpt>
      <trkpt lat="43.63235" lon="1.30227">
        <ele>153</ele>
        <time>2018-05-02T17:57:52.000Z</time>
      </trkpt>
      <trkpt lat="43.63232" lon="1.30226">
        <ele>153</ele>
        <time>2018-05-02T17:57:54.000Z</time>
      </trkpt>
      <trkpt lat="43.63228" lon="1.30224">
        <ele>153</ele>
        <time>2018-05-02T17:57:56.000Z</time>
      </trkpt>
      <trkpt lat="43.63225" lon="1.30222">
        <ele>153</ele>
        <time>2018-05-02T17:57:58.000Z</time>
      </trkpt>
      <trkpt lat="43.63222" lon="1.30221">
        <ele>153</ele>
        <time>2018-05-02T17:58:00.000Z</time>
      </trkpt>
      <trkpt lat="43.63219" lon="1.3022">
        <ele>153</ele>
        <time>2018-05-02T17:58:02.000Z</time>
      </trkpt>
      <trkpt lat="43.63216" lon="1.30217">
        <ele>153</ele>
        <time>2018-05-02T17:58:04.000Z</time>
      </trkpt>
      <trkpt lat="43.63213" lon="1.30215">
        <ele>153</ele>
        <time>2018-05-02T17:58:06.000Z</time>
      </trkpt>
      <trkpt lat="43.6321" lon="1.30212">
        <ele>153</ele>
        <time>2018-05-02T17:58:08.000Z</time>
      </trkpt>
      <trkpt lat="43.63207" lon="1.30209">
        <ele>153</ele>
        <time>2018-05-02T17:58:10.000Z</time>
      </trkpt>
      <trkpt lat="43.63204" lon="1.30206">
        <ele>153</ele>
        <time>2018-05-02T17:58:12.000Z</time>
      </trkpt>
      <trkpt lat="43.63201" lon="1.30203">
        <ele>153</ele>
        <time>2018-05-02T17:58:14.000Z</time>
      </trkpt>
      <trkpt lat="43.63197" lon="1.30201">
        <ele>154</ele>
        <time>2018-05-02T17:58:16.000Z</time>
      </trkpt>
      <trkpt lat="43.63194" lon="1.30198">
        <ele>154</ele>
        <time>2018-05-02T17:58:18.000Z</time>
      </trkpt>
      <trkpt lat="43.63191" lon="1.30196">
        <ele>154</ele>
        <time>2018-05-02T17:58:20.000Z</time>
      </trkpt>
      <trkpt lat="43.63187" lon="1.30193">
        <ele>154</ele>
        <time>2018-05-02T17:58:22.000Z</time>
      </trkpt>
      <trkpt lat="43.63184" lon="1.3019">
        <ele>154</ele>
        <time>2018-05-02T17:58:24.000Z</time>
      </trkpt>
      <trkpt lat="43.63181" lon="1.30186">
        <ele>154</ele>
        <time>2018-05-02T17:58:26.000Z</time>
      </trkpt>
      <trkpt lat="43.63178" lon="1.30185">
        <ele>154</ele>
        <time>2018-05-02T17:58:28.000Z</time>
      </trkpt>
      <trkpt lat="43.63175" lon="1.3018">
        <ele>154</ele>
        <time>2018-05-02T17:58:30.000Z</time>
      </trkpt>
      <trkpt lat="43.63172" lon="1.30178">
        <ele>154</ele>
        <time>2018-05-02T17:58:32.000Z</time>
      </trkpt>
      <trkpt lat="43.6317" lon="1.30175">
        <ele>154</ele>
        <time>2018-05-02T17:58:34.000Z</time>
      </trkpt>
      <trkpt lat="43.63167" lon="1.30173">
        <ele>154</ele>
        <time>2018-05-02T17:58:36.000Z</time>
      </trkpt>
      <trkpt lat="43.63165" lon="1.3017">
        <ele>154</ele>
        <time>2018-05-02T17:58:38.000Z</time>
      </trkpt>
      <trkpt lat="43.63161" lon="1.30168">
        <ele>154</ele>
        <time>2018-05-02T17:58:40.000Z</time>
      </trkpt>
      <trkpt lat="43.63159" lon="1.30163">
        <ele>154</ele>
        <time>2018-05-02T17:58:42.000Z</time>
      </trkpt>
      <trkpt lat="43.63156" lon="1.30158">
        <ele>154</ele>
        <time>2018-05-02T17:58:44.000Z</time>
      </trkpt>
      <trkpt lat="43.63153" lon="1.30155">
        <ele>155</ele>
        <time>2018-05-02T17:58:46.000Z</time>
      </trkpt>
      <trkpt lat="43.63151" lon="1.30151">
        <ele>155</ele>
        <time>2018-05-02T17:58:48.000Z</time>
      </trkpt>
      <trkpt lat="43.63148" lon="1.30148">
        <ele>155</ele>
        <time>2018-05-02T17:58:50.000Z</time>
      </trkpt>
      <trkpt lat="43.63145" lon="1.30146">
        <ele>155</ele>
        <time>2018-05-02T17:58:52.000Z</time>
      </trkpt>
      <trkpt lat="43.63141" lon="1.30143">
        <ele>154</ele>
        <time>2018-05-02T17:58:54.000Z</time>
      </trkpt>
      <trkpt lat="43.63138" lon="1.30141">
        <ele>154</ele>
        <time>2018-05-02T17:58:56.000Z</time>
      </trkpt>
      <trkpt lat="43.63135" lon="1.30139">
        <ele>154</ele>
        <time>2018-05-02T17:58:58.000Z</time>
      </trkpt>
      <trkpt lat="43.63132" lon="1.30136">
        <ele>154</ele>
        <time>2018-05-02T17:59:00.000Z</time>
      </trkpt>
      <trkpt lat="43.63129" lon="1.30133">
        <ele>154</ele>
        <time>2018-05-02T17:59:02.000Z</time>
      </trkpt>
      <trkpt lat="43.63126" lon="1.3013">
        <ele>154</ele>
        <time>2018-05-02T17:59:04.000Z</time>
      </trkpt>
      <trkpt lat="43.63123" lon="1.30128">
        <ele>153</ele>
        <time>2018-05-02T17:59:06.000Z</time>
      </trkpt>
      <trkpt lat="43.6312" lon="1.30126">
        <ele>153</ele>
        <time>2018-05-02T17:59:08.000Z</time>
      </trkpt>
      <trkpt lat="43.63117" lon="1.30124">
        <ele>153</ele>
        <time>2018-05-02T17:59:10.000Z</time>
      </trkpt>
      <trkpt lat="43.63114" lon="1.30122">
        <ele>153</ele>
        <time>2018-05-02T17:59:12.000Z</time>
      </trkpt>
      <trkpt lat="43.6311" lon="1.30121">
        <ele>153</ele>
        <time>2018-05-02T17:59:14.000Z</time>
      </trkpt>
      <trkpt lat="43.63107" lon="1.30118">
        <ele>152</ele>
        <time>2018-05-02T17:59:16.000Z</time>
      </trkpt>
      <trkpt lat="43.63105" lon="1.30114">
        <ele>152</ele>
        <time>2018-05-02T17:59:18.000Z</time>
      </trkpt>
      <trkpt lat="43.63102" lon="1.3011">
        <ele>152</ele>
        <time>2018-05-02T17:59:20.000Z</time>
      </trkpt>
      <trkpt lat="43.63099" lon="1.30106">
        <ele>152</ele>
        <time>2018-05-02T17:59:22.000Z</time>
      </trkpt>
      <trkpt lat="43.63096" lon="1.30101">
        <ele>152</ele>
        <time>2018-05-02T17:59:24.000Z</time>
      </trkpt>
      <trkpt lat="43.63093" lon="1.30097">
        <ele>152</ele>
        <time>2018-05-02T17:59:26.000Z</time>
      </trkpt>
      <trkpt lat="43.63091" lon="1.30093">
        <ele>152</ele>
        <time>2018-05-02T17:59:28.000Z</time>
      </trkpt>
      <trkpt lat="43.63088" lon="1.30089">
        <ele>152</ele>
        <time>2018-05-02T17:59:30.000Z</time>
      </trkpt>
      <trkpt lat="43.63085" lon="1.30085">
        <ele>152</ele>
        <time>2018-05-02T17:59:32.000Z</time>
      </trkpt>
      <trkpt lat="43.63082" lon="1.30082">
        <ele>152</ele>
        <time>2018-05-02T17:59:34.000Z</time>
      </trkpt>
      <trkpt lat="43.6308" lon="1.30079">
        <ele>152</ele>
        <time>2018-05-02T17:59:36.000Z</time>
      </trkpt>
      <trkpt lat="43.63077" lon="1.30076">
        <ele>152</ele>
        <time>2018-05-02T17:59:38.000Z</time>
      </trkpt>
      <trkpt lat="43.63074" lon="1.30074">
        <ele>152</ele>
        <time>2018-05-02T17:59:40.000Z</time>
      </trkpt>
      <trkpt lat="43.63071" lon="1.30071">
        <ele>152</ele>
        <time>2018-05-02T17:59:42.000Z</time>
      </trkpt>
      <trkpt lat="43.63068" lon="1.30067">
        <ele>152</ele>
        <time>2018-05-02T17:59:44.000Z</time>
      </trkpt>
      <trkpt lat="43.63065" lon="1.30064">
        <ele>152</ele>
        <time>2018-05-02T17:59:46.000Z</time>
      </trkpt>
      <trkpt lat="43.63062" lon="1.30061">
        <ele>152</ele>
        <time>2018-05-02T17:59:48.000Z</time>
      </trkpt>
      <trkpt lat="43.63059" lon="1.30059">
        <ele>151</ele>
        <time>2018-05-02T17:59:50.000Z</time>
      </trkpt>
      <trkpt lat="43.63056" lon="1.30056">
        <ele>151</ele>
        <time>2018-05-02T17:59:52.000Z</time>
      </trkpt>
      <trkpt lat="43.63053" lon="1.30053">
        <ele>151</ele>
        <time>2018-05-02T17:59:54.000Z</time>
      </trkpt>
      <trkpt lat="43.6305" lon="1.3005">
        <ele>151</ele>
        <time>2018-05-02T17:59:56.000Z</time>
      </trkpt>
      <trkpt lat="43.63047" lon="1.30048">
        <ele>151</ele>
        <time>2018-05-02T17:59:58.000Z</time>
      </trkpt>
      <trkpt lat="43.63044" lon="1.30045">
        <ele>151</ele>
        <time>2018-05-02T18:00:00.000Z</time>
      </trkpt>
      <trkpt lat="43.63041" lon="1.30042">
        <ele>151</ele>
        <time>2018-05-02T18:00:02.000Z</time>
      </trkpt>
      <trkpt lat="43.63038" lon="1.3004">
        <ele>150</ele>
        <time>2018-05-02T18:00:04.000Z</time>
      </trkpt>
      <trkpt lat="43.63035" lon="1.30039">
        <ele>150</ele>
        <time>2018-05-02T18:00:06.000Z</time>
      </trkpt>
      <trkpt lat="43.63031" lon="1.30039">
        <ele>150</ele>
        <time>2018-05-02T18:00:08.000Z</time>
      </trkpt>
      <trkpt lat="43.63028" lon="1.30039">
        <ele>150</ele>
        <time>2018-05-02T18:00:10.000Z</time>
      </trkpt>
      <trkpt lat="43.63024" lon="1.30038">
        <ele>150</ele>
        <time>2018-05-02T18:00:12.000Z</time>
      </trkpt>
      <trkpt lat="43.63021" lon="1.30038">
        <ele>149</ele>
        <time>2018-05-02T18:00:14.000Z</time>
      </trkpt>
      <trkpt lat="43.63017" lon="1.30038">
        <ele>149</ele>
        <time>2018-05-02T18:00:16.000Z</time>
      </trkpt>
      <trkpt lat="43.63013" lon="1.30038">
        <ele>149</ele>
        <time>2018-05-02T18:00:18.000Z</time>
      </trkpt>
      <trkpt lat="43.63009" lon="1.30039">
        <ele>149</ele>
        <time>2018-05-02T18:00:20.000Z</time>
      </trkpt>
      <trkpt lat="43.63005" lon="1.3004">
        <ele>149</ele>
        <time>2018-05-02T18:00:22.000Z</time>
      </trkpt>
      <trkpt lat="43.63002" lon="1.30041">
        <ele>149</ele>
        <time>2018-05-02T18:00:24.000Z</time>
      </trkpt>
      <trkpt lat="43.62999" lon="1.30042">
        <ele>149</ele>
        <time>2018-05-02T18:00:26.000Z</time>
      </trkpt>
      <trkpt lat="43.62995" lon="1.30043">
        <ele>150</ele>
        <time>2018-05-02T18:00:28.000Z</time>
      </trkpt>
      <trkpt lat="43.62992" lon="1.30044">
        <ele>150</ele>
        <time>2018-05-02T18:00:30.000Z</time>
      </trkpt>
      <trkpt lat="43.62988" lon="1.30046">
        <ele>150</ele>
        <time>2018-05-02T18:00:32.000Z</time>
      </trkpt>
      <trkpt lat="43.62985" lon="1.30046">
        <ele>150</ele>
        <time>2018-05-02T18:00:34.000Z</time>
      </trkpt>
      <trkpt lat="43.62982" lon="1.30047">
        <ele>150</ele>
        <time>2018-05-02T18:00:36.000Z</time>
      </trkpt>
      <trkpt lat="43.62978" lon="1.30047">
        <ele>150</ele>
        <time>2018-05-02T18:00:38.000Z</time>
      </trkpt>
      <trkpt lat="43.62975" lon="1.30048">
        <ele>150</ele>
        <time>2018-05-02T18:00:40.000Z</time>
      </trkpt>
      <trkpt lat="43.62971" lon="1.30049">
        <ele>150</ele>
        <time>2018-05-02T18:00:42.000Z</time>
      </trkpt>
      <trkpt lat="43.62968" lon="1.3005">
        <ele>150</ele>
        <time>2018-05-02T18:00:44.000Z</time>
      </trkpt>
      <trkpt lat="43.62964" lon="1.30051">
        <ele>150</ele>
        <time>2018-05-02T18:00:46.000Z</time>
      </trkpt>
      <trkpt lat="43.6296" lon="1.30052">
        <ele>150</ele>
        <time>2018-05-02T18:00:48.000Z</time>
      </trkpt>
      <trkpt lat="43.62957" lon="1.30052">
        <ele>150</ele>
        <time>2018-05-02T18:00:50.000Z</time>
      </trkpt>
      <trkpt lat="43.62953" lon="1.30053">
        <ele>150</ele>
        <time>2018-05-02T18:00:52.000Z</time>
      </trkpt>
      <trkpt lat="43.6295" lon="1.30054">
        <ele>150</ele>
        <time>2018-05-02T18:00:54.000Z</time>
      </trkpt>
      <trkpt lat="43.62946" lon="1.30056">
        <ele>150</ele>
        <time>2018-05-02T18:00:56.000Z</time>
      </trkpt>
      <trkpt lat="43.62943" lon="1.30059">
        <ele>150</ele>
        <time>2018-05-02T18:00:58.000Z</time>
      </trkpt>
      <trkpt lat="43.62939" lon="1.30061">
        <ele>150</ele>
        <time>2018-05-02T18:01:00.000Z</time>
      </trkpt>
      <trkpt lat="43.62935" lon="1.30062">
        <ele>150</ele>
        <time>2018-05-02T18:01:02.000Z</time>
      </trkpt>
      <trkpt lat="43.62932" lon="1.30064">
        <ele>150</ele>
        <time>2018-05-02T18:01:04.000Z</time>
      </trkpt>
      <trkpt lat="43.62928" lon="1.30065">
        <ele>150</ele>
        <time>2018-05-02T18:01:06.000Z</time>
      </trkpt>
      <trkpt lat="43.62925" lon="1.30066">
        <ele>150</ele>
        <time>2018-05-02T18:01:08.000Z</time>
      </trkpt>
      <trkpt lat="43.62921" lon="1.30066">
        <ele>150</ele>
        <time>2018-05-02T18:01:10.000Z</time>
      </trkpt>
      <trkpt lat="43.62918" lon="1.30065">
        <ele>150</ele>
        <time>2018-05-02T18:01:12.000Z</time>
      </trkpt>
      <trkpt lat="43.62914" lon="1.30065">
        <ele>150</ele>
        <time>2018-05-02T18:01:14.000Z</time>
      </trkpt>
      <trkpt lat="43.62911" lon="1.30064">
        <ele>150</ele>
        <time>2018-05-02T18:01:16.000Z</time>
      </trkpt>
      <trkpt lat="43.62907" lon="1.30063">
        <ele>150</ele>
        <time>2018-05-02T18:01:18.000Z</time>
      </trkpt>
      <trkpt lat="43.62903" lon="1.30062">
        <ele>150</ele>
        <time>2018-05-02T18:01:20.000Z</time>
      </trkpt>
      <trkpt lat="43.629" lon="1.3006">
        <ele>150</ele>
        <time>2018-05-02T18:01:22.000Z</time>
      </trkpt>
      <trkpt lat="43.62896" lon="1.30058">
        <ele>150</ele>
        <time>2018-05-02T18:01:24.000Z</time>
      </trkpt>
      <trkpt lat="43.62893" lon="1.30056">
        <ele>151</ele>
        <time>2018-05-02T18:01:26.000Z</time>
      </trkpt>
      <trkpt lat="43.62889" lon="1.30055">
        <ele>151</ele>
        <time>2018-05-02T18:01:28.000Z</time>
      </trkpt>
      <trkpt lat="43.62886" lon="1.30054">
        <ele>151</ele>
        <time>2018-05-02T18:01:30.000Z</time>
      </trkpt>
      <trkpt lat="43.62882" lon="1.30052">
        <ele>151</ele>
        <time>2018-05-02T18:01:32.000Z</time>
      </trkpt>
      <trkpt lat="43.62879" lon="1.30051">
        <ele>151</ele>
        <time>2018-05-02T18:01:34.000Z</time>
      </trkpt>
      <trkpt lat="43.62875" lon="1.30049">
        <ele>151</ele>
        <time>2018-05-02T18:01:36.000Z</time>
      </trkpt>
      <trkpt lat="43.62872" lon="1.30048">
        <ele>151</ele>
        <time>2018-05-02T18:01:38.000Z</time>
      </trkpt>
      <trkpt lat="43.62869" lon="1.30047">
        <ele>151</ele>
        <time>2018-05-02T18:01:40.000Z</time>
      </trkpt>
      <trkpt lat="43.62865" lon="1.30046">
        <ele>151</ele>
        <time>2018-05-02T18:01:42.000Z</time>
      </trkpt>
      <trkpt lat="43.62862" lon="1.30044">
        <ele>151</ele>
        <time>2018-05-02T18:01:44.000Z</time>
      </trkpt>
      <trkpt lat="43.62859" lon="1.30042">
        <ele>151</ele>
        <time>2018-05-02T18:01:46.000Z</time>
      </trkpt>
      <trkpt lat="43.62855" lon="1.30041">
        <ele>151</ele>
        <time>2018-05-02T18:01:48.000Z</time>
      </trkpt>
      <trkpt lat="43.62852" lon="1.30039">
        <ele>151</ele>
        <time>2018-05-02T18:01:50.000Z</time>
      </trkpt>
      <trkpt lat="43.62849" lon="1.30038">
        <ele>151</ele>
        <time>2018-05-02T18:01:52.000Z</time>
      </trkpt>
      <trkpt lat="43.62846" lon="1.30035">
        <ele>151</ele>
        <time>2018-05-02T18:01:54.000Z</time>
      </trkpt>
      <trkpt lat="43.62843" lon="1.30033">
        <ele>151</ele>
        <time>2018-05-02T18:01:56.000Z</time>
      </trkpt>
      <trkpt lat="43.6284" lon="1.30031">
        <ele>151</ele>
        <time>2018-05-02T18:01:58.000Z</time>
      </trkpt>
      <trkpt lat="43.62837" lon="1.30029">
        <ele>151</ele>
        <time>2018-05-02T18:02:00.000Z</time>
      </trkpt>
      <trkpt lat="43.62834" lon="1.30027">
        <ele>151</ele>
        <time>2018-05-02T18:02:02.000Z</time>
      </trkpt>
      <trkpt lat="43.62831" lon="1.30026">
        <ele>151</ele>
        <time>2018-05-02T18:02:04.000Z</time>
      </trkpt>
      <trkpt lat="43.62828" lon="1.30025">
        <ele>151</ele>
        <time>2018-05-02T18:02:06.000Z</time>
      </trkpt>
      <trkpt lat="43.62825" lon="1.30026">
        <ele>151</ele>
        <time>2018-05-02T18:02:08.000Z</time>
      </trkpt>
      <trkpt lat="43.62822" lon="1.30028">
        <ele>151</ele>
        <time>2018-05-02T18:02:10.000Z</time>
      </trkpt>
      <trkpt lat="43.62819" lon="1.3003">
        <ele>151</ele>
        <time>2018-05-02T18:02:12.000Z</time>
      </trkpt>
      <trkpt lat="43.62817" lon="1.30034">
        <ele>151</ele>
        <time>2018-05-02T18:02:14.000Z</time>
      </trkpt>
      <trkpt lat="43.62815" lon="1.30038">
        <ele>151</ele>
        <time>2018-05-02T18:02:16.000Z</time>
      </trkpt>
      <trkpt lat="43.62813" lon="1.30042">
        <ele>151</ele>
        <time>2018-05-02T18:02:18.000Z</time>
      </trkpt>
      <trkpt lat="43.62812" lon="1.30046">
        <ele>152</ele>
        <time>2018-05-02T18:02:20.000Z</time>
      </trkpt>
      <trkpt lat="43.6281" lon="1.3005">
        <ele>152</ele>
        <time>2018-05-02T18:02:22.000Z</time>
      </trkpt>
      <trkpt lat="43.62809" lon="1.30054">
        <ele>152</ele>
        <time>2018-05-02T18:02:24.000Z</time>
      </trkpt>
      <trkpt lat="43.62807" lon="1.30058">
        <ele>152</ele>
        <time>2018-05-02T18:02:26.000Z</time>
      </trkpt>
      <trkpt lat="43.62806" lon="1.30062">
        <ele>152</ele>
        <time>2018-05-02T18:02:28.000Z</time>
      </trkpt>
      <trkpt lat="43.62804" lon="1.30066">
        <ele>152</ele>
        <time>2018-05-02T18:02:30.000Z</time>
      </trkpt>
      <trkpt lat="43.62803" lon="1.3007">
        <ele>152</ele>
        <time>2018-05-02T18:02:32.000Z</time>
      </trkpt>
      <trkpt lat="43.62802" lon="1.30075">
        <ele>152</ele>
        <time>2018-05-02T18:02:34.000Z</time>
      </trkpt>
      <trkpt lat="43.62801" lon="1.30079">
        <ele>152</ele>
        <time>2018-05-02T18:02:36.000Z</time>
      </trkpt>
      <trkpt lat="43.62799" lon="1.30083">
        <ele>152</ele>
        <time>2018-05-02T18:02:38.000Z</time>
      </trkpt>
      <trkpt lat="43.62798" lon="1.30088">
        <ele>152</ele>
        <time>2018-05-02T18:02:40.000Z</time>
      </trkpt>
      <trkpt lat="43.62796" lon="1.30092">
        <ele>152</ele>
        <time>2018-05-02T18:02:42.000Z</time>
      </trkpt>
      <trkpt lat="43.62794" lon="1.30097">
        <ele>152</ele>
        <time>2018-05-02T18:02:44.000Z</time>
      </trkpt>
      <trkpt lat="43.62793" lon="1.301">
        <ele>152</ele>
        <time>2018-05-02T18:02:46.000Z</time>
      </trkpt>
      <trkpt lat="43.62791" lon="1.30104">
        <ele>152</ele>
        <time>2018-05-02T18:02:48.000Z</time>
      </trkpt>
      <trkpt lat="43.62789" lon="1.30108">
        <ele>152</ele>
        <time>2018-05-02T18:02:50.000Z</time>
      </trkpt>
      <trkpt lat="43.62787" lon="1.30112">
        <ele>152</ele>
        <time>2018-05-02T18:02:52.000Z</time>
      </trkpt>
      <trkpt lat="43.62786" lon="1.30116">
        <ele>152</ele>
        <time>2018-05-02T18:02:54.000Z</time>
      </trkpt>
      <trkpt lat="43.62784" lon="1.30121">
        <ele>152</ele>
        <time>2018-05-02T18:02:56.000Z</time>
      </trkpt>
      <trkpt lat="43.62783" lon="1.30125">
        <ele>152</ele>
        <time>2018-05-02T18:02:58.000Z</time>
      </trkpt>
      <trkpt lat="43.62782" lon="1.30129">
        <ele>152</ele>
        <time>2018-05-02T18:03:00.000Z</time>
      </trkpt>
      <trkpt lat="43.6278" lon="1.30133">
        <ele>152</ele>
        <time>2018-05-02T18:03:02.000Z</time>
      </trkpt>
      <trkpt lat="43.62779" lon="1.30137">
        <ele>152</ele>
        <time>2018-05-02T18:03:04.000Z</time>
      </trkpt>
      <trkpt lat="43.62779" lon="1.30141">
        <ele>152</ele>
        <time>2018-05-02T18:03:06.000Z</time>
      </trkpt>
      <trkpt lat="43.62778" lon="1.30145">
        <ele>152</ele>
        <time>2018-05-02T18:03:08.000Z</time>
      </trkpt>
      <trkpt lat="43.62776" lon="1.30147">
        <ele>152</ele>
        <time>2018-05-02T18:03:10.000Z</time>
      </trkpt>
      <trkpt lat="43.62774" lon="1.30149">
        <ele>152</ele>
        <time>2018-05-02T18:03:12.000Z</time>
      </trkpt>
      <trkpt lat="43.62773" lon="1.30152">
        <ele>152</ele>
        <time>2018-05-02T18:03:14.000Z</time>
      </trkpt>
      <trkpt lat="43.62771" lon="1.30155">
        <ele>152</ele>
        <time>2018-05-02T18:03:16.000Z</time>
      </trkpt>
      <trkpt lat="43.62769" lon="1.30157">
        <ele>152</ele>
        <time>2018-05-02T18:03:18.000Z</time>
      </trkpt>
      <trkpt lat="43.62767" lon="1.3016">
        <ele>152</ele>
        <time>2018-05-02T18:03:20.000Z</time>
      </trkpt>
      <trkpt lat="43.62766" lon="1.30162">
        <ele>152</ele>
        <time>2018-05-02T18:03:22.000Z</time>
      </trkpt>
      <trkpt lat="43.62764" lon="1.30164">
        <ele>152</ele>
        <time>2018-05-02T18:03:24.000Z</time>
      </trkpt>
      <trkpt lat="43.62763" lon="1.30166">
        <ele>152</ele>
        <time>2018-05-02T18:03:26.000Z</time>
      </trkpt>
      <trkpt lat="43.62762" lon="1.30168">
        <ele>152</ele>
        <time>2018-05-02T18:03:28.000Z</time>
      </trkpt>
      <trkpt lat="43.6276" lon="1.30169">
        <ele>152</ele>
        <time>2018-05-02T18:03:30.000Z</time>
      </trkpt>
      <trkpt lat="43.62759" lon="1.30171">
        <ele>152</ele>
        <time>2018-05-02T18:03:32.000Z</time>
      </trkpt>
      <trkpt lat="43.62758" lon="1.30173">
        <ele>152</ele>
        <time>2018-05-02T18:03:34.000Z</time>
      </trkpt>
      <trkpt lat="43.62757" lon="1.30175">
        <ele>152</ele>
        <time>2018-05-02T18:03:36.000Z</time>
      </trkpt>
      <trkpt lat="43.62755" lon="1.30177">
        <ele>152</ele>
        <time>2018-05-02T18:03:38.000Z</time>
      </trkpt>
      <trkpt lat="43.62753" lon="1.30179">
        <ele>152</ele>
        <time>2018-05-02T18:03:40.000Z</time>
      </trkpt>
      <trkpt lat="43.62753" lon="1.30181">
        <ele>152</ele>
        <time>2018-05-02T18:03:42.000Z</time>
      </trkpt>
      <trkpt lat="43.62751" lon="1.30183">
        <ele>152</ele>
        <time>2018-05-02T18:03:44.000Z</time>
      </trkpt>
      <trkpt lat="43.62751" lon="1.30186">
        <ele>152</ele>
        <time>2018-05-02T18:03:46.000Z</time>
      </trkpt>
      <trkpt lat="43.6275" lon="1.30188">
        <ele>152</ele>
        <time>2018-05-02T18:03:48.000Z</time>
      </trkpt>
      <trkpt lat="43.62749" lon="1.3019">
        <ele>152</ele>
        <time>2018-05-02T18:03:50.000Z</time>
      </trkpt>
      <trkpt lat="43.62748" lon="1.30193">
        <ele>153</ele>
        <time>2018-05-02T18:03:52.000Z</time>
      </trkpt>
      <trkpt lat="43.62747" lon="1.30196">
        <ele>153</ele>
        <time>2018-05-02T18:03:54.000Z</time>
      </trkpt>
      <trkpt lat="43.62747" lon="1.30199">
        <ele>153</ele>
        <time>2018-05-02T18:03:56.000Z</time>
      </trkpt>
      <trkpt lat="43.62747" lon="1.30201">
        <ele>153</ele>
        <time>2018-05-02T18:03:58.000Z</time>
      </trkpt>
      <trkpt lat="43.62748" lon="1.30203">
        <ele>153</ele>
        <time>2018-05-02T18:04:00.000Z</time>
      </trkpt>
      <trkpt lat="43.62749" lon="1.30206">
        <ele>152</ele>
        <time>2018-05-02T18:04:02.000Z</time>
      </trkpt>
      <trkpt lat="43.62748" lon="1.30208">
        <ele>153</ele>
        <time>2018-05-02T18:04:04.000Z</time>
      </trkpt>
      <trkpt lat="43.62747" lon="1.30211">
        <ele>153</ele>
        <time>2018-05-02T18:04:06.000Z</time>
      </trkpt>
      <trkpt lat="43.62745" lon="1.30213">
        <ele>153</ele>
        <time>2018-05-02T18:04:08.000Z</time>
      </trkpt>
      <trkpt lat="43.62744" lon="1.30214">
        <ele>153</ele>
        <time>2018-05-02T18:04:10.000Z</time>
      </trkpt>
      <trkpt lat="43.62742" lon="1.30215">
        <ele>153</ele>
        <time>2018-05-02T18:04:12.000Z</time>
      </trkpt>
      <trkpt lat="43.62741" lon="1.30215">
        <ele>153</ele>
        <time>2018-05-02T18:04:14.000Z</time>
      </trkpt>
      <trkpt lat="43.62741" lon="1.30214">
        <ele>153</ele>
        <time>2018-05-02T18:04:16.000Z</time>
      </trkpt>
      <trkpt lat="43.62741" lon="1.30214">
        <ele>153</ele>
        <time>2018-05-02T18:04:18.000Z</time>
      </trkpt>
      <trkpt lat="43.62741" lon="1.30213">
        <ele>153</ele>
        <time>2018-05-02T18:04:20.000Z</time>
      </trkpt>
      <trkpt lat="43.62741" lon="1.30213">
        <ele>153</ele>
        <time>2018-05-02T18:04:22.000Z</time>
      </trkpt>
      <trkpt lat="43.62741" lon="1.30212">
        <ele>153</ele>
        <time>2018-05-02T18:04:24.000Z</time>
      </trkpt>
      <trkpt lat="43.62741" lon="1.30211">
        <ele>153</ele>
        <time>2018-05-02T18:04:26.000Z</time>
      </trkpt>
      <trkpt lat="43.6274" lon="1.3021">
        <ele>153</ele>
        <time>2018-05-02T18:04:28.000Z</time>
      </trkpt>
      <trkpt lat="43.6274" lon="1.3021">
        <ele>153</ele>
        <time>2018-05-02T18:04:30.000Z</time>
      </trkpt>
      <trkpt lat="43.6274" lon="1.3021">
        <ele>153</ele>
        <time>2018-05-02T18:04:32.000Z</time>
      </trkpt>
      <trkpt lat="43.6274" lon="1.30209">
        <ele>153</ele>
        <time>2018-05-02T18:04:34.000Z</time>
      </trkpt>
      <trkpt lat="43.6274" lon="1.30209">
        <ele>153</ele>
        <time>2018-05-02T18:04:36.000Z</time>
      </trkpt>
      <trkpt lat="43.6274" lon="1.30208">
        <ele>153</ele>
        <time>2018-05-02T18:04:38.000Z</time>
      </trkpt>
      <trkpt lat="43.6274" lon="1.30208">
        <ele>153</ele>
        <time>2018-05-02T18:04:40.000Z</time>
      </trkpt>
      <trkpt lat="43.6274" lon="1.30208">
        <ele>153</ele>
        <time>2018-05-02T18:04:42.000Z</time>
      </trkpt>
      <trkpt lat="43.6274" lon="1.30208">
        <ele>153</ele>
        <time>2018-05-02T18:04:44.000Z</time>
      </trkpt>
      <trkpt lat="43.62739" lon="1.30209">
        <ele>153</ele>
        <time>2018-05-02T18:04:46.000Z</time>
      </trkpt>
      <trkpt lat="43.62739" lon="1.30209">
        <ele>153</ele>
        <time>2018-05-02T18:04:48.000Z</time>
      </trkpt>
      <trkpt lat="43.62739" lon="1.3021">
        <ele>153</ele>
        <time>2018-05-02T18:04:50.000Z</time>
      </trkpt>
      <trkpt lat="43.6274" lon="1.3021">
        <ele>153</ele>
        <time>2018-05-02T18:04:52.000Z</time>
      </trkpt>
      <trkpt lat="43.62739" lon="1.30211">
        <ele>153</ele>
        <time>2018-05-02T18:04:54.000Z</time>
      </trkpt>
      <trkpt lat="43.62739" lon="1.30211">
        <ele>153</ele>
        <time>2018-05-02T18:04:56.000Z</time>
      </trkpt>
      <trkpt lat="43.62739" lon="1.30211">
        <ele>153</ele>
        <time>2018-05-02T18:04:58.000Z</time>
      </trkpt>
      <trkpt lat="43.62739" lon="1.30211">
        <ele>153</ele>
        <time>2018-05-02T18:05:00.000Z</time>
      </trkpt>
      <trkpt lat="43.62739" lon="1.30211">
        <ele>153</ele>
        <time>2018-05-02T18:05:02.000Z</time>
      </trkpt>
      <trkpt lat="43.62739" lon="1.30211">
        <ele>153</ele>
        <time>2018-05-02T18:05:04.000Z</time>
      </trkpt>
      <trkpt lat="43.6274" lon="1.30212">
        <ele>153</ele>
        <time>2018-05-02T18:05:06.000Z</time>
      </trkpt>
      <trkpt lat="43.62739" lon="1.30212">
        <ele>153</ele>
        <time>2018-05-02T18:05:08.000Z</time>
      </trkpt>
      <trkpt lat="43.62739" lon="1.30212">
        <ele>153</ele>
        <time>2018-05-02T18:05:10.000Z</time>
      </trkpt>
      <trkpt lat="43.62739" lon="1.30212">
        <ele>153</ele>
        <time>2018-05-02T18:05:12.000Z</time>
      </trkpt>
      <trkpt lat="43.6274" lon="1.30213">
        <ele>153</ele>
        <time>2018-05-02T18:05:14.000Z</time>
      </trkpt>
      <trkpt lat="43.6274" lon="1.30213">
        <ele>153</ele>
        <time>2018-05-02T18:05:16.000Z</time>
      </trkpt>
      <trkpt lat="43.6274" lon="1.30213">
        <ele>153</ele>
        <time>2018-05-02T18:05:18.000Z</time>
      </trkpt>
      <trkpt lat="43.6274" lon="1.30213">
        <ele>153</ele>
        <time>2018-05-02T18:05:20.000Z</time>
      </trkpt>
      <trkpt lat="43.6274" lon="1.30213">
        <ele>153</ele>
        <time>2018-05-02T18:05:22.000Z</time>
      </trkpt>
      <trkpt lat="43.6274" lon="1.30213">
        <ele>153</ele>
        <time>2018-05-02T18:05:24.000Z</time>
      </trkpt>
      <trkpt lat="43.6274" lon="1.30213">
        <ele>153</ele>
        <time>2018-05-02T18:05:26.000Z</time>
      </trkpt>
      <trkpt lat="43.6274" lon="1.30214">
        <ele>153</ele>
        <time>2018-05-02T18:05:28.000Z</time>
      </trkpt>
      <trkpt lat="43.6274" lon="1.30214">
        <ele>153</ele>
        <time>2018-05-02T18:05:30.000Z</time>
      </trkpt>
      <trkpt lat="43.6274" lon="1.30214">
        <ele>153</ele>
        <time>2018-05-02T18:05:32.000Z</time>
      </trkpt>
      <trkpt lat="43.6274" lon="1.30214">
        <ele>153</ele>
        <time>2018-05-02T18:05:34.000Z</time>
      </trkpt>
      <trkpt lat="43.62741" lon="1.30214">
        <ele>153</ele>
        <time>2018-05-02T18:05:36.000Z</time>
      </trkpt>
      <trkpt lat="43.6274" lon="1.30213">
        <ele>153</ele>
        <time>2018-05-02T18:05:38.000Z</time>
      </trkpt>
      <trkpt lat="43.6274" lon="1.30213">
        <ele>153</ele>
        <time>2018-05-02T18:05:40.000Z</time>
      </trkpt>
      <trkpt lat="43.6274" lon="1.30214">
        <ele>153</ele>
        <time>2018-05-02T18:05:42.000Z</time>
      </trkpt>
      <trkpt lat="43.6274" lon="1.30214">
        <ele>153</ele>
        <time>2018-05-02T18:05:44.000Z</time>
      </trkpt>
      <trkpt lat="43.6274" lon="1.30214">
        <ele>153</ele>
        <time>2018-05-02T18:05:46.000Z</time>
      </trkpt>
      <trkpt lat="43.62741" lon="1.30213">
        <ele>153</ele>
        <time>2018-05-02T18:05:48.000Z</time>
      </trkpt>
      <trkpt lat="43.62741" lon="1.30213">
        <ele>153</ele>
        <time>2018-05-02T18:05:50.000Z</time>
      </trkpt>
      <trkpt lat="43.62741" lon="1.30213">
        <ele>153</ele>
        <time>2018-05-02T18:05:52.000Z</time>
      </trkpt>
      <trkpt lat="43.62741" lon="1.30213">
        <ele>153</ele>
        <time>2018-05-02T18:05:54.000Z</time>
      </trkpt>
      <trkpt lat="43.62741" lon="1.30214">
        <ele>153</ele>
        <time>2018-05-02T18:05:56.000Z</time>
      </trkpt>
      <trkpt lat="43.62741" lon="1.30214">
        <ele>153</ele>
        <time>2018-05-02T18:05:58.000Z</time>
      </trkpt>
      <trkpt lat="43.62741" lon="1.30214">
        <ele>153</ele>
        <time>2018-05-02T18:06:00.000Z</time>
      </trkpt>
      <trkpt lat="43.62741" lon="1.30213">
        <ele>153</ele>
        <time>2018-05-02T18:06:02.000Z</time>
      </trkpt>
      <trkpt lat="43.62741" lon="1.30213">
        <ele>153</ele>
        <time>2018-05-02T18:06:04.000Z</time>
      </trkpt>
      <trkpt lat="43.62741" lon="1.30213">
        <ele>153</ele>
        <time>2018-05-02T18:06:06.000Z</time>
      </trkpt>
      <trkpt lat="43.62741" lon="1.30214">
        <ele>153</ele>
        <time>2018-05-02T18:06:08.000Z</time>
      </trkpt>
      <trkpt lat="43.62741" lon="1.30213">
        <ele>153</ele>
        <time>2018-05-02T18:06:10.000Z</time>
      </trkpt>
      <trkpt lat="43.62741" lon="1.30214">
        <ele>153</ele>
        <time>2018-05-02T18:06:12.000Z</time>
      </trkpt>
      <trkpt lat="43.62741" lon="1.30213">
        <ele>153</ele>
        <time>2018-05-02T18:06:14.000Z</time>
      </trkpt>
      <trkpt lat="43.6274" lon="1.30214">
        <ele>153</ele>
        <time>2018-05-02T18:06:16.000Z</time>
      </trkpt>
      <trkpt lat="43.62741" lon="1.30214">
        <ele>153</ele>
        <time>2018-05-02T18:06:18.000Z</time>
      </trkpt>
      <trkpt lat="43.62741" lon="1.30214">
        <ele>153</ele>
        <time>2018-05-02T18:06:20.000Z</time>
      </trkpt>
      <trkpt lat="43.62741" lon="1.30214">
        <ele>153</ele>
        <time>2018-05-02T18:06:22.000Z</time>
      </trkpt>
      <trkpt lat="43.62741" lon="1.30214">
        <ele>153</ele>
        <time>2018-05-02T18:06:24.000Z</time>
      </trkpt>
      <trkpt lat="43.6274" lon="1.30215">
        <ele>153</ele>
        <time>2018-05-02T18:06:26.000Z</time>
      </trkpt>
      <trkpt lat="43.6274" lon="1.30215">
        <ele>153</ele>
        <time>2018-05-02T18:06:28.000Z</time>
      </trkpt>
      <trkpt lat="43.6274" lon="1.30214">
        <ele>153</ele>
        <time>2018-05-02T18:06:30.000Z</time>
      </trkpt>
      <trkpt lat="43.6274" lon="1.30214">
        <ele>153</ele>
        <time>2018-05-02T18:06:32.000Z</time>
      </trkpt>
      <trkpt lat="43.6274" lon="1.30214">
        <ele>153</ele>
        <time>2018-05-02T18:06:34.000Z</time>
      </trkpt>
      <trkpt lat="43.6274" lon="1.30214">
        <ele>153</ele>
        <time>2018-05-02T18:06:36.000Z</time>
      </trkpt>
      <trkpt lat="43.6274" lon="1.30214">
        <ele>153</ele>
        <time>2018-05-02T18:06:38.000Z</time>
      </trkpt>
      <trkpt lat="43.62741" lon="1.30214">
        <ele>153</ele>
        <time>2018-05-02T18:06:40.000Z</time>
      </trkpt>
      <trkpt lat="43.62741" lon="1.30213">
        <ele>153</ele>
        <time>2018-05-02T18:06:42.000Z</time>
      </trkpt>
      <trkpt lat="43.62741" lon="1.30212">
        <ele>153</ele>
        <time>2018-05-02T18:06:44.000Z</time>
      </trkpt>
      <trkpt lat="43.62741" lon="1.30212">
        <ele>153</ele>
        <time>2018-05-02T18:06:46.000Z</time>
      </trkpt>
      <trkpt lat="43.62742" lon="1.30212">
        <ele>153</ele>
        <time>2018-05-02T18:06:48.000Z</time>
      </trkpt>
      <trkpt lat="43.62742" lon="1.30213">
        <ele>153</ele>
        <time>2018-05-02T18:06:50.000Z</time>
      </trkpt>
      <trkpt lat="43.62742" lon="1.30213">
        <ele>153</ele>
        <time>2018-05-02T18:06:52.000Z</time>
      </trkpt>
      <trkpt lat="43.62742" lon="1.30213">
        <ele>153</ele>
        <time>2018-05-02T18:06:54.000Z</time>
      </trkpt>
      <trkpt lat="43.62742" lon="1.30214">
        <ele>153</ele>
        <time>2018-05-02T18:06:56.000Z</time>
      </trkpt>
      <trkpt lat="43.62742" lon="1.30213">
        <ele>153</ele>
        <time>2018-05-02T18:06:58.000Z</time>
      </trkpt>
      <trkpt lat="43.62742" lon="1.30213">
        <ele>153</ele>
        <time>2018-05-02T18:07:00.000Z</time>
      </trkpt>
      <trkpt lat="43.62742" lon="1.30213">
        <ele>153</ele>
        <time>2018-05-02T18:07:02.000Z</time>
      </trkpt>
      <trkpt lat="43.62742" lon="1.30213">
        <ele>153</ele>
        <time>2018-05-02T18:07:04.000Z</time>
      </trkpt>
      <trkpt lat="43.62742" lon="1.30213">
        <ele>153</ele>
        <time>2018-05-02T18:07:06.000Z</time>
      </trkpt>
      <trkpt lat="43.62741" lon="1.30213">
        <ele>153</ele>
        <time>2018-05-02T18:07:08.000Z</time>
      </trkpt>
      <trkpt lat="43.62742" lon="1.30214">
        <ele>153</ele>
        <time>2018-05-02T18:07:10.000Z</time>
      </trkpt>
      <trkpt lat="43.62742" lon="1.30214">
        <ele>153</ele>
        <time>2018-05-02T18:07:12.000Z</time>
      </trkpt>
      <trkpt lat="43.62742" lon="1.30215">
        <ele>153</ele>
        <time>2018-05-02T18:07:14.000Z</time>
      </trkpt>
      <trkpt lat="43.62742" lon="1.30215">
        <ele>153</ele>
        <time>2018-05-02T18:07:16.000Z</time>
      </trkpt>
      <trkpt lat="43.62743" lon="1.30215">
        <ele>153</ele>
        <time>2018-05-02T18:07:18.000Z</time>
      </trkpt>
      <trkpt lat="43.62743" lon="1.30215">
        <ele>153</ele>
        <time>2018-05-02T18:07:20.000Z</time>
      </trkpt>
      <trkpt lat="43.62743" lon="1.30215">
        <ele>153</ele>
        <time>2018-05-02T18:07:22.000Z</time>
      </trkpt>
      <trkpt lat="43.62744" lon="1.30215">
        <ele>153</ele>
        <time>2018-05-02T18:07:24.000Z</time>
      </trkpt>
      <trkpt lat="43.62743" lon="1.30214">
        <ele>153</ele>
        <time>2018-05-02T18:07:26.000Z</time>
      </trkpt>
      <trkpt lat="43.62743" lon="1.30214">
        <ele>153</ele>
        <time>2018-05-02T18:07:28.000Z</time>
      </trkpt>
      <trkpt lat="43.62742" lon="1.30213">
        <ele>153</ele>
        <time>2018-05-02T18:07:30.000Z</time>
      </trkpt>
      <trkpt lat="43.62743" lon="1.30213">
        <ele>153</ele>
        <time>2018-05-02T18:07:32.000Z</time>
      </trkpt>
      <trkpt lat="43.62743" lon="1.30214">
        <ele>153</ele>
        <time>2018-05-02T18:07:34.000Z</time>
      </trkpt>
    </trkseg>
  </trk>
</gpx>